<?xml version="1.0" encoding="UTF-8" standalone="yes"?>
<gpx xmlns="http://www.topografix.com/GPX/1/1" xmlns:gpxx="http://www.garmin.com/xmlschemas/GpxExtensions/v3" xmlns:rcxx="http://www.routeconverter.de/xmlschemas/RouteCatalogExtensions/1.0" version="1.1" creator="Generated by Christian Pesch's RouteConverter. See http://www.routeconverter.de">
    <trk>
        <name>Position 1 to Position 7887</name>
        <trkseg>
            <trkpt lon="-104.8713516" lat="38.85222328">
                <ele>1867.0</ele>
                <time>2008-06-25T14:24:22.000Z</time>
                <name>Position 1</name>
            </trkpt>
            <trkpt lon="-104.87130499" lat="38.85219657">
                <ele>1867.0</ele>
                <time>2008-06-25T14:24:32.000Z</time>
                <name>Position 2</name>
            </trkpt>
            <trkpt lon="-104.87129664" lat="38.8521899">
                <ele>1867.0</ele>
                <time>2008-06-25T14:24:33.000Z</time>
                <name>Position 3</name>
            </trkpt>
            <trkpt lon="-104.8712883" lat="38.85218322">
                <ele>1867.0</ele>
                <time>2008-06-25T14:24:34.000Z</time>
                <name>Position 4</name>
            </trkpt>
            <trkpt lon="-104.87127995" lat="38.852175">
                <ele>1867.0</ele>
                <time>2008-06-25T14:24:35.000Z</time>
                <name>Position 5</name>
            </trkpt>
            <trkpt lon="-104.87127161" lat="38.85216832">
                <ele>1867.0</ele>
                <time>2008-06-25T14:24:36.000Z</time>
                <name>Position 6</name>
            </trkpt>
            <trkpt lon="-104.87126327" lat="38.85216165">
                <ele>1867.0</ele>
                <time>2008-06-25T14:24:37.000Z</time>
                <name>Position 7</name>
            </trkpt>
            <trkpt lon="-104.87125492" lat="38.85215497">
                <ele>1867.0</ele>
                <time>2008-06-25T14:24:38.000Z</time>
                <name>Position 8</name>
            </trkpt>
            <trkpt lon="-104.87126827" lat="38.85213494">
                <ele>1867.0</ele>
                <time>2008-06-25T14:24:50.000Z</time>
                <name>Position 9</name>
            </trkpt>
            <trkpt lon="-104.87128663" lat="38.8521266">
                <ele>1867.0</ele>
                <time>2008-06-25T14:24:51.000Z</time>
                <name>Position 10</name>
            </trkpt>
            <trkpt lon="-104.87130332" lat="38.85211325">
                <ele>1867.0</ele>
                <time>2008-06-25T14:24:52.000Z</time>
                <name>Position 11</name>
            </trkpt>
            <trkpt lon="-104.87132156" lat="38.85209489">
                <ele>1867.0</ele>
                <time>2008-06-25T14:24:53.000Z</time>
                <name>Position 12</name>
            </trkpt>
            <trkpt lon="-104.87133992" lat="38.85207164">
                <ele>1866.0</ele>
                <time>2008-06-25T14:24:54.000Z</time>
                <name>Position 13</name>
            </trkpt>
            <trkpt lon="-104.87136161" lat="38.85204494">
                <ele>1866.0</ele>
                <time>2008-06-25T14:24:55.000Z</time>
                <name>Position 14</name>
            </trkpt>
            <trkpt lon="-104.87138498" lat="38.85201657">
                <ele>1866.0</ele>
                <time>2008-06-25T14:24:56.000Z</time>
                <name>Position 15</name>
            </trkpt>
            <trkpt lon="-104.87140989" lat="38.85198498">
                <ele>1866.0</ele>
                <time>2008-06-25T14:24:57.000Z</time>
                <name>Position 16</name>
            </trkpt>
            <trkpt lon="-104.87143826" lat="38.85195827">
                <ele>1866.0</ele>
                <time>2008-06-25T14:24:58.000Z</time>
                <name>Position 17</name>
            </trkpt>
            <trkpt lon="-104.87146497" lat="38.85193491">
                <ele>1866.0</ele>
                <time>2008-06-25T14:24:59.000Z</time>
                <name>Position 18</name>
            </trkpt>
            <trkpt lon="-104.87148988" lat="38.85191333">
                <ele>1866.0</ele>
                <time>2008-06-25T14:25:00.000Z</time>
                <name>Position 19</name>
            </trkpt>
            <trkpt lon="-104.87151659" lat="38.85189664">
                <ele>1866.0</ele>
                <time>2008-06-25T14:25:01.000Z</time>
                <name>Position 20</name>
            </trkpt>
            <trkpt lon="-104.87154496" lat="38.85188663">
                <ele>1866.0</ele>
                <time>2008-06-25T14:25:02.000Z</time>
                <name>Position 21</name>
            </trkpt>
            <trkpt lon="-104.87157989" lat="38.85188496">
                <ele>1866.0</ele>
                <time>2008-06-25T14:25:03.000Z</time>
                <name>Position 22</name>
            </trkpt>
            <trkpt lon="-104.87161326" lat="38.85189497">
                <ele>1866.0</ele>
                <time>2008-06-25T14:25:04.000Z</time>
                <name>Position 23</name>
            </trkpt>
            <trkpt lon="-104.87164164" lat="38.85191333">
                <ele>1866.0</ele>
                <time>2008-06-25T14:25:05.000Z</time>
                <name>Position 24</name>
            </trkpt>
            <trkpt lon="-104.87166166" lat="38.85193324">
                <ele>1866.0</ele>
                <time>2008-06-25T14:25:06.000Z</time>
                <name>Position 25</name>
            </trkpt>
            <trkpt lon="-104.87167323" lat="38.85195494">
                <ele>1866.0</ele>
                <time>2008-06-25T14:25:07.000Z</time>
                <name>Position 26</name>
            </trkpt>
            <trkpt lon="-104.87167823" lat="38.85197997">
                <ele>1866.0</ele>
                <time>2008-06-25T14:25:08.000Z</time>
                <name>Position 27</name>
            </trkpt>
            <trkpt lon="-104.87166989" lat="38.85201156">
                <ele>1866.0</ele>
                <time>2008-06-25T14:25:09.000Z</time>
                <name>Position 28</name>
            </trkpt>
            <trkpt lon="-104.87164831" lat="38.85204661">
                <ele>1866.0</ele>
                <time>2008-06-25T14:25:10.000Z</time>
                <name>Position 29</name>
            </trkpt>
            <trkpt lon="-104.87161326" lat="38.85208666">
                <ele>1867.0</ele>
                <time>2008-06-25T14:25:11.000Z</time>
                <name>Position 30</name>
            </trkpt>
            <trkpt lon="-104.87156832" lat="38.85212994">
                <ele>1867.0</ele>
                <time>2008-06-25T14:25:12.000Z</time>
                <name>Position 31</name>
            </trkpt>
            <trkpt lon="-104.87151659" lat="38.85217822">
                <ele>1867.0</ele>
                <time>2008-06-25T14:25:13.000Z</time>
                <name>Position 32</name>
            </trkpt>
            <trkpt lon="-104.8714633" lat="38.85222995">
                <ele>1867.0</ele>
                <time>2008-06-25T14:25:14.000Z</time>
                <name>Position 33</name>
            </trkpt>
            <trkpt lon="-104.87141156" lat="38.85227823">
                <ele>1867.0</ele>
                <time>2008-06-25T14:25:15.000Z</time>
                <name>Position 34</name>
            </trkpt>
            <trkpt lon="-104.87136996" lat="38.85231829">
                <ele>1867.0</ele>
                <time>2008-06-25T14:25:16.000Z</time>
                <name>Position 35</name>
            </trkpt>
            <trkpt lon="-104.87134159" lat="38.85234666">
                <ele>1867.0</ele>
                <time>2008-06-25T14:25:17.000Z</time>
                <name>Position 36</name>
            </trkpt>
            <trkpt lon="-104.8713249" lat="38.85236657">
                <ele>1867.0</ele>
                <time>2008-06-25T14:25:18.000Z</time>
                <name>Position 37</name>
            </trkpt>
            <trkpt lon="-104.87131166" lat="38.85238492">
                <ele>1867.0</ele>
                <time>2008-06-25T14:25:19.000Z</time>
                <name>Position 38</name>
            </trkpt>
            <trkpt lon="-104.87130165" lat="38.85240662">
                <ele>1867.0</ele>
                <time>2008-06-25T14:25:20.000Z</time>
                <name>Position 39</name>
            </trkpt>
            <trkpt lon="-104.87129498" lat="38.85243833">
                <ele>1867.0</ele>
                <time>2008-06-25T14:25:21.000Z</time>
                <name>Position 40</name>
            </trkpt>
            <trkpt lon="-104.87130332" lat="38.85247993">
                <ele>1867.0</ele>
                <time>2008-06-25T14:25:22.000Z</time>
                <name>Position 41</name>
            </trkpt>
            <trkpt lon="-104.87133324" lat="38.85252821">
                <ele>1867.0</ele>
                <time>2008-06-25T14:25:23.000Z</time>
                <name>Position 42</name>
            </trkpt>
            <trkpt lon="-104.87138498" lat="38.85257995">
                <ele>1867.0</ele>
                <time>2008-06-25T14:25:24.000Z</time>
                <name>Position 43</name>
            </trkpt>
            <trkpt lon="-104.87145329" lat="38.85263991">
                <ele>1867.0</ele>
                <time>2008-06-25T14:25:25.000Z</time>
                <name>Position 44</name>
            </trkpt>
            <trkpt lon="-104.87153327" lat="38.85270655">
                <ele>1867.0</ele>
                <time>2008-06-25T14:25:26.000Z</time>
                <name>Position 45</name>
            </trkpt>
            <trkpt lon="-104.87162161" lat="38.85277998">
                <ele>1867.0</ele>
                <time>2008-06-25T14:25:27.000Z</time>
                <name>Position 46</name>
            </trkpt>
            <trkpt lon="-104.87171328" lat="38.8528583">
                <ele>1867.0</ele>
                <time>2008-06-25T14:25:28.000Z</time>
                <name>Position 47</name>
            </trkpt>
            <trkpt lon="-104.87180328" lat="38.85293496">
                <ele>1870.0</ele>
                <time>2008-06-25T14:25:29.000Z</time>
                <name>Position 48</name>
            </trkpt>
            <trkpt lon="-104.87188995" lat="38.8530066">
                <ele>1870.0</ele>
                <time>2008-06-25T14:25:30.000Z</time>
                <name>Position 49</name>
            </trkpt>
            <trkpt lon="-104.87197328" lat="38.85305655">
                <ele>1870.0</ele>
                <time>2008-06-25T14:25:31.000Z</time>
                <name>Position 50</name>
            </trkpt>
            <trkpt lon="-104.87205327" lat="38.85308158">
                <ele>1870.0</ele>
                <time>2008-06-25T14:25:32.000Z</time>
                <name>Position 51</name>
            </trkpt>
            <trkpt lon="-104.87212658" lat="38.85307825">
                <ele>1869.0</ele>
                <time>2008-06-25T14:25:33.000Z</time>
                <name>Position 52</name>
            </trkpt>
            <trkpt lon="-104.87218833" lat="38.85304999">
                <ele>1869.0</ele>
                <time>2008-06-25T14:25:34.000Z</time>
                <name>Position 53</name>
            </trkpt>
            <trkpt lon="-104.87222993" lat="38.85300159">
                <ele>1869.0</ele>
                <time>2008-06-25T14:25:35.000Z</time>
                <name>Position 54</name>
            </trkpt>
            <trkpt lon="-104.87225497" lat="38.85293829">
                <ele>1869.0</ele>
                <time>2008-06-25T14:25:36.000Z</time>
                <name>Position 55</name>
            </trkpt>
            <trkpt lon="-104.87227499" lat="38.85286665">
                <ele>1867.0</ele>
                <time>2008-06-25T14:25:37.000Z</time>
                <name>Position 56</name>
            </trkpt>
            <trkpt lon="-104.87229824" lat="38.85278499">
                <ele>1867.0</ele>
                <time>2008-06-25T14:25:38.000Z</time>
                <name>Position 57</name>
            </trkpt>
            <trkpt lon="-104.87232161" lat="38.85269332">
                <ele>1867.0</ele>
                <time>2008-06-25T14:25:39.000Z</time>
                <name>Position 58</name>
            </trkpt>
            <trkpt lon="-104.87234998" lat="38.85259664">
                <ele>1867.0</ele>
                <time>2008-06-25T14:25:40.000Z</time>
                <name>Position 59</name>
            </trkpt>
            <trkpt lon="-104.87238157" lat="38.85249329">
                <ele>1867.0</ele>
                <time>2008-06-25T14:25:41.000Z</time>
                <name>Position 60</name>
            </trkpt>
            <trkpt lon="-104.87241328" lat="38.85238492">
                <ele>1867.0</ele>
                <time>2008-06-25T14:25:42.000Z</time>
                <name>Position 61</name>
            </trkpt>
            <trkpt lon="-104.87244666" lat="38.85227489">
                <ele>1867.0</ele>
                <time>2008-06-25T14:25:43.000Z</time>
                <name>Position 62</name>
            </trkpt>
            <trkpt lon="-104.87248158" lat="38.85216331">
                <ele>1867.0</ele>
                <time>2008-06-25T14:25:44.000Z</time>
                <name>Position 63</name>
            </trkpt>
            <trkpt lon="-104.87251496" lat="38.85205495">
                <ele>1865.0</ele>
                <time>2008-06-25T14:25:45.000Z</time>
                <name>Position 64</name>
            </trkpt>
            <trkpt lon="-104.87254488" lat="38.8519516">
                <ele>1865.0</ele>
                <time>2008-06-25T14:25:46.000Z</time>
                <name>Position 65</name>
            </trkpt>
            <trkpt lon="-104.87257493" lat="38.8518616">
                <ele>1865.0</ele>
                <time>2008-06-25T14:25:47.000Z</time>
                <name>Position 66</name>
            </trkpt>
            <trkpt lon="-104.87260997" lat="38.85178828">
                <ele>1865.0</ele>
                <time>2008-06-25T14:25:48.000Z</time>
                <name>Position 67</name>
            </trkpt>
            <trkpt lon="-104.87265825" lat="38.85172999">
                <ele>1865.0</ele>
                <time>2008-06-25T14:25:49.000Z</time>
                <name>Position 68</name>
            </trkpt>
            <trkpt lon="-104.87272322" lat="38.85168993">
                <ele>1865.0</ele>
                <time>2008-06-25T14:25:50.000Z</time>
                <name>Position 69</name>
            </trkpt>
            <trkpt lon="-104.87279999" lat="38.85167325">
                <ele>1865.0</ele>
                <time>2008-06-25T14:25:51.000Z</time>
                <name>Position 70</name>
            </trkpt>
            <trkpt lon="-104.87288165" lat="38.85168326">
                <ele>1865.0</ele>
                <time>2008-06-25T14:25:52.000Z</time>
                <name>Position 71</name>
            </trkpt>
            <trkpt lon="-104.87296164" lat="38.85171664">
                <ele>1871.0</ele>
                <time>2008-06-25T14:25:53.000Z</time>
                <name>Position 72</name>
            </trkpt>
            <trkpt lon="-104.87303829" lat="38.85176992">
                <ele>1871.0</ele>
                <time>2008-06-25T14:25:54.000Z</time>
                <name>Position 73</name>
            </trkpt>
            <trkpt lon="-104.87311494" lat="38.85183656">
                <ele>1871.0</ele>
                <time>2008-06-25T14:25:55.000Z</time>
                <name>Position 74</name>
            </trkpt>
            <trkpt lon="-104.8731966" lat="38.85191333">
                <ele>1871.0</ele>
                <time>2008-06-25T14:25:56.000Z</time>
                <name>Position 75</name>
            </trkpt>
            <trkpt lon="-104.8732866" lat="38.85199833">
                <ele>1871.0</ele>
                <time>2008-06-25T14:25:57.000Z</time>
                <name>Position 76</name>
            </trkpt>
            <trkpt lon="-104.87338328" lat="38.85208988">
                <ele>1866.0</ele>
                <time>2008-06-25T14:25:58.000Z</time>
                <name>Position 77</name>
            </trkpt>
            <trkpt lon="-104.87348998" lat="38.8521899">
                <ele>1866.0</ele>
                <time>2008-06-25T14:25:59.000Z</time>
                <name>Position 78</name>
            </trkpt>
            <trkpt lon="-104.87360489" lat="38.85229492">
                <ele>1866.0</ele>
                <time>2008-06-25T14:26:00.000Z</time>
                <name>Position 79</name>
            </trkpt>
            <trkpt lon="-104.87372828" lat="38.85240495">
                <ele>1866.0</ele>
                <time>2008-06-25T14:26:01.000Z</time>
                <name>Position 80</name>
            </trkpt>
            <trkpt lon="-104.87386155" lat="38.85251832">
                <ele>1870.0</ele>
                <time>2008-06-25T14:26:02.000Z</time>
                <name>Position 81</name>
            </trkpt>
            <trkpt lon="-104.87400329" lat="38.85263157">
                <ele>1870.0</ele>
                <time>2008-06-25T14:26:03.000Z</time>
                <name>Position 82</name>
            </trkpt>
            <trkpt lon="-104.87415159" lat="38.85274494">
                <ele>1870.0</ele>
                <time>2008-06-25T14:26:04.000Z</time>
                <name>Position 83</name>
            </trkpt>
            <trkpt lon="-104.87430823" lat="38.8528583">
                <ele>1870.0</ele>
                <time>2008-06-25T14:26:05.000Z</time>
                <name>Position 84</name>
            </trkpt>
            <trkpt lon="-104.87447166" lat="38.85296988">
                <ele>1871.0</ele>
                <time>2008-06-25T14:26:06.000Z</time>
                <name>Position 85</name>
            </trkpt>
            <trkpt lon="-104.87463999" lat="38.85307992">
                <ele>1876.0</ele>
                <time>2008-06-25T14:26:07.000Z</time>
                <name>Position 86</name>
            </trkpt>
            <trkpt lon="-104.87481332" lat="38.85319161">
                <ele>1876.0</ele>
                <time>2008-06-25T14:26:08.000Z</time>
                <name>Position 87</name>
            </trkpt>
            <trkpt lon="-104.87499332" lat="38.85329831">
                <ele>1876.0</ele>
                <time>2008-06-25T14:26:09.000Z</time>
                <name>Position 88</name>
            </trkpt>
            <trkpt lon="-104.87518156" lat="38.85340333">
                <ele>1876.0</ele>
                <time>2008-06-25T14:26:10.000Z</time>
                <name>Position 89</name>
            </trkpt>
            <trkpt lon="-104.87537658" lat="38.85350323">
                <ele>1876.0</ele>
                <time>2008-06-25T14:26:11.000Z</time>
                <name>Position 90</name>
            </trkpt>
            <trkpt lon="-104.87557828" lat="38.85359991">
                <ele>1885.0</ele>
                <time>2008-06-25T14:26:12.000Z</time>
                <name>Position 91</name>
            </trkpt>
            <trkpt lon="-104.87578499" lat="38.85369325">
                <ele>1885.0</ele>
                <time>2008-06-25T14:26:13.000Z</time>
                <name>Position 92</name>
            </trkpt>
            <trkpt lon="-104.87599659" lat="38.85377824">
                <ele>1875.0</ele>
                <time>2008-06-25T14:26:14.000Z</time>
                <name>Position 93</name>
            </trkpt>
            <trkpt lon="-104.87621331" lat="38.85385823">
                <ele>1875.0</ele>
                <time>2008-06-25T14:26:15.000Z</time>
                <name>Position 94</name>
            </trkpt>
            <trkpt lon="-104.87643492" lat="38.85393167">
                <ele>1879.0</ele>
                <time>2008-06-25T14:26:16.000Z</time>
                <name>Position 95</name>
            </trkpt>
            <trkpt lon="-104.87666166" lat="38.85400164">
                <ele>1879.0</ele>
                <time>2008-06-25T14:26:17.000Z</time>
                <name>Position 96</name>
            </trkpt>
            <trkpt lon="-104.87689328" lat="38.85406828">
                <ele>1879.0</ele>
                <time>2008-06-25T14:26:18.000Z</time>
                <name>Position 97</name>
            </trkpt>
            <trkpt lon="-104.87713158" lat="38.85412824">
                <ele>1878.0</ele>
                <time>2008-06-25T14:26:19.000Z</time>
                <name>Position 98</name>
            </trkpt>
            <trkpt lon="-104.87737489" lat="38.85418165">
                <ele>1878.0</ele>
                <time>2008-06-25T14:26:20.000Z</time>
                <name>Position 99</name>
            </trkpt>
            <trkpt lon="-104.87762165" lat="38.8542316">
                <ele>1878.0</ele>
                <time>2008-06-25T14:26:21.000Z</time>
                <name>Position 100</name>
            </trkpt>
            <trkpt lon="-104.87787163" lat="38.85427499">
                <ele>1878.0</ele>
                <time>2008-06-25T14:26:22.000Z</time>
                <name>Position 101</name>
            </trkpt>
            <trkpt lon="-104.87812161" lat="38.85431659">
                <ele>1881.0</ele>
                <time>2008-06-25T14:26:23.000Z</time>
                <name>Position 102</name>
            </trkpt>
            <trkpt lon="-104.87836993" lat="38.85435832">
                <ele>1881.0</ele>
                <time>2008-06-25T14:26:24.000Z</time>
                <name>Position 103</name>
            </trkpt>
            <trkpt lon="-104.87861991" lat="38.85439992">
                <ele>1881.0</ele>
                <time>2008-06-25T14:26:25.000Z</time>
                <name>Position 104</name>
            </trkpt>
            <trkpt lon="-104.87886989" lat="38.85444164">
                <ele>1886.0</ele>
                <time>2008-06-25T14:26:26.000Z</time>
                <name>Position 105</name>
            </trkpt>
            <trkpt lon="-104.87911832" lat="38.85448325">
                <ele>1886.0</ele>
                <time>2008-06-25T14:26:27.000Z</time>
                <name>Position 106</name>
            </trkpt>
            <trkpt lon="-104.8793633" lat="38.8545233">
                <ele>1886.0</ele>
                <time>2008-06-25T14:26:28.000Z</time>
                <name>Position 107</name>
            </trkpt>
            <trkpt lon="-104.87960827" lat="38.85456491">
                <ele>1885.0</ele>
                <time>2008-06-25T14:26:29.000Z</time>
                <name>Position 108</name>
            </trkpt>
            <trkpt lon="-104.87985492" lat="38.85460496">
                <ele>1884.0</ele>
                <time>2008-06-25T14:26:30.000Z</time>
                <name>Position 109</name>
            </trkpt>
            <trkpt lon="-104.88010156" lat="38.85464656">
                <ele>1884.0</ele>
                <time>2008-06-25T14:26:31.000Z</time>
                <name>Position 110</name>
            </trkpt>
            <trkpt lon="-104.88035166" lat="38.85468829">
                <ele>1884.0</ele>
                <time>2008-06-25T14:26:32.000Z</time>
                <name>Position 111</name>
            </trkpt>
            <trkpt lon="-104.88059998" lat="38.85472989">
                <ele>1884.0</ele>
                <time>2008-06-25T14:26:33.000Z</time>
                <name>Position 112</name>
            </trkpt>
            <trkpt lon="-104.88085163" lat="38.85477328">
                <ele>1884.0</ele>
                <time>2008-06-25T14:26:34.000Z</time>
                <name>Position 113</name>
            </trkpt>
            <trkpt lon="-104.88110495" lat="38.85481656">
                <ele>1884.0</ele>
                <time>2008-06-25T14:26:35.000Z</time>
                <name>Position 114</name>
            </trkpt>
            <trkpt lon="-104.88135993" lat="38.85486162">
                <ele>1882.0</ele>
                <time>2008-06-25T14:26:36.000Z</time>
                <name>Position 115</name>
            </trkpt>
            <trkpt lon="-104.88161492" lat="38.85490656">
                <ele>1882.0</ele>
                <time>2008-06-25T14:26:37.000Z</time>
                <name>Position 116</name>
            </trkpt>
            <trkpt lon="-104.88186824" lat="38.85495162">
                <ele>1882.0</ele>
                <time>2008-06-25T14:26:38.000Z</time>
                <name>Position 117</name>
            </trkpt>
            <trkpt lon="-104.88211989" lat="38.85499489">
                <ele>1883.0</ele>
                <time>2008-06-25T14:26:39.000Z</time>
                <name>Position 118</name>
            </trkpt>
            <trkpt lon="-104.88236833" lat="38.85503495">
                <ele>1883.0</ele>
                <time>2008-06-25T14:26:40.000Z</time>
                <name>Position 119</name>
            </trkpt>
            <trkpt lon="-104.88261664" lat="38.85507655">
                <ele>1883.0</ele>
                <time>2008-06-25T14:26:41.000Z</time>
                <name>Position 120</name>
            </trkpt>
            <trkpt lon="-104.88286328" lat="38.85511827">
                <ele>1883.0</ele>
                <time>2008-06-25T14:26:42.000Z</time>
                <name>Position 121</name>
            </trkpt>
            <trkpt lon="-104.88310993" lat="38.85516">
                <ele>1887.0</ele>
                <time>2008-06-25T14:26:43.000Z</time>
                <name>Position 122</name>
            </trkpt>
            <trkpt lon="-104.88335657" lat="38.85520327">
                <ele>1887.0</ele>
                <time>2008-06-25T14:26:44.000Z</time>
                <name>Position 123</name>
            </trkpt>
            <trkpt lon="-104.88360322" lat="38.85524499">
                <ele>1887.0</ele>
                <time>2008-06-25T14:26:45.000Z</time>
                <name>Position 124</name>
            </trkpt>
            <trkpt lon="-104.88385165" lat="38.8552866">
                <ele>1889.0</ele>
                <time>2008-06-25T14:26:46.000Z</time>
                <name>Position 125</name>
            </trkpt>
            <trkpt lon="-104.88410163" lat="38.85532999">
                <ele>1889.0</ele>
                <time>2008-06-25T14:26:47.000Z</time>
                <name>Position 126</name>
            </trkpt>
            <trkpt lon="-104.88435161" lat="38.85537159">
                <ele>1889.0</ele>
                <time>2008-06-25T14:26:48.000Z</time>
                <name>Position 127</name>
            </trkpt>
            <trkpt lon="-104.88459992" lat="38.85541332">
                <ele>1892.0</ele>
                <time>2008-06-25T14:26:49.000Z</time>
                <name>Position 128</name>
            </trkpt>
            <trkpt lon="-104.88484991" lat="38.85545659">
                <ele>1889.0</ele>
                <time>2008-06-25T14:26:50.000Z</time>
                <name>Position 129</name>
            </trkpt>
            <trkpt lon="-104.88509989" lat="38.85549998">
                <ele>1889.0</ele>
                <time>2008-06-25T14:26:51.000Z</time>
                <name>Position 130</name>
            </trkpt>
            <trkpt lon="-104.88534665" lat="38.85554326">
                <ele>1889.0</ele>
                <time>2008-06-25T14:26:52.000Z</time>
                <name>Position 131</name>
            </trkpt>
            <trkpt lon="-104.88559496" lat="38.85558665">
                <ele>1892.0</ele>
                <time>2008-06-25T14:26:53.000Z</time>
                <name>Position 132</name>
            </trkpt>
            <trkpt lon="-104.88583994" lat="38.85562825">
                <ele>1892.0</ele>
                <time>2008-06-25T14:26:54.000Z</time>
                <name>Position 133</name>
            </trkpt>
            <trkpt lon="-104.88608658" lat="38.85567331">
                <ele>1892.0</ele>
                <time>2008-06-25T14:26:55.000Z</time>
                <name>Position 134</name>
            </trkpt>
            <trkpt lon="-104.88632989" lat="38.85571659">
                <ele>1893.0</ele>
                <time>2008-06-25T14:26:56.000Z</time>
                <name>Position 135</name>
            </trkpt>
            <trkpt lon="-104.88657331" lat="38.85575998">
                <ele>1893.0</ele>
                <time>2008-06-25T14:26:57.000Z</time>
                <name>Position 136</name>
            </trkpt>
            <trkpt lon="-104.88681495" lat="38.85580158">
                <ele>1893.0</ele>
                <time>2008-06-25T14:26:58.000Z</time>
                <name>Position 137</name>
            </trkpt>
            <trkpt lon="-104.88705659" lat="38.85584497">
                <ele>1893.0</ele>
                <time>2008-06-25T14:26:59.000Z</time>
                <name>Position 138</name>
            </trkpt>
            <trkpt lon="-104.88729656" lat="38.85588658">
                <ele>1901.0</ele>
                <time>2008-06-25T14:27:00.000Z</time>
                <name>Position 139</name>
            </trkpt>
            <trkpt lon="-104.88753664" lat="38.8559283">
                <ele>1901.0</ele>
                <time>2008-06-25T14:27:01.000Z</time>
                <name>Position 140</name>
            </trkpt>
            <trkpt lon="-104.88777494" lat="38.85597157">
                <ele>1901.0</ele>
                <time>2008-06-25T14:27:02.000Z</time>
                <name>Position 141</name>
            </trkpt>
            <trkpt lon="-104.88801324" lat="38.8560133">
                <ele>1914.0</ele>
                <time>2008-06-25T14:27:03.000Z</time>
                <name>Position 142</name>
            </trkpt>
            <trkpt lon="-104.88825333" lat="38.8560549">
                <ele>1914.0</ele>
                <time>2008-06-25T14:27:04.000Z</time>
                <name>Position 143</name>
            </trkpt>
            <trkpt lon="-104.8884933" lat="38.85609663">
                <ele>1914.0</ele>
                <time>2008-06-25T14:27:05.000Z</time>
                <name>Position 144</name>
            </trkpt>
            <trkpt lon="-104.88873327" lat="38.85613656">
                <ele>1914.0</ele>
                <time>2008-06-25T14:27:06.000Z</time>
                <name>Position 145</name>
            </trkpt>
            <trkpt lon="-104.88897324" lat="38.85617828">
                <ele>1922.0</ele>
                <time>2008-06-25T14:27:07.000Z</time>
                <name>Position 146</name>
            </trkpt>
            <trkpt lon="-104.88921499" lat="38.85621822">
                <ele>1922.0</ele>
                <time>2008-06-25T14:27:08.000Z</time>
                <name>Position 147</name>
            </trkpt>
            <trkpt lon="-104.88945663" lat="38.85625994">
                <ele>1901.0</ele>
                <time>2008-06-25T14:27:09.000Z</time>
                <name>Position 148</name>
            </trkpt>
            <trkpt lon="-104.88969827" lat="38.85630167">
                <ele>1900.0</ele>
                <time>2008-06-25T14:27:10.000Z</time>
                <name>Position 149</name>
            </trkpt>
            <trkpt lon="-104.88994157" lat="38.85634327">
                <ele>1900.0</ele>
                <time>2008-06-25T14:27:11.000Z</time>
                <name>Position 150</name>
            </trkpt>
            <trkpt lon="-104.89018655" lat="38.85638499">
                <ele>1900.0</ele>
                <time>2008-06-25T14:27:12.000Z</time>
                <name>Position 151</name>
            </trkpt>
            <trkpt lon="-104.89043164" lat="38.8564266">
                <ele>1904.0</ele>
                <time>2008-06-25T14:27:13.000Z</time>
                <name>Position 152</name>
            </trkpt>
            <trkpt lon="-104.89067662" lat="38.85646999">
                <ele>1904.0</ele>
                <time>2008-06-25T14:27:14.000Z</time>
                <name>Position 153</name>
            </trkpt>
            <trkpt lon="-104.89092159" lat="38.85651326">
                <ele>1904.0</ele>
                <time>2008-06-25T14:27:15.000Z</time>
                <name>Position 154</name>
            </trkpt>
            <trkpt lon="-104.89116657" lat="38.85655665">
                <ele>1904.0</ele>
                <time>2008-06-25T14:27:16.000Z</time>
                <name>Position 155</name>
            </trkpt>
            <trkpt lon="-104.891415" lat="38.85659826">
                <ele>1904.0</ele>
                <time>2008-06-25T14:27:17.000Z</time>
                <name>Position 156</name>
            </trkpt>
            <trkpt lon="-104.89166164" lat="38.85664165">
                <ele>1904.0</ele>
                <time>2008-06-25T14:27:18.000Z</time>
                <name>Position 157</name>
            </trkpt>
            <trkpt lon="-104.89190829" lat="38.85668325">
                <ele>1904.0</ele>
                <time>2008-06-25T14:27:19.000Z</time>
                <name>Position 158</name>
            </trkpt>
            <trkpt lon="-104.89215159" lat="38.85672498">
                <ele>1912.0</ele>
                <time>2008-06-25T14:27:20.000Z</time>
                <name>Position 159</name>
            </trkpt>
            <trkpt lon="-104.89239156" lat="38.85676658">
                <ele>1912.0</ele>
                <time>2008-06-25T14:27:21.000Z</time>
                <name>Position 160</name>
            </trkpt>
            <trkpt lon="-104.89263165" lat="38.8568083">
                <ele>1912.0</ele>
                <time>2008-06-25T14:27:22.000Z</time>
                <name>Position 161</name>
            </trkpt>
            <trkpt lon="-104.89286995" lat="38.85685158">
                <ele>1912.0</ele>
                <time>2008-06-25T14:27:23.000Z</time>
                <name>Position 162</name>
            </trkpt>
            <trkpt lon="-104.89310825" lat="38.85689831">
                <ele>1916.0</ele>
                <time>2008-06-25T14:27:24.000Z</time>
                <name>Position 163</name>
            </trkpt>
            <trkpt lon="-104.893345" lat="38.85695159">
                <ele>1916.0</ele>
                <time>2008-06-25T14:27:25.000Z</time>
                <name>Position 164</name>
            </trkpt>
            <trkpt lon="-104.89357829" lat="38.85700989">
                <ele>1916.0</ele>
                <time>2008-06-25T14:27:26.000Z</time>
                <name>Position 165</name>
            </trkpt>
            <trkpt lon="-104.89380658" lat="38.85707498">
                <ele>1915.0</ele>
                <time>2008-06-25T14:27:27.000Z</time>
                <name>Position 166</name>
            </trkpt>
            <trkpt lon="-104.89402997" lat="38.85714829">
                <ele>1911.0</ele>
                <time>2008-06-25T14:27:28.000Z</time>
                <name>Position 167</name>
            </trkpt>
            <trkpt lon="-104.89424825" lat="38.85722828">
                <ele>1911.0</ele>
                <time>2008-06-25T14:27:29.000Z</time>
                <name>Position 168</name>
            </trkpt>
            <trkpt lon="-104.8944633" lat="38.85731828">
                <ele>1911.0</ele>
                <time>2008-06-25T14:27:30.000Z</time>
                <name>Position 169</name>
            </trkpt>
            <trkpt lon="-104.89467323" lat="38.85741663">
                <ele>1910.0</ele>
                <time>2008-06-25T14:27:31.000Z</time>
                <name>Position 170</name>
            </trkpt>
            <trkpt lon="-104.89488161" lat="38.85752165">
                <ele>1910.0</ele>
                <time>2008-06-25T14:27:32.000Z</time>
                <name>Position 171</name>
            </trkpt>
            <trkpt lon="-104.89508498" lat="38.85763323">
                <ele>1910.0</ele>
                <time>2008-06-25T14:27:33.000Z</time>
                <name>Position 172</name>
            </trkpt>
            <trkpt lon="-104.89528656" lat="38.85774827">
                <ele>1910.0</ele>
                <time>2008-06-25T14:27:34.000Z</time>
                <name>Position 173</name>
            </trkpt>
            <trkpt lon="-104.89548659" lat="38.85786664">
                <ele>1908.0</ele>
                <time>2008-06-25T14:27:35.000Z</time>
                <name>Position 174</name>
            </trkpt>
            <trkpt lon="-104.89568496" lat="38.85798824">
                <ele>1905.0</ele>
                <time>2008-06-25T14:27:36.000Z</time>
                <name>Position 175</name>
            </trkpt>
            <trkpt lon="-104.89588499" lat="38.85810995">
                <ele>1905.0</ele>
                <time>2008-06-25T14:27:37.000Z</time>
                <name>Position 176</name>
            </trkpt>
            <trkpt lon="-104.89608657" lat="38.85823333">
                <ele>1905.0</ele>
                <time>2008-06-25T14:27:38.000Z</time>
                <name>Position 177</name>
            </trkpt>
            <trkpt lon="-104.89628994" lat="38.8583566">
                <ele>1906.0</ele>
                <time>2008-06-25T14:27:39.000Z</time>
                <name>Position 178</name>
            </trkpt>
            <trkpt lon="-104.89649498" lat="38.85848165">
                <ele>1906.0</ele>
                <time>2008-06-25T14:27:40.000Z</time>
                <name>Position 179</name>
            </trkpt>
            <trkpt lon="-104.89669824" lat="38.85860658">
                <ele>1906.0</ele>
                <time>2008-06-25T14:27:41.000Z</time>
                <name>Position 180</name>
            </trkpt>
            <trkpt lon="-104.89690495" lat="38.85873163">
                <ele>1906.0</ele>
                <time>2008-06-25T14:27:42.000Z</time>
                <name>Position 181</name>
            </trkpt>
            <trkpt lon="-104.89710999" lat="38.85885656">
                <ele>1907.0</ele>
                <time>2008-06-25T14:27:43.000Z</time>
                <name>Position 182</name>
            </trkpt>
            <trkpt lon="-104.89731491" lat="38.85898161">
                <ele>1907.0</ele>
                <time>2008-06-25T14:27:44.000Z</time>
                <name>Position 183</name>
            </trkpt>
            <trkpt lon="-104.89751828" lat="38.85910666">
                <ele>1907.0</ele>
                <time>2008-06-25T14:27:45.000Z</time>
                <name>Position 184</name>
            </trkpt>
            <trkpt lon="-104.89772165" lat="38.85922992">
                <ele>1907.0</ele>
                <time>2008-06-25T14:27:46.000Z</time>
                <name>Position 185</name>
            </trkpt>
            <trkpt lon="-104.89792657" lat="38.85934997">
                <ele>1913.0</ele>
                <time>2008-06-25T14:27:47.000Z</time>
                <name>Position 186</name>
            </trkpt>
            <trkpt lon="-104.89812994" lat="38.85946822">
                <ele>1913.0</ele>
                <time>2008-06-25T14:27:48.000Z</time>
                <name>Position 187</name>
            </trkpt>
            <trkpt lon="-104.89833665" lat="38.85958159">
                <ele>1913.0</ele>
                <time>2008-06-25T14:27:49.000Z</time>
                <name>Position 188</name>
            </trkpt>
            <trkpt lon="-104.89854491" lat="38.85968995">
                <ele>1910.0</ele>
                <time>2008-06-25T14:27:50.000Z</time>
                <name>Position 189</name>
            </trkpt>
            <trkpt lon="-104.89875495" lat="38.8597883">
                <ele>1918.0</ele>
                <time>2008-06-25T14:27:51.000Z</time>
                <name>Position 190</name>
            </trkpt>
            <trkpt lon="-104.89896989" lat="38.85987997">
                <ele>1918.0</ele>
                <time>2008-06-25T14:27:52.000Z</time>
                <name>Position 191</name>
            </trkpt>
            <trkpt lon="-104.89918828" lat="38.8599633">
                <ele>1918.0</ele>
                <time>2008-06-25T14:27:53.000Z</time>
                <name>Position 192</name>
            </trkpt>
            <trkpt lon="-104.89940655" lat="38.86003995">
                <ele>1918.0</ele>
                <time>2008-06-25T14:27:54.000Z</time>
                <name>Position 193</name>
            </trkpt>
            <trkpt lon="-104.89962995" lat="38.86010993">
                <ele>1933.0</ele>
                <time>2008-06-25T14:27:55.000Z</time>
                <name>Position 194</name>
            </trkpt>
            <trkpt lon="-104.89985657" lat="38.86016989">
                <ele>1933.0</ele>
                <time>2008-06-25T14:27:56.000Z</time>
                <name>Position 195</name>
            </trkpt>
            <trkpt lon="-104.90008497" lat="38.86022496">
                <ele>1933.0</ele>
                <time>2008-06-25T14:27:57.000Z</time>
                <name>Position 196</name>
            </trkpt>
            <trkpt lon="-104.90031826" lat="38.8602699">
                <ele>1933.0</ele>
                <time>2008-06-25T14:27:58.000Z</time>
                <name>Position 197</name>
            </trkpt>
            <trkpt lon="-104.90055156" lat="38.86030829">
                <ele>1940.0</ele>
                <time>2008-06-25T14:27:59.000Z</time>
                <name>Position 198</name>
            </trkpt>
            <trkpt lon="-104.90078998" lat="38.86034">
                <ele>1940.0</ele>
                <time>2008-06-25T14:28:00.000Z</time>
                <name>Position 199</name>
            </trkpt>
            <trkpt lon="-104.90102828" lat="38.86036325">
                <ele>1940.0</ele>
                <time>2008-06-25T14:28:01.000Z</time>
                <name>Position 200</name>
            </trkpt>
            <trkpt lon="-104.90126991" lat="38.86037827">
                <ele>1943.0</ele>
                <time>2008-06-25T14:28:02.000Z</time>
                <name>Position 201</name>
            </trkpt>
            <trkpt lon="-104.90151155" lat="38.86038661">
                <ele>1943.0</ele>
                <time>2008-06-25T14:28:03.000Z</time>
                <name>Position 202</name>
            </trkpt>
            <trkpt lon="-104.90175331" lat="38.86038494">
                <ele>1943.0</ele>
                <time>2008-06-25T14:28:04.000Z</time>
                <name>Position 203</name>
            </trkpt>
            <trkpt lon="-104.90199661" lat="38.8603766">
                <ele>1943.0</ele>
                <time>2008-06-25T14:28:05.000Z</time>
                <name>Position 204</name>
            </trkpt>
            <trkpt lon="-104.90223992" lat="38.86035991">
                <ele>1943.0</ele>
                <time>2008-06-25T14:28:06.000Z</time>
                <name>Position 205</name>
            </trkpt>
            <trkpt lon="-104.90247989" lat="38.86033666">
                <ele>1943.0</ele>
                <time>2008-06-25T14:28:07.000Z</time>
                <name>Position 206</name>
            </trkpt>
            <trkpt lon="-104.90271831" lat="38.86030662">
                <ele>1943.0</ele>
                <time>2008-06-25T14:28:08.000Z</time>
                <name>Position 207</name>
            </trkpt>
            <trkpt lon="-104.90295494" lat="38.86026657">
                <ele>1942.0</ele>
                <time>2008-06-25T14:28:09.000Z</time>
                <name>Position 208</name>
            </trkpt>
            <trkpt lon="-104.90318823" lat="38.86022162">
                <ele>1942.0</ele>
                <time>2008-06-25T14:28:10.000Z</time>
                <name>Position 209</name>
            </trkpt>
            <trkpt lon="-104.90342164" lat="38.86017156">
                <ele>1942.0</ele>
                <time>2008-06-25T14:28:11.000Z</time>
                <name>Position 210</name>
            </trkpt>
            <trkpt lon="-104.90365326" lat="38.86011827">
                <ele>1942.0</ele>
                <time>2008-06-25T14:28:12.000Z</time>
                <name>Position 211</name>
            </trkpt>
            <trkpt lon="-104.90388489" lat="38.86006498">
                <ele>1942.0</ele>
                <time>2008-06-25T14:28:13.000Z</time>
                <name>Position 212</name>
            </trkpt>
            <trkpt lon="-104.9041183" lat="38.86001158">
                <ele>1942.0</ele>
                <time>2008-06-25T14:28:14.000Z</time>
                <name>Position 213</name>
            </trkpt>
            <trkpt lon="-104.90435493" lat="38.85996163">
                <ele>1942.0</ele>
                <time>2008-06-25T14:28:15.000Z</time>
                <name>Position 214</name>
            </trkpt>
            <trkpt lon="-104.9045949" lat="38.8599149">
                <ele>1951.0</ele>
                <time>2008-06-25T14:28:16.000Z</time>
                <name>Position 215</name>
            </trkpt>
            <trkpt lon="-104.90483832" lat="38.85987496">
                <ele>1951.0</ele>
                <time>2008-06-25T14:28:17.000Z</time>
                <name>Position 216</name>
            </trkpt>
            <trkpt lon="-104.9050833" lat="38.85983992">
                <ele>1951.0</ele>
                <time>2008-06-25T14:28:18.000Z</time>
                <name>Position 217</name>
            </trkpt>
            <trkpt lon="-104.90532994" lat="38.85981166">
                <ele>1951.0</ele>
                <time>2008-06-25T14:28:19.000Z</time>
                <name>Position 218</name>
            </trkpt>
            <trkpt lon="-104.90557659" lat="38.85978997">
                <ele>1965.0</ele>
                <time>2008-06-25T14:28:20.000Z</time>
                <name>Position 219</name>
            </trkpt>
            <trkpt lon="-104.90582156" lat="38.85977829">
                <ele>1965.0</ele>
                <time>2008-06-25T14:28:21.000Z</time>
                <name>Position 220</name>
            </trkpt>
            <trkpt lon="-104.90606332" lat="38.85977161">
                <ele>1965.0</ele>
                <time>2008-06-25T14:28:22.000Z</time>
                <name>Position 221</name>
            </trkpt>
            <trkpt lon="-104.90630329" lat="38.85977161">
                <ele>1970.0</ele>
                <time>2008-06-25T14:28:23.000Z</time>
                <name>Position 222</name>
            </trkpt>
            <trkpt lon="-104.90654325" lat="38.85977495">
                <ele>1970.0</ele>
                <time>2008-06-25T14:28:24.000Z</time>
                <name>Position 223</name>
            </trkpt>
            <trkpt lon="-104.90678322" lat="38.85977829">
                <ele>1970.0</ele>
                <time>2008-06-25T14:28:25.000Z</time>
                <name>Position 224</name>
            </trkpt>
            <trkpt lon="-104.90702665" lat="38.85978329">
                <ele>1970.0</ele>
                <time>2008-06-25T14:28:26.000Z</time>
                <name>Position 225</name>
            </trkpt>
            <trkpt lon="-104.90726829" lat="38.8597883">
                <ele>1975.0</ele>
                <time>2008-06-25T14:28:27.000Z</time>
                <name>Position 226</name>
            </trkpt>
            <trkpt lon="-104.90751326" lat="38.85979331">
                <ele>1975.0</ele>
                <time>2008-06-25T14:28:28.000Z</time>
                <name>Position 227</name>
            </trkpt>
            <trkpt lon="-104.9077599" lat="38.85979664">
                <ele>1975.0</ele>
                <time>2008-06-25T14:28:29.000Z</time>
                <name>Position 228</name>
            </trkpt>
            <trkpt lon="-104.90800989" lat="38.85980165">
                <ele>1972.0</ele>
                <time>2008-06-25T14:28:30.000Z</time>
                <name>Position 229</name>
            </trkpt>
            <trkpt lon="-104.90826166" lat="38.85980499">
                <ele>1972.0</ele>
                <time>2008-06-25T14:28:31.000Z</time>
                <name>Position 230</name>
            </trkpt>
            <trkpt lon="-104.90851498" lat="38.85980999">
                <ele>1972.0</ele>
                <time>2008-06-25T14:28:32.000Z</time>
                <name>Position 231</name>
            </trkpt>
            <trkpt lon="-104.9087683" lat="38.85981333">
                <ele>1961.0</ele>
                <time>2008-06-25T14:28:33.000Z</time>
                <name>Position 232</name>
            </trkpt>
            <trkpt lon="-104.90901995" lat="38.85981989">
                <ele>1961.0</ele>
                <time>2008-06-25T14:28:34.000Z</time>
                <name>Position 233</name>
            </trkpt>
            <trkpt lon="-104.90926993" lat="38.85982823">
                <ele>1961.0</ele>
                <time>2008-06-25T14:28:35.000Z</time>
                <name>Position 234</name>
            </trkpt>
            <trkpt lon="-104.90951824" lat="38.85983658">
                <ele>1961.0</ele>
                <time>2008-06-25T14:28:36.000Z</time>
                <name>Position 235</name>
            </trkpt>
            <trkpt lon="-104.90976655" lat="38.85984826">
                <ele>1949.0</ele>
                <time>2008-06-25T14:28:37.000Z</time>
                <name>Position 236</name>
            </trkpt>
            <trkpt lon="-104.91001332" lat="38.85986829">
                <ele>1949.0</ele>
                <time>2008-06-25T14:28:38.000Z</time>
                <name>Position 237</name>
            </trkpt>
            <trkpt lon="-104.91026163" lat="38.85989833">
                <ele>1949.0</ele>
                <time>2008-06-25T14:28:39.000Z</time>
                <name>Position 238</name>
            </trkpt>
            <trkpt lon="-104.91050661" lat="38.85993826">
                <ele>1955.0</ele>
                <time>2008-06-25T14:28:40.000Z</time>
                <name>Position 239</name>
            </trkpt>
            <trkpt lon="-104.91074991" lat="38.85998988">
                <ele>1955.0</ele>
                <time>2008-06-25T14:28:41.000Z</time>
                <name>Position 240</name>
            </trkpt>
            <trkpt lon="-104.91098833" lat="38.86005163">
                <ele>1955.0</ele>
                <time>2008-06-25T14:28:42.000Z</time>
                <name>Position 241</name>
            </trkpt>
            <trkpt lon="-104.91121995" lat="38.86012328">
                <ele>1955.0</ele>
                <time>2008-06-25T14:28:43.000Z</time>
                <name>Position 242</name>
            </trkpt>
            <trkpt lon="-104.91144323" lat="38.86020827">
                <ele>1954.0</ele>
                <time>2008-06-25T14:28:44.000Z</time>
                <name>Position 243</name>
            </trkpt>
            <trkpt lon="-104.91166162" lat="38.86030495">
                <ele>1954.0</ele>
                <time>2008-06-25T14:28:45.000Z</time>
                <name>Position 244</name>
            </trkpt>
            <trkpt lon="-104.91187155" lat="38.86041164">
                <ele>1954.0</ele>
                <time>2008-06-25T14:28:46.000Z</time>
                <name>Position 245</name>
            </trkpt>
            <trkpt lon="-104.91207492" lat="38.86052489">
                <ele>1963.0</ele>
                <time>2008-06-25T14:28:47.000Z</time>
                <name>Position 246</name>
            </trkpt>
            <trkpt lon="-104.91227162" lat="38.86064494">
                <ele>1967.0</ele>
                <time>2008-06-25T14:28:48.000Z</time>
                <name>Position 247</name>
            </trkpt>
            <trkpt lon="-104.91246665" lat="38.86076999">
                <ele>1967.0</ele>
                <time>2008-06-25T14:28:49.000Z</time>
                <name>Position 248</name>
            </trkpt>
            <trkpt lon="-104.91265821" lat="38.86089492">
                <ele>1967.0</ele>
                <time>2008-06-25T14:28:50.000Z</time>
                <name>Position 249</name>
            </trkpt>
            <trkpt lon="-104.9128499" lat="38.86102164">
                <ele>1967.0</ele>
                <time>2008-06-25T14:28:51.000Z</time>
                <name>Position 250</name>
            </trkpt>
            <trkpt lon="-104.91303992" lat="38.86114824">
                <ele>1962.0</ele>
                <time>2008-06-25T14:28:52.000Z</time>
                <name>Position 251</name>
            </trkpt>
            <trkpt lon="-104.91322994" lat="38.86127496">
                <ele>1980.0</ele>
                <time>2008-06-25T14:28:53.000Z</time>
                <name>Position 252</name>
            </trkpt>
            <trkpt lon="-104.91342163" lat="38.86140156">
                <ele>1980.0</ele>
                <time>2008-06-25T14:28:54.000Z</time>
                <name>Position 253</name>
            </trkpt>
            <trkpt lon="-104.91361332" lat="38.86152661">
                <ele>1980.0</ele>
                <time>2008-06-25T14:28:55.000Z</time>
                <name>Position 254</name>
            </trkpt>
            <trkpt lon="-104.91380489" lat="38.86165166">
                <ele>1982.0</ele>
                <time>2008-06-25T14:28:56.000Z</time>
                <name>Position 255</name>
            </trkpt>
            <trkpt lon="-104.91399491" lat="38.86177826">
                <ele>1982.0</ele>
                <time>2008-06-25T14:28:57.000Z</time>
                <name>Position 256</name>
            </trkpt>
            <trkpt lon="-104.9141866" lat="38.86190498">
                <ele>1982.0</ele>
                <time>2008-06-25T14:28:58.000Z</time>
                <name>Position 257</name>
            </trkpt>
            <trkpt lon="-104.91437995" lat="38.86203158">
                <ele>1982.0</ele>
                <time>2008-06-25T14:28:59.000Z</time>
                <name>Position 258</name>
            </trkpt>
            <trkpt lon="-104.91457331" lat="38.8621583">
                <ele>2004.0</ele>
                <time>2008-06-25T14:29:00.000Z</time>
                <name>Position 259</name>
            </trkpt>
            <trkpt lon="-104.91476822" lat="38.86228657">
                <ele>1992.0</ele>
                <time>2008-06-25T14:29:01.000Z</time>
                <name>Position 260</name>
            </trkpt>
            <trkpt lon="-104.91496491" lat="38.86241329">
                <ele>1992.0</ele>
                <time>2008-06-25T14:29:02.000Z</time>
                <name>Position 261</name>
            </trkpt>
            <trkpt lon="-104.91516328" lat="38.86253989">
                <ele>1992.0</ele>
                <time>2008-06-25T14:29:03.000Z</time>
                <name>Position 262</name>
            </trkpt>
            <trkpt lon="-104.9153583" lat="38.86266828">
                <ele>1992.0</ele>
                <time>2008-06-25T14:29:04.000Z</time>
                <name>Position 263</name>
            </trkpt>
            <trkpt lon="-104.91555333" lat="38.86279333">
                <ele>1977.0</ele>
                <time>2008-06-25T14:29:05.000Z</time>
                <name>Position 264</name>
            </trkpt>
            <trkpt lon="-104.91574991" lat="38.86291659">
                <ele>1977.0</ele>
                <time>2008-06-25T14:29:06.000Z</time>
                <name>Position 265</name>
            </trkpt>
            <trkpt lon="-104.91594827" lat="38.86303496">
                <ele>1995.0</ele>
                <time>2008-06-25T14:29:07.000Z</time>
                <name>Position 266</name>
            </trkpt>
            <trkpt lon="-104.91615331" lat="38.86314332">
                <ele>1995.0</ele>
                <time>2008-06-25T14:29:08.000Z</time>
                <name>Position 267</name>
            </trkpt>
            <trkpt lon="-104.91636491" lat="38.86324155">
                <ele>1981.0</ele>
                <time>2008-06-25T14:29:09.000Z</time>
                <name>Position 268</name>
            </trkpt>
            <trkpt lon="-104.9165833" lat="38.86332989">
                <ele>1981.0</ele>
                <time>2008-06-25T14:29:10.000Z</time>
                <name>Position 269</name>
            </trkpt>
            <trkpt lon="-104.91680491" lat="38.86341166">
                <ele>1981.0</ele>
                <time>2008-06-25T14:29:11.000Z</time>
                <name>Position 270</name>
            </trkpt>
            <trkpt lon="-104.91703165" lat="38.86348832">
                <ele>1981.0</ele>
                <time>2008-06-25T14:29:12.000Z</time>
                <name>Position 271</name>
            </trkpt>
            <trkpt lon="-104.9172616" lat="38.86356163">
                <ele>1979.0</ele>
                <time>2008-06-25T14:29:13.000Z</time>
                <name>Position 272</name>
            </trkpt>
            <trkpt lon="-104.91749156" lat="38.86363328">
                <ele>1979.0</ele>
                <time>2008-06-25T14:29:14.000Z</time>
                <name>Position 273</name>
            </trkpt>
            <trkpt lon="-104.91772163" lat="38.86370492">
                <ele>1979.0</ele>
                <time>2008-06-25T14:29:15.000Z</time>
                <name>Position 274</name>
            </trkpt>
            <trkpt lon="-104.91795158" lat="38.86377656">
                <ele>2011.0</ele>
                <time>2008-06-25T14:29:16.000Z</time>
                <name>Position 275</name>
            </trkpt>
            <trkpt lon="-104.91817999" lat="38.86385">
                <ele>2011.0</ele>
                <time>2008-06-25T14:29:17.000Z</time>
                <name>Position 276</name>
            </trkpt>
            <trkpt lon="-104.91840661" lat="38.86392331">
                <ele>2011.0</ele>
                <time>2008-06-25T14:29:18.000Z</time>
                <name>Position 277</name>
            </trkpt>
            <trkpt lon="-104.91863322" lat="38.86399829">
                <ele>2011.0</ele>
                <time>2008-06-25T14:29:19.000Z</time>
                <name>Position 278</name>
            </trkpt>
            <trkpt lon="-104.91885996" lat="38.86407328">
                <ele>2014.0</ele>
                <time>2008-06-25T14:29:20.000Z</time>
                <name>Position 279</name>
            </trkpt>
            <trkpt lon="-104.91908491" lat="38.8641516">
                <ele>2014.0</ele>
                <time>2008-06-25T14:29:21.000Z</time>
                <name>Position 280</name>
            </trkpt>
            <trkpt lon="-104.91929996" lat="38.86423492">
                <ele>2014.0</ele>
                <time>2008-06-25T14:29:22.000Z</time>
                <name>Position 281</name>
            </trkpt>
            <trkpt lon="-104.91950989" lat="38.86432493">
                <ele>2014.0</ele>
                <time>2008-06-25T14:29:23.000Z</time>
                <name>Position 282</name>
            </trkpt>
            <trkpt lon="-104.91971159" lat="38.86441827">
                <ele>2009.0</ele>
                <time>2008-06-25T14:29:24.000Z</time>
                <name>Position 283</name>
            </trkpt>
            <trkpt lon="-104.91990995" lat="38.86451828">
                <ele>2009.0</ele>
                <time>2008-06-25T14:29:25.000Z</time>
                <name>Position 284</name>
            </trkpt>
            <trkpt lon="-104.92010331" lat="38.86462831">
                <ele>2025.0</ele>
                <time>2008-06-25T14:29:26.000Z</time>
                <name>Position 285</name>
            </trkpt>
            <trkpt lon="-104.92028832" lat="38.86474657">
                <ele>2025.0</ele>
                <time>2008-06-25T14:29:27.000Z</time>
                <name>Position 286</name>
            </trkpt>
            <trkpt lon="-104.92046499" lat="38.86487329">
                <ele>2011.0</ele>
                <time>2008-06-25T14:29:28.000Z</time>
                <name>Position 287</name>
            </trkpt>
            <trkpt lon="-104.92063999" lat="38.86500657">
                <ele>2011.0</ele>
                <time>2008-06-25T14:29:29.000Z</time>
                <name>Position 288</name>
            </trkpt>
            <trkpt lon="-104.92081499" lat="38.86514497">
                <ele>2011.0</ele>
                <time>2008-06-25T14:29:30.000Z</time>
                <name>Position 289</name>
            </trkpt>
            <trkpt lon="-104.92098665" lat="38.86528659">
                <ele>2011.0</ele>
                <time>2008-06-25T14:29:31.000Z</time>
                <name>Position 290</name>
            </trkpt>
            <trkpt lon="-104.92115331" lat="38.86543655">
                <ele>2033.0</ele>
                <time>2008-06-25T14:29:32.000Z</time>
                <name>Position 291</name>
            </trkpt>
            <trkpt lon="-104.92130995" lat="38.86559498">
                <ele>2007.0</ele>
                <time>2008-06-25T14:29:33.000Z</time>
                <name>Position 292</name>
            </trkpt>
            <trkpt lon="-104.92145824" lat="38.86576164">
                <ele>2007.0</ele>
                <time>2008-06-25T14:29:34.000Z</time>
                <name>Position 293</name>
            </trkpt>
            <trkpt lon="-104.92159665" lat="38.86593664">
                <ele>2007.0</ele>
                <time>2008-06-25T14:29:35.000Z</time>
                <name>Position 294</name>
            </trkpt>
            <trkpt lon="-104.92172492" lat="38.86611664">
                <ele>2007.0</ele>
                <time>2008-06-25T14:29:36.000Z</time>
                <name>Position 295</name>
            </trkpt>
            <trkpt lon="-104.92184997" lat="38.86629832">
                <ele>2028.0</ele>
                <time>2008-06-25T14:29:37.000Z</time>
                <name>Position 296</name>
            </trkpt>
            <trkpt lon="-104.92196822" lat="38.86647999">
                <ele>2028.0</ele>
                <time>2008-06-25T14:29:38.000Z</time>
                <name>Position 297</name>
            </trkpt>
            <trkpt lon="-104.92208493" lat="38.86666155">
                <ele>1999.0</ele>
                <time>2008-06-25T14:29:39.000Z</time>
                <name>Position 298</name>
            </trkpt>
            <trkpt lon="-104.9221983" lat="38.86684322">
                <ele>1999.0</ele>
                <time>2008-06-25T14:29:40.000Z</time>
                <name>Position 299</name>
            </trkpt>
            <trkpt lon="-104.92231166" lat="38.8670249">
                <ele>1999.0</ele>
                <time>2008-06-25T14:29:41.000Z</time>
                <name>Position 300</name>
            </trkpt>
            <trkpt lon="-104.92242491" lat="38.86720657">
                <ele>2012.0</ele>
                <time>2008-06-25T14:29:42.000Z</time>
                <name>Position 301</name>
            </trkpt>
            <trkpt lon="-104.92254162" lat="38.86738825">
                <ele>2012.0</ele>
                <time>2008-06-25T14:29:43.000Z</time>
                <name>Position 302</name>
            </trkpt>
            <trkpt lon="-104.92265832" lat="38.86756825">
                <ele>2012.0</ele>
                <time>2008-06-25T14:29:44.000Z</time>
                <name>Position 303</name>
            </trkpt>
            <trkpt lon="-104.92277658" lat="38.86774993">
                <ele>2012.0</ele>
                <time>2008-06-25T14:29:45.000Z</time>
                <name>Position 304</name>
            </trkpt>
            <trkpt lon="-104.92289662" lat="38.8679316">
                <ele>2033.0</ele>
                <time>2008-06-25T14:29:46.000Z</time>
                <name>Position 305</name>
            </trkpt>
            <trkpt lon="-104.92301989" lat="38.86811328">
                <ele>2011.0</ele>
                <time>2008-06-25T14:29:47.000Z</time>
                <name>Position 306</name>
            </trkpt>
            <trkpt lon="-104.92314661" lat="38.86829495">
                <ele>2011.0</ele>
                <time>2008-06-25T14:29:48.000Z</time>
                <name>Position 307</name>
            </trkpt>
            <trkpt lon="-104.92327332" lat="38.86847663">
                <ele>2011.0</ele>
                <time>2008-06-25T14:29:49.000Z</time>
                <name>Position 308</name>
            </trkpt>
            <trkpt lon="-104.92340159" lat="38.8686583">
                <ele>2011.0</ele>
                <time>2008-06-25T14:29:50.000Z</time>
                <name>Position 309</name>
            </trkpt>
            <trkpt lon="-104.92353165" lat="38.86884165">
                <ele>2038.0</ele>
                <time>2008-06-25T14:29:51.000Z</time>
                <name>Position 310</name>
            </trkpt>
            <trkpt lon="-104.92365992" lat="38.86902499">
                <ele>2038.0</ele>
                <time>2008-06-25T14:29:52.000Z</time>
                <name>Position 311</name>
            </trkpt>
            <trkpt lon="-104.92378998" lat="38.86920655">
                <ele>2012.0</ele>
                <time>2008-06-25T14:29:53.000Z</time>
                <name>Position 312</name>
            </trkpt>
            <trkpt lon="-104.92392492" lat="38.86938822">
                <ele>2012.0</ele>
                <time>2008-06-25T14:29:54.000Z</time>
                <name>Position 313</name>
            </trkpt>
            <trkpt lon="-104.92406666" lat="38.86956656">
                <ele>2012.0</ele>
                <time>2008-06-25T14:29:55.000Z</time>
                <name>Position 314</name>
            </trkpt>
            <trkpt lon="-104.92421663" lat="38.86974156">
                <ele>2029.0</ele>
                <time>2008-06-25T14:29:56.000Z</time>
                <name>Position 315</name>
            </trkpt>
            <trkpt lon="-104.92437327" lat="38.86991155">
                <ele>2029.0</ele>
                <time>2008-06-25T14:29:57.000Z</time>
                <name>Position 316</name>
            </trkpt>
            <trkpt lon="-104.92453825" lat="38.87007499">
                <ele>2029.0</ele>
                <time>2008-06-25T14:29:58.000Z</time>
                <name>Position 317</name>
            </trkpt>
            <trkpt lon="-104.92471325" lat="38.87023497">
                <ele>2014.0</ele>
                <time>2008-06-25T14:29:59.000Z</time>
                <name>Position 318</name>
            </trkpt>
            <trkpt lon="-104.9248966" lat="38.87038827">
                <ele>2014.0</ele>
                <time>2008-06-25T14:30:00.000Z</time>
                <name>Position 319</name>
            </trkpt>
            <trkpt lon="-104.92508495" lat="38.87053823">
                <ele>2039.0</ele>
                <time>2008-06-25T14:30:01.000Z</time>
                <name>Position 320</name>
            </trkpt>
            <trkpt lon="-104.92528164" lat="38.87068498">
                <ele>2039.0</ele>
                <time>2008-06-25T14:30:02.000Z</time>
                <name>Position 321</name>
            </trkpt>
            <trkpt lon="-104.92547822" lat="38.87083161">
                <ele>2028.0</ele>
                <time>2008-06-25T14:30:03.000Z</time>
                <name>Position 322</name>
            </trkpt>
            <trkpt lon="-104.92567658" lat="38.87097824">
                <ele>2028.0</ele>
                <time>2008-06-25T14:30:04.000Z</time>
                <name>Position 323</name>
            </trkpt>
            <trkpt lon="-104.92587495" lat="38.87112665">
                <ele>2028.0</ele>
                <time>2008-06-25T14:30:05.000Z</time>
                <name>Position 324</name>
            </trkpt>
            <trkpt lon="-104.92606831" lat="38.87127495">
                <ele>2050.0</ele>
                <time>2008-06-25T14:30:06.000Z</time>
                <name>Position 325</name>
            </trkpt>
            <trkpt lon="-104.92625666" lat="38.87142658">
                <ele>2029.0</ele>
                <time>2008-06-25T14:30:07.000Z</time>
                <name>Position 326</name>
            </trkpt>
            <trkpt lon="-104.92643988" lat="38.87157989">
                <ele>2029.0</ele>
                <time>2008-06-25T14:30:08.000Z</time>
                <name>Position 327</name>
            </trkpt>
            <trkpt lon="-104.92661655" lat="38.87173498">
                <ele>2029.0</ele>
                <time>2008-06-25T14:30:09.000Z</time>
                <name>Position 328</name>
            </trkpt>
            <trkpt lon="-104.92678499" lat="38.87189162">
                <ele>2029.0</ele>
                <time>2008-06-25T14:30:10.000Z</time>
                <name>Position 329</name>
            </trkpt>
            <trkpt lon="-104.92694831" lat="38.8720516">
                <ele>2029.0</ele>
                <time>2008-06-25T14:30:11.000Z</time>
                <name>Position 330</name>
            </trkpt>
            <trkpt lon="-104.92710829" lat="38.87221158">
                <ele>2030.0</ele>
                <time>2008-06-25T14:30:12.000Z</time>
                <name>Position 331</name>
            </trkpt>
            <trkpt lon="-104.92726326" lat="38.87237155">
                <ele>2030.0</ele>
                <time>2008-06-25T14:30:13.000Z</time>
                <name>Position 332</name>
            </trkpt>
            <trkpt lon="-104.92741656" lat="38.87253165">
                <ele>2030.0</ele>
                <time>2008-06-25T14:30:14.000Z</time>
                <name>Position 333</name>
            </trkpt>
            <trkpt lon="-104.92756832" lat="38.87268996">
                <ele>2030.0</ele>
                <time>2008-06-25T14:30:15.000Z</time>
                <name>Position 334</name>
            </trkpt>
            <trkpt lon="-104.92771494" lat="38.87284827">
                <ele>2030.0</ele>
                <time>2008-06-25T14:30:16.000Z</time>
                <name>Position 335</name>
            </trkpt>
            <trkpt lon="-104.92785323" lat="38.87300658">
                <ele>2046.0</ele>
                <time>2008-06-25T14:30:17.000Z</time>
                <name>Position 336</name>
            </trkpt>
            <trkpt lon="-104.92798662" lat="38.87316656">
                <ele>2033.0</ele>
                <time>2008-06-25T14:30:18.000Z</time>
                <name>Position 337</name>
            </trkpt>
            <trkpt lon="-104.92811322" lat="38.87332666">
                <ele>2033.0</ele>
                <time>2008-06-25T14:30:19.000Z</time>
                <name>Position 338</name>
            </trkpt>
            <trkpt lon="-104.92822993" lat="38.87348998">
                <ele>2033.0</ele>
                <time>2008-06-25T14:30:20.000Z</time>
                <name>Position 339</name>
            </trkpt>
            <trkpt lon="-104.92833662" lat="38.87365162">
                <ele>2033.0</ele>
                <time>2008-06-25T14:30:21.000Z</time>
                <name>Position 340</name>
            </trkpt>
            <trkpt lon="-104.92843664" lat="38.87381494">
                <ele>2053.0</ele>
                <time>2008-06-25T14:30:22.000Z</time>
                <name>Position 341</name>
            </trkpt>
            <trkpt lon="-104.92853165" lat="38.87397826">
                <ele>2053.0</ele>
                <time>2008-06-25T14:30:23.000Z</time>
                <name>Position 342</name>
            </trkpt>
            <trkpt lon="-104.92862332" lat="38.87414157">
                <ele>2053.0</ele>
                <time>2008-06-25T14:30:24.000Z</time>
                <name>Position 343</name>
            </trkpt>
            <trkpt lon="-104.92871499" lat="38.87430489">
                <ele>2053.0</ele>
                <time>2008-06-25T14:30:25.000Z</time>
                <name>Position 344</name>
            </trkpt>
            <trkpt lon="-104.92880666" lat="38.87446666">
                <ele>2043.0</ele>
                <time>2008-06-25T14:30:26.000Z</time>
                <name>Position 345</name>
            </trkpt>
            <trkpt lon="-104.92889988" lat="38.87462831">
                <ele>2049.0</ele>
                <time>2008-06-25T14:30:27.000Z</time>
                <name>Position 346</name>
            </trkpt>
            <trkpt lon="-104.92899323" lat="38.87478828">
                <ele>2049.0</ele>
                <time>2008-06-25T14:30:28.000Z</time>
                <name>Position 347</name>
            </trkpt>
            <trkpt lon="-104.92908657" lat="38.87494826">
                <ele>2049.0</ele>
                <time>2008-06-25T14:30:29.000Z</time>
                <name>Position 348</name>
            </trkpt>
            <trkpt lon="-104.92918324" lat="38.87510324">
                <ele>2049.0</ele>
                <time>2008-06-25T14:30:30.000Z</time>
                <name>Position 349</name>
            </trkpt>
            <trkpt lon="-104.9292866" lat="38.87525666">
                <ele>2049.0</ele>
                <time>2008-06-25T14:30:31.000Z</time>
                <name>Position 350</name>
            </trkpt>
            <trkpt lon="-104.9293983" lat="38.87540329">
                <ele>2049.0</ele>
                <time>2008-06-25T14:30:32.000Z</time>
                <name>Position 351</name>
            </trkpt>
            <trkpt lon="-104.92952156" lat="38.87554491">
                <ele>2062.0</ele>
                <time>2008-06-25T14:30:33.000Z</time>
                <name>Position 352</name>
            </trkpt>
            <trkpt lon="-104.92965496" lat="38.87567663">
                <ele>2060.0</ele>
                <time>2008-06-25T14:30:34.000Z</time>
                <name>Position 353</name>
            </trkpt>
            <trkpt lon="-104.92980158" lat="38.87580156">
                <ele>2060.0</ele>
                <time>2008-06-25T14:30:35.000Z</time>
                <name>Position 354</name>
            </trkpt>
            <trkpt lon="-104.92996156" lat="38.87591326">
                <ele>2060.0</ele>
                <time>2008-06-25T14:30:36.000Z</time>
                <name>Position 355</name>
            </trkpt>
            <trkpt lon="-104.93013656" lat="38.87601662">
                <ele>2060.0</ele>
                <time>2008-06-25T14:30:37.000Z</time>
                <name>Position 356</name>
            </trkpt>
            <trkpt lon="-104.93032157" lat="38.87610829">
                <ele>2060.0</ele>
                <time>2008-06-25T14:30:38.000Z</time>
                <name>Position 357</name>
            </trkpt>
            <trkpt lon="-104.93051994" lat="38.87618828">
                <ele>2068.0</ele>
                <time>2008-06-25T14:30:39.000Z</time>
                <name>Position 358</name>
            </trkpt>
            <trkpt lon="-104.93072665" lat="38.87625659">
                <ele>2084.0</ele>
                <time>2008-06-25T14:30:40.000Z</time>
                <name>Position 359</name>
            </trkpt>
            <trkpt lon="-104.93094158" lat="38.87631667">
                <ele>2084.0</ele>
                <time>2008-06-25T14:30:41.000Z</time>
                <name>Position 360</name>
            </trkpt>
            <trkpt lon="-104.93116665" lat="38.87636662">
                <ele>2084.0</ele>
                <time>2008-06-25T14:30:42.000Z</time>
                <name>Position 361</name>
            </trkpt>
            <trkpt lon="-104.9313966" lat="38.8764149">
                <ele>2079.0</ele>
                <time>2008-06-25T14:30:43.000Z</time>
                <name>Position 362</name>
            </trkpt>
            <trkpt lon="-104.93162823" lat="38.87645829">
                <ele>2079.0</ele>
                <time>2008-06-25T14:30:44.000Z</time>
                <name>Position 363</name>
            </trkpt>
            <trkpt lon="-104.93186164" lat="38.87649989">
                <ele>2079.0</ele>
                <time>2008-06-25T14:30:45.000Z</time>
                <name>Position 364</name>
            </trkpt>
            <trkpt lon="-104.9320966" lat="38.87654161">
                <ele>2077.0</ele>
                <time>2008-06-25T14:30:46.000Z</time>
                <name>Position 365</name>
            </trkpt>
            <trkpt lon="-104.93233323" lat="38.87658155">
                <ele>2077.0</ele>
                <time>2008-06-25T14:30:47.000Z</time>
                <name>Position 366</name>
            </trkpt>
            <trkpt lon="-104.93257165" lat="38.8766216">
                <ele>2077.0</ele>
                <time>2008-06-25T14:30:48.000Z</time>
                <name>Position 367</name>
            </trkpt>
            <trkpt lon="-104.93281162" lat="38.87665498">
                <ele>2077.0</ele>
                <time>2008-06-25T14:30:49.000Z</time>
                <name>Position 368</name>
            </trkpt>
            <trkpt lon="-104.93305492" lat="38.8766799">
                <ele>2077.0</ele>
                <time>2008-06-25T14:30:50.000Z</time>
                <name>Position 369</name>
            </trkpt>
            <trkpt lon="-104.93329823" lat="38.87669826">
                <ele>2077.0</ele>
                <time>2008-06-25T14:30:51.000Z</time>
                <name>Position 370</name>
            </trkpt>
            <trkpt lon="-104.93354166" lat="38.87670994">
                <ele>2077.0</ele>
                <time>2008-06-25T14:30:52.000Z</time>
                <name>Position 371</name>
            </trkpt>
            <trkpt lon="-104.93377995" lat="38.87671328">
                <ele>2087.0</ele>
                <time>2008-06-25T14:30:53.000Z</time>
                <name>Position 372</name>
            </trkpt>
            <trkpt lon="-104.93401325" lat="38.87670827">
                <ele>2087.0</ele>
                <time>2008-06-25T14:30:54.000Z</time>
                <name>Position 373</name>
            </trkpt>
            <trkpt lon="-104.93423998" lat="38.87668991">
                <ele>2087.0</ele>
                <time>2008-06-25T14:30:55.000Z</time>
                <name>Position 374</name>
            </trkpt>
            <trkpt lon="-104.93445992" lat="38.87665665">
                <ele>2087.0</ele>
                <time>2008-06-25T14:30:56.000Z</time>
                <name>Position 375</name>
            </trkpt>
            <trkpt lon="-104.93467331" lat="38.87660992">
                <ele>2096.0</ele>
                <time>2008-06-25T14:30:57.000Z</time>
                <name>Position 376</name>
            </trkpt>
            <trkpt lon="-104.9348799" lat="38.87654996">
                <ele>2096.0</ele>
                <time>2008-06-25T14:30:58.000Z</time>
                <name>Position 377</name>
            </trkpt>
            <trkpt lon="-104.93507826" lat="38.87647665">
                <ele>2096.0</ele>
                <time>2008-06-25T14:30:59.000Z</time>
                <name>Position 378</name>
            </trkpt>
            <trkpt lon="-104.93526995" lat="38.87639832">
                <ele>2096.0</ele>
                <time>2008-06-25T14:31:00.000Z</time>
                <name>Position 379</name>
            </trkpt>
            <trkpt lon="-104.9354583" lat="38.87631822">
                <ele>2114.0</ele>
                <time>2008-06-25T14:31:01.000Z</time>
                <name>Position 380</name>
            </trkpt>
            <trkpt lon="-104.93565166" lat="38.8762449">
                <ele>2093.0</ele>
                <time>2008-06-25T14:31:02.000Z</time>
                <name>Position 381</name>
            </trkpt>
            <trkpt lon="-104.93585324" lat="38.87618828">
                <ele>2093.0</ele>
                <time>2008-06-25T14:31:03.000Z</time>
                <name>Position 382</name>
            </trkpt>
            <trkpt lon="-104.93605995" lat="38.87614989">
                <ele>2093.0</ele>
                <time>2008-06-25T14:31:04.000Z</time>
                <name>Position 383</name>
            </trkpt>
            <trkpt lon="-104.93626833" lat="38.87614">
                <ele>2104.0</ele>
                <time>2008-06-25T14:31:05.000Z</time>
                <name>Position 384</name>
            </trkpt>
            <trkpt lon="-104.93647659" lat="38.8761549">
                <ele>2104.0</ele>
                <time>2008-06-25T14:31:06.000Z</time>
                <name>Position 385</name>
            </trkpt>
            <trkpt lon="-104.93667996" lat="38.87619662">
                <ele>2104.0</ele>
                <time>2008-06-25T14:31:07.000Z</time>
                <name>Position 386</name>
            </trkpt>
            <trkpt lon="-104.93687165" lat="38.87626493">
                <ele>2111.0</ele>
                <time>2008-06-25T14:31:08.000Z</time>
                <name>Position 387</name>
            </trkpt>
            <trkpt lon="-104.93704164" lat="38.87635994">
                <ele>2111.0</ele>
                <time>2008-06-25T14:31:09.000Z</time>
                <name>Position 388</name>
            </trkpt>
            <trkpt lon="-104.9371866" lat="38.87647998">
                <ele>2105.0</ele>
                <time>2008-06-25T14:31:10.000Z</time>
                <name>Position 389</name>
            </trkpt>
            <trkpt lon="-104.93730998" lat="38.87661159">
                <ele>2105.0</ele>
                <time>2008-06-25T14:31:11.000Z</time>
                <name>Position 390</name>
            </trkpt>
            <trkpt lon="-104.93741488" lat="38.87675166">
                <ele>2105.0</ele>
                <time>2008-06-25T14:31:12.000Z</time>
                <name>Position 391</name>
            </trkpt>
            <trkpt lon="-104.93751824" lat="38.87689161">
                <ele>2105.0</ele>
                <time>2008-06-25T14:31:13.000Z</time>
                <name>Position 392</name>
            </trkpt>
            <trkpt lon="-104.93762827" lat="38.8770299">
                <ele>2105.0</ele>
                <time>2008-06-25T14:31:14.000Z</time>
                <name>Position 393</name>
            </trkpt>
            <trkpt lon="-104.93776166" lat="38.87715495">
                <ele>2113.0</ele>
                <time>2008-06-25T14:31:15.000Z</time>
                <name>Position 394</name>
            </trkpt>
            <trkpt lon="-104.93791831" lat="38.8772583">
                <ele>2112.0</ele>
                <time>2008-06-25T14:31:16.000Z</time>
                <name>Position 395</name>
            </trkpt>
            <trkpt lon="-104.93809164" lat="38.87734163">
                <ele>2112.0</ele>
                <time>2008-06-25T14:31:17.000Z</time>
                <name>Position 396</name>
            </trkpt>
            <trkpt lon="-104.93827665" lat="38.8774066">
                <ele>2112.0</ele>
                <time>2008-06-25T14:31:18.000Z</time>
                <name>Position 397</name>
            </trkpt>
            <trkpt lon="-104.93847322" lat="38.87745667">
                <ele>2112.0</ele>
                <time>2008-06-25T14:31:19.000Z</time>
                <name>Position 398</name>
            </trkpt>
            <trkpt lon="-104.93867159" lat="38.87749994">
                <ele>2112.0</ele>
                <time>2008-06-25T14:31:20.000Z</time>
                <name>Position 399</name>
            </trkpt>
            <trkpt lon="-104.93886995" lat="38.87754655">
                <ele>2113.0</ele>
                <time>2008-06-25T14:31:21.000Z</time>
                <name>Position 400</name>
            </trkpt>
            <trkpt lon="-104.93906665" lat="38.87759829">
                <ele>2113.0</ele>
                <time>2008-06-25T14:31:22.000Z</time>
                <name>Position 401</name>
            </trkpt>
            <trkpt lon="-104.93926322" lat="38.87765658">
                <ele>2113.0</ele>
                <time>2008-06-25T14:31:23.000Z</time>
                <name>Position 402</name>
            </trkpt>
            <trkpt lon="-104.93945992" lat="38.87772322">
                <ele>2113.0</ele>
                <time>2008-06-25T14:31:24.000Z</time>
                <name>Position 403</name>
            </trkpt>
            <trkpt lon="-104.93965495" lat="38.87779999">
                <ele>2126.0</ele>
                <time>2008-06-25T14:31:25.000Z</time>
                <name>Position 404</name>
            </trkpt>
            <trkpt lon="-104.9398483" lat="38.87787998">
                <ele>2126.0</ele>
                <time>2008-06-25T14:31:26.000Z</time>
                <name>Position 405</name>
            </trkpt>
            <trkpt lon="-104.94003999" lat="38.87796831">
                <ele>2132.0</ele>
                <time>2008-06-25T14:31:27.000Z</time>
                <name>Position 406</name>
            </trkpt>
            <trkpt lon="-104.94022989" lat="38.87806666">
                <ele>2132.0</ele>
                <time>2008-06-25T14:31:28.000Z</time>
                <name>Position 407</name>
            </trkpt>
            <trkpt lon="-104.94041824" lat="38.87816989">
                <ele>2127.0</ele>
                <time>2008-06-25T14:31:29.000Z</time>
                <name>Position 408</name>
            </trkpt>
            <trkpt lon="-104.94060159" lat="38.87828159">
                <ele>2127.0</ele>
                <time>2008-06-25T14:31:30.000Z</time>
                <name>Position 409</name>
            </trkpt>
            <trkpt lon="-104.94078159" lat="38.87839997">
                <ele>2127.0</ele>
                <time>2008-06-25T14:31:31.000Z</time>
                <name>Position 410</name>
            </trkpt>
            <trkpt lon="-104.94095826" lat="38.87851489">
                <ele>2127.0</ele>
                <time>2008-06-25T14:31:32.000Z</time>
                <name>Position 411</name>
            </trkpt>
            <trkpt lon="-104.94113827" lat="38.87862158">
                <ele>2127.0</ele>
                <time>2008-06-25T14:31:33.000Z</time>
                <name>Position 412</name>
            </trkpt>
            <trkpt lon="-104.94132495" lat="38.87871158">
                <ele>2136.0</ele>
                <time>2008-06-25T14:31:34.000Z</time>
                <name>Position 413</name>
            </trkpt>
            <trkpt lon="-104.94151998" lat="38.87878156">
                <ele>2137.0</ele>
                <time>2008-06-25T14:31:35.000Z</time>
                <name>Position 414</name>
            </trkpt>
            <trkpt lon="-104.94172156" lat="38.87882662">
                <ele>2137.0</ele>
                <time>2008-06-25T14:31:36.000Z</time>
                <name>Position 415</name>
            </trkpt>
            <trkpt lon="-104.94192827" lat="38.87884331">
                <ele>2137.0</ele>
                <time>2008-06-25T14:31:37.000Z</time>
                <name>Position 416</name>
            </trkpt>
            <trkpt lon="-104.94213498" lat="38.8788383">
                <ele>2141.0</ele>
                <time>2008-06-25T14:31:38.000Z</time>
                <name>Position 417</name>
            </trkpt>
            <trkpt lon="-104.9423399" lat="38.8788116">
                <ele>2141.0</ele>
                <time>2008-06-25T14:31:39.000Z</time>
                <name>Position 418</name>
            </trkpt>
            <trkpt lon="-104.94254327" lat="38.87876832">
                <ele>2141.0</ele>
                <time>2008-06-25T14:31:40.000Z</time>
                <name>Position 419</name>
            </trkpt>
            <trkpt lon="-104.94274664" lat="38.87871826">
                <ele>2141.0</ele>
                <time>2008-06-25T14:31:41.000Z</time>
                <name>Position 420</name>
            </trkpt>
            <trkpt lon="-104.94295156" lat="38.8786633">
                <ele>2138.0</ele>
                <time>2008-06-25T14:31:42.000Z</time>
                <name>Position 421</name>
            </trkpt>
            <trkpt lon="-104.9431566" lat="38.87860823">
                <ele>2138.0</ele>
                <time>2008-06-25T14:31:43.000Z</time>
                <name>Position 422</name>
            </trkpt>
            <trkpt lon="-104.94336331" lat="38.87855327">
                <ele>2138.0</ele>
                <time>2008-06-25T14:31:44.000Z</time>
                <name>Position 423</name>
            </trkpt>
            <trkpt lon="-104.94356656" lat="38.87850499">
                <ele>2138.0</ele>
                <time>2008-06-25T14:31:45.000Z</time>
                <name>Position 424</name>
            </trkpt>
            <trkpt lon="-104.94376659" lat="38.87847161">
                <ele>2137.0</ele>
                <time>2008-06-25T14:31:46.000Z</time>
                <name>Position 425</name>
            </trkpt>
            <trkpt lon="-104.94396329" lat="38.87845826">
                <ele>2137.0</ele>
                <time>2008-06-25T14:31:47.000Z</time>
                <name>Position 426</name>
            </trkpt>
            <trkpt lon="-104.94415832" lat="38.87846327">
                <ele>2137.0</ele>
                <time>2008-06-25T14:31:48.000Z</time>
                <name>Position 427</name>
            </trkpt>
            <trkpt lon="-104.94435489" lat="38.87848663">
                <ele>2137.0</ele>
                <time>2008-06-25T14:31:49.000Z</time>
                <name>Position 428</name>
            </trkpt>
            <trkpt lon="-104.94455326" lat="38.87852156">
                <ele>2137.0</ele>
                <time>2008-06-25T14:31:50.000Z</time>
                <name>Position 429</name>
            </trkpt>
            <trkpt lon="-104.94475162" lat="38.87856662">
                <ele>2137.0</ele>
                <time>2008-06-25T14:31:51.000Z</time>
                <name>Position 430</name>
            </trkpt>
            <trkpt lon="-104.94494665" lat="38.87862492">
                <ele>2137.0</ele>
                <time>2008-06-25T14:31:52.000Z</time>
                <name>Position 431</name>
            </trkpt>
            <trkpt lon="-104.94513333" lat="38.87870157">
                <ele>2137.0</ele>
                <time>2008-06-25T14:31:53.000Z</time>
                <name>Position 432</name>
            </trkpt>
            <trkpt lon="-104.94531" lat="38.87879658">
                <ele>2158.0</ele>
                <time>2008-06-25T14:31:54.000Z</time>
                <name>Position 433</name>
            </trkpt>
            <trkpt lon="-104.94547498" lat="38.87890494">
                <ele>2145.0</ele>
                <time>2008-06-25T14:31:55.000Z</time>
                <name>Position 434</name>
            </trkpt>
            <trkpt lon="-104.94563663" lat="38.87902832">
                <ele>2145.0</ele>
                <time>2008-06-25T14:31:56.000Z</time>
                <name>Position 435</name>
            </trkpt>
            <trkpt lon="-104.94578826" lat="38.8791666">
                <ele>2145.0</ele>
                <time>2008-06-25T14:31:57.000Z</time>
                <name>Position 436</name>
            </trkpt>
            <trkpt lon="-104.94592333" lat="38.87931824">
                <ele>2145.0</ele>
                <time>2008-06-25T14:31:58.000Z</time>
                <name>Position 437</name>
            </trkpt>
            <trkpt lon="-104.9460566" lat="38.87947667">
                <ele>2145.0</ele>
                <time>2008-06-25T14:31:59.000Z</time>
                <name>Position 438</name>
            </trkpt>
            <trkpt lon="-104.9462049" lat="38.87962663">
                <ele>2169.0</ele>
                <time>2008-06-25T14:32:00.000Z</time>
                <name>Position 439</name>
            </trkpt>
            <trkpt lon="-104.94636989" lat="38.87976825">
                <ele>2149.0</ele>
                <time>2008-06-25T14:32:01.000Z</time>
                <name>Position 440</name>
            </trkpt>
            <trkpt lon="-104.94655156" lat="38.87989831">
                <ele>2149.0</ele>
                <time>2008-06-25T14:32:02.000Z</time>
                <name>Position 441</name>
            </trkpt>
            <trkpt lon="-104.94674659" lat="38.88001823">
                <ele>2149.0</ele>
                <time>2008-06-25T14:32:03.000Z</time>
                <name>Position 442</name>
            </trkpt>
            <trkpt lon="-104.94695163" lat="38.88012993">
                <ele>2149.0</ele>
                <time>2008-06-25T14:32:04.000Z</time>
                <name>Position 443</name>
            </trkpt>
            <trkpt lon="-104.94716489" lat="38.88022995">
                <ele>2158.0</ele>
                <time>2008-06-25T14:32:05.000Z</time>
                <name>Position 444</name>
            </trkpt>
            <trkpt lon="-104.94738328" lat="38.88031495">
                <ele>2158.0</ele>
                <time>2008-06-25T14:32:06.000Z</time>
                <name>Position 445</name>
            </trkpt>
            <trkpt lon="-104.94760656" lat="38.88038325">
                <ele>2158.0</ele>
                <time>2008-06-25T14:32:07.000Z</time>
                <name>Position 446</name>
            </trkpt>
            <trkpt lon="-104.94783163" lat="38.88044488">
                <ele>2165.0</ele>
                <time>2008-06-25T14:32:08.000Z</time>
                <name>Position 447</name>
            </trkpt>
            <trkpt lon="-104.94805658" lat="38.88050663">
                <ele>2156.0</ele>
                <time>2008-06-25T14:32:09.000Z</time>
                <name>Position 448</name>
            </trkpt>
            <trkpt lon="-104.94827831" lat="38.8805666">
                <ele>2156.0</ele>
                <time>2008-06-25T14:32:10.000Z</time>
                <name>Position 449</name>
            </trkpt>
            <trkpt lon="-104.94849992" lat="38.88062823">
                <ele>2156.0</ele>
                <time>2008-06-25T14:32:11.000Z</time>
                <name>Position 450</name>
            </trkpt>
            <trkpt lon="-104.94872165" lat="38.88069165">
                <ele>2156.0</ele>
                <time>2008-06-25T14:32:12.000Z</time>
                <name>Position 451</name>
            </trkpt>
            <trkpt lon="-104.94893992" lat="38.88075829">
                <ele>2154.0</ele>
                <time>2008-06-25T14:32:13.000Z</time>
                <name>Position 452</name>
            </trkpt>
            <trkpt lon="-104.94915164" lat="38.88083494">
                <ele>2154.0</ele>
                <time>2008-06-25T14:32:14.000Z</time>
                <name>Position 453</name>
            </trkpt>
            <trkpt lon="-104.94934833" lat="38.88092995">
                <ele>2154.0</ele>
                <time>2008-06-25T14:32:15.000Z</time>
                <name>Position 454</name>
            </trkpt>
            <trkpt lon="-104.94951999" lat="38.88104999">
                <ele>2154.0</ele>
                <time>2008-06-25T14:32:16.000Z</time>
                <name>Position 455</name>
            </trkpt>
            <trkpt lon="-104.94965994" lat="38.88118827">
                <ele>2164.0</ele>
                <time>2008-06-25T14:32:17.000Z</time>
                <name>Position 456</name>
            </trkpt>
            <trkpt lon="-104.9497683" lat="38.88134491">
                <ele>2150.0</ele>
                <time>2008-06-25T14:32:18.000Z</time>
                <name>Position 457</name>
            </trkpt>
            <trkpt lon="-104.94984829" lat="38.88151324">
                <ele>2150.0</ele>
                <time>2008-06-25T14:32:19.000Z</time>
                <name>Position 458</name>
            </trkpt>
            <trkpt lon="-104.94991493" lat="38.88168323">
                <ele>2150.0</ele>
                <time>2008-06-25T14:32:20.000Z</time>
                <name>Position 459</name>
            </trkpt>
            <trkpt lon="-104.94997323" lat="38.88185823">
                <ele>2150.0</ele>
                <time>2008-06-25T14:32:21.000Z</time>
                <name>Position 460</name>
            </trkpt>
            <trkpt lon="-104.95002997" lat="38.88203824">
                <ele>2150.0</ele>
                <time>2008-06-25T14:32:22.000Z</time>
                <name>Position 461</name>
            </trkpt>
            <trkpt lon="-104.95008826" lat="38.88222158">
                <ele>2160.0</ele>
                <time>2008-06-25T14:32:23.000Z</time>
                <name>Position 462</name>
            </trkpt>
            <trkpt lon="-104.95015323" lat="38.88240659">
                <ele>2160.0</ele>
                <time>2008-06-25T14:32:24.000Z</time>
                <name>Position 463</name>
            </trkpt>
            <trkpt lon="-104.95022333" lat="38.88259661">
                <ele>2160.0</ele>
                <time>2008-06-25T14:32:25.000Z</time>
                <name>Position 464</name>
            </trkpt>
            <trkpt lon="-104.95030165" lat="38.88278663">
                <ele>2160.0</ele>
                <time>2008-06-25T14:32:26.000Z</time>
                <name>Position 465</name>
            </trkpt>
            <trkpt lon="-104.95038164" lat="38.88298166">
                <ele>2171.0</ele>
                <time>2008-06-25T14:32:27.000Z</time>
                <name>Position 466</name>
            </trkpt>
            <trkpt lon="-104.95045996" lat="38.88317823">
                <ele>2157.0</ele>
                <time>2008-06-25T14:32:28.000Z</time>
                <name>Position 467</name>
            </trkpt>
            <trkpt lon="-104.95053494" lat="38.88337994">
                <ele>2157.0</ele>
                <time>2008-06-25T14:32:29.000Z</time>
                <name>Position 468</name>
            </trkpt>
            <trkpt lon="-104.95061159" lat="38.8835783">
                <ele>2157.0</ele>
                <time>2008-06-25T14:32:30.000Z</time>
                <name>Position 469</name>
            </trkpt>
            <trkpt lon="-104.95070493" lat="38.88377821">
                <ele>2171.0</ele>
                <time>2008-06-25T14:32:31.000Z</time>
                <name>Position 470</name>
            </trkpt>
            <trkpt lon="-104.95081663" lat="38.88397324">
                <ele>2171.0</ele>
                <time>2008-06-25T14:32:32.000Z</time>
                <name>Position 471</name>
            </trkpt>
            <trkpt lon="-104.95094824" lat="38.88416326">
                <ele>2171.0</ele>
                <time>2008-06-25T14:32:33.000Z</time>
                <name>Position 472</name>
            </trkpt>
            <trkpt lon="-104.95109999" lat="38.8843466">
                <ele>2171.0</ele>
                <time>2008-06-25T14:32:34.000Z</time>
                <name>Position 473</name>
            </trkpt>
            <trkpt lon="-104.95126832" lat="38.8845216">
                <ele>2171.0</ele>
                <time>2008-06-25T14:32:35.000Z</time>
                <name>Position 474</name>
            </trkpt>
            <trkpt lon="-104.95144999" lat="38.88468993">
                <ele>2174.0</ele>
                <time>2008-06-25T14:32:36.000Z</time>
                <name>Position 475</name>
            </trkpt>
            <trkpt lon="-104.95163822" lat="38.88485157">
                <ele>2174.0</ele>
                <time>2008-06-25T14:32:37.000Z</time>
                <name>Position 476</name>
            </trkpt>
            <trkpt lon="-104.95182657" lat="38.88501656">
                <ele>2174.0</ele>
                <time>2008-06-25T14:32:38.000Z</time>
                <name>Position 477</name>
            </trkpt>
            <trkpt lon="-104.95200825" lat="38.88518488">
                <ele>2174.0</ele>
                <time>2008-06-25T14:32:39.000Z</time>
                <name>Position 478</name>
            </trkpt>
            <trkpt lon="-104.95217657" lat="38.88536322">
                <ele>2175.0</ele>
                <time>2008-06-25T14:32:40.000Z</time>
                <name>Position 479</name>
            </trkpt>
            <trkpt lon="-104.95232999" lat="38.88554823">
                <ele>2178.0</ele>
                <time>2008-06-25T14:32:41.000Z</time>
                <name>Position 480</name>
            </trkpt>
            <trkpt lon="-104.95247662" lat="38.88573825">
                <ele>2178.0</ele>
                <time>2008-06-25T14:32:42.000Z</time>
                <name>Position 481</name>
            </trkpt>
            <trkpt lon="-104.95262492" lat="38.88592994">
                <ele>2178.0</ele>
                <time>2008-06-25T14:32:43.000Z</time>
                <name>Position 482</name>
            </trkpt>
            <trkpt lon="-104.95277333" lat="38.88611996">
                <ele>2178.0</ele>
                <time>2008-06-25T14:32:44.000Z</time>
                <name>Position 483</name>
            </trkpt>
            <trkpt lon="-104.95292163" lat="38.88630998">
                <ele>2184.0</ele>
                <time>2008-06-25T14:32:45.000Z</time>
                <name>Position 484</name>
            </trkpt>
            <trkpt lon="-104.95306826" lat="38.88649833">
                <ele>2184.0</ele>
                <time>2008-06-25T14:32:46.000Z</time>
                <name>Position 485</name>
            </trkpt>
            <trkpt lon="-104.95321321" lat="38.88668156">
                <ele>2184.0</ele>
                <time>2008-06-25T14:32:47.000Z</time>
                <name>Position 486</name>
            </trkpt>
            <trkpt lon="-104.95335495" lat="38.88685989">
                <ele>2184.0</ele>
                <time>2008-06-25T14:32:48.000Z</time>
                <name>Position 487</name>
            </trkpt>
            <trkpt lon="-104.95349824" lat="38.88703322">
                <ele>2184.0</ele>
                <time>2008-06-25T14:32:49.000Z</time>
                <name>Position 488</name>
            </trkpt>
            <trkpt lon="-104.95364165" lat="38.88720155">
                <ele>2212.0</ele>
                <time>2008-06-25T14:32:50.000Z</time>
                <name>Position 489</name>
            </trkpt>
            <trkpt lon="-104.95379663" lat="38.88735497">
                <ele>2191.0</ele>
                <time>2008-06-25T14:32:51.000Z</time>
                <name>Position 490</name>
            </trkpt>
            <trkpt lon="-104.95397162" lat="38.88748825">
                <ele>2191.0</ele>
                <time>2008-06-25T14:32:52.000Z</time>
                <name>Position 491</name>
            </trkpt>
            <trkpt lon="-104.95416665" lat="38.88758826">
                <ele>2191.0</ele>
                <time>2008-06-25T14:32:53.000Z</time>
                <name>Position 492</name>
            </trkpt>
            <trkpt lon="-104.95437491" lat="38.88765323">
                <ele>2191.0</ele>
                <time>2008-06-25T14:32:54.000Z</time>
                <name>Position 493</name>
            </trkpt>
            <trkpt lon="-104.95459163" lat="38.88769329">
                <ele>2194.0</ele>
                <time>2008-06-25T14:32:55.000Z</time>
                <name>Position 494</name>
            </trkpt>
            <trkpt lon="-104.95480156" lat="38.887725">
                <ele>2194.0</ele>
                <time>2008-06-25T14:32:56.000Z</time>
                <name>Position 495</name>
            </trkpt>
            <trkpt lon="-104.95500493" lat="38.88776159">
                <ele>2194.0</ele>
                <time>2008-06-25T14:32:57.000Z</time>
                <name>Position 496</name>
            </trkpt>
            <trkpt lon="-104.95519996" lat="38.88780499">
                <ele>2194.0</ele>
                <time>2008-06-25T14:32:58.000Z</time>
                <name>Position 497</name>
            </trkpt>
            <trkpt lon="-104.95539165" lat="38.88785326">
                <ele>2194.0</ele>
                <time>2008-06-25T14:32:59.000Z</time>
                <name>Position 498</name>
            </trkpt>
            <trkpt lon="-104.95558167" lat="38.88790822">
                <ele>2203.0</ele>
                <time>2008-06-25T14:33:00.000Z</time>
                <name>Position 499</name>
            </trkpt>
            <trkpt lon="-104.95576656" lat="38.88797832">
                <ele>2196.0</ele>
                <time>2008-06-25T14:33:01.000Z</time>
                <name>Position 500</name>
            </trkpt>
            <trkpt lon="-104.95593333" lat="38.88806832">
                <ele>2196.0</ele>
                <time>2008-06-25T14:33:02.000Z</time>
                <name>Position 501</name>
            </trkpt>
            <trkpt lon="-104.95607495" lat="38.88819158">
                <ele>2196.0</ele>
                <time>2008-06-25T14:33:03.000Z</time>
                <name>Position 502</name>
            </trkpt>
            <trkpt lon="-104.95619667" lat="38.88832664">
                <ele>2196.0</ele>
                <time>2008-06-25T14:33:04.000Z</time>
                <name>Position 503</name>
            </trkpt>
            <trkpt lon="-104.95631492" lat="38.88846493">
                <ele>2193.0</ele>
                <time>2008-06-25T14:33:05.000Z</time>
                <name>Position 504</name>
            </trkpt>
            <trkpt lon="-104.95643497" lat="38.888605">
                <ele>2193.0</ele>
                <time>2008-06-25T14:33:06.000Z</time>
                <name>Position 505</name>
            </trkpt>
            <trkpt lon="-104.95655322" lat="38.88874662">
                <ele>2193.0</ele>
                <time>2008-06-25T14:33:07.000Z</time>
                <name>Position 506</name>
            </trkpt>
            <trkpt lon="-104.95667493" lat="38.88888824">
                <ele>2207.0</ele>
                <time>2008-06-25T14:33:08.000Z</time>
                <name>Position 507</name>
            </trkpt>
            <trkpt lon="-104.95680666" lat="38.88902831">
                <ele>2207.0</ele>
                <time>2008-06-25T14:33:09.000Z</time>
                <name>Position 508</name>
            </trkpt>
            <trkpt lon="-104.95694828" lat="38.88916326">
                <ele>2207.0</ele>
                <time>2008-06-25T14:33:10.000Z</time>
                <name>Position 509</name>
            </trkpt>
            <trkpt lon="-104.95710158" lat="38.88929331">
                <ele>2199.0</ele>
                <time>2008-06-25T14:33:11.000Z</time>
                <name>Position 510</name>
            </trkpt>
            <trkpt lon="-104.95727158" lat="38.88941324">
                <ele>2199.0</ele>
                <time>2008-06-25T14:33:12.000Z</time>
                <name>Position 511</name>
            </trkpt>
            <trkpt lon="-104.95745492" lat="38.88952827">
                <ele>2199.0</ele>
                <time>2008-06-25T14:33:13.000Z</time>
                <name>Position 512</name>
            </trkpt>
            <trkpt lon="-104.95764828" lat="38.88963664">
                <ele>2225.0</ele>
                <time>2008-06-25T14:33:14.000Z</time>
                <name>Position 513</name>
            </trkpt>
            <trkpt lon="-104.95784664" lat="38.88974166">
                <ele>2225.0</ele>
                <time>2008-06-25T14:33:15.000Z</time>
                <name>Position 514</name>
            </trkpt>
            <trkpt lon="-104.95805156" lat="38.88984156">
                <ele>2205.0</ele>
                <time>2008-06-25T14:33:16.000Z</time>
                <name>Position 515</name>
            </trkpt>
            <trkpt lon="-104.95826328" lat="38.88992822">
                <ele>2205.0</ele>
                <time>2008-06-25T14:33:17.000Z</time>
                <name>Position 516</name>
            </trkpt>
            <trkpt lon="-104.95848489" lat="38.88999498">
                <ele>2205.0</ele>
                <time>2008-06-25T14:33:18.000Z</time>
                <name>Position 517</name>
            </trkpt>
            <trkpt lon="-104.95871496" lat="38.89003825">
                <ele>2205.0</ele>
                <time>2008-06-25T14:33:19.000Z</time>
                <name>Position 518</name>
            </trkpt>
            <trkpt lon="-104.95895159" lat="38.89006329">
                <ele>2204.0</ele>
                <time>2008-06-25T14:33:20.000Z</time>
                <name>Position 519</name>
            </trkpt>
            <trkpt lon="-104.95918989" lat="38.89007831">
                <ele>2204.0</ele>
                <time>2008-06-25T14:33:21.000Z</time>
                <name>Position 520</name>
            </trkpt>
            <trkpt lon="-104.95942497" lat="38.89009166">
                <ele>2204.0</ele>
                <time>2008-06-25T14:33:22.000Z</time>
                <name>Position 521</name>
            </trkpt>
            <trkpt lon="-104.95965493" lat="38.89010155">
                <ele>2206.0</ele>
                <time>2008-06-25T14:33:23.000Z</time>
                <name>Position 522</name>
            </trkpt>
            <trkpt lon="-104.95987833" lat="38.89009666">
                <ele>2206.0</ele>
                <time>2008-06-25T14:33:24.000Z</time>
                <name>Position 523</name>
            </trkpt>
            <trkpt lon="-104.96009326" lat="38.89006829">
                <ele>2206.0</ele>
                <time>2008-06-25T14:33:25.000Z</time>
                <name>Position 524</name>
            </trkpt>
            <trkpt lon="-104.96029496" lat="38.89001322">
                <ele>2206.0</ele>
                <time>2008-06-25T14:33:26.000Z</time>
                <name>Position 525</name>
            </trkpt>
            <trkpt lon="-104.96047664" lat="38.8899349">
                <ele>2213.0</ele>
                <time>2008-06-25T14:33:27.000Z</time>
                <name>Position 526</name>
            </trkpt>
            <trkpt lon="-104.96064496" lat="38.88984656">
                <ele>2213.0</ele>
                <time>2008-06-25T14:33:28.000Z</time>
                <name>Position 527</name>
            </trkpt>
            <trkpt lon="-104.96080828" lat="38.88975823">
                <ele>2213.0</ele>
                <time>2008-06-25T14:33:29.000Z</time>
                <name>Position 528</name>
            </trkpt>
            <trkpt lon="-104.96096826" lat="38.8896749">
                <ele>2213.0</ele>
                <time>2008-06-25T14:33:30.000Z</time>
                <name>Position 529</name>
            </trkpt>
            <trkpt lon="-104.96112657" lat="38.88959324">
                <ele>2213.0</ele>
                <time>2008-06-25T14:33:31.000Z</time>
                <name>Position 530</name>
            </trkpt>
            <trkpt lon="-104.96128333" lat="38.88951325">
                <ele>2215.0</ele>
                <time>2008-06-25T14:33:32.000Z</time>
                <name>Position 531</name>
            </trkpt>
            <trkpt lon="-104.96143663" lat="38.8894316">
                <ele>2215.0</ele>
                <time>2008-06-25T14:33:33.000Z</time>
                <name>Position 532</name>
            </trkpt>
            <trkpt lon="-104.96158659" lat="38.88935161">
                <ele>2215.0</ele>
                <time>2008-06-25T14:33:34.000Z</time>
                <name>Position 533</name>
            </trkpt>
            <trkpt lon="-104.96173322" lat="38.88926995">
                <ele>2215.0</ele>
                <time>2008-06-25T14:33:35.000Z</time>
                <name>Position 534</name>
            </trkpt>
            <trkpt lon="-104.96187997" lat="38.88918996">
                <ele>2215.0</ele>
                <time>2008-06-25T14:33:36.000Z</time>
                <name>Position 535</name>
            </trkpt>
            <trkpt lon="-104.9620266" lat="38.88911664">
                <ele>2215.0</ele>
                <time>2008-06-25T14:33:37.000Z</time>
                <name>Position 536</name>
            </trkpt>
            <trkpt lon="-104.96217155" lat="38.88905156">
                <ele>2225.0</ele>
                <time>2008-06-25T14:33:38.000Z</time>
                <name>Position 537</name>
            </trkpt>
            <trkpt lon="-104.9623183" lat="38.88899159">
                <ele>2225.0</ele>
                <time>2008-06-25T14:33:39.000Z</time>
                <name>Position 538</name>
            </trkpt>
            <trkpt lon="-104.9624666" lat="38.88893664">
                <ele>2225.0</ele>
                <time>2008-06-25T14:33:40.000Z</time>
                <name>Position 539</name>
            </trkpt>
            <trkpt lon="-104.96262157" lat="38.88888991">
                <ele>2225.0</ele>
                <time>2008-06-25T14:33:41.000Z</time>
                <name>Position 540</name>
            </trkpt>
            <trkpt lon="-104.96278322" lat="38.88885331">
                <ele>2225.0</ele>
                <time>2008-06-25T14:33:42.000Z</time>
                <name>Position 541</name>
            </trkpt>
            <trkpt lon="-104.96294999" lat="38.88882995">
                <ele>2223.0</ele>
                <time>2008-06-25T14:33:43.000Z</time>
                <name>Position 542</name>
            </trkpt>
            <trkpt lon="-104.96312165" lat="38.88882494">
                <ele>2223.0</ele>
                <time>2008-06-25T14:33:44.000Z</time>
                <name>Position 543</name>
            </trkpt>
            <trkpt lon="-104.96329165" lat="38.88884497">
                <ele>2223.0</ele>
                <time>2008-06-25T14:33:45.000Z</time>
                <name>Position 544</name>
            </trkpt>
            <trkpt lon="-104.96346164" lat="38.88889325">
                <ele>2223.0</ele>
                <time>2008-06-25T14:33:46.000Z</time>
                <name>Position 545</name>
            </trkpt>
            <trkpt lon="-104.96362162" lat="38.88895667">
                <ele>2223.0</ele>
                <time>2008-06-25T14:33:47.000Z</time>
                <name>Position 546</name>
            </trkpt>
            <trkpt lon="-104.96377993" lat="38.88903165">
                <ele>2218.0</ele>
                <time>2008-06-25T14:33:48.000Z</time>
                <name>Position 547</name>
            </trkpt>
            <trkpt lon="-104.96393824" lat="38.88911331">
                <ele>2218.0</ele>
                <time>2008-06-25T14:33:49.000Z</time>
                <name>Position 548</name>
            </trkpt>
            <trkpt lon="-104.96409822" lat="38.88920164">
                <ele>2218.0</ele>
                <time>2008-06-25T14:33:50.000Z</time>
                <name>Position 549</name>
            </trkpt>
            <trkpt lon="-104.96425998" lat="38.88929498">
                <ele>2218.0</ele>
                <time>2008-06-25T14:33:51.000Z</time>
                <name>Position 550</name>
            </trkpt>
            <trkpt lon="-104.96442163" lat="38.88939822">
                <ele>2218.0</ele>
                <time>2008-06-25T14:33:52.000Z</time>
                <name>Position 551</name>
            </trkpt>
            <trkpt lon="-104.96457326" lat="38.88951159">
                <ele>2218.0</ele>
                <time>2008-06-25T14:33:53.000Z</time>
                <name>Position 552</name>
            </trkpt>
            <trkpt lon="-104.96471322" lat="38.88962996">
                <ele>2222.0</ele>
                <time>2008-06-25T14:33:54.000Z</time>
                <name>Position 553</name>
            </trkpt>
            <trkpt lon="-104.96483994" lat="38.88975823">
                <ele>2222.0</ele>
                <time>2008-06-25T14:33:55.000Z</time>
                <name>Position 554</name>
            </trkpt>
            <trkpt lon="-104.96494496" lat="38.88989663">
                <ele>2222.0</ele>
                <time>2008-06-25T14:33:56.000Z</time>
                <name>Position 555</name>
            </trkpt>
            <trkpt lon="-104.96503162" lat="38.89003992">
                <ele>2222.0</ele>
                <time>2008-06-25T14:33:57.000Z</time>
                <name>Position 556</name>
            </trkpt>
            <trkpt lon="-104.96510828" lat="38.89018989">
                <ele>2222.0</ele>
                <time>2008-06-25T14:33:58.000Z</time>
                <name>Position 557</name>
            </trkpt>
            <trkpt lon="-104.96518493" lat="38.89034498">
                <ele>2222.0</ele>
                <time>2008-06-25T14:33:59.000Z</time>
                <name>Position 558</name>
            </trkpt>
            <trkpt lon="-104.96526492" lat="38.89050162">
                <ele>2231.0</ele>
                <time>2008-06-25T14:34:00.000Z</time>
                <name>Position 559</name>
            </trkpt>
            <trkpt lon="-104.96535826" lat="38.8906616">
                <ele>2231.0</ele>
                <time>2008-06-25T14:34:01.000Z</time>
                <name>Position 560</name>
            </trkpt>
            <trkpt lon="-104.96546996" lat="38.8908149">
                <ele>2222.0</ele>
                <time>2008-06-25T14:34:02.000Z</time>
                <name>Position 561</name>
            </trkpt>
            <trkpt lon="-104.96559989" lat="38.89096165">
                <ele>2222.0</ele>
                <time>2008-06-25T14:34:03.000Z</time>
                <name>Position 562</name>
            </trkpt>
            <trkpt lon="-104.96574163" lat="38.89110661">
                <ele>2222.0</ele>
                <time>2008-06-25T14:34:04.000Z</time>
                <name>Position 563</name>
            </trkpt>
            <trkpt lon="-104.96588993" lat="38.8912499">
                <ele>2222.0</ele>
                <time>2008-06-25T14:34:05.000Z</time>
                <name>Position 564</name>
            </trkpt>
            <trkpt lon="-104.96604323" lat="38.89139497">
                <ele>2235.0</ele>
                <time>2008-06-25T14:34:06.000Z</time>
                <name>Position 565</name>
            </trkpt>
            <trkpt lon="-104.96619999" lat="38.89153993">
                <ele>2235.0</ele>
                <time>2008-06-25T14:34:07.000Z</time>
                <name>Position 566</name>
            </trkpt>
            <trkpt lon="-104.96635997" lat="38.89168489">
                <ele>2227.0</ele>
                <time>2008-06-25T14:34:08.000Z</time>
                <name>Position 567</name>
            </trkpt>
            <trkpt lon="-104.96651828" lat="38.89183164">
                <ele>2227.0</ele>
                <time>2008-06-25T14:34:09.000Z</time>
                <name>Position 568</name>
            </trkpt>
            <trkpt lon="-104.96666825" lat="38.89197826">
                <ele>2227.0</ele>
                <time>2008-06-25T14:34:10.000Z</time>
                <name>Position 569</name>
            </trkpt>
            <trkpt lon="-104.96680665" lat="38.8921299">
                <ele>2238.0</ele>
                <time>2008-06-25T14:34:11.000Z</time>
                <name>Position 570</name>
            </trkpt>
            <trkpt lon="-104.96693492" lat="38.89228332">
                <ele>2238.0</ele>
                <time>2008-06-25T14:34:12.000Z</time>
                <name>Position 571</name>
            </trkpt>
            <trkpt lon="-104.96705663" lat="38.89243996">
                <ele>2238.0</ele>
                <time>2008-06-25T14:34:13.000Z</time>
                <name>Position 572</name>
            </trkpt>
            <trkpt lon="-104.96717489" lat="38.89259827">
                <ele>2229.0</ele>
                <time>2008-06-25T14:34:14.000Z</time>
                <name>Position 573</name>
            </trkpt>
            <trkpt lon="-104.96729326" lat="38.89275491">
                <ele>2229.0</ele>
                <time>2008-06-25T14:34:15.000Z</time>
                <name>Position 574</name>
            </trkpt>
            <trkpt lon="-104.96741164" lat="38.89290988">
                <ele>2229.0</ele>
                <time>2008-06-25T14:34:16.000Z</time>
                <name>Position 575</name>
            </trkpt>
            <trkpt lon="-104.96753156" lat="38.89306331">
                <ele>2236.0</ele>
                <time>2008-06-25T14:34:17.000Z</time>
                <name>Position 576</name>
            </trkpt>
            <trkpt lon="-104.96765661" lat="38.89321494">
                <ele>2236.0</ele>
                <time>2008-06-25T14:34:18.000Z</time>
                <name>Position 577</name>
            </trkpt>
            <trkpt lon="-104.96778655" lat="38.8933599">
                <ele>2236.0</ele>
                <time>2008-06-25T14:34:19.000Z</time>
                <name>Position 578</name>
            </trkpt>
            <trkpt lon="-104.96792328" lat="38.89350164">
                <ele>2236.0</ele>
                <time>2008-06-25T14:34:20.000Z</time>
                <name>Position 579</name>
            </trkpt>
            <trkpt lon="-104.96806824" lat="38.89363825">
                <ele>2236.0</ele>
                <time>2008-06-25T14:34:21.000Z</time>
                <name>Position 580</name>
            </trkpt>
            <trkpt lon="-104.96821666" lat="38.89376998">
                <ele>2242.0</ele>
                <time>2008-06-25T14:34:22.000Z</time>
                <name>Position 581</name>
            </trkpt>
            <trkpt lon="-104.96837497" lat="38.89389324">
                <ele>2242.0</ele>
                <time>2008-06-25T14:34:23.000Z</time>
                <name>Position 582</name>
            </trkpt>
            <trkpt lon="-104.96853995" lat="38.89401162">
                <ele>2242.0</ele>
                <time>2008-06-25T14:34:24.000Z</time>
                <name>Position 583</name>
            </trkpt>
            <trkpt lon="-104.96870995" lat="38.89412665">
                <ele>2242.0</ele>
                <time>2008-06-25T14:34:25.000Z</time>
                <name>Position 584</name>
            </trkpt>
            <trkpt lon="-104.96888494" lat="38.89423656">
                <ele>2240.0</ele>
                <time>2008-06-25T14:34:26.000Z</time>
                <name>Position 585</name>
            </trkpt>
            <trkpt lon="-104.96906161" lat="38.89434659">
                <ele>2240.0</ele>
                <time>2008-06-25T14:34:27.000Z</time>
                <name>Position 586</name>
            </trkpt>
            <trkpt lon="-104.96923828" lat="38.89445662">
                <ele>2240.0</ele>
                <time>2008-06-25T14:34:28.000Z</time>
                <name>Position 587</name>
            </trkpt>
            <trkpt lon="-104.96941495" lat="38.89456499">
                <ele>2240.0</ele>
                <time>2008-06-25T14:34:29.000Z</time>
                <name>Position 588</name>
            </trkpt>
            <trkpt lon="-104.96958995" lat="38.8946749">
                <ele>2244.0</ele>
                <time>2008-06-25T14:34:30.000Z</time>
                <name>Position 589</name>
            </trkpt>
            <trkpt lon="-104.96976328" lat="38.89478326">
                <ele>2244.0</ele>
                <time>2008-06-25T14:34:31.000Z</time>
                <name>Position 590</name>
            </trkpt>
            <trkpt lon="-104.96993327" lat="38.89489329">
                <ele>2244.0</ele>
                <time>2008-06-25T14:34:32.000Z</time>
                <name>Position 591</name>
            </trkpt>
            <trkpt lon="-104.97010159" lat="38.89500165">
                <ele>2244.0</ele>
                <time>2008-06-25T14:34:33.000Z</time>
                <name>Position 592</name>
            </trkpt>
            <trkpt lon="-104.97026324" lat="38.89510822">
                <ele>2244.0</ele>
                <time>2008-06-25T14:34:34.000Z</time>
                <name>Position 593</name>
            </trkpt>
            <trkpt lon="-104.970415" lat="38.89521658">
                <ele>2244.0</ele>
                <time>2008-06-25T14:34:35.000Z</time>
                <name>Position 594</name>
            </trkpt>
            <trkpt lon="-104.97055495" lat="38.89532495">
                <ele>2248.0</ele>
                <time>2008-06-25T14:34:36.000Z</time>
                <name>Position 595</name>
            </trkpt>
            <trkpt lon="-104.97067833" lat="38.89543664">
                <ele>2251.0</ele>
                <time>2008-06-25T14:34:37.000Z</time>
                <name>Position 596</name>
            </trkpt>
            <trkpt lon="-104.9707849" lat="38.89555323">
                <ele>2251.0</ele>
                <time>2008-06-25T14:34:38.000Z</time>
                <name>Position 597</name>
            </trkpt>
            <trkpt lon="-104.97087991" lat="38.89567494">
                <ele>2251.0</ele>
                <time>2008-06-25T14:34:39.000Z</time>
                <name>Position 598</name>
            </trkpt>
            <trkpt lon="-104.97096324" lat="38.89579999">
                <ele>2251.0</ele>
                <time>2008-06-25T14:34:40.000Z</time>
                <name>Position 599</name>
            </trkpt>
            <trkpt lon="-104.97103488" lat="38.8959316">
                <ele>2251.0</ele>
                <time>2008-06-25T14:34:41.000Z</time>
                <name>Position 600</name>
            </trkpt>
            <trkpt lon="-104.97109663" lat="38.89606166">
                <ele>2251.0</ele>
                <time>2008-06-25T14:34:42.000Z</time>
                <name>Position 601</name>
            </trkpt>
            <trkpt lon="-104.97114825" lat="38.89618993">
                <ele>2251.0</ele>
                <time>2008-06-25T14:34:43.000Z</time>
                <name>Position 602</name>
            </trkpt>
            <trkpt lon="-104.97118998" lat="38.89631164">
                <ele>2259.0</ele>
                <time>2008-06-25T14:34:44.000Z</time>
                <name>Position 603</name>
            </trkpt>
            <trkpt lon="-104.97122157" lat="38.89642155">
                <ele>2259.0</ele>
                <time>2008-06-25T14:34:45.000Z</time>
                <name>Position 604</name>
            </trkpt>
            <trkpt lon="-104.9712466" lat="38.89651656">
                <ele>2259.0</ele>
                <time>2008-06-25T14:34:46.000Z</time>
                <name>Position 605</name>
            </trkpt>
            <trkpt lon="-104.97126663" lat="38.89659166">
                <ele>2255.0</ele>
                <time>2008-06-25T14:34:47.000Z</time>
                <name>Position 606</name>
            </trkpt>
            <trkpt lon="-104.97127998" lat="38.89664495">
                <ele>2255.0</ele>
                <time>2008-06-25T14:34:48.000Z</time>
                <name>Position 607</name>
            </trkpt>
            <trkpt lon="-104.97128832" lat="38.89667499">
                <ele>2255.0</ele>
                <time>2008-06-25T14:34:49.000Z</time>
                <name>Position 608</name>
            </trkpt>
            <trkpt lon="-104.97129333" lat="38.8966949">
                <ele>2255.0</ele>
                <time>2008-06-25T14:34:50.000Z</time>
                <name>Position 609</name>
            </trkpt>
            <trkpt lon="-104.97129822" lat="38.89671326">
                <ele>2255.0</ele>
                <time>2008-06-25T14:34:51.000Z</time>
                <name>Position 610</name>
            </trkpt>
            <trkpt lon="-104.97131157" lat="38.89673996">
                <ele>2255.0</ele>
                <time>2008-06-25T14:34:52.000Z</time>
                <name>Position 611</name>
            </trkpt>
            <trkpt lon="-104.97133994" lat="38.89677656">
                <ele>2255.0</ele>
                <time>2008-06-25T14:34:53.000Z</time>
                <name>Position 612</name>
            </trkpt>
            <trkpt lon="-104.97138655" lat="38.89681494">
                <ele>2255.0</ele>
                <time>2008-06-25T14:34:54.000Z</time>
                <name>Position 613</name>
            </trkpt>
            <trkpt lon="-104.97144997" lat="38.89685166">
                <ele>2255.0</ele>
                <time>2008-06-25T14:34:55.000Z</time>
                <name>Position 614</name>
            </trkpt>
            <trkpt lon="-104.97152495" lat="38.89688826">
                <ele>2255.0</ele>
                <time>2008-06-25T14:34:56.000Z</time>
                <name>Position 615</name>
            </trkpt>
            <trkpt lon="-104.97160828" lat="38.89692831">
                <ele>2255.0</ele>
                <time>2008-06-25T14:34:57.000Z</time>
                <name>Position 616</name>
            </trkpt>
            <trkpt lon="-104.97169828" lat="38.89697158">
                <ele>2255.0</ele>
                <time>2008-06-25T14:34:58.000Z</time>
                <name>Position 617</name>
            </trkpt>
            <trkpt lon="-104.97179329" lat="38.89701498">
                <ele>2255.0</ele>
                <time>2008-06-25T14:34:59.000Z</time>
                <name>Position 618</name>
            </trkpt>
            <trkpt lon="-104.97188997" lat="38.89705825">
                <ele>2255.0</ele>
                <time>2008-06-25T14:35:00.000Z</time>
                <name>Position 619</name>
            </trkpt>
            <trkpt lon="-104.97198832" lat="38.89710164">
                <ele>2256.0</ele>
                <time>2008-06-25T14:35:01.000Z</time>
                <name>Position 620</name>
            </trkpt>
            <trkpt lon="-104.97208166" lat="38.89713991">
                <ele>2256.0</ele>
                <time>2008-06-25T14:35:02.000Z</time>
                <name>Position 621</name>
            </trkpt>
            <trkpt lon="-104.97216833" lat="38.89717329">
                <ele>2260.0</ele>
                <time>2008-06-25T14:35:03.000Z</time>
                <name>Position 622</name>
            </trkpt>
            <trkpt lon="-104.97224498" lat="38.897205">
                <ele>2260.0</ele>
                <time>2008-06-25T14:35:04.000Z</time>
                <name>Position 623</name>
            </trkpt>
            <trkpt lon="-104.97231495" lat="38.89723492">
                <ele>2260.0</ele>
                <time>2008-06-25T14:35:05.000Z</time>
                <name>Position 624</name>
            </trkpt>
            <trkpt lon="-104.97238159" lat="38.8972683">
                <ele>2260.0</ele>
                <time>2008-06-25T14:35:06.000Z</time>
                <name>Position 625</name>
            </trkpt>
            <trkpt lon="-104.97244489" lat="38.89730155">
                <ele>2260.0</ele>
                <time>2008-06-25T14:35:07.000Z</time>
                <name>Position 626</name>
            </trkpt>
            <trkpt lon="-104.97250664" lat="38.89733827">
                <ele>2260.0</ele>
                <time>2008-06-25T14:35:08.000Z</time>
                <name>Position 627</name>
            </trkpt>
            <trkpt lon="-104.97256827" lat="38.89737833">
                <ele>2260.0</ele>
                <time>2008-06-25T14:35:09.000Z</time>
                <name>Position 628</name>
            </trkpt>
            <trkpt lon="-104.97262824" lat="38.89742494">
                <ele>2260.0</ele>
                <time>2008-06-25T14:35:10.000Z</time>
                <name>Position 629</name>
            </trkpt>
            <trkpt lon="-104.97268498" lat="38.89747822">
                <ele>2260.0</ele>
                <time>2008-06-25T14:35:11.000Z</time>
                <name>Position 630</name>
            </trkpt>
            <trkpt lon="-104.97273827" lat="38.89753497">
                <ele>2260.0</ele>
                <time>2008-06-25T14:35:12.000Z</time>
                <name>Position 631</name>
            </trkpt>
            <trkpt lon="-104.97278821" lat="38.89759493">
                <ele>2260.0</ele>
                <time>2008-06-25T14:35:13.000Z</time>
                <name>Position 632</name>
            </trkpt>
            <trkpt lon="-104.97283661" lat="38.8976599">
                <ele>2260.0</ele>
                <time>2008-06-25T14:35:14.000Z</time>
                <name>Position 633</name>
            </trkpt>
            <trkpt lon="-104.97288656" lat="38.89772999">
                <ele>2260.0</ele>
                <time>2008-06-25T14:35:15.000Z</time>
                <name>Position 634</name>
            </trkpt>
            <trkpt lon="-104.97293496" lat="38.89780664">
                <ele>2273.0</ele>
                <time>2008-06-25T14:35:16.000Z</time>
                <name>Position 635</name>
            </trkpt>
            <trkpt lon="-104.9729799" lat="38.89788997">
                <ele>2273.0</ele>
                <time>2008-06-25T14:35:17.000Z</time>
                <name>Position 636</name>
            </trkpt>
            <trkpt lon="-104.97302997" lat="38.89797664">
                <ele>2265.0</ele>
                <time>2008-06-25T14:35:18.000Z</time>
                <name>Position 637</name>
            </trkpt>
            <trkpt lon="-104.97307992" lat="38.89806664">
                <ele>2265.0</ele>
                <time>2008-06-25T14:35:19.000Z</time>
                <name>Position 638</name>
            </trkpt>
            <trkpt lon="-104.97313166" lat="38.89816332">
                <ele>2265.0</ele>
                <time>2008-06-25T14:35:20.000Z</time>
                <name>Position 639</name>
            </trkpt>
            <trkpt lon="-104.97318161" lat="38.89826167">
                <ele>2265.0</ele>
                <time>2008-06-25T14:35:21.000Z</time>
                <name>Position 640</name>
            </trkpt>
            <trkpt lon="-104.97322989" lat="38.89836323">
                <ele>2265.0</ele>
                <time>2008-06-25T14:35:22.000Z</time>
                <name>Position 641</name>
            </trkpt>
            <trkpt lon="-104.97327495" lat="38.89846325">
                <ele>2265.0</ele>
                <time>2008-06-25T14:35:23.000Z</time>
                <name>Position 642</name>
            </trkpt>
            <trkpt lon="-104.97331333" lat="38.89856327">
                <ele>2265.0</ele>
                <time>2008-06-25T14:35:24.000Z</time>
                <name>Position 643</name>
            </trkpt>
            <trkpt lon="-104.97335327" lat="38.89866161">
                <ele>2265.0</ele>
                <time>2008-06-25T14:35:25.000Z</time>
                <name>Position 644</name>
            </trkpt>
            <trkpt lon="-104.97338998" lat="38.8987633">
                <ele>2262.0</ele>
                <time>2008-06-25T14:35:26.000Z</time>
                <name>Position 645</name>
            </trkpt>
            <trkpt lon="-104.97342491" lat="38.89886665">
                <ele>2262.0</ele>
                <time>2008-06-25T14:35:27.000Z</time>
                <name>Position 646</name>
            </trkpt>
            <trkpt lon="-104.97345328" lat="38.89897156">
                <ele>2262.0</ele>
                <time>2008-06-25T14:35:28.000Z</time>
                <name>Position 647</name>
            </trkpt>
            <trkpt lon="-104.97347832" lat="38.89907825">
                <ele>2262.0</ele>
                <time>2008-06-25T14:35:29.000Z</time>
                <name>Position 648</name>
            </trkpt>
            <trkpt lon="-104.97349823" lat="38.8991816">
                <ele>2262.0</ele>
                <time>2008-06-25T14:35:30.000Z</time>
                <name>Position 649</name>
            </trkpt>
            <trkpt lon="-104.97350824" lat="38.89928162">
                <ele>2262.0</ele>
                <time>2008-06-25T14:35:31.000Z</time>
                <name>Position 650</name>
            </trkpt>
            <trkpt lon="-104.97351325" lat="38.89937663">
                <ele>2262.0</ele>
                <time>2008-06-25T14:35:32.000Z</time>
                <name>Position 651</name>
            </trkpt>
            <trkpt lon="-104.97351158" lat="38.8994683">
                <ele>2262.0</ele>
                <time>2008-06-25T14:35:33.000Z</time>
                <name>Position 652</name>
            </trkpt>
            <trkpt lon="-104.97350657" lat="38.89955831">
                <ele>2262.0</ele>
                <time>2008-06-25T14:35:34.000Z</time>
                <name>Position 653</name>
            </trkpt>
            <trkpt lon="-104.97349989" lat="38.89964831">
                <ele>2264.0</ele>
                <time>2008-06-25T14:35:35.000Z</time>
                <name>Position 654</name>
            </trkpt>
            <trkpt lon="-104.97349" lat="38.89973998">
                <ele>2264.0</ele>
                <time>2008-06-25T14:35:36.000Z</time>
                <name>Position 655</name>
            </trkpt>
            <trkpt lon="-104.97347832" lat="38.89983165">
                <ele>2264.0</ele>
                <time>2008-06-25T14:35:37.000Z</time>
                <name>Position 656</name>
            </trkpt>
            <trkpt lon="-104.97346663" lat="38.89992166">
                <ele>2264.0</ele>
                <time>2008-06-25T14:35:38.000Z</time>
                <name>Position 657</name>
            </trkpt>
            <trkpt lon="-104.97345328" lat="38.90000999">
                <ele>2264.0</ele>
                <time>2008-06-25T14:35:39.000Z</time>
                <name>Position 658</name>
            </trkpt>
            <trkpt lon="-104.97343826" lat="38.90008831">
                <ele>2264.0</ele>
                <time>2008-06-25T14:35:40.000Z</time>
                <name>Position 659</name>
            </trkpt>
            <trkpt lon="-104.97342491" lat="38.90015996">
                <ele>2264.0</ele>
                <time>2008-06-25T14:35:41.000Z</time>
                <name>Position 660</name>
            </trkpt>
            <trkpt lon="-104.97341323" lat="38.90022492">
                <ele>2264.0</ele>
                <time>2008-06-25T14:35:42.000Z</time>
                <name>Position 661</name>
            </trkpt>
            <trkpt lon="-104.97340322" lat="38.90028656">
                <ele>2264.0</ele>
                <time>2008-06-25T14:35:43.000Z</time>
                <name>Position 662</name>
            </trkpt>
            <trkpt lon="-104.97339165" lat="38.90034497">
                <ele>2264.0</ele>
                <time>2008-06-25T14:35:44.000Z</time>
                <name>Position 663</name>
            </trkpt>
            <trkpt lon="-104.97337997" lat="38.90040326">
                <ele>2264.0</ele>
                <time>2008-06-25T14:35:45.000Z</time>
                <name>Position 664</name>
            </trkpt>
            <trkpt lon="-104.97336829" lat="38.90046656">
                <ele>2266.0</ele>
                <time>2008-06-25T14:35:46.000Z</time>
                <name>Position 665</name>
            </trkpt>
            <trkpt lon="-104.97335494" lat="38.90053332">
                <ele>2266.0</ele>
                <time>2008-06-25T14:35:47.000Z</time>
                <name>Position 666</name>
            </trkpt>
            <trkpt lon="-104.97333992" lat="38.90060163">
                <ele>2266.0</ele>
                <time>2008-06-25T14:35:48.000Z</time>
                <name>Position 667</name>
            </trkpt>
            <trkpt lon="-104.97332489" lat="38.90067494">
                <ele>2266.0</ele>
                <time>2008-06-25T14:35:49.000Z</time>
                <name>Position 668</name>
            </trkpt>
            <trkpt lon="-104.97330832" lat="38.90074992">
                <ele>2266.0</ele>
                <time>2008-06-25T14:35:50.000Z</time>
                <name>Position 669</name>
            </trkpt>
            <trkpt lon="-104.97329164" lat="38.90082657">
                <ele>2266.0</ele>
                <time>2008-06-25T14:35:51.000Z</time>
                <name>Position 670</name>
            </trkpt>
            <trkpt lon="-104.97327328" lat="38.90090823">
                <ele>2266.0</ele>
                <time>2008-06-25T14:35:52.000Z</time>
                <name>Position 671</name>
            </trkpt>
            <trkpt lon="-104.97325826" lat="38.90098989">
                <ele>2266.0</ele>
                <time>2008-06-25T14:35:53.000Z</time>
                <name>Position 672</name>
            </trkpt>
            <trkpt lon="-104.97324657" lat="38.90106833">
                <ele>2266.0</ele>
                <time>2008-06-25T14:35:54.000Z</time>
                <name>Position 673</name>
            </trkpt>
            <trkpt lon="-104.9732399" lat="38.90114665">
                <ele>2266.0</ele>
                <time>2008-06-25T14:35:55.000Z</time>
                <name>Position 674</name>
            </trkpt>
            <trkpt lon="-104.97323656" lat="38.90122497">
                <ele>2266.0</ele>
                <time>2008-06-25T14:35:56.000Z</time>
                <name>Position 675</name>
            </trkpt>
            <trkpt lon="-104.97323322" lat="38.90130162">
                <ele>2274.0</ele>
                <time>2008-06-25T14:35:57.000Z</time>
                <name>Position 676</name>
            </trkpt>
            <trkpt lon="-104.97323155" lat="38.90137494">
                <ele>2274.0</ele>
                <time>2008-06-25T14:35:58.000Z</time>
                <name>Position 677</name>
            </trkpt>
            <trkpt lon="-104.97322989" lat="38.90144825">
                <ele>2274.0</ele>
                <time>2008-06-25T14:35:59.000Z</time>
                <name>Position 678</name>
            </trkpt>
            <trkpt lon="-104.97322989" lat="38.9015249">
                <ele>2274.0</ele>
                <time>2008-06-25T14:36:00.000Z</time>
                <name>Position 679</name>
            </trkpt>
            <trkpt lon="-104.97322989" lat="38.90160322">
                <ele>2274.0</ele>
                <time>2008-06-25T14:36:01.000Z</time>
                <name>Position 680</name>
            </trkpt>
            <trkpt lon="-104.97323322" lat="38.90168822">
                <ele>2274.0</ele>
                <time>2008-06-25T14:36:02.000Z</time>
                <name>Position 681</name>
            </trkpt>
            <trkpt lon="-104.9732399" lat="38.90177488">
                <ele>2274.0</ele>
                <time>2008-06-25T14:36:03.000Z</time>
                <name>Position 682</name>
            </trkpt>
            <trkpt lon="-104.97324657" lat="38.90186155">
                <ele>2274.0</ele>
                <time>2008-06-25T14:36:04.000Z</time>
                <name>Position 683</name>
            </trkpt>
            <trkpt lon="-104.97325158" lat="38.90194666">
                <ele>2274.0</ele>
                <time>2008-06-25T14:36:05.000Z</time>
                <name>Position 684</name>
            </trkpt>
            <trkpt lon="-104.97325826" lat="38.90203333">
                <ele>2274.0</ele>
                <time>2008-06-25T14:36:06.000Z</time>
                <name>Position 685</name>
            </trkpt>
            <trkpt lon="-104.97326326" lat="38.90211833">
                <ele>2283.0</ele>
                <time>2008-06-25T14:36:07.000Z</time>
                <name>Position 686</name>
            </trkpt>
            <trkpt lon="-104.97326994" lat="38.90220332">
                <ele>2283.0</ele>
                <time>2008-06-25T14:36:08.000Z</time>
                <name>Position 687</name>
            </trkpt>
            <trkpt lon="-104.97327828" lat="38.90228999">
                <ele>2283.0</ele>
                <time>2008-06-25T14:36:09.000Z</time>
                <name>Position 688</name>
            </trkpt>
            <trkpt lon="-104.97328997" lat="38.90237665">
                <ele>2283.0</ele>
                <time>2008-06-25T14:36:10.000Z</time>
                <name>Position 689</name>
            </trkpt>
            <trkpt lon="-104.97330666" lat="38.90246832">
                <ele>2283.0</ele>
                <time>2008-06-25T14:36:11.000Z</time>
                <name>Position 690</name>
            </trkpt>
            <trkpt lon="-104.97332323" lat="38.90256">
                <ele>2283.0</ele>
                <time>2008-06-25T14:36:12.000Z</time>
                <name>Position 691</name>
            </trkpt>
            <trkpt lon="-104.97334325" lat="38.90265322">
                <ele>2283.0</ele>
                <time>2008-06-25T14:36:13.000Z</time>
                <name>Position 692</name>
            </trkpt>
            <trkpt lon="-104.97336328" lat="38.90274489">
                <ele>2283.0</ele>
                <time>2008-06-25T14:36:14.000Z</time>
                <name>Position 693</name>
            </trkpt>
            <trkpt lon="-104.97338498" lat="38.90283656">
                <ele>2283.0</ele>
                <time>2008-06-25T14:36:15.000Z</time>
                <name>Position 694</name>
            </trkpt>
            <trkpt lon="-104.97340655" lat="38.9029299">
                <ele>2289.0</ele>
                <time>2008-06-25T14:36:16.000Z</time>
                <name>Position 695</name>
            </trkpt>
            <trkpt lon="-104.97342491" lat="38.90302157">
                <ele>2289.0</ele>
                <time>2008-06-25T14:36:17.000Z</time>
                <name>Position 696</name>
            </trkpt>
            <trkpt lon="-104.97344661" lat="38.90311491">
                <ele>2289.0</ele>
                <time>2008-06-25T14:36:18.000Z</time>
                <name>Position 697</name>
            </trkpt>
            <trkpt lon="-104.97347999" lat="38.90320826">
                <ele>2289.0</ele>
                <time>2008-06-25T14:36:19.000Z</time>
                <name>Position 698</name>
            </trkpt>
            <trkpt lon="-104.97352493" lat="38.90329993">
                <ele>2289.0</ele>
                <time>2008-06-25T14:36:20.000Z</time>
                <name>Position 699</name>
            </trkpt>
            <trkpt lon="-104.97358489" lat="38.9033916">
                <ele>2289.0</ele>
                <time>2008-06-25T14:36:21.000Z</time>
                <name>Position 700</name>
            </trkpt>
            <trkpt lon="-104.97365332" lat="38.90347993">
                <ele>2289.0</ele>
                <time>2008-06-25T14:36:22.000Z</time>
                <name>Position 701</name>
            </trkpt>
            <trkpt lon="-104.97372997" lat="38.9035666">
                <ele>2289.0</ele>
                <time>2008-06-25T14:36:23.000Z</time>
                <name>Position 702</name>
            </trkpt>
            <trkpt lon="-104.97380996" lat="38.9036516">
                <ele>2304.0</ele>
                <time>2008-06-25T14:36:24.000Z</time>
                <name>Position 703</name>
            </trkpt>
            <trkpt lon="-104.97389328" lat="38.90373492">
                <ele>2304.0</ele>
                <time>2008-06-25T14:36:25.000Z</time>
                <name>Position 704</name>
            </trkpt>
            <trkpt lon="-104.97397828" lat="38.90381992">
                <ele>2304.0</ele>
                <time>2008-06-25T14:36:26.000Z</time>
                <name>Position 705</name>
            </trkpt>
            <trkpt lon="-104.97406495" lat="38.90390325">
                <ele>2304.0</ele>
                <time>2008-06-25T14:36:27.000Z</time>
                <name>Position 706</name>
            </trkpt>
            <trkpt lon="-104.97415328" lat="38.90398824">
                <ele>2304.0</ele>
                <time>2008-06-25T14:36:28.000Z</time>
                <name>Position 707</name>
            </trkpt>
            <trkpt lon="-104.97424161" lat="38.90407324">
                <ele>2304.0</ele>
                <time>2008-06-25T14:36:29.000Z</time>
                <name>Position 708</name>
            </trkpt>
            <trkpt lon="-104.97432661" lat="38.90415823">
                <ele>2304.0</ele>
                <time>2008-06-25T14:36:30.000Z</time>
                <name>Position 709</name>
            </trkpt>
            <trkpt lon="-104.97441494" lat="38.90424323">
                <ele>2304.0</ele>
                <time>2008-06-25T14:36:31.000Z</time>
                <name>Position 710</name>
            </trkpt>
            <trkpt lon="-104.97450161" lat="38.90432823">
                <ele>2304.0</ele>
                <time>2008-06-25T14:36:32.000Z</time>
                <name>Position 711</name>
            </trkpt>
            <trkpt lon="-104.97458827" lat="38.90441155">
                <ele>2316.0</ele>
                <time>2008-06-25T14:36:33.000Z</time>
                <name>Position 712</name>
            </trkpt>
            <trkpt lon="-104.97467661" lat="38.90449333">
                <ele>2316.0</ele>
                <time>2008-06-25T14:36:34.000Z</time>
                <name>Position 713</name>
            </trkpt>
            <trkpt lon="-104.97476494" lat="38.90457666">
                <ele>2316.0</ele>
                <time>2008-06-25T14:36:35.000Z</time>
                <name>Position 714</name>
            </trkpt>
            <trkpt lon="-104.97485495" lat="38.90465832">
                <ele>2314.0</ele>
                <time>2008-06-25T14:36:36.000Z</time>
                <name>Position 715</name>
            </trkpt>
            <trkpt lon="-104.97494328" lat="38.90473998">
                <ele>2314.0</ele>
                <time>2008-06-25T14:36:37.000Z</time>
                <name>Position 716</name>
            </trkpt>
            <trkpt lon="-104.97503328" lat="38.90481997">
                <ele>2314.0</ele>
                <time>2008-06-25T14:36:38.000Z</time>
                <name>Position 717</name>
            </trkpt>
            <trkpt lon="-104.97512662" lat="38.90489495">
                <ele>2314.0</ele>
                <time>2008-06-25T14:36:39.000Z</time>
                <name>Position 718</name>
            </trkpt>
            <trkpt lon="-104.97522163" lat="38.90496492">
                <ele>2314.0</ele>
                <time>2008-06-25T14:36:40.000Z</time>
                <name>Position 719</name>
            </trkpt>
            <trkpt lon="-104.97532332" lat="38.90502822">
                <ele>2314.0</ele>
                <time>2008-06-25T14:36:41.000Z</time>
                <name>Position 720</name>
            </trkpt>
            <trkpt lon="-104.97542822" lat="38.90508664">
                <ele>2324.0</ele>
                <time>2008-06-25T14:36:42.000Z</time>
                <name>Position 721</name>
            </trkpt>
            <trkpt lon="-104.97554159" lat="38.90513659">
                <ele>2324.0</ele>
                <time>2008-06-25T14:36:43.000Z</time>
                <name>Position 722</name>
            </trkpt>
            <trkpt lon="-104.9756583" lat="38.90518332">
                <ele>2324.0</ele>
                <time>2008-06-25T14:36:44.000Z</time>
                <name>Position 723</name>
            </trkpt>
            <trkpt lon="-104.97577822" lat="38.90522993">
                <ele>2324.0</ele>
                <time>2008-06-25T14:36:45.000Z</time>
                <name>Position 724</name>
            </trkpt>
            <trkpt lon="-104.97589993" lat="38.90527165">
                <ele>2324.0</ele>
                <time>2008-06-25T14:36:46.000Z</time>
                <name>Position 725</name>
            </trkpt>
            <trkpt lon="-104.97602332" lat="38.90531325">
                <ele>2324.0</ele>
                <time>2008-06-25T14:36:47.000Z</time>
                <name>Position 726</name>
            </trkpt>
            <trkpt lon="-104.97614825" lat="38.90535665">
                <ele>2324.0</ele>
                <time>2008-06-25T14:36:48.000Z</time>
                <name>Position 727</name>
            </trkpt>
            <trkpt lon="-104.97627497" lat="38.90539992">
                <ele>2333.0</ele>
                <time>2008-06-25T14:36:49.000Z</time>
                <name>Position 728</name>
            </trkpt>
            <trkpt lon="-104.9763999" lat="38.90544164">
                <ele>2329.0</ele>
                <time>2008-06-25T14:36:50.000Z</time>
                <name>Position 729</name>
            </trkpt>
            <trkpt lon="-104.97652495" lat="38.90548325">
                <ele>2329.0</ele>
                <time>2008-06-25T14:36:51.000Z</time>
                <name>Position 730</name>
            </trkpt>
            <trkpt lon="-104.97665" lat="38.9055233">
                <ele>2329.0</ele>
                <time>2008-06-25T14:36:52.000Z</time>
                <name>Position 731</name>
            </trkpt>
            <trkpt lon="-104.97677326" lat="38.90556657">
                <ele>2329.0</ele>
                <time>2008-06-25T14:36:53.000Z</time>
                <name>Position 732</name>
            </trkpt>
            <trkpt lon="-104.97689831" lat="38.9056083">
                <ele>2329.0</ele>
                <time>2008-06-25T14:36:54.000Z</time>
                <name>Position 733</name>
            </trkpt>
            <trkpt lon="-104.97702324" lat="38.9056499">
                <ele>2329.0</ele>
                <time>2008-06-25T14:36:55.000Z</time>
                <name>Position 734</name>
            </trkpt>
            <trkpt lon="-104.97714829" lat="38.90568995">
                <ele>2335.0</ele>
                <time>2008-06-25T14:36:56.000Z</time>
                <name>Position 735</name>
            </trkpt>
            <trkpt lon="-104.97727156" lat="38.90572989">
                <ele>2335.0</ele>
                <time>2008-06-25T14:36:57.000Z</time>
                <name>Position 736</name>
            </trkpt>
            <trkpt lon="-104.97739327" lat="38.90576994">
                <ele>2335.0</ele>
                <time>2008-06-25T14:36:58.000Z</time>
                <name>Position 737</name>
            </trkpt>
            <trkpt lon="-104.97751164" lat="38.90580833">
                <ele>2335.0</ele>
                <time>2008-06-25T14:36:59.000Z</time>
                <name>Position 738</name>
            </trkpt>
            <trkpt lon="-104.97763157" lat="38.9058466">
                <ele>2335.0</ele>
                <time>2008-06-25T14:37:00.000Z</time>
                <name>Position 739</name>
            </trkpt>
            <trkpt lon="-104.97774661" lat="38.90588498">
                <ele>2335.0</ele>
                <time>2008-06-25T14:37:01.000Z</time>
                <name>Position 740</name>
            </trkpt>
            <trkpt lon="-104.9778583" lat="38.90592158">
                <ele>2335.0</ele>
                <time>2008-06-25T14:37:02.000Z</time>
                <name>Position 741</name>
            </trkpt>
            <trkpt lon="-104.97795999" lat="38.90595329">
                <ele>2345.0</ele>
                <time>2008-06-25T14:37:03.000Z</time>
                <name>Position 742</name>
            </trkpt>
            <trkpt lon="-104.97805488" lat="38.90598822">
                <ele>2345.0</ele>
                <time>2008-06-25T14:37:04.000Z</time>
                <name>Position 743</name>
            </trkpt>
            <trkpt lon="-104.97814989" lat="38.90601993">
                <ele>2345.0</ele>
                <time>2008-06-25T14:37:05.000Z</time>
                <name>Position 744</name>
            </trkpt>
            <trkpt lon="-104.97824991" lat="38.90605164">
                <ele>2345.0</ele>
                <time>2008-06-25T14:37:06.000Z</time>
                <name>Position 745</name>
            </trkpt>
            <trkpt lon="-104.97835827" lat="38.90608823">
                <ele>2345.0</ele>
                <time>2008-06-25T14:37:07.000Z</time>
                <name>Position 746</name>
            </trkpt>
            <trkpt lon="-104.97846997" lat="38.90612829">
                <ele>2345.0</ele>
                <time>2008-06-25T14:37:08.000Z</time>
                <name>Position 747</name>
            </trkpt>
            <trkpt lon="-104.97858322" lat="38.90617323">
                <ele>2345.0</ele>
                <time>2008-06-25T14:37:09.000Z</time>
                <name>Position 748</name>
            </trkpt>
            <trkpt lon="-104.97869992" lat="38.90622663">
                <ele>2345.0</ele>
                <time>2008-06-25T14:37:10.000Z</time>
                <name>Position 749</name>
            </trkpt>
            <trkpt lon="-104.97881663" lat="38.9062916">
                <ele>2351.0</ele>
                <time>2008-06-25T14:37:11.000Z</time>
                <name>Position 750</name>
            </trkpt>
            <trkpt lon="-104.97892833" lat="38.90636826">
                <ele>2351.0</ele>
                <time>2008-06-25T14:37:12.000Z</time>
                <name>Position 751</name>
            </trkpt>
            <trkpt lon="-104.97903657" lat="38.90645325">
                <ele>2351.0</ele>
                <time>2008-06-25T14:37:13.000Z</time>
                <name>Position 752</name>
            </trkpt>
            <trkpt lon="-104.9791466" lat="38.90654325">
                <ele>2351.0</ele>
                <time>2008-06-25T14:37:14.000Z</time>
                <name>Position 753</name>
            </trkpt>
            <trkpt lon="-104.9792583" lat="38.9066366">
                <ele>2351.0</ele>
                <time>2008-06-25T14:37:15.000Z</time>
                <name>Position 754</name>
            </trkpt>
            <trkpt lon="-104.97937322" lat="38.90673327">
                <ele>2351.0</ele>
                <time>2008-06-25T14:37:16.000Z</time>
                <name>Position 755</name>
            </trkpt>
            <trkpt lon="-104.97948992" lat="38.90683162">
                <ele>2351.0</ele>
                <time>2008-06-25T14:37:17.000Z</time>
                <name>Position 756</name>
            </trkpt>
            <trkpt lon="-104.9796083" lat="38.90692997">
                <ele>2363.0</ele>
                <time>2008-06-25T14:37:18.000Z</time>
                <name>Position 757</name>
            </trkpt>
            <trkpt lon="-104.97972822" lat="38.90702999">
                <ele>2363.0</ele>
                <time>2008-06-25T14:37:19.000Z</time>
                <name>Position 758</name>
            </trkpt>
            <trkpt lon="-104.97984827" lat="38.90712667">
                <ele>2352.0</ele>
                <time>2008-06-25T14:37:20.000Z</time>
                <name>Position 759</name>
            </trkpt>
            <trkpt lon="-104.97996664" lat="38.90722656">
                <ele>2352.0</ele>
                <time>2008-06-25T14:37:21.000Z</time>
                <name>Position 760</name>
            </trkpt>
            <trkpt lon="-104.9800849" lat="38.90732658">
                <ele>2352.0</ele>
                <time>2008-06-25T14:37:22.000Z</time>
                <name>Position 761</name>
            </trkpt>
            <trkpt lon="-104.9802016" lat="38.9074266">
                <ele>2352.0</ele>
                <time>2008-06-25T14:37:23.000Z</time>
                <name>Position 762</name>
            </trkpt>
            <trkpt lon="-104.98031831" lat="38.90752828">
                <ele>2352.0</ele>
                <time>2008-06-25T14:37:24.000Z</time>
                <name>Position 763</name>
            </trkpt>
            <trkpt lon="-104.98043823" lat="38.90762496">
                <ele>2363.0</ele>
                <time>2008-06-25T14:37:25.000Z</time>
                <name>Position 764</name>
            </trkpt>
            <trkpt lon="-104.98055995" lat="38.90771496">
                <ele>2363.0</ele>
                <time>2008-06-25T14:37:26.000Z</time>
                <name>Position 765</name>
            </trkpt>
            <trkpt lon="-104.980685" lat="38.90779662">
                <ele>2363.0</ele>
                <time>2008-06-25T14:37:27.000Z</time>
                <name>Position 766</name>
            </trkpt>
            <trkpt lon="-104.9808116" lat="38.90786994">
                <ele>2363.0</ele>
                <time>2008-06-25T14:37:28.000Z</time>
                <name>Position 767</name>
            </trkpt>
            <trkpt lon="-104.98094165" lat="38.90793657">
                <ele>2351.0</ele>
                <time>2008-06-25T14:37:29.000Z</time>
                <name>Position 768</name>
            </trkpt>
            <trkpt lon="-104.98107326" lat="38.90799332">
                <ele>2351.0</ele>
                <time>2008-06-25T14:37:30.000Z</time>
                <name>Position 769</name>
            </trkpt>
            <trkpt lon="-104.98120499" lat="38.90803993">
                <ele>2351.0</ele>
                <time>2008-06-25T14:37:31.000Z</time>
                <name>Position 770</name>
            </trkpt>
            <trkpt lon="-104.98133326" lat="38.90807998">
                <ele>2361.0</ele>
                <time>2008-06-25T14:37:32.000Z</time>
                <name>Position 771</name>
            </trkpt>
            <trkpt lon="-104.98145831" lat="38.9081099">
                <ele>2361.0</ele>
                <time>2008-06-25T14:37:33.000Z</time>
                <name>Position 772</name>
            </trkpt>
            <trkpt lon="-104.98157322" lat="38.90813327">
                <ele>2361.0</ele>
                <time>2008-06-25T14:37:34.000Z</time>
                <name>Position 773</name>
            </trkpt>
            <trkpt lon="-104.98167324" lat="38.90815163">
                <ele>2361.0</ele>
                <time>2008-06-25T14:37:35.000Z</time>
                <name>Position 774</name>
            </trkpt>
            <trkpt lon="-104.98175991" lat="38.90816998">
                <ele>2361.0</ele>
                <time>2008-06-25T14:37:36.000Z</time>
                <name>Position 775</name>
            </trkpt>
            <trkpt lon="-104.98183322" lat="38.90818655">
                <ele>2361.0</ele>
                <time>2008-06-25T14:37:37.000Z</time>
                <name>Position 776</name>
            </trkpt>
            <trkpt lon="-104.98189497" lat="38.90819991">
                <ele>2361.0</ele>
                <time>2008-06-25T14:37:38.000Z</time>
                <name>Position 777</name>
            </trkpt>
            <trkpt lon="-104.98194659" lat="38.90820992">
                <ele>2361.0</ele>
                <time>2008-06-25T14:37:39.000Z</time>
                <name>Position 778</name>
            </trkpt>
            <trkpt lon="-104.98198664" lat="38.90821993">
                <ele>2361.0</ele>
                <time>2008-06-25T14:37:40.000Z</time>
                <name>Position 779</name>
            </trkpt>
            <trkpt lon="-104.98201656" lat="38.90822661">
                <ele>2361.0</ele>
                <time>2008-06-25T14:37:41.000Z</time>
                <name>Position 780</name>
            </trkpt>
            <trkpt lon="-104.9820416" lat="38.90823162">
                <ele>2361.0</ele>
                <time>2008-06-25T14:37:42.000Z</time>
                <name>Position 781</name>
            </trkpt>
            <trkpt lon="-104.98205662" lat="38.90823495">
                <ele>2361.0</ele>
                <time>2008-06-25T14:37:43.000Z</time>
                <name>Position 782</name>
            </trkpt>
            <trkpt lon="-104.98205328" lat="38.90822494">
                <ele>2361.0</ele>
                <time>2008-06-25T14:39:19.000Z</time>
                <name>Position 783</name>
            </trkpt>
            <trkpt lon="-104.98207164" lat="38.90823162">
                <ele>2361.0</ele>
                <time>2008-06-25T14:39:20.000Z</time>
                <name>Position 784</name>
            </trkpt>
            <trkpt lon="-104.98210156" lat="38.9082433">
                <ele>2369.0</ele>
                <time>2008-06-25T14:39:21.000Z</time>
                <name>Position 785</name>
            </trkpt>
            <trkpt lon="-104.98213995" lat="38.90826333">
                <ele>2369.0</ele>
                <time>2008-06-25T14:39:22.000Z</time>
                <name>Position 786</name>
            </trkpt>
            <trkpt lon="-104.98217833" lat="38.90828657">
                <ele>2369.0</ele>
                <time>2008-06-25T14:39:23.000Z</time>
                <name>Position 787</name>
            </trkpt>
            <trkpt lon="-104.98221159" lat="38.90830493">
                <ele>2369.0</ele>
                <time>2008-06-25T14:39:24.000Z</time>
                <name>Position 788</name>
            </trkpt>
            <trkpt lon="-104.98223996" lat="38.90831995">
                <ele>2369.0</ele>
                <time>2008-06-25T14:39:25.000Z</time>
                <name>Position 789</name>
            </trkpt>
            <trkpt lon="-104.98225832" lat="38.90832663">
                <ele>2369.0</ele>
                <time>2008-06-25T14:39:26.000Z</time>
                <name>Position 790</name>
            </trkpt>
            <trkpt lon="-104.98228323" lat="38.90831494">
                <ele>2369.0</ele>
                <time>2008-06-25T14:40:38.000Z</time>
                <name>Position 791</name>
            </trkpt>
            <trkpt lon="-104.98230827" lat="38.90832496">
                <ele>2369.0</ele>
                <time>2008-06-25T14:40:39.000Z</time>
                <name>Position 792</name>
            </trkpt>
            <trkpt lon="-104.98234499" lat="38.90833664">
                <ele>2369.0</ele>
                <time>2008-06-25T14:40:40.000Z</time>
                <name>Position 793</name>
            </trkpt>
            <trkpt lon="-104.98238826" lat="38.90835333">
                <ele>2369.0</ele>
                <time>2008-06-25T14:40:41.000Z</time>
                <name>Position 794</name>
            </trkpt>
            <trkpt lon="-104.98243999" lat="38.90837657">
                <ele>2369.0</ele>
                <time>2008-06-25T14:40:42.000Z</time>
                <name>Position 795</name>
            </trkpt>
            <trkpt lon="-104.98249328" lat="38.90840995">
                <ele>2369.0</ele>
                <time>2008-06-25T14:40:43.000Z</time>
                <name>Position 796</name>
            </trkpt>
            <trkpt lon="-104.9825449" lat="38.90845156">
                <ele>2369.0</ele>
                <time>2008-06-25T14:40:44.000Z</time>
                <name>Position 797</name>
            </trkpt>
            <trkpt lon="-104.98258996" lat="38.90850163">
                <ele>2369.0</ele>
                <time>2008-06-25T14:40:45.000Z</time>
                <name>Position 798</name>
            </trkpt>
            <trkpt lon="-104.98262322" lat="38.90856159">
                <ele>2369.0</ele>
                <time>2008-06-25T14:40:46.000Z</time>
                <name>Position 799</name>
            </trkpt>
            <trkpt lon="-104.98264492" lat="38.90862823">
                <ele>2369.0</ele>
                <time>2008-06-25T14:40:47.000Z</time>
                <name>Position 800</name>
            </trkpt>
            <trkpt lon="-104.98264992" lat="38.90869832">
                <ele>2369.0</ele>
                <time>2008-06-25T14:40:48.000Z</time>
                <name>Position 801</name>
            </trkpt>
            <trkpt lon="-104.98264158" lat="38.90876997">
                <ele>2370.0</ele>
                <time>2008-06-25T14:40:49.000Z</time>
                <name>Position 802</name>
            </trkpt>
            <trkpt lon="-104.98261988" lat="38.90884495">
                <ele>2370.0</ele>
                <time>2008-06-25T14:40:50.000Z</time>
                <name>Position 803</name>
            </trkpt>
            <trkpt lon="-104.98258662" lat="38.90891826">
                <ele>2370.0</ele>
                <time>2008-06-25T14:40:51.000Z</time>
                <name>Position 804</name>
            </trkpt>
            <trkpt lon="-104.98254991" lat="38.90899658">
                <ele>2370.0</ele>
                <time>2008-06-25T14:40:52.000Z</time>
                <name>Position 805</name>
            </trkpt>
            <trkpt lon="-104.98251498" lat="38.90907657">
                <ele>2370.0</ele>
                <time>2008-06-25T14:40:53.000Z</time>
                <name>Position 806</name>
            </trkpt>
            <trkpt lon="-104.98248827" lat="38.9091599">
                <ele>2370.0</ele>
                <time>2008-06-25T14:40:54.000Z</time>
                <name>Position 807</name>
            </trkpt>
            <trkpt lon="-104.98247159" lat="38.90924323">
                <ele>2370.0</ele>
                <time>2008-06-25T14:40:55.000Z</time>
                <name>Position 808</name>
            </trkpt>
            <trkpt lon="-104.98246324" lat="38.90932488">
                <ele>2370.0</ele>
                <time>2008-06-25T14:40:56.000Z</time>
                <name>Position 809</name>
            </trkpt>
            <trkpt lon="-104.98246825" lat="38.90940666">
                <ele>2370.0</ele>
                <time>2008-06-25T14:40:57.000Z</time>
                <name>Position 810</name>
            </trkpt>
            <trkpt lon="-104.98248994" lat="38.90948665">
                <ele>2370.0</ele>
                <time>2008-06-25T14:40:58.000Z</time>
                <name>Position 811</name>
            </trkpt>
            <trkpt lon="-104.98252833" lat="38.90956664">
                <ele>2370.0</ele>
                <time>2008-06-25T14:40:59.000Z</time>
                <name>Position 812</name>
            </trkpt>
            <trkpt lon="-104.98257828" lat="38.90964162">
                <ele>2358.0</ele>
                <time>2008-06-25T14:41:00.000Z</time>
                <name>Position 813</name>
            </trkpt>
            <trkpt lon="-104.98263991" lat="38.90971327">
                <ele>2358.0</ele>
                <time>2008-06-25T14:41:01.000Z</time>
                <name>Position 814</name>
            </trkpt>
            <trkpt lon="-104.98271155" lat="38.90978158">
                <ele>2358.0</ele>
                <time>2008-06-25T14:41:02.000Z</time>
                <name>Position 815</name>
            </trkpt>
            <trkpt lon="-104.98279488" lat="38.90984333">
                <ele>2358.0</ele>
                <time>2008-06-25T14:41:03.000Z</time>
                <name>Position 816</name>
            </trkpt>
            <trkpt lon="-104.98288488" lat="38.90989327">
                <ele>2358.0</ele>
                <time>2008-06-25T14:41:04.000Z</time>
                <name>Position 817</name>
            </trkpt>
            <trkpt lon="-104.98298323" lat="38.90992498">
                <ele>2372.0</ele>
                <time>2008-06-25T14:41:05.000Z</time>
                <name>Position 818</name>
            </trkpt>
            <trkpt lon="-104.98308825" lat="38.909935">
                <ele>2372.0</ele>
                <time>2008-06-25T14:41:06.000Z</time>
                <name>Position 819</name>
            </trkpt>
            <trkpt lon="-104.98319161" lat="38.90993166">
                <ele>2372.0</ele>
                <time>2008-06-25T14:41:07.000Z</time>
                <name>Position 820</name>
            </trkpt>
            <trkpt lon="-104.98329496" lat="38.90991163">
                <ele>2372.0</ele>
                <time>2008-06-25T14:41:08.000Z</time>
                <name>Position 821</name>
            </trkpt>
            <trkpt lon="-104.98339164" lat="38.90987825">
                <ele>2372.0</ele>
                <time>2008-06-25T14:41:09.000Z</time>
                <name>Position 822</name>
            </trkpt>
            <trkpt lon="-104.98347664" lat="38.90982997">
                <ele>2372.0</ele>
                <time>2008-06-25T14:41:10.000Z</time>
                <name>Position 823</name>
            </trkpt>
            <trkpt lon="-104.98354328" lat="38.90976655">
                <ele>2372.0</ele>
                <time>2008-06-25T14:41:11.000Z</time>
                <name>Position 824</name>
            </trkpt>
            <trkpt lon="-104.98359323" lat="38.90969658">
                <ele>2372.0</ele>
                <time>2008-06-25T14:41:12.000Z</time>
                <name>Position 825</name>
            </trkpt>
            <trkpt lon="-104.98362994" lat="38.90961993">
                <ele>2372.0</ele>
                <time>2008-06-25T14:41:13.000Z</time>
                <name>Position 826</name>
            </trkpt>
            <trkpt lon="-104.98366165" lat="38.90954161">
                <ele>2385.0</ele>
                <time>2008-06-25T14:41:14.000Z</time>
                <name>Position 827</name>
            </trkpt>
            <trkpt lon="-104.9836899" lat="38.90946329">
                <ele>2385.0</ele>
                <time>2008-06-25T14:41:15.000Z</time>
                <name>Position 828</name>
            </trkpt>
            <trkpt lon="-104.98371828" lat="38.9093833">
                <ele>2385.0</ele>
                <time>2008-06-25T14:41:16.000Z</time>
                <name>Position 829</name>
            </trkpt>
            <trkpt lon="-104.98374331" lat="38.90930164">
                <ele>2385.0</ele>
                <time>2008-06-25T14:41:17.000Z</time>
                <name>Position 830</name>
            </trkpt>
            <trkpt lon="-104.98376822" lat="38.90921831">
                <ele>2391.0</ele>
                <time>2008-06-25T14:41:18.000Z</time>
                <name>Position 831</name>
            </trkpt>
            <trkpt lon="-104.98379326" lat="38.90913332">
                <ele>2391.0</ele>
                <time>2008-06-25T14:41:19.000Z</time>
                <name>Position 832</name>
            </trkpt>
            <trkpt lon="-104.98381662" lat="38.90904665">
                <ele>2391.0</ele>
                <time>2008-06-25T14:41:20.000Z</time>
                <name>Position 833</name>
            </trkpt>
            <trkpt lon="-104.98383832" lat="38.90895998">
                <ele>2391.0</ele>
                <time>2008-06-25T14:41:21.000Z</time>
                <name>Position 834</name>
            </trkpt>
            <trkpt lon="-104.9838599" lat="38.90887332">
                <ele>2391.0</ele>
                <time>2008-06-25T14:41:22.000Z</time>
                <name>Position 835</name>
            </trkpt>
            <trkpt lon="-104.98387325" lat="38.90878165">
                <ele>2391.0</ele>
                <time>2008-06-25T14:41:23.000Z</time>
                <name>Position 836</name>
            </trkpt>
            <trkpt lon="-104.98388326" lat="38.90868831">
                <ele>2403.0</ele>
                <time>2008-06-25T14:41:24.000Z</time>
                <name>Position 837</name>
            </trkpt>
            <trkpt lon="-104.98389161" lat="38.90859497">
                <ele>2403.0</ele>
                <time>2008-06-25T14:41:25.000Z</time>
                <name>Position 838</name>
            </trkpt>
            <trkpt lon="-104.98389494" lat="38.90849829">
                <ele>2403.0</ele>
                <time>2008-06-25T14:41:26.000Z</time>
                <name>Position 839</name>
            </trkpt>
            <trkpt lon="-104.98389995" lat="38.90840161">
                <ele>2403.0</ele>
                <time>2008-06-25T14:41:27.000Z</time>
                <name>Position 840</name>
            </trkpt>
            <trkpt lon="-104.98390162" lat="38.90830326">
                <ele>2403.0</ele>
                <time>2008-06-25T14:41:28.000Z</time>
                <name>Position 841</name>
            </trkpt>
            <trkpt lon="-104.98390496" lat="38.90820491">
                <ele>2403.0</ele>
                <time>2008-06-25T14:41:29.000Z</time>
                <name>Position 842</name>
            </trkpt>
            <trkpt lon="-104.98390496" lat="38.9081049">
                <ele>2403.0</ele>
                <time>2008-06-25T14:41:30.000Z</time>
                <name>Position 843</name>
            </trkpt>
            <trkpt lon="-104.98390329" lat="38.90800655">
                <ele>2403.0</ele>
                <time>2008-06-25T14:41:31.000Z</time>
                <name>Position 844</name>
            </trkpt>
            <trkpt lon="-104.98389661" lat="38.90790832">
                <ele>2419.0</ele>
                <time>2008-06-25T14:41:32.000Z</time>
                <name>Position 845</name>
            </trkpt>
            <trkpt lon="-104.98388326" lat="38.90781331">
                <ele>2419.0</ele>
                <time>2008-06-25T14:41:33.000Z</time>
                <name>Position 846</name>
            </trkpt>
            <trkpt lon="-104.98386657" lat="38.9077183">
                <ele>2419.0</ele>
                <time>2008-06-25T14:41:34.000Z</time>
                <name>Position 847</name>
            </trkpt>
            <trkpt lon="-104.98384166" lat="38.90762496">
                <ele>2419.0</ele>
                <time>2008-06-25T14:41:35.000Z</time>
                <name>Position 848</name>
            </trkpt>
            <trkpt lon="-104.98380828" lat="38.90753329">
                <ele>2419.0</ele>
                <time>2008-06-25T14:41:36.000Z</time>
                <name>Position 849</name>
            </trkpt>
            <trkpt lon="-104.9837749" lat="38.90744328">
                <ele>2419.0</ele>
                <time>2008-06-25T14:41:37.000Z</time>
                <name>Position 850</name>
            </trkpt>
            <trkpt lon="-104.98373997" lat="38.90734994">
                <ele>2400.0</ele>
                <time>2008-06-25T14:41:38.000Z</time>
                <name>Position 851</name>
            </trkpt>
            <trkpt lon="-104.98370659" lat="38.90725994">
                <ele>2400.0</ele>
                <time>2008-06-25T14:41:39.000Z</time>
                <name>Position 852</name>
            </trkpt>
            <trkpt lon="-104.98365998" lat="38.90717161">
                <ele>2400.0</ele>
                <time>2008-06-25T14:41:40.000Z</time>
                <name>Position 853</name>
            </trkpt>
            <trkpt lon="-104.98359656" lat="38.90708828">
                <ele>2400.0</ele>
                <time>2008-06-25T14:41:41.000Z</time>
                <name>Position 854</name>
            </trkpt>
            <trkpt lon="-104.98352158" lat="38.90700829">
                <ele>2420.0</ele>
                <time>2008-06-25T14:41:42.000Z</time>
                <name>Position 855</name>
            </trkpt>
            <trkpt lon="-104.98344493" lat="38.90693498">
                <ele>2420.0</ele>
                <time>2008-06-25T14:41:43.000Z</time>
                <name>Position 856</name>
            </trkpt>
            <trkpt lon="-104.98336494" lat="38.90686822">
                <ele>2420.0</ele>
                <time>2008-06-25T14:41:44.000Z</time>
                <name>Position 857</name>
            </trkpt>
            <trkpt lon="-104.98328328" lat="38.90680492">
                <ele>2420.0</ele>
                <time>2008-06-25T14:41:45.000Z</time>
                <name>Position 858</name>
            </trkpt>
            <trkpt lon="-104.98319995" lat="38.90674162">
                <ele>2420.0</ele>
                <time>2008-06-25T14:41:46.000Z</time>
                <name>Position 859</name>
            </trkpt>
            <trkpt lon="-104.98311162" lat="38.90667665">
                <ele>2420.0</ele>
                <time>2008-06-25T14:41:47.000Z</time>
                <name>Position 860</name>
            </trkpt>
            <trkpt lon="-104.98302495" lat="38.90661156">
                <ele>2420.0</ele>
                <time>2008-06-25T14:41:48.000Z</time>
                <name>Position 861</name>
            </trkpt>
            <trkpt lon="-104.98293996" lat="38.90654325">
                <ele>2420.0</ele>
                <time>2008-06-25T14:41:49.000Z</time>
                <name>Position 862</name>
            </trkpt>
            <trkpt lon="-104.98286498" lat="38.90646827">
                <ele>2410.0</ele>
                <time>2008-06-25T14:41:50.000Z</time>
                <name>Position 863</name>
            </trkpt>
            <trkpt lon="-104.98279488" lat="38.90638828">
                <ele>2410.0</ele>
                <time>2008-06-25T14:41:51.000Z</time>
                <name>Position 864</name>
            </trkpt>
            <trkpt lon="-104.98273659" lat="38.90630496">
                <ele>2410.0</ele>
                <time>2008-06-25T14:41:52.000Z</time>
                <name>Position 865</name>
            </trkpt>
            <trkpt lon="-104.98267829" lat="38.90621161">
                <ele>2425.0</ele>
                <time>2008-06-25T14:41:53.000Z</time>
                <name>Position 866</name>
            </trkpt>
            <trkpt lon="-104.9826299" lat="38.90611827">
                <ele>2425.0</ele>
                <time>2008-06-25T14:41:54.000Z</time>
                <name>Position 867</name>
            </trkpt>
            <trkpt lon="-104.98258328" lat="38.90601993">
                <ele>2425.0</ele>
                <time>2008-06-25T14:41:55.000Z</time>
                <name>Position 868</name>
            </trkpt>
            <trkpt lon="-104.9825449" lat="38.90591991">
                <ele>2425.0</ele>
                <time>2008-06-25T14:41:56.000Z</time>
                <name>Position 869</name>
            </trkpt>
            <trkpt lon="-104.98251498" lat="38.90581989">
                <ele>2425.0</ele>
                <time>2008-06-25T14:41:57.000Z</time>
                <name>Position 870</name>
            </trkpt>
            <trkpt lon="-104.98249161" lat="38.90571666">
                <ele>2425.0</ele>
                <time>2008-06-25T14:41:58.000Z</time>
                <name>Position 871</name>
            </trkpt>
            <trkpt lon="-104.98247659" lat="38.9056133">
                <ele>2425.0</ele>
                <time>2008-06-25T14:41:59.000Z</time>
                <name>Position 872</name>
            </trkpt>
            <trkpt lon="-104.98247826" lat="38.90551162">
                <ele>2425.0</ele>
                <time>2008-06-25T14:42:00.000Z</time>
                <name>Position 873</name>
            </trkpt>
            <trkpt lon="-104.98247993" lat="38.9054116">
                <ele>2445.0</ele>
                <time>2008-06-25T14:42:01.000Z</time>
                <name>Position 874</name>
            </trkpt>
            <trkpt lon="-104.98247826" lat="38.90531492">
                <ele>2445.0</ele>
                <time>2008-06-25T14:42:02.000Z</time>
                <name>Position 875</name>
            </trkpt>
            <trkpt lon="-104.98247159" lat="38.90522659">
                <ele>2445.0</ele>
                <time>2008-06-25T14:42:03.000Z</time>
                <name>Position 876</name>
            </trkpt>
            <trkpt lon="-104.98245156" lat="38.90514159">
                <ele>2445.0</ele>
                <time>2008-06-25T14:42:04.000Z</time>
                <name>Position 877</name>
            </trkpt>
            <trkpt lon="-104.98242331" lat="38.90506327">
                <ele>2445.0</ele>
                <time>2008-06-25T14:42:05.000Z</time>
                <name>Position 878</name>
            </trkpt>
            <trkpt lon="-104.98237658" lat="38.90498829">
                <ele>2445.0</ele>
                <time>2008-06-25T14:42:06.000Z</time>
                <name>Position 879</name>
            </trkpt>
            <trkpt lon="-104.98232496" lat="38.90491998">
                <ele>2445.0</ele>
                <time>2008-06-25T14:42:07.000Z</time>
                <name>Position 880</name>
            </trkpt>
            <trkpt lon="-104.98226821" lat="38.90485156">
                <ele>2445.0</ele>
                <time>2008-06-25T14:42:08.000Z</time>
                <name>Position 881</name>
            </trkpt>
            <trkpt lon="-104.98220992" lat="38.90478492">
                <ele>2445.0</ele>
                <time>2008-06-25T14:42:09.000Z</time>
                <name>Position 882</name>
            </trkpt>
            <trkpt lon="-104.9821583" lat="38.90471327">
                <ele>2445.0</ele>
                <time>2008-06-25T14:42:10.000Z</time>
                <name>Position 883</name>
            </trkpt>
            <trkpt lon="-104.98211157" lat="38.90463662">
                <ele>2445.0</ele>
                <time>2008-06-25T14:42:11.000Z</time>
                <name>Position 884</name>
            </trkpt>
            <trkpt lon="-104.98207831" lat="38.90455496">
                <ele>2439.0</ele>
                <time>2008-06-25T14:42:12.000Z</time>
                <name>Position 885</name>
            </trkpt>
            <trkpt lon="-104.98204827" lat="38.90446997">
                <ele>2439.0</ele>
                <time>2008-06-25T14:42:13.000Z</time>
                <name>Position 886</name>
            </trkpt>
            <trkpt lon="-104.98202157" lat="38.90438497">
                <ele>2439.0</ele>
                <time>2008-06-25T14:42:14.000Z</time>
                <name>Position 887</name>
            </trkpt>
            <trkpt lon="-104.98199332" lat="38.90429664">
                <ele>2439.0</ele>
                <time>2008-06-25T14:42:15.000Z</time>
                <name>Position 888</name>
            </trkpt>
            <trkpt lon="-104.98195827" lat="38.90420997">
                <ele>2439.0</ele>
                <time>2008-06-25T14:42:16.000Z</time>
                <name>Position 889</name>
            </trkpt>
            <trkpt lon="-104.98191988" lat="38.90412664">
                <ele>2439.0</ele>
                <time>2008-06-25T14:42:17.000Z</time>
                <name>Position 890</name>
            </trkpt>
            <trkpt lon="-104.98187828" lat="38.90404832">
                <ele>2439.0</ele>
                <time>2008-06-25T14:42:18.000Z</time>
                <name>Position 891</name>
            </trkpt>
            <trkpt lon="-104.98182166" lat="38.90396988">
                <ele>2439.0</ele>
                <time>2008-06-25T14:42:19.000Z</time>
                <name>Position 892</name>
            </trkpt>
            <trkpt lon="-104.98175657" lat="38.90389657">
                <ele>2439.0</ele>
                <time>2008-06-25T14:42:20.000Z</time>
                <name>Position 893</name>
            </trkpt>
            <trkpt lon="-104.98169327" lat="38.90382159">
                <ele>2439.0</ele>
                <time>2008-06-25T14:42:21.000Z</time>
                <name>Position 894</name>
            </trkpt>
            <trkpt lon="-104.98162496" lat="38.9037416">
                <ele>2465.0</ele>
                <time>2008-06-25T14:42:22.000Z</time>
                <name>Position 895</name>
            </trkpt>
            <trkpt lon="-104.98156655" lat="38.90365827">
                <ele>2465.0</ele>
                <time>2008-06-25T14:42:23.000Z</time>
                <name>Position 896</name>
            </trkpt>
            <trkpt lon="-104.9815166" lat="38.90357161">
                <ele>2465.0</ele>
                <time>2008-06-25T14:42:24.000Z</time>
                <name>Position 897</name>
            </trkpt>
            <trkpt lon="-104.98147333" lat="38.9034766">
                <ele>2465.0</ele>
                <time>2008-06-25T14:42:25.000Z</time>
                <name>Position 898</name>
            </trkpt>
            <trkpt lon="-104.98145163" lat="38.90337992">
                <ele>2465.0</ele>
                <time>2008-06-25T14:42:26.000Z</time>
                <name>Position 899</name>
            </trkpt>
            <trkpt lon="-104.98143327" lat="38.9032799">
                <ele>2465.0</ele>
                <time>2008-06-25T14:42:27.000Z</time>
                <name>Position 900</name>
            </trkpt>
            <trkpt lon="-104.98142827" lat="38.90318155">
                <ele>2465.0</ele>
                <time>2008-06-25T14:42:28.000Z</time>
                <name>Position 901</name>
            </trkpt>
            <trkpt lon="-104.98141325" lat="38.90307999">
                <ele>2465.0</ele>
                <time>2008-06-25T14:42:29.000Z</time>
                <name>Position 902</name>
            </trkpt>
            <trkpt lon="-104.98139322" lat="38.90298331">
                <ele>2465.0</ele>
                <time>2008-06-25T14:42:30.000Z</time>
                <name>Position 903</name>
            </trkpt>
            <trkpt lon="-104.98135829" lat="38.9028883">
                <ele>2489.0</ele>
                <time>2008-06-25T14:42:31.000Z</time>
                <name>Position 904</name>
            </trkpt>
            <trkpt lon="-104.9813149" lat="38.90279162">
                <ele>2489.0</ele>
                <time>2008-06-25T14:42:32.000Z</time>
                <name>Position 905</name>
            </trkpt>
            <trkpt lon="-104.98126829" lat="38.9026916">
                <ele>2489.0</ele>
                <time>2008-06-25T14:42:33.000Z</time>
                <name>Position 906</name>
            </trkpt>
            <trkpt lon="-104.98123157" lat="38.90259326">
                <ele>2456.0</ele>
                <time>2008-06-25T14:42:34.000Z</time>
                <name>Position 907</name>
            </trkpt>
            <trkpt lon="-104.98119831" lat="38.90249157">
                <ele>2456.0</ele>
                <time>2008-06-25T14:42:35.000Z</time>
                <name>Position 908</name>
            </trkpt>
            <trkpt lon="-104.9811666" lat="38.90238822">
                <ele>2456.0</ele>
                <time>2008-06-25T14:42:36.000Z</time>
                <name>Position 909</name>
            </trkpt>
            <trkpt lon="-104.98113489" lat="38.90228832">
                <ele>2456.0</ele>
                <time>2008-06-25T14:42:37.000Z</time>
                <name>Position 910</name>
            </trkpt>
            <trkpt lon="-104.98108995" lat="38.90219331">
                <ele>2456.0</ele>
                <time>2008-06-25T14:42:38.000Z</time>
                <name>Position 911</name>
            </trkpt>
            <trkpt lon="-104.98102999" lat="38.90210664">
                <ele>2456.0</ele>
                <time>2008-06-25T14:42:39.000Z</time>
                <name>Position 912</name>
            </trkpt>
            <trkpt lon="-104.98095822" lat="38.90201998">
                <ele>2481.0</ele>
                <time>2008-06-25T14:42:40.000Z</time>
                <name>Position 913</name>
            </trkpt>
            <trkpt lon="-104.98089325" lat="38.90193164">
                <ele>2481.0</ele>
                <time>2008-06-25T14:42:41.000Z</time>
                <name>Position 914</name>
            </trkpt>
            <trkpt lon="-104.98083997" lat="38.9018383">
                <ele>2481.0</ele>
                <time>2008-06-25T14:42:42.000Z</time>
                <name>Position 915</name>
            </trkpt>
            <trkpt lon="-104.98080325" lat="38.90173995">
                <ele>2481.0</ele>
                <time>2008-06-25T14:42:43.000Z</time>
                <name>Position 916</name>
            </trkpt>
            <trkpt lon="-104.9807899" lat="38.90163994">
                <ele>2481.0</ele>
                <time>2008-06-25T14:42:44.000Z</time>
                <name>Position 917</name>
            </trkpt>
            <trkpt lon="-104.98078489" lat="38.90153825">
                <ele>2481.0</ele>
                <time>2008-06-25T14:42:45.000Z</time>
                <name>Position 918</name>
            </trkpt>
            <trkpt lon="-104.98078156" lat="38.90144491">
                <ele>2481.0</ele>
                <time>2008-06-25T14:42:46.000Z</time>
                <name>Position 919</name>
            </trkpt>
            <trkpt lon="-104.98076499" lat="38.90135658">
                <ele>2481.0</ele>
                <time>2008-06-25T14:42:47.000Z</time>
                <name>Position 920</name>
            </trkpt>
            <trkpt lon="-104.98071992" lat="38.90127659">
                <ele>2481.0</ele>
                <time>2008-06-25T14:42:48.000Z</time>
                <name>Position 921</name>
            </trkpt>
            <trkpt lon="-104.98065829" lat="38.90120828">
                <ele>2521.0</ele>
                <time>2008-06-25T14:42:49.000Z</time>
                <name>Position 922</name>
            </trkpt>
            <trkpt lon="-104.98058498" lat="38.90114832">
                <ele>2521.0</ele>
                <time>2008-06-25T14:42:50.000Z</time>
                <name>Position 923</name>
            </trkpt>
            <trkpt lon="-104.98049498" lat="38.90109491">
                <ele>2521.0</ele>
                <time>2008-06-25T14:42:51.000Z</time>
                <name>Position 924</name>
            </trkpt>
            <trkpt lon="-104.98040497" lat="38.90104663">
                <ele>2486.0</ele>
                <time>2008-06-25T14:42:52.000Z</time>
                <name>Position 925</name>
            </trkpt>
            <trkpt lon="-104.98031497" lat="38.90100157">
                <ele>2486.0</ele>
                <time>2008-06-25T14:42:53.000Z</time>
                <name>Position 926</name>
            </trkpt>
            <trkpt lon="-104.9802283" lat="38.90095162">
                <ele>2486.0</ele>
                <time>2008-06-25T14:42:54.000Z</time>
                <name>Position 927</name>
            </trkpt>
            <trkpt lon="-104.98014832" lat="38.90089333">
                <ele>2486.0</ele>
                <time>2008-06-25T14:42:55.000Z</time>
                <name>Position 928</name>
            </trkpt>
            <trkpt lon="-104.98008156" lat="38.9008249">
                <ele>2486.0</ele>
                <time>2008-06-25T14:42:56.000Z</time>
                <name>Position 929</name>
            </trkpt>
            <trkpt lon="-104.9800266" lat="38.90074825">
                <ele>2486.0</ele>
                <time>2008-06-25T14:42:57.000Z</time>
                <name>Position 930</name>
            </trkpt>
            <trkpt lon="-104.97998822" lat="38.90066493">
                <ele>2486.0</ele>
                <time>2008-06-25T14:42:58.000Z</time>
                <name>Position 931</name>
            </trkpt>
            <trkpt lon="-104.9799633" lat="38.90057492">
                <ele>2486.0</ele>
                <time>2008-06-25T14:42:59.000Z</time>
                <name>Position 932</name>
            </trkpt>
            <trkpt lon="-104.97993994" lat="38.90047991">
                <ele>2486.0</ele>
                <time>2008-06-25T14:43:00.000Z</time>
                <name>Position 933</name>
            </trkpt>
            <trkpt lon="-104.97992492" lat="38.9003849">
                <ele>2510.0</ele>
                <time>2008-06-25T14:43:01.000Z</time>
                <name>Position 934</name>
            </trkpt>
            <trkpt lon="-104.97990656" lat="38.90028822">
                <ele>2510.0</ele>
                <time>2008-06-25T14:43:02.000Z</time>
                <name>Position 935</name>
            </trkpt>
            <trkpt lon="-104.97987998" lat="38.90019">
                <ele>2510.0</ele>
                <time>2008-06-25T14:43:03.000Z</time>
                <name>Position 936</name>
            </trkpt>
            <trkpt lon="-104.97984326" lat="38.90009499">
                <ele>2510.0</ele>
                <time>2008-06-25T14:43:04.000Z</time>
                <name>Position 937</name>
            </trkpt>
            <trkpt lon="-104.97980165" lat="38.89999998">
                <ele>2510.0</ele>
                <time>2008-06-25T14:43:05.000Z</time>
                <name>Position 938</name>
            </trkpt>
            <trkpt lon="-104.9797616" lat="38.8999033">
                <ele>2510.0</ele>
                <time>2008-06-25T14:43:06.000Z</time>
                <name>Position 939</name>
            </trkpt>
            <trkpt lon="-104.97972822" lat="38.89980662">
                <ele>2510.0</ele>
                <time>2008-06-25T14:43:07.000Z</time>
                <name>Position 940</name>
            </trkpt>
            <trkpt lon="-104.97970498" lat="38.8997066">
                <ele>2510.0</ele>
                <time>2008-06-25T14:43:08.000Z</time>
                <name>Position 941</name>
            </trkpt>
            <trkpt lon="-104.97969162" lat="38.89960492">
                <ele>2510.0</ele>
                <time>2008-06-25T14:43:09.000Z</time>
                <name>Position 942</name>
            </trkpt>
            <trkpt lon="-104.97968829" lat="38.89950657">
                <ele>2506.0</ele>
                <time>2008-06-25T14:43:10.000Z</time>
                <name>Position 943</name>
            </trkpt>
            <trkpt lon="-104.97968829" lat="38.89941657">
                <ele>2506.0</ele>
                <time>2008-06-25T14:43:11.000Z</time>
                <name>Position 944</name>
            </trkpt>
            <trkpt lon="-104.97969162" lat="38.89933658">
                <ele>2506.0</ele>
                <time>2008-06-25T14:43:12.000Z</time>
                <name>Position 945</name>
            </trkpt>
            <trkpt lon="-104.97969162" lat="38.89926493">
                <ele>2506.0</ele>
                <time>2008-06-25T14:43:13.000Z</time>
                <name>Position 946</name>
            </trkpt>
            <trkpt lon="-104.97969663" lat="38.8992033">
                <ele>2506.0</ele>
                <time>2008-06-25T14:43:14.000Z</time>
                <name>Position 947</name>
            </trkpt>
            <trkpt lon="-104.97970498" lat="38.89915323">
                <ele>2506.0</ele>
                <time>2008-06-25T14:43:15.000Z</time>
                <name>Position 948</name>
            </trkpt>
            <trkpt lon="-104.97971499" lat="38.89911163">
                <ele>2506.0</ele>
                <time>2008-06-25T14:43:16.000Z</time>
                <name>Position 949</name>
            </trkpt>
            <trkpt lon="-104.97972989" lat="38.89908326">
                <ele>2506.0</ele>
                <time>2008-06-25T14:43:17.000Z</time>
                <name>Position 950</name>
            </trkpt>
            <trkpt lon="-104.9797399" lat="38.89906323">
                <ele>2506.0</ele>
                <time>2008-06-25T14:43:18.000Z</time>
                <name>Position 951</name>
            </trkpt>
            <trkpt lon="-104.97974825" lat="38.89905">
                <ele>2506.0</ele>
                <time>2008-06-25T14:43:19.000Z</time>
                <name>Position 952</name>
            </trkpt>
            <trkpt lon="-104.97975326" lat="38.89904165">
                <ele>2506.0</ele>
                <time>2008-06-25T14:43:20.000Z</time>
                <name>Position 953</name>
            </trkpt>
            <trkpt lon="-104.97973657" lat="38.89908326">
                <ele>2506.0</ele>
                <time>2008-06-25T14:54:53.000Z</time>
                <name>Position 954</name>
            </trkpt>
            <trkpt lon="-104.97974658" lat="38.89910495">
                <ele>2506.0</ele>
                <time>2008-06-25T14:55:01.000Z</time>
                <name>Position 955</name>
            </trkpt>
            <trkpt lon="-104.97977662" lat="38.89909828">
                <ele>2506.0</ele>
                <time>2008-06-25T14:55:02.000Z</time>
                <name>Position 956</name>
            </trkpt>
            <trkpt lon="-104.97981822" lat="38.8990916">
                <ele>2506.0</ele>
                <time>2008-06-25T14:55:03.000Z</time>
                <name>Position 957</name>
            </trkpt>
            <trkpt lon="-104.97986829" lat="38.89908659">
                <ele>2506.0</ele>
                <time>2008-06-25T14:55:04.000Z</time>
                <name>Position 958</name>
            </trkpt>
            <trkpt lon="-104.97992659" lat="38.89908159">
                <ele>2506.0</ele>
                <time>2008-06-25T14:55:05.000Z</time>
                <name>Position 959</name>
            </trkpt>
            <trkpt lon="-104.97999156" lat="38.89907491">
                <ele>2506.0</ele>
                <time>2008-06-25T14:55:06.000Z</time>
                <name>Position 960</name>
            </trkpt>
            <trkpt lon="-104.98005998" lat="38.8990649">
                <ele>2506.0</ele>
                <time>2008-06-25T14:55:07.000Z</time>
                <name>Position 961</name>
            </trkpt>
            <trkpt lon="-104.98013163" lat="38.89905488">
                <ele>2506.0</ele>
                <time>2008-06-25T14:55:08.000Z</time>
                <name>Position 962</name>
            </trkpt>
            <trkpt lon="-104.98020494" lat="38.89903831">
                <ele>2506.0</ele>
                <time>2008-06-25T14:55:09.000Z</time>
                <name>Position 963</name>
            </trkpt>
            <trkpt lon="-104.98027825" lat="38.89901662">
                <ele>2506.0</ele>
                <time>2008-06-25T14:55:10.000Z</time>
                <name>Position 964</name>
            </trkpt>
            <trkpt lon="-104.98034823" lat="38.89898825">
                <ele>2506.0</ele>
                <time>2008-06-25T14:55:11.000Z</time>
                <name>Position 965</name>
            </trkpt>
            <trkpt lon="-104.98041832" lat="38.89895666">
                <ele>2539.0</ele>
                <time>2008-06-25T14:55:12.000Z</time>
                <name>Position 966</name>
            </trkpt>
            <trkpt lon="-104.98048329" lat="38.89891994">
                <ele>2539.0</ele>
                <time>2008-06-25T14:55:13.000Z</time>
                <name>Position 967</name>
            </trkpt>
            <trkpt lon="-104.98053992" lat="38.89887822">
                <ele>2539.0</ele>
                <time>2008-06-25T14:55:14.000Z</time>
                <name>Position 968</name>
            </trkpt>
            <trkpt lon="-104.98058999" lat="38.89883161">
                <ele>2539.0</ele>
                <time>2008-06-25T14:55:15.000Z</time>
                <name>Position 969</name>
            </trkpt>
            <trkpt lon="-104.98063159" lat="38.89877832">
                <ele>2539.0</ele>
                <time>2008-06-25T14:55:16.000Z</time>
                <name>Position 970</name>
            </trkpt>
            <trkpt lon="-104.98066664" lat="38.89872158">
                <ele>2515.0</ele>
                <time>2008-06-25T14:55:17.000Z</time>
                <name>Position 971</name>
            </trkpt>
            <trkpt lon="-104.98069656" lat="38.89866495">
                <ele>2515.0</ele>
                <time>2008-06-25T14:55:18.000Z</time>
                <name>Position 972</name>
            </trkpt>
            <trkpt lon="-104.98071659" lat="38.89860165">
                <ele>2515.0</ele>
                <time>2008-06-25T14:55:19.000Z</time>
                <name>Position 973</name>
            </trkpt>
            <trkpt lon="-104.98072827" lat="38.89853489">
                <ele>2515.0</ele>
                <time>2008-06-25T14:55:20.000Z</time>
                <name>Position 974</name>
            </trkpt>
            <trkpt lon="-104.98073828" lat="38.89846659">
                <ele>2515.0</ele>
                <time>2008-06-25T14:55:21.000Z</time>
                <name>Position 975</name>
            </trkpt>
            <trkpt lon="-104.98075163" lat="38.89839995">
                <ele>2515.0</ele>
                <time>2008-06-25T14:55:22.000Z</time>
                <name>Position 976</name>
            </trkpt>
            <trkpt lon="-104.98076499" lat="38.8983283">
                <ele>2515.0</ele>
                <time>2008-06-25T14:55:23.000Z</time>
                <name>Position 977</name>
            </trkpt>
            <trkpt lon="-104.98078656" lat="38.89826">
                <ele>2515.0</ele>
                <time>2008-06-25T14:55:24.000Z</time>
                <name>Position 978</name>
            </trkpt>
            <trkpt lon="-104.98084497" lat="38.89819992">
                <ele>2515.0</ele>
                <time>2008-06-25T14:55:25.000Z</time>
                <name>Position 979</name>
            </trkpt>
            <trkpt lon="-104.98092496" lat="38.89815164">
                <ele>2515.0</ele>
                <time>2008-06-25T14:55:26.000Z</time>
                <name>Position 980</name>
            </trkpt>
            <trkpt lon="-104.98101497" lat="38.89811659">
                <ele>2515.0</ele>
                <time>2008-06-25T14:55:27.000Z</time>
                <name>Position 981</name>
            </trkpt>
            <trkpt lon="-104.98111331" lat="38.898085">
                <ele>2515.0</ele>
                <time>2008-06-25T14:55:28.000Z</time>
                <name>Position 982</name>
            </trkpt>
            <trkpt lon="-104.98120999" lat="38.89804828">
                <ele>2515.0</ele>
                <time>2008-06-25T14:55:29.000Z</time>
                <name>Position 983</name>
            </trkpt>
            <trkpt lon="-104.98130989" lat="38.8980099">
                <ele>2544.0</ele>
                <time>2008-06-25T14:55:30.000Z</time>
                <name>Position 984</name>
            </trkpt>
            <trkpt lon="-104.98140824" lat="38.89796662">
                <ele>2544.0</ele>
                <time>2008-06-25T14:55:31.000Z</time>
                <name>Position 985</name>
            </trkpt>
            <trkpt lon="-104.98150659" lat="38.89792156">
                <ele>2544.0</ele>
                <time>2008-06-25T14:55:32.000Z</time>
                <name>Position 986</name>
            </trkpt>
            <trkpt lon="-104.98160326" lat="38.89787328">
                <ele>2516.0</ele>
                <time>2008-06-25T14:55:33.000Z</time>
                <name>Position 987</name>
            </trkpt>
            <trkpt lon="-104.98170161" lat="38.89782321">
                <ele>2516.0</ele>
                <time>2008-06-25T14:55:34.000Z</time>
                <name>Position 988</name>
            </trkpt>
            <trkpt lon="-104.9818033" lat="38.89777327">
                <ele>2516.0</ele>
                <time>2008-06-25T14:55:35.000Z</time>
                <name>Position 989</name>
            </trkpt>
            <trkpt lon="-104.98190498" lat="38.89772499">
                <ele>2516.0</ele>
                <time>2008-06-25T14:55:36.000Z</time>
                <name>Position 990</name>
            </trkpt>
            <trkpt lon="-104.98200822" lat="38.89767325">
                <ele>2516.0</ele>
                <time>2008-06-25T14:55:37.000Z</time>
                <name>Position 991</name>
            </trkpt>
            <trkpt lon="-104.98211157" lat="38.89761829">
                <ele>2548.0</ele>
                <time>2008-06-25T14:55:38.000Z</time>
                <name>Position 992</name>
            </trkpt>
            <trkpt lon="-104.98221493" lat="38.89756155">
                <ele>2548.0</ele>
                <time>2008-06-25T14:55:39.000Z</time>
                <name>Position 993</name>
            </trkpt>
            <trkpt lon="-104.98231494" lat="38.89750326">
                <ele>2548.0</ele>
                <time>2008-06-25T14:55:40.000Z</time>
                <name>Position 994</name>
            </trkpt>
            <trkpt lon="-104.98241329" lat="38.89744163">
                <ele>2548.0</ele>
                <time>2008-06-25T14:55:41.000Z</time>
                <name>Position 995</name>
            </trkpt>
            <trkpt lon="-104.98250663" lat="38.89737666">
                <ele>2548.0</ele>
                <time>2008-06-25T14:55:42.000Z</time>
                <name>Position 996</name>
            </trkpt>
            <trkpt lon="-104.98258162" lat="38.89730656">
                <ele>2548.0</ele>
                <time>2008-06-25T14:55:43.000Z</time>
                <name>Position 997</name>
            </trkpt>
            <trkpt lon="-104.9826349" lat="38.89723325">
                <ele>2548.0</ele>
                <time>2008-06-25T14:55:44.000Z</time>
                <name>Position 998</name>
            </trkpt>
            <trkpt lon="-104.98267329" lat="38.89715993">
                <ele>2548.0</ele>
                <time>2008-06-25T14:55:45.000Z</time>
                <name>Position 999</name>
            </trkpt>
            <trkpt lon="-104.98269331" lat="38.89708328">
                <ele>2535.0</ele>
                <time>2008-06-25T14:55:46.000Z</time>
                <name>Position 1000</name>
            </trkpt>
            <trkpt lon="-104.98270166" lat="38.89700663">
                <ele>2535.0</ele>
                <time>2008-06-25T14:55:47.000Z</time>
                <name>Position 1001</name>
            </trkpt>
            <trkpt lon="-104.982705" lat="38.89693165">
                <ele>2535.0</ele>
                <time>2008-06-25T14:55:48.000Z</time>
                <name>Position 1002</name>
            </trkpt>
            <trkpt lon="-104.98270822" lat="38.89685333">
                <ele>2535.0</ele>
                <time>2008-06-25T14:55:49.000Z</time>
                <name>Position 1003</name>
            </trkpt>
            <trkpt lon="-104.98271823" lat="38.89677155">
                <ele>2535.0</ele>
                <time>2008-06-25T14:55:50.000Z</time>
                <name>Position 1004</name>
            </trkpt>
            <trkpt lon="-104.98273492" lat="38.89668655">
                <ele>2535.0</ele>
                <time>2008-06-25T14:55:51.000Z</time>
                <name>Position 1005</name>
            </trkpt>
            <trkpt lon="-104.98275995" lat="38.89659989">
                <ele>2535.0</ele>
                <time>2008-06-25T14:55:52.000Z</time>
                <name>Position 1006</name>
            </trkpt>
            <trkpt lon="-104.98280656" lat="38.89651823">
                <ele>2535.0</ele>
                <time>2008-06-25T14:55:53.000Z</time>
                <name>Position 1007</name>
            </trkpt>
            <trkpt lon="-104.98287165" lat="38.89644659">
                <ele>2535.0</ele>
                <time>2008-06-25T14:55:54.000Z</time>
                <name>Position 1008</name>
            </trkpt>
            <trkpt lon="-104.98295498" lat="38.89638495">
                <ele>2556.0</ele>
                <time>2008-06-25T14:55:55.000Z</time>
                <name>Position 1009</name>
            </trkpt>
            <trkpt lon="-104.98305166" lat="38.89633656">
                <ele>2556.0</ele>
                <time>2008-06-25T14:55:56.000Z</time>
                <name>Position 1010</name>
            </trkpt>
            <trkpt lon="-104.98316157" lat="38.8963083">
                <ele>2556.0</ele>
                <time>2008-06-25T14:55:57.000Z</time>
                <name>Position 1011</name>
            </trkpt>
            <trkpt lon="-104.98328161" lat="38.89630663">
                <ele>2556.0</ele>
                <time>2008-06-25T14:55:58.000Z</time>
                <name>Position 1012</name>
            </trkpt>
            <trkpt lon="-104.98340333" lat="38.89632332">
                <ele>2556.0</ele>
                <time>2008-06-25T14:55:59.000Z</time>
                <name>Position 1013</name>
            </trkpt>
            <trkpt lon="-104.98352492" lat="38.89635992">
                <ele>2556.0</ele>
                <time>2008-06-25T14:56:00.000Z</time>
                <name>Position 1014</name>
            </trkpt>
            <trkpt lon="-104.9836483" lat="38.89640665">
                <ele>2556.0</ele>
                <time>2008-06-25T14:56:01.000Z</time>
                <name>Position 1015</name>
            </trkpt>
            <trkpt lon="-104.9837749" lat="38.89645493">
                <ele>2561.0</ele>
                <time>2008-06-25T14:56:02.000Z</time>
                <name>Position 1016</name>
            </trkpt>
            <trkpt lon="-104.98390496" lat="38.89650166">
                <ele>2561.0</ele>
                <time>2008-06-25T14:56:03.000Z</time>
                <name>Position 1017</name>
            </trkpt>
            <trkpt lon="-104.98404324" lat="38.89653826">
                <ele>2561.0</ele>
                <time>2008-06-25T14:56:04.000Z</time>
                <name>Position 1018</name>
            </trkpt>
            <trkpt lon="-104.98418665" lat="38.89656663">
                <ele>2561.0</ele>
                <time>2008-06-25T14:56:05.000Z</time>
                <name>Position 1019</name>
            </trkpt>
            <trkpt lon="-104.98433328" lat="38.89658499">
                <ele>2561.0</ele>
                <time>2008-06-25T14:56:06.000Z</time>
                <name>Position 1020</name>
            </trkpt>
            <trkpt lon="-104.98448157" lat="38.89659333">
                <ele>2561.0</ele>
                <time>2008-06-25T14:56:07.000Z</time>
                <name>Position 1021</name>
            </trkpt>
            <trkpt lon="-104.98462832" lat="38.89658999">
                <ele>2566.0</ele>
                <time>2008-06-25T14:56:08.000Z</time>
                <name>Position 1022</name>
            </trkpt>
            <trkpt lon="-104.98476827" lat="38.89657664">
                <ele>2566.0</ele>
                <time>2008-06-25T14:56:09.000Z</time>
                <name>Position 1023</name>
            </trkpt>
            <trkpt lon="-104.98490322" lat="38.89655995">
                <ele>2566.0</ele>
                <time>2008-06-25T14:56:10.000Z</time>
                <name>Position 1024</name>
            </trkpt>
            <trkpt lon="-104.98503327" lat="38.89654493">
                <ele>2566.0</ele>
                <time>2008-06-25T14:56:11.000Z</time>
                <name>Position 1025</name>
            </trkpt>
            <trkpt lon="-104.98515832" lat="38.89653826">
                <ele>2566.0</ele>
                <time>2008-06-25T14:56:12.000Z</time>
                <name>Position 1026</name>
            </trkpt>
            <trkpt lon="-104.98527658" lat="38.89654827">
                <ele>2566.0</ele>
                <time>2008-06-25T14:56:13.000Z</time>
                <name>Position 1027</name>
            </trkpt>
            <trkpt lon="-104.98538327" lat="38.89657831">
                <ele>2566.0</ele>
                <time>2008-06-25T14:56:14.000Z</time>
                <name>Position 1028</name>
            </trkpt>
            <trkpt lon="-104.98547661" lat="38.89662659">
                <ele>2555.0</ele>
                <time>2008-06-25T14:56:15.000Z</time>
                <name>Position 1029</name>
            </trkpt>
            <trkpt lon="-104.98554993" lat="38.89669991">
                <ele>2555.0</ele>
                <time>2008-06-25T14:56:16.000Z</time>
                <name>Position 1030</name>
            </trkpt>
            <trkpt lon="-104.98560822" lat="38.89678323">
                <ele>2555.0</ele>
                <time>2008-06-25T14:56:17.000Z</time>
                <name>Position 1031</name>
            </trkpt>
            <trkpt lon="-104.98565996" lat="38.8968749">
                <ele>2555.0</ele>
                <time>2008-06-25T14:56:18.000Z</time>
                <name>Position 1032</name>
            </trkpt>
            <trkpt lon="-104.98570991" lat="38.89697158">
                <ele>2555.0</ele>
                <time>2008-06-25T14:56:19.000Z</time>
                <name>Position 1033</name>
            </trkpt>
            <trkpt lon="-104.98576331" lat="38.89706993">
                <ele>2555.0</ele>
                <time>2008-06-25T14:56:20.000Z</time>
                <name>Position 1034</name>
            </trkpt>
            <trkpt lon="-104.9858216" lat="38.89717162">
                <ele>2585.0</ele>
                <time>2008-06-25T14:56:21.000Z</time>
                <name>Position 1035</name>
            </trkpt>
            <trkpt lon="-104.98589158" lat="38.89726663">
                <ele>2585.0</ele>
                <time>2008-06-25T14:56:22.000Z</time>
                <name>Position 1036</name>
            </trkpt>
            <trkpt lon="-104.98597324" lat="38.89736331">
                <ele>2585.0</ele>
                <time>2008-06-25T14:56:23.000Z</time>
                <name>Position 1037</name>
            </trkpt>
            <trkpt lon="-104.98606324" lat="38.89745665">
                <ele>2585.0</ele>
                <time>2008-06-25T14:56:24.000Z</time>
                <name>Position 1038</name>
            </trkpt>
            <trkpt lon="-104.98615658" lat="38.89754999">
                <ele>2585.0</ele>
                <time>2008-06-25T14:56:25.000Z</time>
                <name>Position 1039</name>
            </trkpt>
            <trkpt lon="-104.98625493" lat="38.89764166">
                <ele>2558.0</ele>
                <time>2008-06-25T14:56:26.000Z</time>
                <name>Position 1040</name>
            </trkpt>
            <trkpt lon="-104.98635328" lat="38.89773333">
                <ele>2558.0</ele>
                <time>2008-06-25T14:56:27.000Z</time>
                <name>Position 1041</name>
            </trkpt>
            <trkpt lon="-104.98645163" lat="38.89782822">
                <ele>2558.0</ele>
                <time>2008-06-25T14:56:28.000Z</time>
                <name>Position 1042</name>
            </trkpt>
            <trkpt lon="-104.98655331" lat="38.89792156">
                <ele>2594.0</ele>
                <time>2008-06-25T14:56:29.000Z</time>
                <name>Position 1043</name>
            </trkpt>
            <trkpt lon="-104.986655" lat="38.89801323">
                <ele>2594.0</ele>
                <time>2008-06-25T14:56:30.000Z</time>
                <name>Position 1044</name>
            </trkpt>
            <trkpt lon="-104.98675823" lat="38.89810658">
                <ele>2594.0</ele>
                <time>2008-06-25T14:56:31.000Z</time>
                <name>Position 1045</name>
            </trkpt>
            <trkpt lon="-104.98686659" lat="38.89819825">
                <ele>2594.0</ele>
                <time>2008-06-25T14:56:32.000Z</time>
                <name>Position 1046</name>
            </trkpt>
            <trkpt lon="-104.98697495" lat="38.89828825">
                <ele>2594.0</ele>
                <time>2008-06-25T14:56:33.000Z</time>
                <name>Position 1047</name>
            </trkpt>
            <trkpt lon="-104.98707664" lat="38.89837658">
                <ele>2594.0</ele>
                <time>2008-06-25T14:56:34.000Z</time>
                <name>Position 1048</name>
            </trkpt>
            <trkpt lon="-104.98716664" lat="38.89846826">
                <ele>2574.0</ele>
                <time>2008-06-25T14:56:35.000Z</time>
                <name>Position 1049</name>
            </trkpt>
            <trkpt lon="-104.98724663" lat="38.89856327">
                <ele>2574.0</ele>
                <time>2008-06-25T14:56:36.000Z</time>
                <name>Position 1050</name>
            </trkpt>
            <trkpt lon="-104.98731661" lat="38.89866161">
                <ele>2574.0</ele>
                <time>2008-06-25T14:56:37.000Z</time>
                <name>Position 1051</name>
            </trkpt>
            <trkpt lon="-104.98737824" lat="38.89875996">
                <ele>2595.0</ele>
                <time>2008-06-25T14:56:38.000Z</time>
                <name>Position 1052</name>
            </trkpt>
            <trkpt lon="-104.98743665" lat="38.89885998">
                <ele>2595.0</ele>
                <time>2008-06-25T14:56:39.000Z</time>
                <name>Position 1053</name>
            </trkpt>
            <trkpt lon="-104.98748827" lat="38.89896333">
                <ele>2595.0</ele>
                <time>2008-06-25T14:56:40.000Z</time>
                <name>Position 1054</name>
            </trkpt>
            <trkpt lon="-104.98754489" lat="38.89906991">
                <ele>2595.0</ele>
                <time>2008-06-25T14:56:41.000Z</time>
                <name>Position 1055</name>
            </trkpt>
            <trkpt lon="-104.98760164" lat="38.89917326">
                <ele>2595.0</ele>
                <time>2008-06-25T14:56:42.000Z</time>
                <name>Position 1056</name>
            </trkpt>
            <trkpt lon="-104.98765492" lat="38.89926827">
                <ele>2595.0</ele>
                <time>2008-06-25T14:56:43.000Z</time>
                <name>Position 1057</name>
            </trkpt>
            <trkpt lon="-104.98771656" lat="38.89936662">
                <ele>2595.0</ele>
                <time>2008-06-25T14:56:44.000Z</time>
                <name>Position 1058</name>
            </trkpt>
            <trkpt lon="-104.98779333" lat="38.8994683">
                <ele>2595.0</ele>
                <time>2008-06-25T14:56:45.000Z</time>
                <name>Position 1059</name>
            </trkpt>
            <trkpt lon="-104.98787999" lat="38.89956832">
                <ele>2595.0</ele>
                <time>2008-06-25T14:56:46.000Z</time>
                <name>Position 1060</name>
            </trkpt>
            <trkpt lon="-104.98797488" lat="38.899665">
                <ele>2607.0</ele>
                <time>2008-06-25T14:56:47.000Z</time>
                <name>Position 1061</name>
            </trkpt>
            <trkpt lon="-104.98807657" lat="38.89975655">
                <ele>2607.0</ele>
                <time>2008-06-25T14:56:48.000Z</time>
                <name>Position 1062</name>
            </trkpt>
            <trkpt lon="-104.98818159" lat="38.89984488">
                <ele>2607.0</ele>
                <time>2008-06-25T14:56:49.000Z</time>
                <name>Position 1063</name>
            </trkpt>
            <trkpt lon="-104.98829496" lat="38.89992833">
                <ele>2607.0</ele>
                <time>2008-06-25T14:56:50.000Z</time>
                <name>Position 1064</name>
            </trkpt>
            <trkpt lon="-104.98841" lat="38.90000832">
                <ele>2607.0</ele>
                <time>2008-06-25T14:56:51.000Z</time>
                <name>Position 1065</name>
            </trkpt>
            <trkpt lon="-104.98853159" lat="38.90007997">
                <ele>2607.0</ele>
                <time>2008-06-25T14:56:52.000Z</time>
                <name>Position 1066</name>
            </trkpt>
            <trkpt lon="-104.98865998" lat="38.90014327">
                <ele>2607.0</ele>
                <time>2008-06-25T14:56:53.000Z</time>
                <name>Position 1067</name>
            </trkpt>
            <trkpt lon="-104.98879325" lat="38.90019488">
                <ele>2610.0</ele>
                <time>2008-06-25T14:56:54.000Z</time>
                <name>Position 1068</name>
            </trkpt>
            <trkpt lon="-104.98892498" lat="38.90023327">
                <ele>2610.0</ele>
                <time>2008-06-25T14:56:55.000Z</time>
                <name>Position 1069</name>
            </trkpt>
            <trkpt lon="-104.98905492" lat="38.90025663">
                <ele>2610.0</ele>
                <time>2008-06-25T14:56:56.000Z</time>
                <name>Position 1070</name>
            </trkpt>
            <trkpt lon="-104.98918664" lat="38.90026164">
                <ele>2610.0</ele>
                <time>2008-06-25T14:56:57.000Z</time>
                <name>Position 1071</name>
            </trkpt>
            <trkpt lon="-104.98931658" lat="38.90024829">
                <ele>2610.0</ele>
                <time>2008-06-25T14:56:58.000Z</time>
                <name>Position 1072</name>
            </trkpt>
            <trkpt lon="-104.98944664" lat="38.90022492">
                <ele>2610.0</ele>
                <time>2008-06-25T14:56:59.000Z</time>
                <name>Position 1073</name>
            </trkpt>
            <trkpt lon="-104.98957491" lat="38.90020156">
                <ele>2610.0</ele>
                <time>2008-06-25T14:57:00.000Z</time>
                <name>Position 1074</name>
            </trkpt>
            <trkpt lon="-104.98970497" lat="38.90017831">
                <ele>2620.0</ele>
                <time>2008-06-25T14:57:01.000Z</time>
                <name>Position 1075</name>
            </trkpt>
            <trkpt lon="-104.9898349" lat="38.90015829">
                <ele>2620.0</ele>
                <time>2008-06-25T14:57:02.000Z</time>
                <name>Position 1076</name>
            </trkpt>
            <trkpt lon="-104.98996997" lat="38.9001466">
                <ele>2620.0</ele>
                <time>2008-06-25T14:57:03.000Z</time>
                <name>Position 1077</name>
            </trkpt>
            <trkpt lon="-104.99010658" lat="38.90013826">
                <ele>2620.0</ele>
                <time>2008-06-25T14:57:04.000Z</time>
                <name>Position 1078</name>
            </trkpt>
            <trkpt lon="-104.99024165" lat="38.90013993">
                <ele>2620.0</ele>
                <time>2008-06-25T14:57:05.000Z</time>
                <name>Position 1079</name>
            </trkpt>
            <trkpt lon="-104.99038494" lat="38.90013993">
                <ele>2620.0</ele>
                <time>2008-06-25T14:57:06.000Z</time>
                <name>Position 1080</name>
            </trkpt>
            <trkpt lon="-104.99053156" lat="38.90014493">
                <ele>2625.0</ele>
                <time>2008-06-25T14:57:07.000Z</time>
                <name>Position 1081</name>
            </trkpt>
            <trkpt lon="-104.99067998" lat="38.90015662">
                <ele>2625.0</ele>
                <time>2008-06-25T14:57:08.000Z</time>
                <name>Position 1082</name>
            </trkpt>
            <trkpt lon="-104.99082828" lat="38.90017831">
                <ele>2625.0</ele>
                <time>2008-06-25T14:57:09.000Z</time>
                <name>Position 1083</name>
            </trkpt>
            <trkpt lon="-104.99097157" lat="38.90020823">
                <ele>2625.0</ele>
                <time>2008-06-25T14:57:10.000Z</time>
                <name>Position 1084</name>
            </trkpt>
            <trkpt lon="-104.99111331" lat="38.90024161">
                <ele>2625.0</ele>
                <time>2008-06-25T14:57:11.000Z</time>
                <name>Position 1085</name>
            </trkpt>
            <trkpt lon="-104.99125659" lat="38.90027499">
                <ele>2633.0</ele>
                <time>2008-06-25T14:57:12.000Z</time>
                <name>Position 1086</name>
            </trkpt>
            <trkpt lon="-104.99140155" lat="38.90031159">
                <ele>2633.0</ele>
                <time>2008-06-25T14:57:13.000Z</time>
                <name>Position 1087</name>
            </trkpt>
            <trkpt lon="-104.99154329" lat="38.90034831">
                <ele>2633.0</ele>
                <time>2008-06-25T14:57:14.000Z</time>
                <name>Position 1088</name>
            </trkpt>
            <trkpt lon="-104.99168158" lat="38.90038323">
                <ele>2633.0</ele>
                <time>2008-06-25T14:57:15.000Z</time>
                <name>Position 1089</name>
            </trkpt>
            <trkpt lon="-104.99181831" lat="38.90041828">
                <ele>2614.0</ele>
                <time>2008-06-25T14:57:16.000Z</time>
                <name>Position 1090</name>
            </trkpt>
            <trkpt lon="-104.99195659" lat="38.900455">
                <ele>2614.0</ele>
                <time>2008-06-25T14:57:17.000Z</time>
                <name>Position 1091</name>
            </trkpt>
            <trkpt lon="-104.99209499" lat="38.90049827">
                <ele>2619.0</ele>
                <time>2008-06-25T14:57:18.000Z</time>
                <name>Position 1092</name>
            </trkpt>
            <trkpt lon="-104.99223661" lat="38.90053165">
                <ele>2619.0</ele>
                <time>2008-06-25T14:57:19.000Z</time>
                <name>Position 1093</name>
            </trkpt>
            <trkpt lon="-104.99238157" lat="38.90056491">
                <ele>2619.0</ele>
                <time>2008-06-25T14:57:20.000Z</time>
                <name>Position 1094</name>
            </trkpt>
            <trkpt lon="-104.99252832" lat="38.90060329">
                <ele>2619.0</ele>
                <time>2008-06-25T14:57:21.000Z</time>
                <name>Position 1095</name>
            </trkpt>
            <trkpt lon="-104.99267828" lat="38.9006449">
                <ele>2619.0</ele>
                <time>2008-06-25T14:57:22.000Z</time>
                <name>Position 1096</name>
            </trkpt>
            <trkpt lon="-104.99282491" lat="38.90068161">
                <ele>2619.0</ele>
                <time>2008-06-25T14:57:23.000Z</time>
                <name>Position 1097</name>
            </trkpt>
            <trkpt lon="-104.99297333" lat="38.90071332">
                <ele>2623.0</ele>
                <time>2008-06-25T14:57:24.000Z</time>
                <name>Position 1098</name>
            </trkpt>
            <trkpt lon="-104.99312162" lat="38.9007349">
                <ele>2623.0</ele>
                <time>2008-06-25T14:57:25.000Z</time>
                <name>Position 1099</name>
            </trkpt>
            <trkpt lon="-104.99327159" lat="38.90074825">
                <ele>2623.0</ele>
                <time>2008-06-25T14:57:26.000Z</time>
                <name>Position 1100</name>
            </trkpt>
            <trkpt lon="-104.99342155" lat="38.90075326">
                <ele>2623.0</ele>
                <time>2008-06-25T14:57:27.000Z</time>
                <name>Position 1101</name>
            </trkpt>
            <trkpt lon="-104.99357164" lat="38.9007566">
                <ele>2623.0</ele>
                <time>2008-06-25T14:57:28.000Z</time>
                <name>Position 1102</name>
            </trkpt>
            <trkpt lon="-104.99371994" lat="38.90075827">
                <ele>2623.0</ele>
                <time>2008-06-25T14:57:29.000Z</time>
                <name>Position 1103</name>
            </trkpt>
            <trkpt lon="-104.99386656" lat="38.90076327">
                <ele>2625.0</ele>
                <time>2008-06-25T14:57:30.000Z</time>
                <name>Position 1104</name>
            </trkpt>
            <trkpt lon="-104.99401164" lat="38.90076995">
                <ele>2625.0</ele>
                <time>2008-06-25T14:57:31.000Z</time>
                <name>Position 1105</name>
            </trkpt>
            <trkpt lon="-104.99415827" lat="38.90077996">
                <ele>2625.0</ele>
                <time>2008-06-25T14:57:32.000Z</time>
                <name>Position 1106</name>
            </trkpt>
            <trkpt lon="-104.9943049" lat="38.90078664">
                <ele>2625.0</ele>
                <time>2008-06-25T14:57:33.000Z</time>
                <name>Position 1107</name>
            </trkpt>
            <trkpt lon="-104.99445164" lat="38.90078664">
                <ele>2625.0</ele>
                <time>2008-06-25T14:57:34.000Z</time>
                <name>Position 1108</name>
            </trkpt>
            <trkpt lon="-104.99459994" lat="38.90078163">
                <ele>2625.0</ele>
                <time>2008-06-25T14:57:35.000Z</time>
                <name>Position 1109</name>
            </trkpt>
            <trkpt lon="-104.9947499" lat="38.90076995">
                <ele>2625.0</ele>
                <time>2008-06-25T14:57:36.000Z</time>
                <name>Position 1110</name>
            </trkpt>
            <trkpt lon="-104.99490166" lat="38.90075326">
                <ele>2625.0</ele>
                <time>2008-06-25T14:57:37.000Z</time>
                <name>Position 1111</name>
            </trkpt>
            <trkpt lon="-104.99505496" lat="38.90072989">
                <ele>2625.0</ele>
                <time>2008-06-25T14:57:38.000Z</time>
                <name>Position 1112</name>
            </trkpt>
            <trkpt lon="-104.99520993" lat="38.90070665">
                <ele>2625.0</ele>
                <time>2008-06-25T14:57:39.000Z</time>
                <name>Position 1113</name>
            </trkpt>
            <trkpt lon="-104.99536824" lat="38.90068328">
                <ele>2625.0</ele>
                <time>2008-06-25T14:57:40.000Z</time>
                <name>Position 1114</name>
            </trkpt>
            <trkpt lon="-104.99552822" lat="38.90065825">
                <ele>2632.0</ele>
                <time>2008-06-25T14:57:41.000Z</time>
                <name>Position 1115</name>
            </trkpt>
            <trkpt lon="-104.99569166" lat="38.90063655">
                <ele>2632.0</ele>
                <time>2008-06-25T14:57:42.000Z</time>
                <name>Position 1116</name>
            </trkpt>
            <trkpt lon="-104.99585664" lat="38.90061665">
                <ele>2632.0</ele>
                <time>2008-06-25T14:57:43.000Z</time>
                <name>Position 1117</name>
            </trkpt>
            <trkpt lon="-104.99602497" lat="38.90060329">
                <ele>2632.0</ele>
                <time>2008-06-25T14:57:44.000Z</time>
                <name>Position 1118</name>
            </trkpt>
            <trkpt lon="-104.99618995" lat="38.90059662">
                <ele>2632.0</ele>
                <time>2008-06-25T14:57:45.000Z</time>
                <name>Position 1119</name>
            </trkpt>
            <trkpt lon="-104.99635494" lat="38.90059662">
                <ele>2641.0</ele>
                <time>2008-06-25T14:57:46.000Z</time>
                <name>Position 1120</name>
            </trkpt>
            <trkpt lon="-104.99651825" lat="38.90060163">
                <ele>2641.0</ele>
                <time>2008-06-25T14:57:47.000Z</time>
                <name>Position 1121</name>
            </trkpt>
            <trkpt lon="-104.9966799" lat="38.90060496">
                <ele>2641.0</ele>
                <time>2008-06-25T14:57:48.000Z</time>
                <name>Position 1122</name>
            </trkpt>
            <trkpt lon="-104.99683988" lat="38.9006083">
                <ele>2641.0</ele>
                <time>2008-06-25T14:57:49.000Z</time>
                <name>Position 1123</name>
            </trkpt>
            <trkpt lon="-104.99699998" lat="38.90060663">
                <ele>2641.0</ele>
                <time>2008-06-25T14:57:50.000Z</time>
                <name>Position 1124</name>
            </trkpt>
            <trkpt lon="-104.99715662" lat="38.90059996">
                <ele>2638.0</ele>
                <time>2008-06-25T14:57:51.000Z</time>
                <name>Position 1125</name>
            </trkpt>
            <trkpt lon="-104.99731493" lat="38.90058994">
                <ele>2638.0</ele>
                <time>2008-06-25T14:57:52.000Z</time>
                <name>Position 1126</name>
            </trkpt>
            <trkpt lon="-104.99747324" lat="38.90057826">
                <ele>2638.0</ele>
                <time>2008-06-25T14:57:53.000Z</time>
                <name>Position 1127</name>
            </trkpt>
            <trkpt lon="-104.99763489" lat="38.90056992">
                <ele>2638.0</ele>
                <time>2008-06-25T14:57:54.000Z</time>
                <name>Position 1128</name>
            </trkpt>
            <trkpt lon="-104.99779832" lat="38.90056992">
                <ele>2638.0</ele>
                <time>2008-06-25T14:57:55.000Z</time>
                <name>Position 1129</name>
            </trkpt>
            <trkpt lon="-104.99796164" lat="38.90057993">
                <ele>2634.0</ele>
                <time>2008-06-25T14:57:56.000Z</time>
                <name>Position 1130</name>
            </trkpt>
            <trkpt lon="-104.99812329" lat="38.90059662">
                <ele>2634.0</ele>
                <time>2008-06-25T14:57:57.000Z</time>
                <name>Position 1131</name>
            </trkpt>
            <trkpt lon="-104.99827826" lat="38.90062332">
                <ele>2634.0</ele>
                <time>2008-06-25T14:57:58.000Z</time>
                <name>Position 1132</name>
            </trkpt>
            <trkpt lon="-104.99842989" lat="38.90065491">
                <ele>2634.0</ele>
                <time>2008-06-25T14:57:59.000Z</time>
                <name>Position 1133</name>
            </trkpt>
            <trkpt lon="-104.99857831" lat="38.90068996">
                <ele>2634.0</ele>
                <time>2008-06-25T14:58:00.000Z</time>
                <name>Position 1134</name>
            </trkpt>
            <trkpt lon="-104.99872828" lat="38.90072322">
                <ele>2634.0</ele>
                <time>2008-06-25T14:58:01.000Z</time>
                <name>Position 1135</name>
            </trkpt>
            <trkpt lon="-104.99887824" lat="38.90075827">
                <ele>2645.0</ele>
                <time>2008-06-25T14:58:02.000Z</time>
                <name>Position 1136</name>
            </trkpt>
            <trkpt lon="-104.99902999" lat="38.90078664">
                <ele>2645.0</ele>
                <time>2008-06-25T14:58:03.000Z</time>
                <name>Position 1137</name>
            </trkpt>
            <trkpt lon="-104.99918163" lat="38.90081823">
                <ele>2645.0</ele>
                <time>2008-06-25T14:58:04.000Z</time>
                <name>Position 1138</name>
            </trkpt>
            <trkpt lon="-104.99933326" lat="38.90084827">
                <ele>2645.0</ele>
                <time>2008-06-25T14:58:05.000Z</time>
                <name>Position 1139</name>
            </trkpt>
            <trkpt lon="-104.9994849" lat="38.90087664">
                <ele>2645.0</ele>
                <time>2008-06-25T14:58:06.000Z</time>
                <name>Position 1140</name>
            </trkpt>
            <trkpt lon="-104.99963665" lat="38.9009099">
                <ele>2656.0</ele>
                <time>2008-06-25T14:58:07.000Z</time>
                <name>Position 1141</name>
            </trkpt>
            <trkpt lon="-104.99978662" lat="38.90094495">
                <ele>2656.0</ele>
                <time>2008-06-25T14:58:08.000Z</time>
                <name>Position 1142</name>
            </trkpt>
            <trkpt lon="-104.99993157" lat="38.90097833">
                <ele>2656.0</ele>
                <time>2008-06-25T14:58:09.000Z</time>
                <name>Position 1143</name>
            </trkpt>
            <trkpt lon="-105.00007498" lat="38.90102494">
                <ele>2656.0</ele>
                <time>2008-06-25T14:58:10.000Z</time>
                <name>Position 1144</name>
            </trkpt>
            <trkpt lon="-105.00021827" lat="38.90107155">
                <ele>2656.0</ele>
                <time>2008-06-25T14:58:11.000Z</time>
                <name>Position 1145</name>
            </trkpt>
            <trkpt lon="-105.00035655" lat="38.90111995">
                <ele>2656.0</ele>
                <time>2008-06-25T14:58:12.000Z</time>
                <name>Position 1146</name>
            </trkpt>
            <trkpt lon="-105.00049496" lat="38.90116489">
                <ele>2670.0</ele>
                <time>2008-06-25T14:58:13.000Z</time>
                <name>Position 1147</name>
            </trkpt>
            <trkpt lon="-105.00063157" lat="38.90121329">
                <ele>2670.0</ele>
                <time>2008-06-25T14:58:14.000Z</time>
                <name>Position 1148</name>
            </trkpt>
            <trkpt lon="-105.00076997" lat="38.90125155">
                <ele>2656.0</ele>
                <time>2008-06-25T14:58:15.000Z</time>
                <name>Position 1149</name>
            </trkpt>
            <trkpt lon="-105.00090826" lat="38.90128827">
                <ele>2656.0</ele>
                <time>2008-06-25T14:58:16.000Z</time>
                <name>Position 1150</name>
            </trkpt>
            <trkpt lon="-105.00104666" lat="38.90131831">
                <ele>2656.0</ele>
                <time>2008-06-25T14:58:17.000Z</time>
                <name>Position 1151</name>
            </trkpt>
            <trkpt lon="-105.00118327" lat="38.90135324">
                <ele>2656.0</ele>
                <time>2008-06-25T14:58:18.000Z</time>
                <name>Position 1152</name>
            </trkpt>
            <trkpt lon="-105.00132155" lat="38.90138495">
                <ele>2659.0</ele>
                <time>2008-06-25T14:58:19.000Z</time>
                <name>Position 1153</name>
            </trkpt>
            <trkpt lon="-105.00145662" lat="38.90142488">
                <ele>2659.0</ele>
                <time>2008-06-25T14:58:20.000Z</time>
                <name>Position 1154</name>
            </trkpt>
            <trkpt lon="-105.00158823" lat="38.90146494">
                <ele>2659.0</ele>
                <time>2008-06-25T14:58:21.000Z</time>
                <name>Position 1155</name>
            </trkpt>
            <trkpt lon="-105.00171494" lat="38.90150666">
                <ele>2659.0</ele>
                <time>2008-06-25T14:58:22.000Z</time>
                <name>Position 1156</name>
            </trkpt>
            <trkpt lon="-105.00184" lat="38.9015516">
                <ele>2659.0</ele>
                <time>2008-06-25T14:58:23.000Z</time>
                <name>Position 1157</name>
            </trkpt>
            <trkpt lon="-105.00196326" lat="38.90159667">
                <ele>2659.0</ele>
                <time>2008-06-25T14:58:24.000Z</time>
                <name>Position 1158</name>
            </trkpt>
            <trkpt lon="-105.00208664" lat="38.90164661">
                <ele>2664.0</ele>
                <time>2008-06-25T14:58:25.000Z</time>
                <name>Position 1159</name>
            </trkpt>
            <trkpt lon="-105.00221491" lat="38.90169322">
                <ele>2664.0</ele>
                <time>2008-06-25T14:58:26.000Z</time>
                <name>Position 1160</name>
            </trkpt>
            <trkpt lon="-105.00234497" lat="38.90173662">
                <ele>2664.0</ele>
                <time>2008-06-25T14:58:27.000Z</time>
                <name>Position 1161</name>
            </trkpt>
            <trkpt lon="-105.00247657" lat="38.90177989">
                <ele>2664.0</ele>
                <time>2008-06-25T14:58:28.000Z</time>
                <name>Position 1162</name>
            </trkpt>
            <trkpt lon="-105.0026083" lat="38.90181828">
                <ele>2664.0</ele>
                <time>2008-06-25T14:58:29.000Z</time>
                <name>Position 1163</name>
            </trkpt>
            <trkpt lon="-105.00273824" lat="38.90186">
                <ele>2664.0</ele>
                <time>2008-06-25T14:58:30.000Z</time>
                <name>Position 1164</name>
            </trkpt>
            <trkpt lon="-105.00286829" lat="38.90190494">
                <ele>2664.0</ele>
                <time>2008-06-25T14:58:31.000Z</time>
                <name>Position 1165</name>
            </trkpt>
            <trkpt lon="-105.00299656" lat="38.90195489">
                <ele>2672.0</ele>
                <time>2008-06-25T14:58:32.000Z</time>
                <name>Position 1166</name>
            </trkpt>
            <trkpt lon="-105.00312495" lat="38.90200663">
                <ele>2672.0</ele>
                <time>2008-06-25T14:58:33.000Z</time>
                <name>Position 1167</name>
            </trkpt>
            <trkpt lon="-105.00324988" lat="38.90206492">
                <ele>2672.0</ele>
                <time>2008-06-25T14:58:34.000Z</time>
                <name>Position 1168</name>
            </trkpt>
            <trkpt lon="-105.00337493" lat="38.90212822">
                <ele>2674.0</ele>
                <time>2008-06-25T14:58:35.000Z</time>
                <name>Position 1169</name>
            </trkpt>
            <trkpt lon="-105.00350332" lat="38.90218997">
                <ele>2674.0</ele>
                <time>2008-06-25T14:58:36.000Z</time>
                <name>Position 1170</name>
            </trkpt>
            <trkpt lon="-105.0036366" lat="38.90224993">
                <ele>2674.0</ele>
                <time>2008-06-25T14:58:37.000Z</time>
                <name>Position 1171</name>
            </trkpt>
            <trkpt lon="-105.00377655" lat="38.90230656">
                <ele>2671.0</ele>
                <time>2008-06-25T14:58:38.000Z</time>
                <name>Position 1172</name>
            </trkpt>
            <trkpt lon="-105.00392497" lat="38.90235662">
                <ele>2671.0</ele>
                <time>2008-06-25T14:58:39.000Z</time>
                <name>Position 1173</name>
            </trkpt>
            <trkpt lon="-105.00407994" lat="38.90239823">
                <ele>2671.0</ele>
                <time>2008-06-25T14:58:40.000Z</time>
                <name>Position 1174</name>
            </trkpt>
            <trkpt lon="-105.00424325" lat="38.9024266">
                <ele>2671.0</ele>
                <time>2008-06-25T14:58:41.000Z</time>
                <name>Position 1175</name>
            </trkpt>
            <trkpt lon="-105.00441325" lat="38.90245497">
                <ele>2671.0</ele>
                <time>2008-06-25T14:58:42.000Z</time>
                <name>Position 1176</name>
            </trkpt>
            <trkpt lon="-105.00458658" lat="38.90248156">
                <ele>2671.0</ele>
                <time>2008-06-25T14:58:43.000Z</time>
                <name>Position 1177</name>
            </trkpt>
            <trkpt lon="-105.00476491" lat="38.90250659">
                <ele>2671.0</ele>
                <time>2008-06-25T14:58:44.000Z</time>
                <name>Position 1178</name>
            </trkpt>
            <trkpt lon="-105.00494492" lat="38.90252995">
                <ele>2671.0</ele>
                <time>2008-06-25T14:58:45.000Z</time>
                <name>Position 1179</name>
            </trkpt>
            <trkpt lon="-105.00512159" lat="38.90256166">
                <ele>2671.0</ele>
                <time>2008-06-25T14:58:46.000Z</time>
                <name>Position 1180</name>
            </trkpt>
            <trkpt lon="-105.00530326" lat="38.90259826">
                <ele>2671.0</ele>
                <time>2008-06-25T14:58:47.000Z</time>
                <name>Position 1181</name>
            </trkpt>
            <trkpt lon="-105.00548661" lat="38.90263498">
                <ele>2676.0</ele>
                <time>2008-06-25T14:58:48.000Z</time>
                <name>Position 1182</name>
            </trkpt>
            <trkpt lon="-105.00566661" lat="38.90266657">
                <ele>2676.0</ele>
                <time>2008-06-25T14:58:49.000Z</time>
                <name>Position 1183</name>
            </trkpt>
            <trkpt lon="-105.00584996" lat="38.90270162">
                <ele>2676.0</ele>
                <time>2008-06-25T14:58:50.000Z</time>
                <name>Position 1184</name>
            </trkpt>
            <trkpt lon="-105.0060333" lat="38.90273499">
                <ele>2676.0</ele>
                <time>2008-06-25T14:58:51.000Z</time>
                <name>Position 1185</name>
            </trkpt>
            <trkpt lon="-105.00621665" lat="38.90276825">
                <ele>2676.0</ele>
                <time>2008-06-25T14:58:52.000Z</time>
                <name>Position 1186</name>
            </trkpt>
            <trkpt lon="-105.00639999" lat="38.9027983">
                <ele>2683.0</ele>
                <time>2008-06-25T14:58:53.000Z</time>
                <name>Position 1187</name>
            </trkpt>
            <trkpt lon="-105.00658333" lat="38.90282822">
                <ele>2683.0</ele>
                <time>2008-06-25T14:58:54.000Z</time>
                <name>Position 1188</name>
            </trkpt>
            <trkpt lon="-105.00676823" lat="38.90285659">
                <ele>2683.0</ele>
                <time>2008-06-25T14:58:55.000Z</time>
                <name>Position 1189</name>
            </trkpt>
            <trkpt lon="-105.00695157" lat="38.9028883">
                <ele>2683.0</ele>
                <time>2008-06-25T14:58:56.000Z</time>
                <name>Position 1190</name>
            </trkpt>
            <trkpt lon="-105.00713491" lat="38.90291822">
                <ele>2683.0</ele>
                <time>2008-06-25T14:58:57.000Z</time>
                <name>Position 1191</name>
            </trkpt>
            <trkpt lon="-105.00731826" lat="38.90294993">
                <ele>2683.0</ele>
                <time>2008-06-25T14:58:58.000Z</time>
                <name>Position 1192</name>
            </trkpt>
            <trkpt lon="-105.00750327" lat="38.90298665">
                <ele>2683.0</ele>
                <time>2008-06-25T14:58:59.000Z</time>
                <name>Position 1193</name>
            </trkpt>
            <trkpt lon="-105.00768995" lat="38.90302157">
                <ele>2683.0</ele>
                <time>2008-06-25T14:59:00.000Z</time>
                <name>Position 1194</name>
            </trkpt>
            <trkpt lon="-105.0078733" lat="38.90305829">
                <ele>2683.0</ele>
                <time>2008-06-25T14:59:01.000Z</time>
                <name>Position 1195</name>
            </trkpt>
            <trkpt lon="-105.0080533" lat="38.90309989">
                <ele>2683.0</ele>
                <time>2008-06-25T14:59:02.000Z</time>
                <name>Position 1196</name>
            </trkpt>
            <trkpt lon="-105.00823164" lat="38.90313995">
                <ele>2683.0</ele>
                <time>2008-06-25T14:59:03.000Z</time>
                <name>Position 1197</name>
            </trkpt>
            <trkpt lon="-105.00840831" lat="38.90318155">
                <ele>2683.0</ele>
                <time>2008-06-25T14:59:04.000Z</time>
                <name>Position 1198</name>
            </trkpt>
            <trkpt lon="-105.0085783" lat="38.90322161">
                <ele>2683.0</ele>
                <time>2008-06-25T14:59:05.000Z</time>
                <name>Position 1199</name>
            </trkpt>
            <trkpt lon="-105.00874662" lat="38.90325832">
                <ele>2683.0</ele>
                <time>2008-06-25T14:59:06.000Z</time>
                <name>Position 1200</name>
            </trkpt>
            <trkpt lon="-105.00890994" lat="38.90329158">
                <ele>2687.0</ele>
                <time>2008-06-25T14:59:07.000Z</time>
                <name>Position 1201</name>
            </trkpt>
            <trkpt lon="-105.00906825" lat="38.90332329">
                <ele>2687.0</ele>
                <time>2008-06-25T14:59:08.000Z</time>
                <name>Position 1202</name>
            </trkpt>
            <trkpt lon="-105.00922322" lat="38.90334833">
                <ele>2687.0</ele>
                <time>2008-06-25T14:59:09.000Z</time>
                <name>Position 1203</name>
            </trkpt>
            <trkpt lon="-105.00937331" lat="38.9033699">
                <ele>2687.0</ele>
                <time>2008-06-25T14:59:10.000Z</time>
                <name>Position 1204</name>
            </trkpt>
            <trkpt lon="-105.00951827" lat="38.90338492">
                <ele>2687.0</ele>
                <time>2008-06-25T14:59:11.000Z</time>
                <name>Position 1205</name>
            </trkpt>
            <trkpt lon="-105.00966322" lat="38.90340161">
                <ele>2692.0</ele>
                <time>2008-06-25T14:59:12.000Z</time>
                <name>Position 1206</name>
            </trkpt>
            <trkpt lon="-105.00980663" lat="38.9034183">
                <ele>2692.0</ele>
                <time>2008-06-25T14:59:13.000Z</time>
                <name>Position 1207</name>
            </trkpt>
            <trkpt lon="-105.00994825" lat="38.90343666">
                <ele>2692.0</ele>
                <time>2008-06-25T14:59:14.000Z</time>
                <name>Position 1208</name>
            </trkpt>
            <trkpt lon="-105.01008832" lat="38.90346158">
                <ele>2692.0</ele>
                <time>2008-06-25T14:59:15.000Z</time>
                <name>Position 1209</name>
            </trkpt>
            <trkpt lon="-105.01022494" lat="38.90348828">
                <ele>2692.0</ele>
                <time>2008-06-25T14:59:16.000Z</time>
                <name>Position 1210</name>
            </trkpt>
            <trkpt lon="-105.01036155" lat="38.90351665">
                <ele>2692.0</ele>
                <time>2008-06-25T14:59:17.000Z</time>
                <name>Position 1211</name>
            </trkpt>
            <trkpt lon="-105.01049662" lat="38.9035449">
                <ele>2697.0</ele>
                <time>2008-06-25T14:59:18.000Z</time>
                <name>Position 1212</name>
            </trkpt>
            <trkpt lon="-105.01062989" lat="38.90357327">
                <ele>2697.0</ele>
                <time>2008-06-25T14:59:19.000Z</time>
                <name>Position 1213</name>
            </trkpt>
            <trkpt lon="-105.01076496" lat="38.90360165">
                <ele>2697.0</ele>
                <time>2008-06-25T14:59:20.000Z</time>
                <name>Position 1214</name>
            </trkpt>
            <trkpt lon="-105.01089823" lat="38.90362823">
                <ele>2697.0</ele>
                <time>2008-06-25T14:59:21.000Z</time>
                <name>Position 1215</name>
            </trkpt>
            <trkpt lon="-105.01103163" lat="38.9036566">
                <ele>2697.0</ele>
                <time>2008-06-25T14:59:22.000Z</time>
                <name>Position 1216</name>
            </trkpt>
            <trkpt lon="-105.0111649" lat="38.90368998">
                <ele>2697.0</ele>
                <time>2008-06-25T14:59:23.000Z</time>
                <name>Position 1217</name>
            </trkpt>
            <trkpt lon="-105.0112983" lat="38.90372491">
                <ele>2701.0</ele>
                <time>2008-06-25T14:59:24.000Z</time>
                <name>Position 1218</name>
            </trkpt>
            <trkpt lon="-105.01143491" lat="38.90376163">
                <ele>2721.0</ele>
                <time>2008-06-25T14:59:25.000Z</time>
                <name>Position 1219</name>
            </trkpt>
            <trkpt lon="-105.01157165" lat="38.90379822">
                <ele>2721.0</ele>
                <time>2008-06-25T14:59:26.000Z</time>
                <name>Position 1220</name>
            </trkpt>
            <trkpt lon="-105.01170993" lat="38.90383494">
                <ele>2721.0</ele>
                <time>2008-06-25T14:59:27.000Z</time>
                <name>Position 1221</name>
            </trkpt>
            <trkpt lon="-105.01185" lat="38.90386832">
                <ele>2721.0</ele>
                <time>2008-06-25T14:59:28.000Z</time>
                <name>Position 1222</name>
            </trkpt>
            <trkpt lon="-105.01199162" lat="38.90389824">
                <ele>2721.0</ele>
                <time>2008-06-25T14:59:29.000Z</time>
                <name>Position 1223</name>
            </trkpt>
            <trkpt lon="-105.01213324" lat="38.90392828">
                <ele>2717.0</ele>
                <time>2008-06-25T14:59:30.000Z</time>
                <name>Position 1224</name>
            </trkpt>
            <trkpt lon="-105.01227498" lat="38.90395665">
                <ele>2717.0</ele>
                <time>2008-06-25T14:59:31.000Z</time>
                <name>Position 1225</name>
            </trkpt>
            <trkpt lon="-105.01241493" lat="38.90399325">
                <ele>2717.0</ele>
                <time>2008-06-25T14:59:32.000Z</time>
                <name>Position 1226</name>
            </trkpt>
            <trkpt lon="-105.01255" lat="38.90403998">
                <ele>2717.0</ele>
                <time>2008-06-25T14:59:33.000Z</time>
                <name>Position 1227</name>
            </trkpt>
            <trkpt lon="-105.01267493" lat="38.90409827">
                <ele>2717.0</ele>
                <time>2008-06-25T14:59:34.000Z</time>
                <name>Position 1228</name>
            </trkpt>
            <trkpt lon="-105.0127883" lat="38.90417159">
                <ele>2717.0</ele>
                <time>2008-06-25T14:59:35.000Z</time>
                <name>Position 1229</name>
            </trkpt>
            <trkpt lon="-105.01288664" lat="38.90425825">
                <ele>2717.0</ele>
                <time>2008-06-25T14:59:36.000Z</time>
                <name>Position 1230</name>
            </trkpt>
            <trkpt lon="-105.0129683" lat="38.90435326">
                <ele>2718.0</ele>
                <time>2008-06-25T14:59:37.000Z</time>
                <name>Position 1231</name>
            </trkpt>
            <trkpt lon="-105.01302826" lat="38.90446162">
                <ele>2718.0</ele>
                <time>2008-06-25T14:59:38.000Z</time>
                <name>Position 1232</name>
            </trkpt>
            <trkpt lon="-105.01307499" lat="38.90457499">
                <ele>2718.0</ele>
                <time>2008-06-25T14:59:39.000Z</time>
                <name>Position 1233</name>
            </trkpt>
            <trkpt lon="-105.0131166" lat="38.90468824">
                <ele>2734.0</ele>
                <time>2008-06-25T14:59:40.000Z</time>
                <name>Position 1234</name>
            </trkpt>
            <trkpt lon="-105.01315331" lat="38.90479493">
                <ele>2734.0</ele>
                <time>2008-06-25T14:59:41.000Z</time>
                <name>Position 1235</name>
            </trkpt>
            <trkpt lon="-105.01318824" lat="38.90490162">
                <ele>2734.0</ele>
                <time>2008-06-25T14:59:42.000Z</time>
                <name>Position 1236</name>
            </trkpt>
            <trkpt lon="-105.01321495" lat="38.9049983">
                <ele>2734.0</ele>
                <time>2008-06-25T14:59:43.000Z</time>
                <name>Position 1237</name>
            </trkpt>
            <trkpt lon="-105.01322329" lat="38.90509164">
                <ele>2734.0</ele>
                <time>2008-06-25T14:59:44.000Z</time>
                <name>Position 1238</name>
            </trkpt>
            <trkpt lon="-105.01321328" lat="38.90518832">
                <ele>2734.0</ele>
                <time>2008-06-25T14:59:45.000Z</time>
                <name>Position 1239</name>
            </trkpt>
            <trkpt lon="-105.01318991" lat="38.90528488">
                <ele>2734.0</ele>
                <time>2008-06-25T14:59:46.000Z</time>
                <name>Position 1240</name>
            </trkpt>
            <trkpt lon="-105.01315832" lat="38.90538323">
                <ele>2734.0</ele>
                <time>2008-06-25T14:59:47.000Z</time>
                <name>Position 1241</name>
            </trkpt>
            <trkpt lon="-105.01312494" lat="38.90548325">
                <ele>2736.0</ele>
                <time>2008-06-25T14:59:48.000Z</time>
                <name>Position 1242</name>
            </trkpt>
            <trkpt lon="-105.0130899" lat="38.9055866">
                <ele>2736.0</ele>
                <time>2008-06-25T14:59:49.000Z</time>
                <name>Position 1243</name>
            </trkpt>
            <trkpt lon="-105.01305664" lat="38.90569329">
                <ele>2736.0</ele>
                <time>2008-06-25T14:59:50.000Z</time>
                <name>Position 1244</name>
            </trkpt>
            <trkpt lon="-105.01302326" lat="38.90580332">
                <ele>2736.0</ele>
                <time>2008-06-25T14:59:51.000Z</time>
                <name>Position 1245</name>
            </trkpt>
            <trkpt lon="-105.01299" lat="38.9059149">
                <ele>2736.0</ele>
                <time>2008-06-25T14:59:52.000Z</time>
                <name>Position 1246</name>
            </trkpt>
            <trkpt lon="-105.01295161" lat="38.90603161">
                <ele>2736.0</ele>
                <time>2008-06-25T14:59:53.000Z</time>
                <name>Position 1247</name>
            </trkpt>
            <trkpt lon="-105.01290822" lat="38.90614998">
                <ele>2751.0</ele>
                <time>2008-06-25T14:59:54.000Z</time>
                <name>Position 1248</name>
            </trkpt>
            <trkpt lon="-105.01285994" lat="38.90626991">
                <ele>2751.0</ele>
                <time>2008-06-25T14:59:55.000Z</time>
                <name>Position 1249</name>
            </trkpt>
            <trkpt lon="-105.01281333" lat="38.90638995">
                <ele>2751.0</ele>
                <time>2008-06-25T14:59:56.000Z</time>
                <name>Position 1250</name>
            </trkpt>
            <trkpt lon="-105.01277328" lat="38.90651166">
                <ele>2751.0</ele>
                <time>2008-06-25T14:59:57.000Z</time>
                <name>Position 1251</name>
            </trkpt>
            <trkpt lon="-105.01274657" lat="38.9066366">
                <ele>2751.0</ele>
                <time>2008-06-25T14:59:58.000Z</time>
                <name>Position 1252</name>
            </trkpt>
            <trkpt lon="-105.01273489" lat="38.90676165">
                <ele>2751.0</ele>
                <time>2008-06-25T14:59:59.000Z</time>
                <name>Position 1253</name>
            </trkpt>
            <trkpt lon="-105.01273155" lat="38.90688825">
                <ele>2751.0</ele>
                <time>2008-06-25T15:00:00.000Z</time>
                <name>Position 1254</name>
            </trkpt>
            <trkpt lon="-105.01273489" lat="38.90701163">
                <ele>2751.0</ele>
                <time>2008-06-25T15:00:01.000Z</time>
                <name>Position 1255</name>
            </trkpt>
            <trkpt lon="-105.01274323" lat="38.90712988">
                <ele>2762.0</ele>
                <time>2008-06-25T15:00:02.000Z</time>
                <name>Position 1256</name>
            </trkpt>
            <trkpt lon="-105.01276493" lat="38.90723991">
                <ele>2762.0</ele>
                <time>2008-06-25T15:00:03.000Z</time>
                <name>Position 1257</name>
            </trkpt>
            <trkpt lon="-105.01279998" lat="38.90734828">
                <ele>2762.0</ele>
                <time>2008-06-25T15:00:04.000Z</time>
                <name>Position 1258</name>
            </trkpt>
            <trkpt lon="-105.0128516" lat="38.90745163">
                <ele>2762.0</ele>
                <time>2008-06-25T15:00:05.000Z</time>
                <name>Position 1259</name>
            </trkpt>
            <trkpt lon="-105.01291823" lat="38.90755665">
                <ele>2747.0</ele>
                <time>2008-06-25T15:00:06.000Z</time>
                <name>Position 1260</name>
            </trkpt>
            <trkpt lon="-105.01299" lat="38.90766156">
                <ele>2747.0</ele>
                <time>2008-06-25T15:00:07.000Z</time>
                <name>Position 1261</name>
            </trkpt>
            <trkpt lon="-105.01306832" lat="38.90776992">
                <ele>2747.0</ele>
                <time>2008-06-25T15:00:08.000Z</time>
                <name>Position 1262</name>
            </trkpt>
            <trkpt lon="-105.01314831" lat="38.90788329">
                <ele>2747.0</ele>
                <time>2008-06-25T15:00:09.000Z</time>
                <name>Position 1263</name>
            </trkpt>
            <trkpt lon="-105.01322329" lat="38.90799165">
                <ele>2755.0</ele>
                <time>2008-06-25T15:00:10.000Z</time>
                <name>Position 1264</name>
            </trkpt>
            <trkpt lon="-105.01329327" lat="38.90810156">
                <ele>2755.0</ele>
                <time>2008-06-25T15:00:11.000Z</time>
                <name>Position 1265</name>
            </trkpt>
            <trkpt lon="-105.01335824" lat="38.90820825">
                <ele>2755.0</ele>
                <time>2008-06-25T15:00:12.000Z</time>
                <name>Position 1266</name>
            </trkpt>
            <trkpt lon="-105.01342499" lat="38.90831327">
                <ele>2755.0</ele>
                <time>2008-06-25T15:00:13.000Z</time>
                <name>Position 1267</name>
            </trkpt>
            <trkpt lon="-105.01349831" lat="38.90840662">
                <ele>2755.0</ele>
                <time>2008-06-25T15:00:14.000Z</time>
                <name>Position 1268</name>
            </trkpt>
            <trkpt lon="-105.01358831" lat="38.90849161">
                <ele>2755.0</ele>
                <time>2008-06-25T15:00:15.000Z</time>
                <name>Position 1269</name>
            </trkpt>
            <trkpt lon="-105.01369655" lat="38.90856159">
                <ele>2755.0</ele>
                <time>2008-06-25T15:00:16.000Z</time>
                <name>Position 1270</name>
            </trkpt>
            <trkpt lon="-105.01381993" lat="38.90861499">
                <ele>2750.0</ele>
                <time>2008-06-25T15:00:17.000Z</time>
                <name>Position 1271</name>
            </trkpt>
            <trkpt lon="-105.01395822" lat="38.90865159">
                <ele>2750.0</ele>
                <time>2008-06-25T15:00:18.000Z</time>
                <name>Position 1272</name>
            </trkpt>
            <trkpt lon="-105.01410162" lat="38.9086616">
                <ele>2750.0</ele>
                <time>2008-06-25T15:00:19.000Z</time>
                <name>Position 1273</name>
            </trkpt>
            <trkpt lon="-105.01425159" lat="38.90866327">
                <ele>2750.0</ele>
                <time>2008-06-25T15:00:20.000Z</time>
                <name>Position 1274</name>
            </trkpt>
            <trkpt lon="-105.01440489" lat="38.9086616">
                <ele>2750.0</ele>
                <time>2008-06-25T15:00:21.000Z</time>
                <name>Position 1275</name>
            </trkpt>
            <trkpt lon="-105.01456332" lat="38.9086616">
                <ele>2750.0</ele>
                <time>2008-06-25T15:00:22.000Z</time>
                <name>Position 1276</name>
            </trkpt>
            <trkpt lon="-105.0147233" lat="38.9086616">
                <ele>2759.0</ele>
                <time>2008-06-25T15:00:23.000Z</time>
                <name>Position 1277</name>
            </trkpt>
            <trkpt lon="-105.01488328" lat="38.90867329">
                <ele>2759.0</ele>
                <time>2008-06-25T15:00:24.000Z</time>
                <name>Position 1278</name>
            </trkpt>
            <trkpt lon="-105.01504159" lat="38.90869832">
                <ele>2759.0</ele>
                <time>2008-06-25T15:00:25.000Z</time>
                <name>Position 1279</name>
            </trkpt>
            <trkpt lon="-105.01519156" lat="38.90873826">
                <ele>2759.0</ele>
                <time>2008-06-25T15:00:26.000Z</time>
                <name>Position 1280</name>
            </trkpt>
            <trkpt lon="-105.01533496" lat="38.90879989">
                <ele>2766.0</ele>
                <time>2008-06-25T15:00:27.000Z</time>
                <name>Position 1281</name>
            </trkpt>
            <trkpt lon="-105.01546991" lat="38.90886998">
                <ele>2765.0</ele>
                <time>2008-06-25T15:00:28.000Z</time>
                <name>Position 1282</name>
            </trkpt>
            <trkpt lon="-105.01560163" lat="38.90893996">
                <ele>2765.0</ele>
                <time>2008-06-25T15:00:29.000Z</time>
                <name>Position 1283</name>
            </trkpt>
            <trkpt lon="-105.01573324" lat="38.90900993">
                <ele>2765.0</ele>
                <time>2008-06-25T15:00:30.000Z</time>
                <name>Position 1284</name>
            </trkpt>
            <trkpt lon="-105.0158633" lat="38.90907991">
                <ele>2765.0</ele>
                <time>2008-06-25T15:00:31.000Z</time>
                <name>Position 1285</name>
            </trkpt>
            <trkpt lon="-105.01599324" lat="38.90914989">
                <ele>2765.0</ele>
                <time>2008-06-25T15:00:32.000Z</time>
                <name>Position 1286</name>
            </trkpt>
            <trkpt lon="-105.01612496" lat="38.90921664">
                <ele>2765.0</ele>
                <time>2008-06-25T15:00:33.000Z</time>
                <name>Position 1287</name>
            </trkpt>
            <trkpt lon="-105.0162549" lat="38.90928495">
                <ele>2767.0</ele>
                <time>2008-06-25T15:00:34.000Z</time>
                <name>Position 1288</name>
            </trkpt>
            <trkpt lon="-105.01638329" lat="38.90935159">
                <ele>2767.0</ele>
                <time>2008-06-25T15:00:35.000Z</time>
                <name>Position 1289</name>
            </trkpt>
            <trkpt lon="-105.01651156" lat="38.90941823">
                <ele>2767.0</ele>
                <time>2008-06-25T15:00:36.000Z</time>
                <name>Position 1290</name>
            </trkpt>
            <trkpt lon="-105.01663995" lat="38.90948498">
                <ele>2767.0</ele>
                <time>2008-06-25T15:00:37.000Z</time>
                <name>Position 1291</name>
            </trkpt>
            <trkpt lon="-105.01676822" lat="38.90954995">
                <ele>2767.0</ele>
                <time>2008-06-25T15:00:38.000Z</time>
                <name>Position 1292</name>
            </trkpt>
            <trkpt lon="-105.01689661" lat="38.90961492">
                <ele>2780.0</ele>
                <time>2008-06-25T15:00:39.000Z</time>
                <name>Position 1293</name>
            </trkpt>
            <trkpt lon="-105.01702332" lat="38.9096849">
                <ele>2780.0</ele>
                <time>2008-06-25T15:00:40.000Z</time>
                <name>Position 1294</name>
            </trkpt>
            <trkpt lon="-105.01714993" lat="38.90975833">
                <ele>2778.0</ele>
                <time>2008-06-25T15:00:41.000Z</time>
                <name>Position 1295</name>
            </trkpt>
            <trkpt lon="-105.01727498" lat="38.90983331">
                <ele>2778.0</ele>
                <time>2008-06-25T15:00:42.000Z</time>
                <name>Position 1296</name>
            </trkpt>
            <trkpt lon="-105.01739824" lat="38.90990829">
                <ele>2778.0</ele>
                <time>2008-06-25T15:00:43.000Z</time>
                <name>Position 1297</name>
            </trkpt>
            <trkpt lon="-105.01752329" lat="38.90998662">
                <ele>2778.0</ele>
                <time>2008-06-25T15:00:44.000Z</time>
                <name>Position 1298</name>
            </trkpt>
            <trkpt lon="-105.01764822" lat="38.91006327">
                <ele>2778.0</ele>
                <time>2008-06-25T15:00:45.000Z</time>
                <name>Position 1299</name>
            </trkpt>
            <trkpt lon="-105.01777828" lat="38.91013992">
                <ele>2778.0</ele>
                <time>2008-06-25T15:00:46.000Z</time>
                <name>Position 1300</name>
            </trkpt>
            <trkpt lon="-105.01791322" lat="38.91021323">
                <ele>2778.0</ele>
                <time>2008-06-25T15:00:47.000Z</time>
                <name>Position 1301</name>
            </trkpt>
            <trkpt lon="-105.01805162" lat="38.910285">
                <ele>2781.0</ele>
                <time>2008-06-25T15:00:48.000Z</time>
                <name>Position 1302</name>
            </trkpt>
            <trkpt lon="-105.01818991" lat="38.91035664">
                <ele>2781.0</ele>
                <time>2008-06-25T15:00:49.000Z</time>
                <name>Position 1303</name>
            </trkpt>
            <trkpt lon="-105.01832497" lat="38.91042829">
                <ele>2789.0</ele>
                <time>2008-06-25T15:00:50.000Z</time>
                <name>Position 1304</name>
            </trkpt>
            <trkpt lon="-105.01845491" lat="38.9105016">
                <ele>2789.0</ele>
                <time>2008-06-25T15:00:51.000Z</time>
                <name>Position 1305</name>
            </trkpt>
            <trkpt lon="-105.01857495" lat="38.91057825">
                <ele>2789.0</ele>
                <time>2008-06-25T15:00:52.000Z</time>
                <name>Position 1306</name>
            </trkpt>
            <trkpt lon="-105.01868165" lat="38.91065824">
                <ele>2789.0</ele>
                <time>2008-06-25T15:00:53.000Z</time>
                <name>Position 1307</name>
            </trkpt>
            <trkpt lon="-105.01877499" lat="38.91074824">
                <ele>2786.0</ele>
                <time>2008-06-25T15:00:54.000Z</time>
                <name>Position 1308</name>
            </trkpt>
            <trkpt lon="-105.01885498" lat="38.91084659">
                <ele>2786.0</ele>
                <time>2008-06-25T15:00:55.000Z</time>
                <name>Position 1309</name>
            </trkpt>
            <trkpt lon="-105.01891994" lat="38.91095495">
                <ele>2786.0</ele>
                <time>2008-06-25T15:00:56.000Z</time>
                <name>Position 1310</name>
            </trkpt>
            <trkpt lon="-105.01897657" lat="38.91106498">
                <ele>2786.0</ele>
                <time>2008-06-25T15:00:57.000Z</time>
                <name>Position 1311</name>
            </trkpt>
            <trkpt lon="-105.01903999" lat="38.91117489">
                <ele>2786.0</ele>
                <time>2008-06-25T15:00:58.000Z</time>
                <name>Position 1312</name>
            </trkpt>
            <trkpt lon="-105.01911831" lat="38.91128325">
                <ele>2795.0</ele>
                <time>2008-06-25T15:00:59.000Z</time>
                <name>Position 1313</name>
            </trkpt>
            <trkpt lon="-105.01921499" lat="38.9113816">
                <ele>2795.0</ele>
                <time>2008-06-25T15:01:00.000Z</time>
                <name>Position 1314</name>
            </trkpt>
            <trkpt lon="-105.01932824" lat="38.91147327">
                <ele>2795.0</ele>
                <time>2008-06-25T15:01:01.000Z</time>
                <name>Position 1315</name>
            </trkpt>
            <trkpt lon="-105.01944995" lat="38.91155994">
                <ele>2795.0</ele>
                <time>2008-06-25T15:01:02.000Z</time>
                <name>Position 1316</name>
            </trkpt>
            <trkpt lon="-105.01958323" lat="38.91163993">
                <ele>2795.0</ele>
                <time>2008-06-25T15:01:03.000Z</time>
                <name>Position 1317</name>
            </trkpt>
            <trkpt lon="-105.0197233" lat="38.91171324">
                <ele>2790.0</ele>
                <time>2008-06-25T15:01:04.000Z</time>
                <name>Position 1318</name>
            </trkpt>
            <trkpt lon="-105.01987326" lat="38.91177833">
                <ele>2790.0</ele>
                <time>2008-06-25T15:01:05.000Z</time>
                <name>Position 1319</name>
            </trkpt>
            <trkpt lon="-105.02003157" lat="38.91183329">
                <ele>2790.0</ele>
                <time>2008-06-25T15:01:06.000Z</time>
                <name>Position 1320</name>
            </trkpt>
            <trkpt lon="-105.02019489" lat="38.91187489">
                <ele>2790.0</ele>
                <time>2008-06-25T15:01:07.000Z</time>
                <name>Position 1321</name>
            </trkpt>
            <trkpt lon="-105.02036333" lat="38.91191494">
                <ele>2790.0</ele>
                <time>2008-06-25T15:01:08.000Z</time>
                <name>Position 1322</name>
            </trkpt>
            <trkpt lon="-105.02053332" lat="38.91195333">
                <ele>2796.0</ele>
                <time>2008-06-25T15:01:09.000Z</time>
                <name>Position 1323</name>
            </trkpt>
            <trkpt lon="-105.02070332" lat="38.9119916">
                <ele>2796.0</ele>
                <time>2008-06-25T15:01:10.000Z</time>
                <name>Position 1324</name>
            </trkpt>
            <trkpt lon="-105.02087331" lat="38.91202831">
                <ele>2796.0</ele>
                <time>2008-06-25T15:01:11.000Z</time>
                <name>Position 1325</name>
            </trkpt>
            <trkpt lon="-105.02104664" lat="38.91206324">
                <ele>2796.0</ele>
                <time>2008-06-25T15:01:12.000Z</time>
                <name>Position 1326</name>
            </trkpt>
            <trkpt lon="-105.0212183" lat="38.91209829">
                <ele>2804.0</ele>
                <time>2008-06-25T15:01:13.000Z</time>
                <name>Position 1327</name>
            </trkpt>
            <trkpt lon="-105.0213933" lat="38.91212833">
                <ele>2805.0</ele>
                <time>2008-06-25T15:01:14.000Z</time>
                <name>Position 1328</name>
            </trkpt>
            <trkpt lon="-105.02157164" lat="38.91214991">
                <ele>2805.0</ele>
                <time>2008-06-25T15:01:15.000Z</time>
                <name>Position 1329</name>
            </trkpt>
            <trkpt lon="-105.02174997" lat="38.91216493">
                <ele>2805.0</ele>
                <time>2008-06-25T15:01:16.000Z</time>
                <name>Position 1330</name>
            </trkpt>
            <trkpt lon="-105.02192998" lat="38.9121716">
                <ele>2805.0</ele>
                <time>2008-06-25T15:01:17.000Z</time>
                <name>Position 1331</name>
            </trkpt>
            <trkpt lon="-105.02211165" lat="38.91216493">
                <ele>2812.0</ele>
                <time>2008-06-25T15:01:18.000Z</time>
                <name>Position 1332</name>
            </trkpt>
            <trkpt lon="-105.02229166" lat="38.91214156">
                <ele>2812.0</ele>
                <time>2008-06-25T15:01:19.000Z</time>
                <name>Position 1333</name>
            </trkpt>
            <trkpt lon="-105.02246833" lat="38.9121033">
                <ele>2812.0</ele>
                <time>2008-06-25T15:01:20.000Z</time>
                <name>Position 1334</name>
            </trkpt>
            <trkpt lon="-105.02263999" lat="38.91205323">
                <ele>2805.0</ele>
                <time>2008-06-25T15:01:21.000Z</time>
                <name>Position 1335</name>
            </trkpt>
            <trkpt lon="-105.02280998" lat="38.91200161">
                <ele>2805.0</ele>
                <time>2008-06-25T15:01:22.000Z</time>
                <name>Position 1336</name>
            </trkpt>
            <trkpt lon="-105.02297997" lat="38.91194832">
                <ele>2808.0</ele>
                <time>2008-06-25T15:01:23.000Z</time>
                <name>Position 1337</name>
            </trkpt>
            <trkpt lon="-105.02315164" lat="38.91189992">
                <ele>2808.0</ele>
                <time>2008-06-25T15:01:24.000Z</time>
                <name>Position 1338</name>
            </trkpt>
            <trkpt lon="-105.0233233" lat="38.91185665">
                <ele>2808.0</ele>
                <time>2008-06-25T15:01:25.000Z</time>
                <name>Position 1339</name>
            </trkpt>
            <trkpt lon="-105.0234983" lat="38.91181993">
                <ele>2808.0</ele>
                <time>2008-06-25T15:01:26.000Z</time>
                <name>Position 1340</name>
            </trkpt>
            <trkpt lon="-105.0236783" lat="38.91178989">
                <ele>2808.0</ele>
                <time>2008-06-25T15:01:27.000Z</time>
                <name>Position 1341</name>
            </trkpt>
            <trkpt lon="-105.02385998" lat="38.91177833">
                <ele>2810.0</ele>
                <time>2008-06-25T15:01:28.000Z</time>
                <name>Position 1342</name>
            </trkpt>
            <trkpt lon="-105.02404499" lat="38.91178">
                <ele>2810.0</ele>
                <time>2008-06-25T15:01:29.000Z</time>
                <name>Position 1343</name>
            </trkpt>
            <trkpt lon="-105.02422988" lat="38.9117949">
                <ele>2810.0</ele>
                <time>2008-06-25T15:01:30.000Z</time>
                <name>Position 1344</name>
            </trkpt>
            <trkpt lon="-105.0244149" lat="38.91181827">
                <ele>2810.0</ele>
                <time>2008-06-25T15:01:31.000Z</time>
                <name>Position 1345</name>
            </trkpt>
            <trkpt lon="-105.02459991" lat="38.9118433">
                <ele>2811.0</ele>
                <time>2008-06-25T15:01:32.000Z</time>
                <name>Position 1346</name>
            </trkpt>
            <trkpt lon="-105.02477992" lat="38.91187489">
                <ele>2811.0</ele>
                <time>2008-06-25T15:01:33.000Z</time>
                <name>Position 1347</name>
            </trkpt>
            <trkpt lon="-105.02495325" lat="38.91191661">
                <ele>2811.0</ele>
                <time>2008-06-25T15:01:34.000Z</time>
                <name>Position 1348</name>
            </trkpt>
            <trkpt lon="-105.02511823" lat="38.91196489">
                <ele>2811.0</ele>
                <time>2008-06-25T15:01:35.000Z</time>
                <name>Position 1349</name>
            </trkpt>
            <trkpt lon="-105.02528155" lat="38.91201162">
                <ele>2811.0</ele>
                <time>2008-06-25T15:01:36.000Z</time>
                <name>Position 1350</name>
            </trkpt>
            <trkpt lon="-105.02544665" lat="38.91204166">
                <ele>2815.0</ele>
                <time>2008-06-25T15:01:37.000Z</time>
                <name>Position 1351</name>
            </trkpt>
            <trkpt lon="-105.02561164" lat="38.91204822">
                <ele>2815.0</ele>
                <time>2008-06-25T15:01:38.000Z</time>
                <name>Position 1352</name>
            </trkpt>
            <trkpt lon="-105.02577496" lat="38.91203165">
                <ele>2815.0</ele>
                <time>2008-06-25T15:01:39.000Z</time>
                <name>Position 1353</name>
            </trkpt>
            <trkpt lon="-105.02593827" lat="38.91199994">
                <ele>2815.0</ele>
                <time>2008-06-25T15:01:40.000Z</time>
                <name>Position 1354</name>
            </trkpt>
            <trkpt lon="-105.02610159" lat="38.91195822">
                <ele>2815.0</ele>
                <time>2008-06-25T15:01:41.000Z</time>
                <name>Position 1355</name>
            </trkpt>
            <trkpt lon="-105.02626324" lat="38.91191995">
                <ele>2820.0</ele>
                <time>2008-06-25T15:01:42.000Z</time>
                <name>Position 1356</name>
            </trkpt>
            <trkpt lon="-105.02642488" lat="38.91189325">
                <ele>2820.0</ele>
                <time>2008-06-25T15:01:43.000Z</time>
                <name>Position 1357</name>
            </trkpt>
            <trkpt lon="-105.02658498" lat="38.91188323">
                <ele>2820.0</ele>
                <time>2008-06-25T15:01:44.000Z</time>
                <name>Position 1358</name>
            </trkpt>
            <trkpt lon="-105.0267483" lat="38.91188824">
                <ele>2820.0</ele>
                <time>2008-06-25T15:01:45.000Z</time>
                <name>Position 1359</name>
            </trkpt>
            <trkpt lon="-105.02690995" lat="38.9119066">
                <ele>2820.0</ele>
                <time>2008-06-25T15:01:46.000Z</time>
                <name>Position 1360</name>
            </trkpt>
            <trkpt lon="-105.02707326" lat="38.91192663">
                <ele>2820.0</ele>
                <time>2008-06-25T15:01:47.000Z</time>
                <name>Position 1361</name>
            </trkpt>
            <trkpt lon="-105.02723825" lat="38.91194665">
                <ele>2824.0</ele>
                <time>2008-06-25T15:01:48.000Z</time>
                <name>Position 1362</name>
            </trkpt>
            <trkpt lon="-105.0274049" lat="38.9119699">
                <ele>2824.0</ele>
                <time>2008-06-25T15:01:49.000Z</time>
                <name>Position 1363</name>
            </trkpt>
            <trkpt lon="-105.02757156" lat="38.91199827">
                <ele>2824.0</ele>
                <time>2008-06-25T15:01:50.000Z</time>
                <name>Position 1364</name>
            </trkpt>
            <trkpt lon="-105.02773499" lat="38.91203499">
                <ele>2824.0</ele>
                <time>2008-06-25T15:01:51.000Z</time>
                <name>Position 1365</name>
            </trkpt>
            <trkpt lon="-105.0278933" lat="38.91208327">
                <ele>2824.0</ele>
                <time>2008-06-25T15:01:52.000Z</time>
                <name>Position 1366</name>
            </trkpt>
            <trkpt lon="-105.0280416" lat="38.9121449">
                <ele>2826.0</ele>
                <time>2008-06-25T15:01:53.000Z</time>
                <name>Position 1367</name>
            </trkpt>
            <trkpt lon="-105.02818155" lat="38.91221988">
                <ele>2826.0</ele>
                <time>2008-06-25T15:01:54.000Z</time>
                <name>Position 1368</name>
            </trkpt>
            <trkpt lon="-105.02831161" lat="38.91230667">
                <ele>2826.0</ele>
                <time>2008-06-25T15:01:55.000Z</time>
                <name>Position 1369</name>
            </trkpt>
            <trkpt lon="-105.02844" lat="38.91238499">
                <ele>2826.0</ele>
                <time>2008-06-25T15:01:56.000Z</time>
                <name>Position 1370</name>
            </trkpt>
            <trkpt lon="-105.02857327" lat="38.91244996">
                <ele>2826.0</ele>
                <time>2008-06-25T15:01:57.000Z</time>
                <name>Position 1371</name>
            </trkpt>
            <trkpt lon="-105.0287149" lat="38.9124999">
                <ele>2826.0</ele>
                <time>2008-06-25T15:01:58.000Z</time>
                <name>Position 1372</name>
            </trkpt>
            <trkpt lon="-105.02886331" lat="38.91253495">
                <ele>2828.0</ele>
                <time>2008-06-25T15:01:59.000Z</time>
                <name>Position 1373</name>
            </trkpt>
            <trkpt lon="-105.02901828" lat="38.91255665">
                <ele>2828.0</ele>
                <time>2008-06-25T15:02:00.000Z</time>
                <name>Position 1374</name>
            </trkpt>
            <trkpt lon="-105.02917826" lat="38.91257322">
                <ele>2828.0</ele>
                <time>2008-06-25T15:02:01.000Z</time>
                <name>Position 1375</name>
            </trkpt>
            <trkpt lon="-105.02933991" lat="38.91258991">
                <ele>2828.0</ele>
                <time>2008-06-25T15:02:02.000Z</time>
                <name>Position 1376</name>
            </trkpt>
            <trkpt lon="-105.02950323" lat="38.9126066">
                <ele>2828.0</ele>
                <time>2008-06-25T15:02:03.000Z</time>
                <name>Position 1377</name>
            </trkpt>
            <trkpt lon="-105.02966666" lat="38.91262662">
                <ele>2829.0</ele>
                <time>2008-06-25T15:02:04.000Z</time>
                <name>Position 1378</name>
            </trkpt>
            <trkpt lon="-105.02983165" lat="38.91264999">
                <ele>2829.0</ele>
                <time>2008-06-25T15:02:05.000Z</time>
                <name>Position 1379</name>
            </trkpt>
            <trkpt lon="-105.0299933" lat="38.9126749">
                <ele>2829.0</ele>
                <time>2008-06-25T15:02:06.000Z</time>
                <name>Position 1380</name>
            </trkpt>
            <trkpt lon="-105.0301466" lat="38.91270661">
                <ele>2829.0</ele>
                <time>2008-06-25T15:02:07.000Z</time>
                <name>Position 1381</name>
            </trkpt>
            <trkpt lon="-105.03028822" lat="38.91274655">
                <ele>2829.0</ele>
                <time>2008-06-25T15:02:08.000Z</time>
                <name>Position 1382</name>
            </trkpt>
            <trkpt lon="-105.03041327" lat="38.91280162">
                <ele>2829.0</ele>
                <time>2008-06-25T15:02:09.000Z</time>
                <name>Position 1383</name>
            </trkpt>
            <trkpt lon="-105.03051496" lat="38.91287494">
                <ele>2830.0</ele>
                <time>2008-06-25T15:02:10.000Z</time>
                <name>Position 1384</name>
            </trkpt>
            <trkpt lon="-105.03059161" lat="38.91296494">
                <ele>2827.0</ele>
                <time>2008-06-25T15:02:11.000Z</time>
                <name>Position 1385</name>
            </trkpt>
            <trkpt lon="-105.03064156" lat="38.91306329">
                <ele>2827.0</ele>
                <time>2008-06-25T15:02:12.000Z</time>
                <name>Position 1386</name>
            </trkpt>
            <trkpt lon="-105.03066158" lat="38.91317165">
                <ele>2827.0</ele>
                <time>2008-06-25T15:02:13.000Z</time>
                <name>Position 1387</name>
            </trkpt>
            <trkpt lon="-105.03065157" lat="38.9132849">
                <ele>2827.0</ele>
                <time>2008-06-25T15:02:14.000Z</time>
                <name>Position 1388</name>
            </trkpt>
            <trkpt lon="-105.03060663" lat="38.91339159">
                <ele>2827.0</ele>
                <time>2008-06-25T15:02:15.000Z</time>
                <name>Position 1389</name>
            </trkpt>
            <trkpt lon="-105.03053331" lat="38.91348994">
                <ele>2827.0</ele>
                <time>2008-06-25T15:02:16.000Z</time>
                <name>Position 1390</name>
            </trkpt>
            <trkpt lon="-105.03043163" lat="38.91356993">
                <ele>2827.0</ele>
                <time>2008-06-25T15:02:17.000Z</time>
                <name>Position 1391</name>
            </trkpt>
            <trkpt lon="-105.03030324" lat="38.91363156">
                <ele>2841.0</ele>
                <time>2008-06-25T15:02:18.000Z</time>
                <name>Position 1392</name>
            </trkpt>
            <trkpt lon="-105.03016329" lat="38.91368163">
                <ele>2841.0</ele>
                <time>2008-06-25T15:02:19.000Z</time>
                <name>Position 1393</name>
            </trkpt>
            <trkpt lon="-105.03001833" lat="38.91372657">
                <ele>2841.0</ele>
                <time>2008-06-25T15:02:20.000Z</time>
                <name>Position 1394</name>
            </trkpt>
            <trkpt lon="-105.02986991" lat="38.91376662">
                <ele>2826.0</ele>
                <time>2008-06-25T15:02:21.000Z</time>
                <name>Position 1395</name>
            </trkpt>
            <trkpt lon="-105.02971995" lat="38.91380823">
                <ele>2826.0</ele>
                <time>2008-06-25T15:02:22.000Z</time>
                <name>Position 1396</name>
            </trkpt>
            <trkpt lon="-105.02956665" lat="38.91385162">
                <ele>2839.0</ele>
                <time>2008-06-25T15:02:23.000Z</time>
                <name>Position 1397</name>
            </trkpt>
            <trkpt lon="-105.02941155" lat="38.91389823">
                <ele>2839.0</ele>
                <time>2008-06-25T15:02:24.000Z</time>
                <name>Position 1398</name>
            </trkpt>
            <trkpt lon="-105.02925491" lat="38.91394997">
                <ele>2839.0</ele>
                <time>2008-06-25T15:02:25.000Z</time>
                <name>Position 1399</name>
            </trkpt>
            <trkpt lon="-105.0290966" lat="38.91400993">
                <ele>2839.0</ele>
                <time>2008-06-25T15:02:26.000Z</time>
                <name>Position 1400</name>
            </trkpt>
            <trkpt lon="-105.02893662" lat="38.91407323">
                <ele>2839.0</ele>
                <time>2008-06-25T15:02:27.000Z</time>
                <name>Position 1401</name>
            </trkpt>
            <trkpt lon="-105.02877498" lat="38.91414332">
                <ele>2839.0</ele>
                <time>2008-06-25T15:02:28.000Z</time>
                <name>Position 1402</name>
            </trkpt>
            <trkpt lon="-105.028615" lat="38.91421831">
                <ele>2841.0</ele>
                <time>2008-06-25T15:02:29.000Z</time>
                <name>Position 1403</name>
            </trkpt>
            <trkpt lon="-105.02845657" lat="38.91429496">
                <ele>2841.0</ele>
                <time>2008-06-25T15:02:30.000Z</time>
                <name>Position 1404</name>
            </trkpt>
            <trkpt lon="-105.0283016" lat="38.91437328">
                <ele>2841.0</ele>
                <time>2008-06-25T15:02:31.000Z</time>
                <name>Position 1405</name>
            </trkpt>
            <trkpt lon="-105.02814496" lat="38.91444659">
                <ele>2841.0</ele>
                <time>2008-06-25T15:02:32.000Z</time>
                <name>Position 1406</name>
            </trkpt>
            <trkpt lon="-105.02798498" lat="38.91451657">
                <ele>2841.0</ele>
                <time>2008-06-25T15:02:33.000Z</time>
                <name>Position 1407</name>
            </trkpt>
            <trkpt lon="-105.02781832" lat="38.91458166">
                <ele>2839.0</ele>
                <time>2008-06-25T15:02:34.000Z</time>
                <name>Position 1408</name>
            </trkpt>
            <trkpt lon="-105.02764666" lat="38.91463995">
                <ele>2840.0</ele>
                <time>2008-06-25T15:02:35.000Z</time>
                <name>Position 1409</name>
            </trkpt>
            <trkpt lon="-105.02746999" lat="38.91469657">
                <ele>2840.0</ele>
                <time>2008-06-25T15:02:36.000Z</time>
                <name>Position 1410</name>
            </trkpt>
            <trkpt lon="-105.02729166" lat="38.91475165">
                <ele>2840.0</ele>
                <time>2008-06-25T15:02:37.000Z</time>
                <name>Position 1411</name>
            </trkpt>
            <trkpt lon="-105.02711332" lat="38.91480494">
                <ele>2840.0</ele>
                <time>2008-06-25T15:02:38.000Z</time>
                <name>Position 1412</name>
            </trkpt>
            <trkpt lon="-105.02693665" lat="38.91485822">
                <ele>2848.0</ele>
                <time>2008-06-25T15:02:39.000Z</time>
                <name>Position 1413</name>
            </trkpt>
            <trkpt lon="-105.02676499" lat="38.91491663">
                <ele>2848.0</ele>
                <time>2008-06-25T15:02:40.000Z</time>
                <name>Position 1414</name>
            </trkpt>
            <trkpt lon="-105.02659988" lat="38.9149816">
                <ele>2848.0</ele>
                <time>2008-06-25T15:02:41.000Z</time>
                <name>Position 1415</name>
            </trkpt>
            <trkpt lon="-105.02644658" lat="38.91505158">
                <ele>2848.0</ele>
                <time>2008-06-25T15:02:42.000Z</time>
                <name>Position 1416</name>
            </trkpt>
            <trkpt lon="-105.0263083" lat="38.9151299">
                <ele>2848.0</ele>
                <time>2008-06-25T15:02:43.000Z</time>
                <name>Position 1417</name>
            </trkpt>
            <trkpt lon="-105.02618325" lat="38.91521156">
                <ele>2852.0</ele>
                <time>2008-06-25T15:02:44.000Z</time>
                <name>Position 1418</name>
            </trkpt>
            <trkpt lon="-105.02606833" lat="38.91529822">
                <ele>2852.0</ele>
                <time>2008-06-25T15:02:45.000Z</time>
                <name>Position 1419</name>
            </trkpt>
            <trkpt lon="-105.02595663" lat="38.91538656">
                <ele>2852.0</ele>
                <time>2008-06-25T15:02:46.000Z</time>
                <name>Position 1420</name>
            </trkpt>
            <trkpt lon="-105.02584493" lat="38.91547656">
                <ele>2847.0</ele>
                <time>2008-06-25T15:02:47.000Z</time>
                <name>Position 1421</name>
            </trkpt>
            <trkpt lon="-105.02573156" lat="38.91556823">
                <ele>2847.0</ele>
                <time>2008-06-25T15:02:48.000Z</time>
                <name>Position 1422</name>
            </trkpt>
            <trkpt lon="-105.02561665" lat="38.91566157">
                <ele>2847.0</ele>
                <time>2008-06-25T15:02:49.000Z</time>
                <name>Position 1423</name>
            </trkpt>
            <trkpt lon="-105.02549827" lat="38.91575825">
                <ele>2847.0</ele>
                <time>2008-06-25T15:02:50.000Z</time>
                <name>Position 1424</name>
            </trkpt>
            <trkpt lon="-105.02537489" lat="38.91585493">
                <ele>2852.0</ele>
                <time>2008-06-25T15:02:51.000Z</time>
                <name>Position 1425</name>
            </trkpt>
            <trkpt lon="-105.02524662" lat="38.91594994">
                <ele>2852.0</ele>
                <time>2008-06-25T15:02:52.000Z</time>
                <name>Position 1426</name>
            </trkpt>
            <trkpt lon="-105.02510822" lat="38.91603994">
                <ele>2852.0</ele>
                <time>2008-06-25T15:02:53.000Z</time>
                <name>Position 1427</name>
            </trkpt>
            <trkpt lon="-105.02495992" lat="38.91612661">
                <ele>2852.0</ele>
                <time>2008-06-25T15:02:54.000Z</time>
                <name>Position 1428</name>
            </trkpt>
            <trkpt lon="-105.02480662" lat="38.91621494">
                <ele>2852.0</ele>
                <time>2008-06-25T15:02:55.000Z</time>
                <name>Position 1429</name>
            </trkpt>
            <trkpt lon="-105.02464664" lat="38.91630495">
                <ele>2832.0</ele>
                <time>2008-06-25T15:02:56.000Z</time>
                <name>Position 1430</name>
            </trkpt>
            <trkpt lon="-105.02447999" lat="38.91639328">
                <ele>2841.0</ele>
                <time>2008-06-25T15:02:57.000Z</time>
                <name>Position 1431</name>
            </trkpt>
            <trkpt lon="-105.02430999" lat="38.91648328">
                <ele>2841.0</ele>
                <time>2008-06-25T15:02:58.000Z</time>
                <name>Position 1432</name>
            </trkpt>
            <trkpt lon="-105.02413499" lat="38.91657495">
                <ele>2841.0</ele>
                <time>2008-06-25T15:02:59.000Z</time>
                <name>Position 1433</name>
            </trkpt>
            <trkpt lon="-105.02395666" lat="38.9166683">
                <ele>2841.0</ele>
                <time>2008-06-25T15:03:00.000Z</time>
                <name>Position 1434</name>
            </trkpt>
            <trkpt lon="-105.02377832" lat="38.91676331">
                <ele>2841.0</ele>
                <time>2008-06-25T15:03:01.000Z</time>
                <name>Position 1435</name>
            </trkpt>
            <trkpt lon="-105.02359998" lat="38.91685998">
                <ele>2849.0</ele>
                <time>2008-06-25T15:03:02.000Z</time>
                <name>Position 1436</name>
            </trkpt>
            <trkpt lon="-105.02342498" lat="38.91695499">
                <ele>2849.0</ele>
                <time>2008-06-25T15:03:03.000Z</time>
                <name>Position 1437</name>
            </trkpt>
            <trkpt lon="-105.02326" lat="38.91704822">
                <ele>2849.0</ele>
                <time>2008-06-25T15:03:04.000Z</time>
                <name>Position 1438</name>
            </trkpt>
            <trkpt lon="-105.02311659" lat="38.91713488">
                <ele>2828.0</ele>
                <time>2008-06-25T15:03:05.000Z</time>
                <name>Position 1439</name>
            </trkpt>
            <trkpt lon="-105.022995" lat="38.91722167">
                <ele>2828.0</ele>
                <time>2008-06-25T15:03:06.000Z</time>
                <name>Position 1440</name>
            </trkpt>
            <trkpt lon="-105.02289331" lat="38.91731656">
                <ele>2837.0</ele>
                <time>2008-06-25T15:03:07.000Z</time>
                <name>Position 1441</name>
            </trkpt>
            <trkpt lon="-105.02281332" lat="38.91742659">
                <ele>2837.0</ele>
                <time>2008-06-25T15:03:08.000Z</time>
                <name>Position 1442</name>
            </trkpt>
            <trkpt lon="-105.02274823" lat="38.91753995">
                <ele>2837.0</ele>
                <time>2008-06-25T15:03:09.000Z</time>
                <name>Position 1443</name>
            </trkpt>
            <trkpt lon="-105.02269995" lat="38.91764832">
                <ele>2837.0</ele>
                <time>2008-06-25T15:03:10.000Z</time>
                <name>Position 1444</name>
            </trkpt>
            <trkpt lon="-105.02267158" lat="38.91775322">
                <ele>2837.0</ele>
                <time>2008-06-25T15:03:11.000Z</time>
                <name>Position 1445</name>
            </trkpt>
            <trkpt lon="-105.02265322" lat="38.91785991">
                <ele>2837.0</ele>
                <time>2008-06-25T15:03:12.000Z</time>
                <name>Position 1446</name>
            </trkpt>
            <trkpt lon="-105.02264333" lat="38.91797161">
                <ele>2834.0</ele>
                <time>2008-06-25T15:03:13.000Z</time>
                <name>Position 1447</name>
            </trkpt>
            <trkpt lon="-105.02263665" lat="38.91808999">
                <ele>2834.0</ele>
                <time>2008-06-25T15:03:14.000Z</time>
                <name>Position 1448</name>
            </trkpt>
            <trkpt lon="-105.02262664" lat="38.91821659">
                <ele>2834.0</ele>
                <time>2008-06-25T15:03:15.000Z</time>
                <name>Position 1449</name>
            </trkpt>
            <trkpt lon="-105.02261662" lat="38.91834831">
                <ele>2834.0</ele>
                <time>2008-06-25T15:03:16.000Z</time>
                <name>Position 1450</name>
            </trkpt>
            <trkpt lon="-105.02260661" lat="38.91847992">
                <ele>2834.0</ele>
                <time>2008-06-25T15:03:17.000Z</time>
                <name>Position 1451</name>
            </trkpt>
            <trkpt lon="-105.02259827" lat="38.91861165">
                <ele>2834.0</ele>
                <time>2008-06-25T15:03:18.000Z</time>
                <name>Position 1452</name>
            </trkpt>
            <trkpt lon="-105.02259326" lat="38.91873658">
                <ele>2834.0</ele>
                <time>2008-06-25T15:03:19.000Z</time>
                <name>Position 1453</name>
            </trkpt>
            <trkpt lon="-105.02259326" lat="38.91885495">
                <ele>2822.0</ele>
                <time>2008-06-25T15:03:20.000Z</time>
                <name>Position 1454</name>
            </trkpt>
            <trkpt lon="-105.02260494" lat="38.91894495">
                <ele>2822.0</ele>
                <time>2008-06-25T15:03:21.000Z</time>
                <name>Position 1455</name>
            </trkpt>
            <trkpt lon="-105.02263665" lat="38.91903162">
                <ele>2822.0</ele>
                <time>2008-06-25T15:03:22.000Z</time>
                <name>Position 1456</name>
            </trkpt>
            <trkpt lon="-105.02268994" lat="38.91912329">
                <ele>2822.0</ele>
                <time>2008-06-25T15:03:23.000Z</time>
                <name>Position 1457</name>
            </trkpt>
            <trkpt lon="-105.02275324" lat="38.91920996">
                <ele>2822.0</ele>
                <time>2008-06-25T15:03:24.000Z</time>
                <name>Position 1458</name>
            </trkpt>
            <trkpt lon="-105.02282822" lat="38.91929328">
                <ele>2822.0</ele>
                <time>2008-06-25T15:03:25.000Z</time>
                <name>Position 1459</name>
            </trkpt>
            <trkpt lon="-105.02291322" lat="38.91937327">
                <ele>2822.0</ele>
                <time>2008-06-25T15:03:26.000Z</time>
                <name>Position 1460</name>
            </trkpt>
            <trkpt lon="-105.02300322" lat="38.91945159">
                <ele>2816.0</ele>
                <time>2008-06-25T15:03:27.000Z</time>
                <name>Position 1461</name>
            </trkpt>
            <trkpt lon="-105.02309489" lat="38.91952991">
                <ele>2816.0</ele>
                <time>2008-06-25T15:03:28.000Z</time>
                <name>Position 1462</name>
            </trkpt>
            <trkpt lon="-105.02318656" lat="38.91961157">
                <ele>2808.0</ele>
                <time>2008-06-25T15:03:29.000Z</time>
                <name>Position 1463</name>
            </trkpt>
            <trkpt lon="-105.02328157" lat="38.91969657">
                <ele>2808.0</ele>
                <time>2008-06-25T15:03:30.000Z</time>
                <name>Position 1464</name>
            </trkpt>
            <trkpt lon="-105.02337992" lat="38.9197849">
                <ele>2808.0</ele>
                <time>2008-06-25T15:03:31.000Z</time>
                <name>Position 1465</name>
            </trkpt>
            <trkpt lon="-105.02347994" lat="38.91987658">
                <ele>2808.0</ele>
                <time>2008-06-25T15:03:32.000Z</time>
                <name>Position 1466</name>
            </trkpt>
            <trkpt lon="-105.02358329" lat="38.91997159">
                <ele>2808.0</ele>
                <time>2008-06-25T15:03:33.000Z</time>
                <name>Position 1467</name>
            </trkpt>
            <trkpt lon="-105.02368832" lat="38.92006826">
                <ele>2808.0</ele>
                <time>2008-06-25T15:03:34.000Z</time>
                <name>Position 1468</name>
            </trkpt>
            <trkpt lon="-105.02379656" lat="38.92016995">
                <ele>2813.0</ele>
                <time>2008-06-25T15:03:35.000Z</time>
                <name>Position 1469</name>
            </trkpt>
            <trkpt lon="-105.02390492" lat="38.92027164">
                <ele>2813.0</ele>
                <time>2008-06-25T15:03:36.000Z</time>
                <name>Position 1470</name>
            </trkpt>
            <trkpt lon="-105.02401662" lat="38.92037833">
                <ele>2813.0</ele>
                <time>2008-06-25T15:03:37.000Z</time>
                <name>Position 1471</name>
            </trkpt>
            <trkpt lon="-105.02412665" lat="38.92048323">
                <ele>2812.0</ele>
                <time>2008-06-25T15:03:38.000Z</time>
                <name>Position 1472</name>
            </trkpt>
            <trkpt lon="-105.02423489" lat="38.92058992">
                <ele>2812.0</ele>
                <time>2008-06-25T15:03:39.000Z</time>
                <name>Position 1473</name>
            </trkpt>
            <trkpt lon="-105.02434158" lat="38.92069495">
                <ele>2812.0</ele>
                <time>2008-06-25T15:03:40.000Z</time>
                <name>Position 1474</name>
            </trkpt>
            <trkpt lon="-105.02444327" lat="38.9207983">
                <ele>2812.0</ele>
                <time>2008-06-25T15:03:41.000Z</time>
                <name>Position 1475</name>
            </trkpt>
            <trkpt lon="-105.02453828" lat="38.92089665">
                <ele>2812.0</ele>
                <time>2008-06-25T15:03:42.000Z</time>
                <name>Position 1476</name>
            </trkpt>
            <trkpt lon="-105.02462828" lat="38.92098665">
                <ele>2818.0</ele>
                <time>2008-06-25T15:03:43.000Z</time>
                <name>Position 1477</name>
            </trkpt>
            <trkpt lon="-105.02470493" lat="38.92106497">
                <ele>2818.0</ele>
                <time>2008-06-25T15:03:44.000Z</time>
                <name>Position 1478</name>
            </trkpt>
            <trkpt lon="-105.02477157" lat="38.92113161">
                <ele>2818.0</ele>
                <time>2008-06-25T15:03:45.000Z</time>
                <name>Position 1479</name>
            </trkpt>
            <trkpt lon="-105.02482831" lat="38.92118156">
                <ele>2818.0</ele>
                <time>2008-06-25T15:03:46.000Z</time>
                <name>Position 1480</name>
            </trkpt>
            <trkpt lon="-105.02487993" lat="38.92121494">
                <ele>2818.0</ele>
                <time>2008-06-25T15:03:47.000Z</time>
                <name>Position 1481</name>
            </trkpt>
            <trkpt lon="-105.02492833" lat="38.92123163">
                <ele>2818.0</ele>
                <time>2008-06-25T15:03:48.000Z</time>
                <name>Position 1482</name>
            </trkpt>
            <trkpt lon="-105.02497494" lat="38.92123497">
                <ele>2818.0</ele>
                <time>2008-06-25T15:03:49.000Z</time>
                <name>Position 1483</name>
            </trkpt>
            <trkpt lon="-105.02501667" lat="38.92122829">
                <ele>2818.0</ele>
                <time>2008-06-25T15:03:50.000Z</time>
                <name>Position 1484</name>
            </trkpt>
            <trkpt lon="-105.02505827" lat="38.92121494">
                <ele>2818.0</ele>
                <time>2008-06-25T15:03:51.000Z</time>
                <name>Position 1485</name>
            </trkpt>
            <trkpt lon="-105.02509999" lat="38.92119324">
                <ele>2818.0</ele>
                <time>2008-06-25T15:03:52.000Z</time>
                <name>Position 1486</name>
            </trkpt>
            <trkpt lon="-105.02513993" lat="38.92116666">
                <ele>2818.0</ele>
                <time>2008-06-25T15:03:53.000Z</time>
                <name>Position 1487</name>
            </trkpt>
            <trkpt lon="-105.02517498" lat="38.92113996">
                <ele>2818.0</ele>
                <time>2008-06-25T15:03:54.000Z</time>
                <name>Position 1488</name>
            </trkpt>
            <trkpt lon="-105.02520657" lat="38.92111826">
                <ele>2818.0</ele>
                <time>2008-06-25T15:03:55.000Z</time>
                <name>Position 1489</name>
            </trkpt>
            <trkpt lon="-105.02523994" lat="38.92110324">
                <ele>2818.0</ele>
                <time>2008-06-25T15:03:56.000Z</time>
                <name>Position 1490</name>
            </trkpt>
            <trkpt lon="-105.02527833" lat="38.92109656">
                <ele>2818.0</ele>
                <time>2008-06-25T15:03:57.000Z</time>
                <name>Position 1491</name>
            </trkpt>
            <trkpt lon="-105.02531993" lat="38.92110157">
                <ele>2818.0</ele>
                <time>2008-06-25T15:03:58.000Z</time>
                <name>Position 1492</name>
            </trkpt>
            <trkpt lon="-105.02536166" lat="38.92111492">
                <ele>2818.0</ele>
                <time>2008-06-25T15:03:59.000Z</time>
                <name>Position 1493</name>
            </trkpt>
            <trkpt lon="-105.02540159" lat="38.92113495">
                <ele>2818.0</ele>
                <time>2008-06-25T15:04:00.000Z</time>
                <name>Position 1494</name>
            </trkpt>
            <trkpt lon="-105.02543831" lat="38.92115831">
                <ele>2819.0</ele>
                <time>2008-06-25T15:04:01.000Z</time>
                <name>Position 1495</name>
            </trkpt>
            <trkpt lon="-105.02547491" lat="38.92118156">
                <ele>2819.0</ele>
                <time>2008-06-25T15:04:02.000Z</time>
                <name>Position 1496</name>
            </trkpt>
            <trkpt lon="-105.02551162" lat="38.92119825">
                <ele>2819.0</ele>
                <time>2008-06-25T15:04:03.000Z</time>
                <name>Position 1497</name>
            </trkpt>
            <trkpt lon="-105.02554822" lat="38.92120492">
                <ele>2819.0</ele>
                <time>2008-06-25T15:04:04.000Z</time>
                <name>Position 1498</name>
            </trkpt>
            <trkpt lon="-105.02558327" lat="38.92119992">
                <ele>2819.0</ele>
                <time>2008-06-25T15:04:05.000Z</time>
                <name>Position 1499</name>
            </trkpt>
            <trkpt lon="-105.02561498" lat="38.9211899">
                <ele>2819.0</ele>
                <time>2008-06-25T15:04:06.000Z</time>
                <name>Position 1500</name>
            </trkpt>
            <trkpt lon="-105.02564657" lat="38.92117488">
                <ele>2819.0</ele>
                <time>2008-06-25T15:04:07.000Z</time>
                <name>Position 1501</name>
            </trkpt>
            <trkpt lon="-105.02567327" lat="38.92115664">
                <ele>2819.0</ele>
                <time>2008-06-25T15:04:08.000Z</time>
                <name>Position 1502</name>
            </trkpt>
            <trkpt lon="-105.02568996" lat="38.92113662">
                <ele>2819.0</ele>
                <time>2008-06-25T15:04:09.000Z</time>
                <name>Position 1503</name>
            </trkpt>
            <trkpt lon="-105.02569497" lat="38.92111826">
                <ele>2819.0</ele>
                <time>2008-06-25T15:04:10.000Z</time>
                <name>Position 1504</name>
            </trkpt>
            <trkpt lon="-105.02568996" lat="38.92109823">
                <ele>2819.0</ele>
                <time>2008-06-25T15:04:11.000Z</time>
                <name>Position 1505</name>
            </trkpt>
            <trkpt lon="-105.02568161" lat="38.92108488">
                <ele>2819.0</ele>
                <time>2008-06-25T15:04:12.000Z</time>
                <name>Position 1506</name>
            </trkpt>
            <trkpt lon="-105.02564156" lat="38.92112494">
                <ele>2819.0</ele>
                <time>2008-06-25T15:31:56.000Z</time>
                <name>Position 1507</name>
            </trkpt>
            <trkpt lon="-105.02564657" lat="38.92113495">
                <ele>2819.0</ele>
                <time>2008-06-25T15:31:57.000Z</time>
                <name>Position 1508</name>
            </trkpt>
            <trkpt lon="-105.02565324" lat="38.92114663">
                <ele>2819.0</ele>
                <time>2008-06-25T15:31:58.000Z</time>
                <name>Position 1509</name>
            </trkpt>
            <trkpt lon="-105.02565992" lat="38.92116165">
                <ele>2819.0</ele>
                <time>2008-06-25T15:31:59.000Z</time>
                <name>Position 1510</name>
            </trkpt>
            <trkpt lon="-105.02566826" lat="38.92117655">
                <ele>2819.0</ele>
                <time>2008-06-25T15:32:00.000Z</time>
                <name>Position 1511</name>
            </trkpt>
            <trkpt lon="-105.02567494" lat="38.92118824">
                <ele>2819.0</ele>
                <time>2008-06-25T15:32:01.000Z</time>
                <name>Position 1512</name>
            </trkpt>
            <trkpt lon="-105.02568161" lat="38.92119992">
                <ele>2819.0</ele>
                <time>2008-06-25T15:32:02.000Z</time>
                <name>Position 1513</name>
            </trkpt>
            <trkpt lon="-105.02568829" lat="38.92120993">
                <ele>2819.0</ele>
                <time>2008-06-25T15:32:03.000Z</time>
                <name>Position 1514</name>
            </trkpt>
            <trkpt lon="-105.02566493" lat="38.92120492">
                <ele>2819.0</ele>
                <time>2008-06-25T15:32:07.000Z</time>
                <name>Position 1515</name>
            </trkpt>
            <trkpt lon="-105.02563989" lat="38.92120492">
                <ele>2819.0</ele>
                <time>2008-06-25T15:32:08.000Z</time>
                <name>Position 1516</name>
            </trkpt>
            <trkpt lon="-105.02561164" lat="38.92120826">
                <ele>2819.0</ele>
                <time>2008-06-25T15:32:09.000Z</time>
                <name>Position 1517</name>
            </trkpt>
            <trkpt lon="-105.02557826" lat="38.92121494">
                <ele>2819.0</ele>
                <time>2008-06-25T15:32:10.000Z</time>
                <name>Position 1518</name>
            </trkpt>
            <trkpt lon="-105.02553999" lat="38.92121661">
                <ele>2819.0</ele>
                <time>2008-06-25T15:32:11.000Z</time>
                <name>Position 1519</name>
            </trkpt>
            <trkpt lon="-105.02549827" lat="38.9212116">
                <ele>2819.0</ele>
                <time>2008-06-25T15:32:12.000Z</time>
                <name>Position 1520</name>
            </trkpt>
            <trkpt lon="-105.025455" lat="38.92119825">
                <ele>2819.0</ele>
                <time>2008-06-25T15:32:13.000Z</time>
                <name>Position 1521</name>
            </trkpt>
            <trkpt lon="-105.02541327" lat="38.92117822">
                <ele>2818.0</ele>
                <time>2008-06-25T15:32:14.000Z</time>
                <name>Position 1522</name>
            </trkpt>
            <trkpt lon="-105.02537155" lat="38.92115998">
                <ele>2818.0</ele>
                <time>2008-06-25T15:32:15.000Z</time>
                <name>Position 1523</name>
            </trkpt>
            <trkpt lon="-105.02532828" lat="38.92113996">
                <ele>2818.0</ele>
                <time>2008-06-25T15:32:16.000Z</time>
                <name>Position 1524</name>
            </trkpt>
            <trkpt lon="-105.02528489" lat="38.9211216">
                <ele>2818.0</ele>
                <time>2008-06-25T15:32:17.000Z</time>
                <name>Position 1525</name>
            </trkpt>
            <trkpt lon="-105.02523828" lat="38.92110991">
                <ele>2818.0</ele>
                <time>2008-06-25T15:32:18.000Z</time>
                <name>Position 1526</name>
            </trkpt>
            <trkpt lon="-105.02518833" lat="38.92110825">
                <ele>2818.0</ele>
                <time>2008-06-25T15:32:19.000Z</time>
                <name>Position 1527</name>
            </trkpt>
            <trkpt lon="-105.02513993" lat="38.92111826">
                <ele>2818.0</ele>
                <time>2008-06-25T15:32:20.000Z</time>
                <name>Position 1528</name>
            </trkpt>
            <trkpt lon="-105.02509499" lat="38.92113829">
                <ele>2818.0</ele>
                <time>2008-06-25T15:32:21.000Z</time>
                <name>Position 1529</name>
            </trkpt>
            <trkpt lon="-105.02505326" lat="38.92116332">
                <ele>2818.0</ele>
                <time>2008-06-25T15:32:22.000Z</time>
                <name>Position 1530</name>
            </trkpt>
            <trkpt lon="-105.02501822" lat="38.9211849">
                <ele>2818.0</ele>
                <time>2008-06-25T15:32:23.000Z</time>
                <name>Position 1531</name>
            </trkpt>
            <trkpt lon="-105.02499163" lat="38.92120159">
                <ele>2818.0</ele>
                <time>2008-06-25T15:32:24.000Z</time>
                <name>Position 1532</name>
            </trkpt>
            <trkpt lon="-105.02497494" lat="38.92121327">
                <ele>2818.0</ele>
                <time>2008-06-25T15:32:25.000Z</time>
                <name>Position 1533</name>
            </trkpt>
            <trkpt lon="-105.02495992" lat="38.92122328">
                <ele>2818.0</ele>
                <time>2008-06-25T15:32:26.000Z</time>
                <name>Position 1534</name>
            </trkpt>
            <trkpt lon="-105.0249449" lat="38.92123997">
                <ele>2818.0</ele>
                <time>2008-06-25T15:32:27.000Z</time>
                <name>Position 1535</name>
            </trkpt>
            <trkpt lon="-105.02493322" lat="38.92126322">
                <ele>2818.0</ele>
                <time>2008-06-25T15:32:28.000Z</time>
                <name>Position 1536</name>
            </trkpt>
            <trkpt lon="-105.02493322" lat="38.92129493">
                <ele>2818.0</ele>
                <time>2008-06-25T15:32:29.000Z</time>
                <name>Position 1537</name>
            </trkpt>
            <trkpt lon="-105.02494991" lat="38.92133164">
                <ele>2818.0</ele>
                <time>2008-06-25T15:32:30.000Z</time>
                <name>Position 1538</name>
            </trkpt>
            <trkpt lon="-105.02498162" lat="38.92137325">
                <ele>2818.0</ele>
                <time>2008-06-25T15:32:31.000Z</time>
                <name>Position 1539</name>
            </trkpt>
            <trkpt lon="-105.02502656" lat="38.92141998">
                <ele>2818.0</ele>
                <time>2008-06-25T15:32:32.000Z</time>
                <name>Position 1540</name>
            </trkpt>
            <trkpt lon="-105.02507997" lat="38.92147326">
                <ele>2818.0</ele>
                <time>2008-06-25T15:32:33.000Z</time>
                <name>Position 1541</name>
            </trkpt>
            <trkpt lon="-105.02513826" lat="38.9215349">
                <ele>2818.0</ele>
                <time>2008-06-25T15:32:34.000Z</time>
                <name>Position 1542</name>
            </trkpt>
            <trkpt lon="-105.02520323" lat="38.92160165">
                <ele>2818.0</ele>
                <time>2008-06-25T15:32:35.000Z</time>
                <name>Position 1543</name>
            </trkpt>
            <trkpt lon="-105.02527165" lat="38.9216733">
                <ele>2818.0</ele>
                <time>2008-06-25T15:32:36.000Z</time>
                <name>Position 1544</name>
            </trkpt>
            <trkpt lon="-105.0253433" lat="38.92174661">
                <ele>2818.0</ele>
                <time>2008-06-25T15:32:37.000Z</time>
                <name>Position 1545</name>
            </trkpt>
            <trkpt lon="-105.02541661" lat="38.92182493">
                <ele>2818.0</ele>
                <time>2008-06-25T15:32:38.000Z</time>
                <name>Position 1546</name>
            </trkpt>
            <trkpt lon="-105.0254916" lat="38.92190325">
                <ele>2826.0</ele>
                <time>2008-06-25T15:32:39.000Z</time>
                <name>Position 1547</name>
            </trkpt>
            <trkpt lon="-105.02556825" lat="38.92198491">
                <ele>2826.0</ele>
                <time>2008-06-25T15:32:40.000Z</time>
                <name>Position 1548</name>
            </trkpt>
            <trkpt lon="-105.0256449" lat="38.92206991">
                <ele>2826.0</ele>
                <time>2008-06-25T15:32:41.000Z</time>
                <name>Position 1549</name>
            </trkpt>
            <trkpt lon="-105.02572155" lat="38.9221549">
                <ele>2828.0</ele>
                <time>2008-06-25T15:32:42.000Z</time>
                <name>Position 1550</name>
            </trkpt>
            <trkpt lon="-105.02580166" lat="38.9222399">
                <ele>2828.0</ele>
                <time>2008-06-25T15:32:43.000Z</time>
                <name>Position 1551</name>
            </trkpt>
            <trkpt lon="-105.02588499" lat="38.92232323">
                <ele>2828.0</ele>
                <time>2008-06-25T15:32:44.000Z</time>
                <name>Position 1552</name>
            </trkpt>
            <trkpt lon="-105.02597165" lat="38.92240489">
                <ele>2828.0</ele>
                <time>2008-06-25T15:32:45.000Z</time>
                <name>Position 1553</name>
            </trkpt>
            <trkpt lon="-105.02606165" lat="38.92248333">
                <ele>2828.0</ele>
                <time>2008-06-25T15:32:46.000Z</time>
                <name>Position 1554</name>
            </trkpt>
            <trkpt lon="-105.02615833" lat="38.92256331">
                <ele>2828.0</ele>
                <time>2008-06-25T15:32:47.000Z</time>
                <name>Position 1555</name>
            </trkpt>
            <trkpt lon="-105.02625823" lat="38.92263663">
                <ele>2837.0</ele>
                <time>2008-06-25T15:32:48.000Z</time>
                <name>Position 1556</name>
            </trkpt>
            <trkpt lon="-105.0263716" lat="38.92270494">
                <ele>2837.0</ele>
                <time>2008-06-25T15:32:49.000Z</time>
                <name>Position 1557</name>
            </trkpt>
            <trkpt lon="-105.02650332" lat="38.92276657">
                <ele>2837.0</ele>
                <time>2008-06-25T15:32:50.000Z</time>
                <name>Position 1558</name>
            </trkpt>
            <trkpt lon="-105.02663827" lat="38.92282164">
                <ele>2837.0</ele>
                <time>2008-06-25T15:32:51.000Z</time>
                <name>Position 1559</name>
            </trkpt>
            <trkpt lon="-105.02677321" lat="38.92286992">
                <ele>2837.0</ele>
                <time>2008-06-25T15:32:52.000Z</time>
                <name>Position 1560</name>
            </trkpt>
            <trkpt lon="-105.02691662" lat="38.92291164">
                <ele>2837.0</ele>
                <time>2008-06-25T15:32:53.000Z</time>
                <name>Position 1561</name>
            </trkpt>
            <trkpt lon="-105.02705991" lat="38.9229449">
                <ele>2837.0</ele>
                <time>2008-06-25T15:32:54.000Z</time>
                <name>Position 1562</name>
            </trkpt>
            <trkpt lon="-105.02720499" lat="38.92297161">
                <ele>2844.0</ele>
                <time>2008-06-25T15:32:55.000Z</time>
                <name>Position 1563</name>
            </trkpt>
            <trkpt lon="-105.02735162" lat="38.92298996">
                <ele>2844.0</ele>
                <time>2008-06-25T15:32:56.000Z</time>
                <name>Position 1564</name>
            </trkpt>
            <trkpt lon="-105.02749991" lat="38.92299664">
                <ele>2844.0</ele>
                <time>2008-06-25T15:32:57.000Z</time>
                <name>Position 1565</name>
            </trkpt>
            <trkpt lon="-105.02764833" lat="38.92299497">
                <ele>2844.0</ele>
                <time>2008-06-25T15:32:58.000Z</time>
                <name>Position 1566</name>
            </trkpt>
            <trkpt lon="-105.02779496" lat="38.92298162">
                <ele>2844.0</ele>
                <time>2008-06-25T15:32:59.000Z</time>
                <name>Position 1567</name>
            </trkpt>
            <trkpt lon="-105.02793992" lat="38.92295992">
                <ele>2841.0</ele>
                <time>2008-06-25T15:33:00.000Z</time>
                <name>Position 1568</name>
            </trkpt>
            <trkpt lon="-105.02807999" lat="38.92292333">
                <ele>2841.0</ele>
                <time>2008-06-25T15:33:01.000Z</time>
                <name>Position 1569</name>
            </trkpt>
            <trkpt lon="-105.0282166" lat="38.92287993">
                <ele>2849.0</ele>
                <time>2008-06-25T15:33:02.000Z</time>
                <name>Position 1570</name>
            </trkpt>
            <trkpt lon="-105.02834833" lat="38.92282665">
                <ele>2849.0</ele>
                <time>2008-06-25T15:33:03.000Z</time>
                <name>Position 1571</name>
            </trkpt>
            <trkpt lon="-105.02847159" lat="38.92276323">
                <ele>2849.0</ele>
                <time>2008-06-25T15:33:04.000Z</time>
                <name>Position 1572</name>
            </trkpt>
            <trkpt lon="-105.02858996" lat="38.92269158">
                <ele>2849.0</ele>
                <time>2008-06-25T15:33:05.000Z</time>
                <name>Position 1573</name>
            </trkpt>
            <trkpt lon="-105.02870488" lat="38.92261326">
                <ele>2849.0</ele>
                <time>2008-06-25T15:33:06.000Z</time>
                <name>Position 1574</name>
            </trkpt>
            <trkpt lon="-105.02881825" lat="38.92253494">
                <ele>2847.0</ele>
                <time>2008-06-25T15:33:07.000Z</time>
                <name>Position 1575</name>
            </trkpt>
            <trkpt lon="-105.02892995" lat="38.92245662">
                <ele>2847.0</ele>
                <time>2008-06-25T15:33:08.000Z</time>
                <name>Position 1576</name>
            </trkpt>
            <trkpt lon="-105.02903998" lat="38.9223783">
                <ele>2847.0</ele>
                <time>2008-06-25T15:33:09.000Z</time>
                <name>Position 1577</name>
            </trkpt>
            <trkpt lon="-105.02914822" lat="38.92230165">
                <ele>2847.0</ele>
                <time>2008-06-25T15:33:10.000Z</time>
                <name>Position 1578</name>
            </trkpt>
            <trkpt lon="-105.02925658" lat="38.92223322">
                <ele>2847.0</ele>
                <time>2008-06-25T15:33:11.000Z</time>
                <name>Position 1579</name>
            </trkpt>
            <trkpt lon="-105.02936828" lat="38.92217159">
                <ele>2847.0</ele>
                <time>2008-06-25T15:33:12.000Z</time>
                <name>Position 1580</name>
            </trkpt>
            <trkpt lon="-105.02948666" lat="38.9221133">
                <ele>2847.0</ele>
                <time>2008-06-25T15:33:13.000Z</time>
                <name>Position 1581</name>
            </trkpt>
            <trkpt lon="-105.02960992" lat="38.92205989">
                <ele>2851.0</ele>
                <time>2008-06-25T15:33:14.000Z</time>
                <name>Position 1582</name>
            </trkpt>
            <trkpt lon="-105.02973664" lat="38.92201161">
                <ele>2851.0</ele>
                <time>2008-06-25T15:33:15.000Z</time>
                <name>Position 1583</name>
            </trkpt>
            <trkpt lon="-105.02987158" lat="38.92197323">
                <ele>2851.0</ele>
                <time>2008-06-25T15:33:16.000Z</time>
                <name>Position 1584</name>
            </trkpt>
            <trkpt lon="-105.03001499" lat="38.92194664">
                <ele>2851.0</ele>
                <time>2008-06-25T15:33:17.000Z</time>
                <name>Position 1585</name>
            </trkpt>
            <trkpt lon="-105.03016162" lat="38.92192662">
                <ele>2851.0</ele>
                <time>2008-06-25T15:33:18.000Z</time>
                <name>Position 1586</name>
            </trkpt>
            <trkpt lon="-105.03031325" lat="38.92191327">
                <ele>2851.0</ele>
                <time>2008-06-25T15:33:19.000Z</time>
                <name>Position 1587</name>
            </trkpt>
            <trkpt lon="-105.03046989" lat="38.92190492">
                <ele>2853.0</ele>
                <time>2008-06-25T15:33:20.000Z</time>
                <name>Position 1588</name>
            </trkpt>
            <trkpt lon="-105.03062999" lat="38.92189157">
                <ele>2853.0</ele>
                <time>2008-06-25T15:33:21.000Z</time>
                <name>Position 1589</name>
            </trkpt>
            <trkpt lon="-105.03079164" lat="38.92188323">
                <ele>2853.0</ele>
                <time>2008-06-25T15:33:22.000Z</time>
                <name>Position 1590</name>
            </trkpt>
            <trkpt lon="-105.03095829" lat="38.92188156">
                <ele>2853.0</ele>
                <time>2008-06-25T15:33:23.000Z</time>
                <name>Position 1591</name>
            </trkpt>
            <trkpt lon="-105.03112662" lat="38.92188823">
                <ele>2853.0</ele>
                <time>2008-06-25T15:33:24.000Z</time>
                <name>Position 1592</name>
            </trkpt>
            <trkpt lon="-105.03129661" lat="38.92189658">
                <ele>2849.0</ele>
                <time>2008-06-25T15:33:25.000Z</time>
                <name>Position 1593</name>
            </trkpt>
            <trkpt lon="-105.03146493" lat="38.92190826">
                <ele>2849.0</ele>
                <time>2008-06-25T15:33:26.000Z</time>
                <name>Position 1594</name>
            </trkpt>
            <trkpt lon="-105.03163326" lat="38.92191994">
                <ele>2849.0</ele>
                <time>2008-06-25T15:33:27.000Z</time>
                <name>Position 1595</name>
            </trkpt>
            <trkpt lon="-105.03180158" lat="38.92193496">
                <ele>2849.0</ele>
                <time>2008-06-25T15:33:28.000Z</time>
                <name>Position 1596</name>
            </trkpt>
            <trkpt lon="-105.03196824" lat="38.92194998">
                <ele>2849.0</ele>
                <time>2008-06-25T15:33:29.000Z</time>
                <name>Position 1597</name>
            </trkpt>
            <trkpt lon="-105.03213322" lat="38.92196488">
                <ele>2852.0</ele>
                <time>2008-06-25T15:33:30.000Z</time>
                <name>Position 1598</name>
            </trkpt>
            <trkpt lon="-105.03229666" lat="38.92197824">
                <ele>2852.0</ele>
                <time>2008-06-25T15:33:31.000Z</time>
                <name>Position 1599</name>
            </trkpt>
            <trkpt lon="-105.03245831" lat="38.92199326">
                <ele>2852.0</ele>
                <time>2008-06-25T15:33:32.000Z</time>
                <name>Position 1600</name>
            </trkpt>
            <trkpt lon="-105.03261662" lat="38.92201495">
                <ele>2852.0</ele>
                <time>2008-06-25T15:33:33.000Z</time>
                <name>Position 1601</name>
            </trkpt>
            <trkpt lon="-105.03276992" lat="38.92203832">
                <ele>2852.0</ele>
                <time>2008-06-25T15:33:34.000Z</time>
                <name>Position 1602</name>
            </trkpt>
            <trkpt lon="-105.032915" lat="38.92206657">
                <ele>2852.0</ele>
                <time>2008-06-25T15:33:35.000Z</time>
                <name>Position 1603</name>
            </trkpt>
            <trkpt lon="-105.03305328" lat="38.92210495">
                <ele>2860.0</ele>
                <time>2008-06-25T15:33:36.000Z</time>
                <name>Position 1604</name>
            </trkpt>
            <trkpt lon="-105.03318322" lat="38.92214656">
                <ele>2860.0</ele>
                <time>2008-06-25T15:33:37.000Z</time>
                <name>Position 1605</name>
            </trkpt>
            <trkpt lon="-105.03331661" lat="38.9221983">
                <ele>2860.0</ele>
                <time>2008-06-25T15:33:38.000Z</time>
                <name>Position 1606</name>
            </trkpt>
            <trkpt lon="-105.03344989" lat="38.92225826">
                <ele>2860.0</ele>
                <time>2008-06-25T15:33:39.000Z</time>
                <name>Position 1607</name>
            </trkpt>
            <trkpt lon="-105.03358328" lat="38.92231333">
                <ele>2860.0</ele>
                <time>2008-06-25T15:33:40.000Z</time>
                <name>Position 1608</name>
            </trkpt>
            <trkpt lon="-105.03371823" lat="38.92236495">
                <ele>2860.0</ele>
                <time>2008-06-25T15:33:41.000Z</time>
                <name>Position 1609</name>
            </trkpt>
            <trkpt lon="-105.03385663" lat="38.9224149">
                <ele>2863.0</ele>
                <time>2008-06-25T15:33:42.000Z</time>
                <name>Position 1610</name>
            </trkpt>
            <trkpt lon="-105.03399825" lat="38.92245996">
                <ele>2863.0</ele>
                <time>2008-06-25T15:33:43.000Z</time>
                <name>Position 1611</name>
            </trkpt>
            <trkpt lon="-105.03413999" lat="38.92249155">
                <ele>2863.0</ele>
                <time>2008-06-25T15:33:44.000Z</time>
                <name>Position 1612</name>
            </trkpt>
            <trkpt lon="-105.03428161" lat="38.92251158">
                <ele>2863.0</ele>
                <time>2008-06-25T15:33:45.000Z</time>
                <name>Position 1613</name>
            </trkpt>
            <trkpt lon="-105.03442323" lat="38.92251325">
                <ele>2863.0</ele>
                <time>2008-06-25T15:33:46.000Z</time>
                <name>Position 1614</name>
            </trkpt>
            <trkpt lon="-105.03456497" lat="38.92250156">
                <ele>2863.0</ele>
                <time>2008-06-25T15:33:47.000Z</time>
                <name>Position 1615</name>
            </trkpt>
            <trkpt lon="-105.03470659" lat="38.92248166">
                <ele>2869.0</ele>
                <time>2008-06-25T15:33:48.000Z</time>
                <name>Position 1616</name>
            </trkpt>
            <trkpt lon="-105.03484666" lat="38.92244995">
                <ele>2869.0</ele>
                <time>2008-06-25T15:33:49.000Z</time>
                <name>Position 1617</name>
            </trkpt>
            <trkpt lon="-105.03498495" lat="38.92241156">
                <ele>2869.0</ele>
                <time>2008-06-25T15:33:50.000Z</time>
                <name>Position 1618</name>
            </trkpt>
            <trkpt lon="-105.03512323" lat="38.92236996">
                <ele>2869.0</ele>
                <time>2008-06-25T15:33:51.000Z</time>
                <name>Position 1619</name>
            </trkpt>
            <trkpt lon="-105.03526497" lat="38.92232656">
                <ele>2869.0</ele>
                <time>2008-06-25T15:33:52.000Z</time>
                <name>Position 1620</name>
            </trkpt>
            <trkpt lon="-105.03540826" lat="38.92227995">
                <ele>2869.0</ele>
                <time>2008-06-25T15:33:53.000Z</time>
                <name>Position 1621</name>
            </trkpt>
            <trkpt lon="-105.03555489" lat="38.92223155">
                <ele>2871.0</ele>
                <time>2008-06-25T15:33:54.000Z</time>
                <name>Position 1622</name>
            </trkpt>
            <trkpt lon="-105.03570831" lat="38.92217994">
                <ele>2871.0</ele>
                <time>2008-06-25T15:33:55.000Z</time>
                <name>Position 1623</name>
            </trkpt>
            <trkpt lon="-105.03586495" lat="38.92212999">
                <ele>2871.0</ele>
                <time>2008-06-25T15:33:56.000Z</time>
                <name>Position 1624</name>
            </trkpt>
            <trkpt lon="-105.03602159" lat="38.92207992">
                <ele>2863.0</ele>
                <time>2008-06-25T15:33:57.000Z</time>
                <name>Position 1625</name>
            </trkpt>
            <trkpt lon="-105.03617823" lat="38.92203164">
                <ele>2863.0</ele>
                <time>2008-06-25T15:33:58.000Z</time>
                <name>Position 1626</name>
            </trkpt>
            <trkpt lon="-105.03633499" lat="38.92198491">
                <ele>2865.0</ele>
                <time>2008-06-25T15:33:59.000Z</time>
                <name>Position 1627</name>
            </trkpt>
            <trkpt lon="-105.03648996" lat="38.92193997">
                <ele>2865.0</ele>
                <time>2008-06-25T15:34:00.000Z</time>
                <name>Position 1628</name>
            </trkpt>
            <trkpt lon="-105.03664494" lat="38.92189491">
                <ele>2865.0</ele>
                <time>2008-06-25T15:34:01.000Z</time>
                <name>Position 1629</name>
            </trkpt>
            <trkpt lon="-105.03679657" lat="38.92185163">
                <ele>2865.0</ele>
                <time>2008-06-25T15:34:02.000Z</time>
                <name>Position 1630</name>
            </trkpt>
            <trkpt lon="-105.03694665" lat="38.9218049">
                <ele>2865.0</ele>
                <time>2008-06-25T15:34:03.000Z</time>
                <name>Position 1631</name>
            </trkpt>
            <trkpt lon="-105.03708994" lat="38.92175162">
                <ele>2867.0</ele>
                <time>2008-06-25T15:34:04.000Z</time>
                <name>Position 1632</name>
            </trkpt>
            <trkpt lon="-105.03721833" lat="38.92168665">
                <ele>2867.0</ele>
                <time>2008-06-25T15:34:05.000Z</time>
                <name>Position 1633</name>
            </trkpt>
            <trkpt lon="-105.03732824" lat="38.92161">
                <ele>2867.0</ele>
                <time>2008-06-25T15:34:06.000Z</time>
                <name>Position 1634</name>
            </trkpt>
            <trkpt lon="-105.03741658" lat="38.92152333">
                <ele>2867.0</ele>
                <time>2008-06-25T15:34:07.000Z</time>
                <name>Position 1635</name>
            </trkpt>
            <trkpt lon="-105.03748488" lat="38.92142498">
                <ele>2867.0</ele>
                <time>2008-06-25T15:34:08.000Z</time>
                <name>Position 1636</name>
            </trkpt>
            <trkpt lon="-105.03753161" lat="38.92131996">
                <ele>2867.0</ele>
                <time>2008-06-25T15:34:09.000Z</time>
                <name>Position 1637</name>
            </trkpt>
            <trkpt lon="-105.03754997" lat="38.92120326">
                <ele>2865.0</ele>
                <time>2008-06-25T15:34:10.000Z</time>
                <name>Position 1638</name>
            </trkpt>
            <trkpt lon="-105.0375433" lat="38.92108333">
                <ele>2865.0</ele>
                <time>2008-06-25T15:34:11.000Z</time>
                <name>Position 1639</name>
            </trkpt>
            <trkpt lon="-105.03751659" lat="38.92096329">
                <ele>2865.0</ele>
                <time>2008-06-25T15:34:12.000Z</time>
                <name>Position 1640</name>
            </trkpt>
            <trkpt lon="-105.03748322" lat="38.92083991">
                <ele>2865.0</ele>
                <time>2008-06-25T15:34:13.000Z</time>
                <name>Position 1641</name>
            </trkpt>
            <trkpt lon="-105.03744829" lat="38.92071664">
                <ele>2865.0</ele>
                <time>2008-06-25T15:34:14.000Z</time>
                <name>Position 1642</name>
            </trkpt>
            <trkpt lon="-105.03741992" lat="38.92059159">
                <ele>2865.0</ele>
                <time>2008-06-25T15:34:15.000Z</time>
                <name>Position 1643</name>
            </trkpt>
            <trkpt lon="-105.03740323" lat="38.92046499">
                <ele>2865.0</ele>
                <time>2008-06-25T15:34:16.000Z</time>
                <name>Position 1644</name>
            </trkpt>
            <trkpt lon="-105.03740323" lat="38.92033827">
                <ele>2864.0</ele>
                <time>2008-06-25T15:34:17.000Z</time>
                <name>Position 1645</name>
            </trkpt>
            <trkpt lon="-105.03742325" lat="38.92021489">
                <ele>2864.0</ele>
                <time>2008-06-25T15:34:18.000Z</time>
                <name>Position 1646</name>
            </trkpt>
            <trkpt lon="-105.03746331" lat="38.92009497">
                <ele>2864.0</ele>
                <time>2008-06-25T15:34:19.000Z</time>
                <name>Position 1647</name>
            </trkpt>
            <trkpt lon="-105.03751826" lat="38.91997826">
                <ele>2864.0</ele>
                <time>2008-06-25T15:34:20.000Z</time>
                <name>Position 1648</name>
            </trkpt>
            <trkpt lon="-105.0375849" lat="38.91986489">
                <ele>2864.0</ele>
                <time>2008-06-25T15:34:21.000Z</time>
                <name>Position 1649</name>
            </trkpt>
            <trkpt lon="-105.03765666" lat="38.91975331">
                <ele>2864.0</ele>
                <time>2008-06-25T15:34:22.000Z</time>
                <name>Position 1650</name>
            </trkpt>
            <trkpt lon="-105.03772998" lat="38.91964328">
                <ele>2864.0</ele>
                <time>2008-06-25T15:34:23.000Z</time>
                <name>Position 1651</name>
            </trkpt>
            <trkpt lon="-105.03780663" lat="38.91953325">
                <ele>2866.0</ele>
                <time>2008-06-25T15:34:24.000Z</time>
                <name>Position 1652</name>
            </trkpt>
            <trkpt lon="-105.03788495" lat="38.91942489">
                <ele>2866.0</ele>
                <time>2008-06-25T15:34:25.000Z</time>
                <name>Position 1653</name>
            </trkpt>
            <trkpt lon="-105.03796327" lat="38.91931498">
                <ele>2874.0</ele>
                <time>2008-06-25T15:34:26.000Z</time>
                <name>Position 1654</name>
            </trkpt>
            <trkpt lon="-105.03804326" lat="38.91920328">
                <ele>2874.0</ele>
                <time>2008-06-25T15:34:27.000Z</time>
                <name>Position 1655</name>
            </trkpt>
            <trkpt lon="-105.03812325" lat="38.91909325">
                <ele>2874.0</ele>
                <time>2008-06-25T15:34:28.000Z</time>
                <name>Position 1656</name>
            </trkpt>
            <trkpt lon="-105.03820324" lat="38.91898322">
                <ele>2874.0</ele>
                <time>2008-06-25T15:34:29.000Z</time>
                <name>Position 1657</name>
            </trkpt>
            <trkpt lon="-105.03828156" lat="38.91887164">
                <ele>2874.0</ele>
                <time>2008-06-25T15:34:30.000Z</time>
                <name>Position 1658</name>
            </trkpt>
            <trkpt lon="-105.03836489" lat="38.91876161">
                <ele>2874.0</ele>
                <time>2008-06-25T15:34:31.000Z</time>
                <name>Position 1659</name>
            </trkpt>
            <trkpt lon="-105.03845155" lat="38.91865492">
                <ele>2876.0</ele>
                <time>2008-06-25T15:34:32.000Z</time>
                <name>Position 1660</name>
            </trkpt>
            <trkpt lon="-105.0385499" lat="38.91855156">
                <ele>2876.0</ele>
                <time>2008-06-25T15:34:33.000Z</time>
                <name>Position 1661</name>
            </trkpt>
            <trkpt lon="-105.03866661" lat="38.91845822">
                <ele>2876.0</ele>
                <time>2008-06-25T15:34:34.000Z</time>
                <name>Position 1662</name>
            </trkpt>
            <trkpt lon="-105.03879988" lat="38.91837656">
                <ele>2880.0</ele>
                <time>2008-06-25T15:34:35.000Z</time>
                <name>Position 1663</name>
            </trkpt>
            <trkpt lon="-105.03895164" lat="38.9183166">
                <ele>2880.0</ele>
                <time>2008-06-25T15:34:36.000Z</time>
                <name>Position 1664</name>
            </trkpt>
            <trkpt lon="-105.03911328" lat="38.91826665">
                <ele>2880.0</ele>
                <time>2008-06-25T15:34:37.000Z</time>
                <name>Position 1665</name>
            </trkpt>
            <trkpt lon="-105.03928494" lat="38.91823161">
                <ele>2880.0</ele>
                <time>2008-06-25T15:34:38.000Z</time>
                <name>Position 1666</name>
            </trkpt>
            <trkpt lon="-105.03945994" lat="38.9181999">
                <ele>2880.0</ele>
                <time>2008-06-25T15:34:39.000Z</time>
                <name>Position 1667</name>
            </trkpt>
            <trkpt lon="-105.03963661" lat="38.91817164">
                <ele>2879.0</ele>
                <time>2008-06-25T15:34:40.000Z</time>
                <name>Position 1668</name>
            </trkpt>
            <trkpt lon="-105.03981328" lat="38.91814327">
                <ele>2879.0</ele>
                <time>2008-06-25T15:34:41.000Z</time>
                <name>Position 1669</name>
            </trkpt>
            <trkpt lon="-105.03998828" lat="38.91811991">
                <ele>2879.0</ele>
                <time>2008-06-25T15:34:42.000Z</time>
                <name>Position 1670</name>
            </trkpt>
            <trkpt lon="-105.04016328" lat="38.91810322">
                <ele>2879.0</ele>
                <time>2008-06-25T15:34:43.000Z</time>
                <name>Position 1671</name>
            </trkpt>
            <trkpt lon="-105.04033995" lat="38.91809666">
                <ele>2879.0</ele>
                <time>2008-06-25T15:34:44.000Z</time>
                <name>Position 1672</name>
            </trkpt>
            <trkpt lon="-105.04051661" lat="38.91809666">
                <ele>2873.0</ele>
                <time>2008-06-25T15:34:45.000Z</time>
                <name>Position 1673</name>
            </trkpt>
            <trkpt lon="-105.04069495" lat="38.91810989">
                <ele>2873.0</ele>
                <time>2008-06-25T15:34:46.000Z</time>
                <name>Position 1674</name>
            </trkpt>
            <trkpt lon="-105.04087496" lat="38.91812658">
                <ele>2873.0</ele>
                <time>2008-06-25T15:34:47.000Z</time>
                <name>Position 1675</name>
            </trkpt>
            <trkpt lon="-105.0410533" lat="38.91815329">
                <ele>2873.0</ele>
                <time>2008-06-25T15:34:48.000Z</time>
                <name>Position 1676</name>
            </trkpt>
            <trkpt lon="-105.04123497" lat="38.91818666">
                <ele>2873.0</ele>
                <time>2008-06-25T15:34:49.000Z</time>
                <name>Position 1677</name>
            </trkpt>
            <trkpt lon="-105.04141998" lat="38.91822493">
                <ele>2867.0</ele>
                <time>2008-06-25T15:34:50.000Z</time>
                <name>Position 1678</name>
            </trkpt>
            <trkpt lon="-105.04160988" lat="38.9182533">
                <ele>2867.0</ele>
                <time>2008-06-25T15:34:51.000Z</time>
                <name>Position 1679</name>
            </trkpt>
            <trkpt lon="-105.04180658" lat="38.91827166">
                <ele>2867.0</ele>
                <time>2008-06-25T15:34:52.000Z</time>
                <name>Position 1680</name>
            </trkpt>
            <trkpt lon="-105.04200494" lat="38.91827166">
                <ele>2867.0</ele>
                <time>2008-06-25T15:34:53.000Z</time>
                <name>Position 1681</name>
            </trkpt>
            <trkpt lon="-105.04219997" lat="38.91825163">
                <ele>2866.0</ele>
                <time>2008-06-25T15:34:54.000Z</time>
                <name>Position 1682</name>
            </trkpt>
            <trkpt lon="-105.04238665" lat="38.91821992">
                <ele>2866.0</ele>
                <time>2008-06-25T15:34:55.000Z</time>
                <name>Position 1683</name>
            </trkpt>
            <trkpt lon="-105.04255998" lat="38.91816998">
                <ele>2866.0</ele>
                <time>2008-06-25T15:34:56.000Z</time>
                <name>Position 1684</name>
            </trkpt>
            <trkpt lon="-105.04272163" lat="38.91810489">
                <ele>2866.0</ele>
                <time>2008-06-25T15:34:57.000Z</time>
                <name>Position 1685</name>
            </trkpt>
            <trkpt lon="-105.04287159" lat="38.9180299">
                <ele>2866.0</ele>
                <time>2008-06-25T15:34:58.000Z</time>
                <name>Position 1686</name>
            </trkpt>
            <trkpt lon="-105.04301488" lat="38.91795158">
                <ele>2863.0</ele>
                <time>2008-06-25T15:34:59.000Z</time>
                <name>Position 1687</name>
            </trkpt>
            <trkpt lon="-105.04315662" lat="38.91787326">
                <ele>2875.0</ele>
                <time>2008-06-25T15:35:00.000Z</time>
                <name>Position 1688</name>
            </trkpt>
            <trkpt lon="-105.04329658" lat="38.91779327">
                <ele>2875.0</ele>
                <time>2008-06-25T15:35:01.000Z</time>
                <name>Position 1689</name>
            </trkpt>
            <trkpt lon="-105.04343164" lat="38.91771495">
                <ele>2875.0</ele>
                <time>2008-06-25T15:35:02.000Z</time>
                <name>Position 1690</name>
            </trkpt>
            <trkpt lon="-105.04356492" lat="38.91763496">
                <ele>2875.0</ele>
                <time>2008-06-25T15:35:03.000Z</time>
                <name>Position 1691</name>
            </trkpt>
            <trkpt lon="-105.04369497" lat="38.91755664">
                <ele>2875.0</ele>
                <time>2008-06-25T15:35:04.000Z</time>
                <name>Position 1692</name>
            </trkpt>
            <trkpt lon="-105.04382324" lat="38.91747332">
                <ele>2877.0</ele>
                <time>2008-06-25T15:35:05.000Z</time>
                <name>Position 1693</name>
            </trkpt>
            <trkpt lon="-105.04394662" lat="38.91737998">
                <ele>2877.0</ele>
                <time>2008-06-25T15:35:06.000Z</time>
                <name>Position 1694</name>
            </trkpt>
            <trkpt lon="-105.04405665" lat="38.91728163">
                <ele>2877.0</ele>
                <time>2008-06-25T15:35:07.000Z</time>
                <name>Position 1695</name>
            </trkpt>
            <trkpt lon="-105.04414999" lat="38.91717494">
                <ele>2877.0</ele>
                <time>2008-06-25T15:35:08.000Z</time>
                <name>Position 1696</name>
            </trkpt>
            <trkpt lon="-105.04421997" lat="38.9170599">
                <ele>2880.0</ele>
                <time>2008-06-25T15:35:09.000Z</time>
                <name>Position 1697</name>
            </trkpt>
            <trkpt lon="-105.04427159" lat="38.91693997">
                <ele>2880.0</ele>
                <time>2008-06-25T15:35:10.000Z</time>
                <name>Position 1698</name>
            </trkpt>
            <trkpt lon="-105.04430664" lat="38.91681492">
                <ele>2880.0</ele>
                <time>2008-06-25T15:35:11.000Z</time>
                <name>Position 1699</name>
            </trkpt>
            <trkpt lon="-105.04432833" lat="38.91668665">
                <ele>2880.0</ele>
                <time>2008-06-25T15:35:12.000Z</time>
                <name>Position 1700</name>
            </trkpt>
            <trkpt lon="-105.04434156" lat="38.91655493">
                <ele>2880.0</ele>
                <time>2008-06-25T15:35:13.000Z</time>
                <name>Position 1701</name>
            </trkpt>
            <trkpt lon="-105.04435158" lat="38.91642165">
                <ele>2880.0</ele>
                <time>2008-06-25T15:35:14.000Z</time>
                <name>Position 1702</name>
            </trkpt>
            <trkpt lon="-105.04436159" lat="38.91628993">
                <ele>2880.0</ele>
                <time>2008-06-25T15:35:15.000Z</time>
                <name>Position 1703</name>
            </trkpt>
            <trkpt lon="-105.04436994" lat="38.91615832">
                <ele>2883.0</ele>
                <time>2008-06-25T15:35:16.000Z</time>
                <name>Position 1704</name>
            </trkpt>
            <trkpt lon="-105.04437995" lat="38.9160316">
                <ele>2883.0</ele>
                <time>2008-06-25T15:35:17.000Z</time>
                <name>Position 1705</name>
            </trkpt>
            <trkpt lon="-105.04439664" lat="38.91590655">
                <ele>2883.0</ele>
                <time>2008-06-25T15:35:18.000Z</time>
                <name>Position 1706</name>
            </trkpt>
            <trkpt lon="-105.04441988" lat="38.91578496">
                <ele>2883.0</ele>
                <time>2008-06-25T15:35:19.000Z</time>
                <name>Position 1707</name>
            </trkpt>
            <trkpt lon="-105.04445493" lat="38.91566658">
                <ele>2883.0</ele>
                <time>2008-06-25T15:35:20.000Z</time>
                <name>Position 1708</name>
            </trkpt>
            <trkpt lon="-105.04451156" lat="38.91555822">
                <ele>2883.0</ele>
                <time>2008-06-25T15:35:21.000Z</time>
                <name>Position 1709</name>
            </trkpt>
            <trkpt lon="-105.04459167" lat="38.915465">
                <ele>2892.0</ele>
                <time>2008-06-25T15:35:22.000Z</time>
                <name>Position 1710</name>
            </trkpt>
            <trkpt lon="-105.04469323" lat="38.91538489">
                <ele>2878.0</ele>
                <time>2008-06-25T15:35:23.000Z</time>
                <name>Position 1711</name>
            </trkpt>
            <trkpt lon="-105.04480994" lat="38.91531825">
                <ele>2878.0</ele>
                <time>2008-06-25T15:35:24.000Z</time>
                <name>Position 1712</name>
            </trkpt>
            <trkpt lon="-105.04493666" lat="38.91525996">
                <ele>2878.0</ele>
                <time>2008-06-25T15:35:25.000Z</time>
                <name>Position 1713</name>
            </trkpt>
            <trkpt lon="-105.04506993" lat="38.91520655">
                <ele>2878.0</ele>
                <time>2008-06-25T15:35:26.000Z</time>
                <name>Position 1714</name>
            </trkpt>
            <trkpt lon="-105.04520822" lat="38.91515493">
                <ele>2878.0</ele>
                <time>2008-06-25T15:35:27.000Z</time>
                <name>Position 1715</name>
            </trkpt>
            <trkpt lon="-105.04534996" lat="38.91510832">
                <ele>2878.0</ele>
                <time>2008-06-25T15:35:28.000Z</time>
                <name>Position 1716</name>
            </trkpt>
            <trkpt lon="-105.04549658" lat="38.91506994">
                <ele>2883.0</ele>
                <time>2008-06-25T15:35:29.000Z</time>
                <name>Position 1717</name>
            </trkpt>
            <trkpt lon="-105.04564655" lat="38.9150449">
                <ele>2883.0</ele>
                <time>2008-06-25T15:35:30.000Z</time>
                <name>Position 1718</name>
            </trkpt>
            <trkpt lon="-105.04580164" lat="38.91503656">
                <ele>2883.0</ele>
                <time>2008-06-25T15:35:31.000Z</time>
                <name>Position 1719</name>
            </trkpt>
            <trkpt lon="-105.04595661" lat="38.91504657">
                <ele>2883.0</ele>
                <time>2008-06-25T15:35:32.000Z</time>
                <name>Position 1720</name>
            </trkpt>
            <trkpt lon="-105.04610825" lat="38.91506994">
                <ele>2883.0</ele>
                <time>2008-06-25T15:35:33.000Z</time>
                <name>Position 1721</name>
            </trkpt>
            <trkpt lon="-105.04625499" lat="38.91510165">
                <ele>2883.0</ele>
                <time>2008-06-25T15:35:34.000Z</time>
                <name>Position 1722</name>
            </trkpt>
            <trkpt lon="-105.04639661" lat="38.91513324">
                <ele>2883.0</ele>
                <time>2008-06-25T15:35:35.000Z</time>
                <name>Position 1723</name>
            </trkpt>
            <trkpt lon="-105.0465349" lat="38.91515827">
                <ele>2883.0</ele>
                <time>2008-06-25T15:35:36.000Z</time>
                <name>Position 1724</name>
            </trkpt>
            <trkpt lon="-105.0466733" lat="38.91517496">
                <ele>2883.0</ele>
                <time>2008-06-25T15:35:37.000Z</time>
                <name>Position 1725</name>
            </trkpt>
            <trkpt lon="-105.04681158" lat="38.91517496">
                <ele>2883.0</ele>
                <time>2008-06-25T15:35:38.000Z</time>
                <name>Position 1726</name>
            </trkpt>
            <trkpt lon="-105.04694831" lat="38.9151566">
                <ele>2883.0</ele>
                <time>2008-06-25T15:35:39.000Z</time>
                <name>Position 1727</name>
            </trkpt>
            <trkpt lon="-105.04708159" lat="38.91512156">
                <ele>2883.0</ele>
                <time>2008-06-25T15:35:40.000Z</time>
                <name>Position 1728</name>
            </trkpt>
            <trkpt lon="-105.0472033" lat="38.91507161">
                <ele>2889.0</ele>
                <time>2008-06-25T15:35:41.000Z</time>
                <name>Position 1729</name>
            </trkpt>
            <trkpt lon="-105.04730165" lat="38.91501498">
                <ele>2889.0</ele>
                <time>2008-06-25T15:35:42.000Z</time>
                <name>Position 1730</name>
            </trkpt>
            <trkpt lon="-105.04737163" lat="38.91495991">
                <ele>2889.0</ele>
                <time>2008-06-25T15:35:43.000Z</time>
                <name>Position 1731</name>
            </trkpt>
            <trkpt lon="-105.04741657" lat="38.91491663">
                <ele>2889.0</ele>
                <time>2008-06-25T15:35:44.000Z</time>
                <name>Position 1732</name>
            </trkpt>
            <trkpt lon="-105.04744661" lat="38.91488993">
                <ele>2889.0</ele>
                <time>2008-06-25T15:35:45.000Z</time>
                <name>Position 1733</name>
            </trkpt>
            <trkpt lon="-105.04746497" lat="38.91487324">
                <ele>2889.0</ele>
                <time>2008-06-25T15:35:46.000Z</time>
                <name>Position 1734</name>
            </trkpt>
            <trkpt lon="-105.04747665" lat="38.91486323">
                <ele>2889.0</ele>
                <time>2008-06-25T15:35:47.000Z</time>
                <name>Position 1735</name>
            </trkpt>
            <trkpt lon="-105.04751158" lat="38.91484165">
                <ele>2889.0</ele>
                <time>2008-06-25T15:35:54.000Z</time>
                <name>Position 1736</name>
            </trkpt>
            <trkpt lon="-105.04753661" lat="38.91483164">
                <ele>2889.0</ele>
                <time>2008-06-25T15:35:55.000Z</time>
                <name>Position 1737</name>
            </trkpt>
            <trkpt lon="-105.04757333" lat="38.91482162">
                <ele>2889.0</ele>
                <time>2008-06-25T15:35:56.000Z</time>
                <name>Position 1738</name>
            </trkpt>
            <trkpt lon="-105.04761994" lat="38.91481161">
                <ele>2889.0</ele>
                <time>2008-06-25T15:35:57.000Z</time>
                <name>Position 1739</name>
            </trkpt>
            <trkpt lon="-105.04767823" lat="38.91480327">
                <ele>2889.0</ele>
                <time>2008-06-25T15:35:58.000Z</time>
                <name>Position 1740</name>
            </trkpt>
            <trkpt lon="-105.04774499" lat="38.91479659">
                <ele>2889.0</ele>
                <time>2008-06-25T15:35:59.000Z</time>
                <name>Position 1741</name>
            </trkpt>
            <trkpt lon="-105.04781997" lat="38.91478825">
                <ele>2889.0</ele>
                <time>2008-06-25T15:36:00.000Z</time>
                <name>Position 1742</name>
            </trkpt>
            <trkpt lon="-105.0479033" lat="38.91477823">
                <ele>2889.0</ele>
                <time>2008-06-25T15:36:01.000Z</time>
                <name>Position 1743</name>
            </trkpt>
            <trkpt lon="-105.0479933" lat="38.91476488">
                <ele>2896.0</ele>
                <time>2008-06-25T15:36:02.000Z</time>
                <name>Position 1744</name>
            </trkpt>
            <trkpt lon="-105.04808664" lat="38.9147433">
                <ele>2896.0</ele>
                <time>2008-06-25T15:36:03.000Z</time>
                <name>Position 1745</name>
            </trkpt>
            <trkpt lon="-105.04818332" lat="38.91471326">
                <ele>2896.0</ele>
                <time>2008-06-25T15:36:04.000Z</time>
                <name>Position 1746</name>
            </trkpt>
            <trkpt lon="-105.04827833" lat="38.91466999">
                <ele>2896.0</ele>
                <time>2008-06-25T15:36:05.000Z</time>
                <name>Position 1747</name>
            </trkpt>
            <trkpt lon="-105.04836988" lat="38.91461492">
                <ele>2896.0</ele>
                <time>2008-06-25T15:36:06.000Z</time>
                <name>Position 1748</name>
            </trkpt>
            <trkpt lon="-105.04845655" lat="38.91454661">
                <ele>2887.0</ele>
                <time>2008-06-25T15:36:07.000Z</time>
                <name>Position 1749</name>
            </trkpt>
            <trkpt lon="-105.04853499" lat="38.91446829">
                <ele>2887.0</ele>
                <time>2008-06-25T15:36:08.000Z</time>
                <name>Position 1750</name>
            </trkpt>
            <trkpt lon="-105.0486083" lat="38.91438162">
                <ele>2887.0</ele>
                <time>2008-06-25T15:36:09.000Z</time>
                <name>Position 1751</name>
            </trkpt>
            <trkpt lon="-105.04868162" lat="38.91429162">
                <ele>2887.0</ele>
                <time>2008-06-25T15:36:10.000Z</time>
                <name>Position 1752</name>
            </trkpt>
            <trkpt lon="-105.04876161" lat="38.91420329">
                <ele>2896.0</ele>
                <time>2008-06-25T15:36:11.000Z</time>
                <name>Position 1753</name>
            </trkpt>
            <trkpt lon="-105.04885161" lat="38.91411829">
                <ele>2896.0</ele>
                <time>2008-06-25T15:36:12.000Z</time>
                <name>Position 1754</name>
            </trkpt>
            <trkpt lon="-105.04895163" lat="38.91404164">
                <ele>2896.0</ele>
                <time>2008-06-25T15:36:13.000Z</time>
                <name>Position 1755</name>
            </trkpt>
            <trkpt lon="-105.04906332" lat="38.91396999">
                <ele>2896.0</ele>
                <time>2008-06-25T15:36:14.000Z</time>
                <name>Position 1756</name>
            </trkpt>
            <trkpt lon="-105.04918492" lat="38.91390657">
                <ele>2896.0</ele>
                <time>2008-06-25T15:36:15.000Z</time>
                <name>Position 1757</name>
            </trkpt>
            <trkpt lon="-105.04931664" lat="38.91385162">
                <ele>2896.0</ele>
                <time>2008-06-25T15:36:16.000Z</time>
                <name>Position 1758</name>
            </trkpt>
            <trkpt lon="-105.0494566" lat="38.91380322">
                <ele>2896.0</ele>
                <time>2008-06-25T15:36:17.000Z</time>
                <name>Position 1759</name>
            </trkpt>
            <trkpt lon="-105.04960322" lat="38.91375828">
                <ele>2896.0</ele>
                <time>2008-06-25T15:36:18.000Z</time>
                <name>Position 1760</name>
            </trkpt>
            <trkpt lon="-105.04975665" lat="38.91371822">
                <ele>2892.0</ele>
                <time>2008-06-25T15:36:19.000Z</time>
                <name>Position 1761</name>
            </trkpt>
            <trkpt lon="-105.04990828" lat="38.91367662">
                <ele>2892.0</ele>
                <time>2008-06-25T15:36:20.000Z</time>
                <name>Position 1762</name>
            </trkpt>
            <trkpt lon="-105.05005658" lat="38.91362989">
                <ele>2892.0</ele>
                <time>2008-06-25T15:36:21.000Z</time>
                <name>Position 1763</name>
            </trkpt>
            <trkpt lon="-105.05019498" lat="38.91357493">
                <ele>2892.0</ele>
                <time>2008-06-25T15:36:22.000Z</time>
                <name>Position 1764</name>
            </trkpt>
            <trkpt lon="-105.05031824" lat="38.91350663">
                <ele>2892.0</ele>
                <time>2008-06-25T15:36:23.000Z</time>
                <name>Position 1765</name>
            </trkpt>
            <trkpt lon="-105.05041993" lat="38.91342497">
                <ele>2896.0</ele>
                <time>2008-06-25T15:36:24.000Z</time>
                <name>Position 1766</name>
            </trkpt>
            <trkpt lon="-105.05049825" lat="38.9133333">
                <ele>2896.0</ele>
                <time>2008-06-25T15:36:25.000Z</time>
                <name>Position 1767</name>
            </trkpt>
            <trkpt lon="-105.05055165" lat="38.91323161">
                <ele>2896.0</ele>
                <time>2008-06-25T15:36:26.000Z</time>
                <name>Position 1768</name>
            </trkpt>
            <trkpt lon="-105.05058324" lat="38.91312325">
                <ele>2896.0</ele>
                <time>2008-06-25T15:36:27.000Z</time>
                <name>Position 1769</name>
            </trkpt>
            <trkpt lon="-105.05060661" lat="38.91300988">
                <ele>2896.0</ele>
                <time>2008-06-25T15:36:28.000Z</time>
                <name>Position 1770</name>
            </trkpt>
            <trkpt lon="-105.05063164" lat="38.91289496">
                <ele>2893.0</ele>
                <time>2008-06-25T15:36:29.000Z</time>
                <name>Position 1771</name>
            </trkpt>
            <trkpt lon="-105.05066323" lat="38.91277826">
                <ele>2893.0</ele>
                <time>2008-06-25T15:36:30.000Z</time>
                <name>Position 1772</name>
            </trkpt>
            <trkpt lon="-105.05070662" lat="38.91266155">
                <ele>2893.0</ele>
                <time>2008-06-25T15:36:31.000Z</time>
                <name>Position 1773</name>
            </trkpt>
            <trkpt lon="-105.05076158" lat="38.91254663">
                <ele>2893.0</ele>
                <time>2008-06-25T15:36:32.000Z</time>
                <name>Position 1774</name>
            </trkpt>
            <trkpt lon="-105.05082822" lat="38.91243327">
                <ele>2893.0</ele>
                <time>2008-06-25T15:36:33.000Z</time>
                <name>Position 1775</name>
            </trkpt>
            <trkpt lon="-105.05089998" lat="38.91231823">
                <ele>2893.0</ele>
                <time>2008-06-25T15:36:34.000Z</time>
                <name>Position 1776</name>
            </trkpt>
            <trkpt lon="-105.05097663" lat="38.91220665">
                <ele>2893.0</ele>
                <time>2008-06-25T15:36:35.000Z</time>
                <name>Position 1777</name>
            </trkpt>
            <trkpt lon="-105.05105495" lat="38.91209662">
                <ele>2893.0</ele>
                <time>2008-06-25T15:36:36.000Z</time>
                <name>Position 1778</name>
            </trkpt>
            <trkpt lon="-105.05113828" lat="38.91198993">
                <ele>2890.0</ele>
                <time>2008-06-25T15:36:37.000Z</time>
                <name>Position 1779</name>
            </trkpt>
            <trkpt lon="-105.05123162" lat="38.91188991">
                <ele>2890.0</ele>
                <time>2008-06-25T15:36:38.000Z</time>
                <name>Position 1780</name>
            </trkpt>
            <trkpt lon="-105.05133498" lat="38.91179657">
                <ele>2895.0</ele>
                <time>2008-06-25T15:36:39.000Z</time>
                <name>Position 1781</name>
            </trkpt>
            <trkpt lon="-105.05144489" lat="38.91171157">
                <ele>2895.0</ele>
                <time>2008-06-25T15:36:40.000Z</time>
                <name>Position 1782</name>
            </trkpt>
            <trkpt lon="-105.05155993" lat="38.91163158">
                <ele>2895.0</ele>
                <time>2008-06-25T15:36:41.000Z</time>
                <name>Position 1783</name>
            </trkpt>
            <trkpt lon="-105.05166829" lat="38.91155326">
                <ele>2895.0</ele>
                <time>2008-06-25T15:36:42.000Z</time>
                <name>Position 1784</name>
            </trkpt>
            <trkpt lon="-105.05176497" lat="38.91146827">
                <ele>2895.0</ele>
                <time>2008-06-25T15:36:43.000Z</time>
                <name>Position 1785</name>
            </trkpt>
            <trkpt lon="-105.05184162" lat="38.9113766">
                <ele>2895.0</ele>
                <time>2008-06-25T15:36:44.000Z</time>
                <name>Position 1786</name>
            </trkpt>
            <trkpt lon="-105.05189657" lat="38.91127992">
                <ele>2895.0</ele>
                <time>2008-06-25T15:36:45.000Z</time>
                <name>Position 1787</name>
            </trkpt>
            <trkpt lon="-105.05192494" lat="38.9111799">
                <ele>2895.0</ele>
                <time>2008-06-25T15:36:46.000Z</time>
                <name>Position 1788</name>
            </trkpt>
            <trkpt lon="-105.05192494" lat="38.911075">
                <ele>2895.0</ele>
                <time>2008-06-25T15:36:47.000Z</time>
                <name>Position 1789</name>
            </trkpt>
            <trkpt lon="-105.05190158" lat="38.91096997">
                <ele>2895.0</ele>
                <time>2008-06-25T15:36:48.000Z</time>
                <name>Position 1790</name>
            </trkpt>
            <trkpt lon="-105.05186999" lat="38.91086662">
                <ele>2895.0</ele>
                <time>2008-06-25T15:36:49.000Z</time>
                <name>Position 1791</name>
            </trkpt>
            <trkpt lon="-105.05184662" lat="38.91076326">
                <ele>2895.0</ele>
                <time>2008-06-25T15:36:50.000Z</time>
                <name>Position 1792</name>
            </trkpt>
            <trkpt lon="-105.05183995" lat="38.91066158">
                <ele>2895.0</ele>
                <time>2008-06-25T15:36:51.000Z</time>
                <name>Position 1793</name>
            </trkpt>
            <trkpt lon="-105.05185664" lat="38.91055822">
                <ele>2895.0</ele>
                <time>2008-06-25T15:36:52.000Z</time>
                <name>Position 1794</name>
            </trkpt>
            <trkpt lon="-105.05189657" lat="38.91046">
                <ele>2895.0</ele>
                <time>2008-06-25T15:36:53.000Z</time>
                <name>Position 1795</name>
            </trkpt>
            <trkpt lon="-105.05195498" lat="38.91036499">
                <ele>2896.0</ele>
                <time>2008-06-25T15:36:54.000Z</time>
                <name>Position 1796</name>
            </trkpt>
            <trkpt lon="-105.05203497" lat="38.91027498">
                <ele>2896.0</ele>
                <time>2008-06-25T15:36:55.000Z</time>
                <name>Position 1797</name>
            </trkpt>
            <trkpt lon="-105.05212831" lat="38.91018999">
                <ele>2902.0</ele>
                <time>2008-06-25T15:36:56.000Z</time>
                <name>Position 1798</name>
            </trkpt>
            <trkpt lon="-105.05223489" lat="38.91011488">
                <ele>2902.0</ele>
                <time>2008-06-25T15:36:57.000Z</time>
                <name>Position 1799</name>
            </trkpt>
            <trkpt lon="-105.05235493" lat="38.91005325">
                <ele>2902.0</ele>
                <time>2008-06-25T15:36:58.000Z</time>
                <name>Position 1800</name>
            </trkpt>
            <trkpt lon="-105.05248666" lat="38.9100033">
                <ele>2902.0</ele>
                <time>2008-06-25T15:36:59.000Z</time>
                <name>Position 1801</name>
            </trkpt>
            <trkpt lon="-105.05261993" lat="38.90995991">
                <ele>2902.0</ele>
                <time>2008-06-25T15:37:00.000Z</time>
                <name>Position 1802</name>
            </trkpt>
            <trkpt lon="-105.05275333" lat="38.90992498">
                <ele>2902.0</ele>
                <time>2008-06-25T15:37:01.000Z</time>
                <name>Position 1803</name>
            </trkpt>
            <trkpt lon="-105.05288661" lat="38.90989661">
                <ele>2902.0</ele>
                <time>2008-06-25T15:37:02.000Z</time>
                <name>Position 1804</name>
            </trkpt>
            <trkpt lon="-105.05301833" lat="38.90987325">
                <ele>2902.0</ele>
                <time>2008-06-25T15:37:03.000Z</time>
                <name>Position 1805</name>
            </trkpt>
            <trkpt lon="-105.05314493" lat="38.90985155">
                <ele>2902.0</ele>
                <time>2008-06-25T15:37:04.000Z</time>
                <name>Position 1806</name>
            </trkpt>
            <trkpt lon="-105.05326831" lat="38.90982831">
                <ele>2902.0</ele>
                <time>2008-06-25T15:37:05.000Z</time>
                <name>Position 1807</name>
            </trkpt>
            <trkpt lon="-105.0533849" lat="38.90979993">
                <ele>2902.0</ele>
                <time>2008-06-25T15:37:06.000Z</time>
                <name>Position 1808</name>
            </trkpt>
            <trkpt lon="-105.05349326" lat="38.90976489">
                <ele>2902.0</ele>
                <time>2008-06-25T15:37:07.000Z</time>
                <name>Position 1809</name>
            </trkpt>
            <trkpt lon="-105.05359328" lat="38.90971828">
                <ele>2902.0</ele>
                <time>2008-06-25T15:37:08.000Z</time>
                <name>Position 1810</name>
            </trkpt>
            <trkpt lon="-105.05368328" lat="38.90965998">
                <ele>2902.0</ele>
                <time>2008-06-25T15:37:09.000Z</time>
                <name>Position 1811</name>
            </trkpt>
            <trkpt lon="-105.05376327" lat="38.90959156">
                <ele>2894.0</ele>
                <time>2008-06-25T15:37:10.000Z</time>
                <name>Position 1812</name>
            </trkpt>
            <trkpt lon="-105.05383825" lat="38.9095149">
                <ele>2908.0</ele>
                <time>2008-06-25T15:37:11.000Z</time>
                <name>Position 1813</name>
            </trkpt>
            <trkpt lon="-105.05390489" lat="38.90943325">
                <ele>2908.0</ele>
                <time>2008-06-25T15:37:12.000Z</time>
                <name>Position 1814</name>
            </trkpt>
            <trkpt lon="-105.05396831" lat="38.90934825">
                <ele>2908.0</ele>
                <time>2008-06-25T15:37:13.000Z</time>
                <name>Position 1815</name>
            </trkpt>
            <trkpt lon="-105.05402827" lat="38.90926158">
                <ele>2908.0</ele>
                <time>2008-06-25T15:37:14.000Z</time>
                <name>Position 1816</name>
            </trkpt>
            <trkpt lon="-105.05407822" lat="38.90917492">
                <ele>2908.0</ele>
                <time>2008-06-25T15:37:15.000Z</time>
                <name>Position 1817</name>
            </trkpt>
            <trkpt lon="-105.05410826" lat="38.90908492">
                <ele>2908.0</ele>
                <time>2008-06-25T15:37:16.000Z</time>
                <name>Position 1818</name>
            </trkpt>
            <trkpt lon="-105.05411494" lat="38.90899491">
                <ele>2908.0</ele>
                <time>2008-06-25T15:37:17.000Z</time>
                <name>Position 1819</name>
            </trkpt>
            <trkpt lon="-105.05409491" lat="38.90890658">
                <ele>2908.0</ele>
                <time>2008-06-25T15:37:18.000Z</time>
                <name>Position 1820</name>
            </trkpt>
            <trkpt lon="-105.05405498" lat="38.90881991">
                <ele>2908.0</ele>
                <time>2008-06-25T15:37:19.000Z</time>
                <name>Position 1821</name>
            </trkpt>
            <trkpt lon="-105.05400825" lat="38.90873325">
                <ele>2910.0</ele>
                <time>2008-06-25T15:37:20.000Z</time>
                <name>Position 1822</name>
            </trkpt>
            <trkpt lon="-105.05397165" lat="38.90863991">
                <ele>2910.0</ele>
                <time>2008-06-25T15:37:21.000Z</time>
                <name>Position 1823</name>
            </trkpt>
            <trkpt lon="-105.05395329" lat="38.90854323">
                <ele>2910.0</ele>
                <time>2008-06-25T15:37:22.000Z</time>
                <name>Position 1824</name>
            </trkpt>
            <trkpt lon="-105.05395997" lat="38.90844655">
                <ele>2910.0</ele>
                <time>2008-06-25T15:37:23.000Z</time>
                <name>Position 1825</name>
            </trkpt>
            <trkpt lon="-105.05399323" lat="38.90835667">
                <ele>2910.0</ele>
                <time>2008-06-25T15:37:24.000Z</time>
                <name>Position 1826</name>
            </trkpt>
            <trkpt lon="-105.0540483" lat="38.90827489">
                <ele>2910.0</ele>
                <time>2008-06-25T15:37:25.000Z</time>
                <name>Position 1827</name>
            </trkpt>
            <trkpt lon="-105.05412495" lat="38.90819991">
                <ele>2910.0</ele>
                <time>2008-06-25T15:37:26.000Z</time>
                <name>Position 1828</name>
            </trkpt>
            <trkpt lon="-105.05422163" lat="38.90813661">
                <ele>2910.0</ele>
                <time>2008-06-25T15:37:27.000Z</time>
                <name>Position 1829</name>
            </trkpt>
            <trkpt lon="-105.05433655" lat="38.90808499">
                <ele>2910.0</ele>
                <time>2008-06-25T15:37:28.000Z</time>
                <name>Position 1830</name>
            </trkpt>
            <trkpt lon="-105.0544616" lat="38.90804327">
                <ele>2910.0</ele>
                <time>2008-06-25T15:37:29.000Z</time>
                <name>Position 1831</name>
            </trkpt>
            <trkpt lon="-105.05459499" lat="38.90800655">
                <ele>2904.0</ele>
                <time>2008-06-25T15:37:30.000Z</time>
                <name>Position 1832</name>
            </trkpt>
            <trkpt lon="-105.05473495" lat="38.90797162">
                <ele>2904.0</ele>
                <time>2008-06-25T15:37:31.000Z</time>
                <name>Position 1833</name>
            </trkpt>
            <trkpt lon="-105.0548799" lat="38.90793657">
                <ele>2904.0</ele>
                <time>2008-06-25T15:37:32.000Z</time>
                <name>Position 1834</name>
            </trkpt>
            <trkpt lon="-105.05502832" lat="38.90789998">
                <ele>2908.0</ele>
                <time>2008-06-25T15:37:33.000Z</time>
                <name>Position 1835</name>
            </trkpt>
            <trkpt lon="-105.05517828" lat="38.90785992">
                <ele>2908.0</ele>
                <time>2008-06-25T15:37:34.000Z</time>
                <name>Position 1836</name>
            </trkpt>
            <trkpt lon="-105.05532992" lat="38.90782166">
                <ele>2908.0</ele>
                <time>2008-06-25T15:37:35.000Z</time>
                <name>Position 1837</name>
            </trkpt>
            <trkpt lon="-105.05547988" lat="38.90778327">
                <ele>2917.0</ele>
                <time>2008-06-25T15:37:36.000Z</time>
                <name>Position 1838</name>
            </trkpt>
            <trkpt lon="-105.0556283" lat="38.90774488">
                <ele>2917.0</ele>
                <time>2008-06-25T15:37:37.000Z</time>
                <name>Position 1839</name>
            </trkpt>
            <trkpt lon="-105.05576992" lat="38.90770495">
                <ele>2917.0</ele>
                <time>2008-06-25T15:37:38.000Z</time>
                <name>Position 1840</name>
            </trkpt>
            <trkpt lon="-105.05590332" lat="38.90765822">
                <ele>2917.0</ele>
                <time>2008-06-25T15:37:39.000Z</time>
                <name>Position 1841</name>
            </trkpt>
            <trkpt lon="-105.05601656" lat="38.90759993">
                <ele>2917.0</ele>
                <time>2008-06-25T15:37:40.000Z</time>
                <name>Position 1842</name>
            </trkpt>
            <trkpt lon="-105.05610824" lat="38.90752995">
                <ele>2917.0</ele>
                <time>2008-06-25T15:37:41.000Z</time>
                <name>Position 1843</name>
            </trkpt>
            <trkpt lon="-105.05617666" lat="38.90744996">
                <ele>2917.0</ele>
                <time>2008-06-25T15:37:42.000Z</time>
                <name>Position 1844</name>
            </trkpt>
            <trkpt lon="-105.0562216" lat="38.90736163">
                <ele>2917.0</ele>
                <time>2008-06-25T15:37:43.000Z</time>
                <name>Position 1845</name>
            </trkpt>
            <trkpt lon="-105.05624664" lat="38.90726829">
                <ele>2917.0</ele>
                <time>2008-06-25T15:37:44.000Z</time>
                <name>Position 1846</name>
            </trkpt>
            <trkpt lon="-105.05625331" lat="38.90717161">
                <ele>2914.0</ele>
                <time>2008-06-25T15:37:45.000Z</time>
                <name>Position 1847</name>
            </trkpt>
            <trkpt lon="-105.0562433" lat="38.90707326">
                <ele>2922.0</ele>
                <time>2008-06-25T15:37:46.000Z</time>
                <name>Position 1848</name>
            </trkpt>
            <trkpt lon="-105.05622661" lat="38.90697324">
                <ele>2922.0</ele>
                <time>2008-06-25T15:37:47.000Z</time>
                <name>Position 1849</name>
            </trkpt>
            <trkpt lon="-105.05620825" lat="38.90687323">
                <ele>2922.0</ele>
                <time>2008-06-25T15:37:48.000Z</time>
                <name>Position 1850</name>
            </trkpt>
            <trkpt lon="-105.05619156" lat="38.90677166">
                <ele>2922.0</ele>
                <time>2008-06-25T15:37:49.000Z</time>
                <name>Position 1851</name>
            </trkpt>
            <trkpt lon="-105.05617499" lat="38.90666664">
                <ele>2922.0</ele>
                <time>2008-06-25T15:37:50.000Z</time>
                <name>Position 1852</name>
            </trkpt>
            <trkpt lon="-105.05616164" lat="38.90656161">
                <ele>2922.0</ele>
                <time>2008-06-25T15:37:51.000Z</time>
                <name>Position 1853</name>
            </trkpt>
            <trkpt lon="-105.05615997" lat="38.90645659">
                <ele>2922.0</ele>
                <time>2008-06-25T15:37:52.000Z</time>
                <name>Position 1854</name>
            </trkpt>
            <trkpt lon="-105.05617166" lat="38.90635324">
                <ele>2922.0</ele>
                <time>2008-06-25T15:37:53.000Z</time>
                <name>Position 1855</name>
            </trkpt>
            <trkpt lon="-105.05620158" lat="38.90625155">
                <ele>2922.0</ele>
                <time>2008-06-25T15:37:54.000Z</time>
                <name>Position 1856</name>
            </trkpt>
            <trkpt lon="-105.05624831" lat="38.90615666">
                <ele>2921.0</ele>
                <time>2008-06-25T15:37:55.000Z</time>
                <name>Position 1857</name>
            </trkpt>
            <trkpt lon="-105.05631328" lat="38.90606499">
                <ele>2940.0</ele>
                <time>2008-06-25T15:37:56.000Z</time>
                <name>Position 1858</name>
            </trkpt>
            <trkpt lon="-105.05638993" lat="38.90597832">
                <ele>2940.0</ele>
                <time>2008-06-25T15:37:57.000Z</time>
                <name>Position 1859</name>
            </trkpt>
            <trkpt lon="-105.05647659" lat="38.90589499">
                <ele>2940.0</ele>
                <time>2008-06-25T15:37:58.000Z</time>
                <name>Position 1860</name>
            </trkpt>
            <trkpt lon="-105.05656826" lat="38.90581">
                <ele>2940.0</ele>
                <time>2008-06-25T15:37:59.000Z</time>
                <name>Position 1861</name>
            </trkpt>
            <trkpt lon="-105.05666494" lat="38.90572321">
                <ele>2940.0</ele>
                <time>2008-06-25T15:38:00.000Z</time>
                <name>Position 1862</name>
            </trkpt>
            <trkpt lon="-105.05676997" lat="38.90563822">
                <ele>2940.0</ele>
                <time>2008-06-25T15:38:01.000Z</time>
                <name>Position 1863</name>
            </trkpt>
            <trkpt lon="-105.05688488" lat="38.90555322">
                <ele>2940.0</ele>
                <time>2008-06-25T15:38:02.000Z</time>
                <name>Position 1864</name>
            </trkpt>
            <trkpt lon="-105.05700827" lat="38.9054749">
                <ele>2940.0</ele>
                <time>2008-06-25T15:38:03.000Z</time>
                <name>Position 1865</name>
            </trkpt>
            <trkpt lon="-105.057145" lat="38.90539992">
                <ele>2942.0</ele>
                <time>2008-06-25T15:38:04.000Z</time>
                <name>Position 1866</name>
            </trkpt>
            <trkpt lon="-105.05728829" lat="38.90532994">
                <ele>2942.0</ele>
                <time>2008-06-25T15:38:05.000Z</time>
                <name>Position 1867</name>
            </trkpt>
            <trkpt lon="-105.05743825" lat="38.9052633">
                <ele>2942.0</ele>
                <time>2008-06-25T15:38:06.000Z</time>
                <name>Position 1868</name>
            </trkpt>
            <trkpt lon="-105.05759323" lat="38.90519822">
                <ele>2942.0</ele>
                <time>2008-06-25T15:38:07.000Z</time>
                <name>Position 1869</name>
            </trkpt>
            <trkpt lon="-105.05774999" lat="38.90513325">
                <ele>2942.0</ele>
                <time>2008-06-25T15:38:08.000Z</time>
                <name>Position 1870</name>
            </trkpt>
            <trkpt lon="-105.05790663" lat="38.90506661">
                <ele>2942.0</ele>
                <time>2008-06-25T15:38:09.000Z</time>
                <name>Position 1871</name>
            </trkpt>
            <trkpt lon="-105.0580616" lat="38.90500164">
                <ele>2947.0</ele>
                <time>2008-06-25T15:38:10.000Z</time>
                <name>Position 1872</name>
            </trkpt>
            <trkpt lon="-105.05820322" lat="38.90493488">
                <ele>2947.0</ele>
                <time>2008-06-25T15:38:11.000Z</time>
                <name>Position 1873</name>
            </trkpt>
            <trkpt lon="-105.05832493" lat="38.90486991">
                <ele>2947.0</ele>
                <time>2008-06-25T15:38:12.000Z</time>
                <name>Position 1874</name>
            </trkpt>
            <trkpt lon="-105.05842328" lat="38.90480995">
                <ele>2947.0</ele>
                <time>2008-06-25T15:38:13.000Z</time>
                <name>Position 1875</name>
            </trkpt>
            <trkpt lon="-105.05849493" lat="38.90476322">
                <ele>2947.0</ele>
                <time>2008-06-25T15:38:14.000Z</time>
                <name>Position 1876</name>
            </trkpt>
            <trkpt lon="-105.05854666" lat="38.90472662">
                <ele>2947.0</ele>
                <time>2008-06-25T15:38:15.000Z</time>
                <name>Position 1877</name>
            </trkpt>
            <trkpt lon="-105.05858493" lat="38.90470159">
                <ele>2947.0</ele>
                <time>2008-06-25T15:38:16.000Z</time>
                <name>Position 1878</name>
            </trkpt>
            <trkpt lon="-105.05861163" lat="38.90468657">
                <ele>2947.0</ele>
                <time>2008-06-25T15:38:17.000Z</time>
                <name>Position 1879</name>
            </trkpt>
            <trkpt lon="-105.05862999" lat="38.90467656">
                <ele>2947.0</ele>
                <time>2008-06-25T15:38:18.000Z</time>
                <name>Position 1880</name>
            </trkpt>
            <trkpt lon="-105.05864155" lat="38.90466988">
                <ele>2947.0</ele>
                <time>2008-06-25T15:38:19.000Z</time>
                <name>Position 1881</name>
            </trkpt>
            <trkpt lon="-105.05861497" lat="38.90467823">
                <ele>2947.0</ele>
                <time>2008-06-25T15:41:47.000Z</time>
                <name>Position 1882</name>
            </trkpt>
            <trkpt lon="-105.05863667" lat="38.90467322">
                <ele>2947.0</ele>
                <time>2008-06-25T15:41:48.000Z</time>
                <name>Position 1883</name>
            </trkpt>
            <trkpt lon="-105.05866826" lat="38.90466499">
                <ele>2947.0</ele>
                <time>2008-06-25T15:41:49.000Z</time>
                <name>Position 1884</name>
            </trkpt>
            <trkpt lon="-105.05870998" lat="38.90465999">
                <ele>2947.0</ele>
                <time>2008-06-25T15:41:50.000Z</time>
                <name>Position 1885</name>
            </trkpt>
            <trkpt lon="-105.0587616" lat="38.90465498">
                <ele>2946.0</ele>
                <time>2008-06-25T15:41:51.000Z</time>
                <name>Position 1886</name>
            </trkpt>
            <trkpt lon="-105.0588249" lat="38.90464997">
                <ele>2946.0</ele>
                <time>2008-06-25T15:41:52.000Z</time>
                <name>Position 1887</name>
            </trkpt>
            <trkpt lon="-105.05889499" lat="38.90464497">
                <ele>2946.0</ele>
                <time>2008-06-25T15:41:53.000Z</time>
                <name>Position 1888</name>
            </trkpt>
            <trkpt lon="-105.05897665" lat="38.90463996">
                <ele>2946.0</ele>
                <time>2008-06-25T15:41:54.000Z</time>
                <name>Position 1889</name>
            </trkpt>
            <trkpt lon="-105.05906498" lat="38.90463495">
                <ele>2946.0</ele>
                <time>2008-06-25T15:41:55.000Z</time>
                <name>Position 1890</name>
            </trkpt>
            <trkpt lon="-105.05916333" lat="38.90462661">
                <ele>2946.0</ele>
                <time>2008-06-25T15:41:56.000Z</time>
                <name>Position 1891</name>
            </trkpt>
            <trkpt lon="-105.05926657" lat="38.90461993">
                <ele>2946.0</ele>
                <time>2008-06-25T15:41:57.000Z</time>
                <name>Position 1892</name>
            </trkpt>
            <trkpt lon="-105.0593766" lat="38.90461493">
                <ele>2946.0</ele>
                <time>2008-06-25T15:41:58.000Z</time>
                <name>Position 1893</name>
            </trkpt>
            <trkpt lon="-105.05949163" lat="38.90461326">
                <ele>2946.0</ele>
                <time>2008-06-25T15:41:59.000Z</time>
                <name>Position 1894</name>
            </trkpt>
            <trkpt lon="-105.05961156" lat="38.90461493">
                <ele>2947.0</ele>
                <time>2008-06-25T15:42:00.000Z</time>
                <name>Position 1895</name>
            </trkpt>
            <trkpt lon="-105.05973494" lat="38.9046216">
                <ele>2947.0</ele>
                <time>2008-06-25T15:42:01.000Z</time>
                <name>Position 1896</name>
            </trkpt>
            <trkpt lon="-105.05985999" lat="38.90462828">
                <ele>2947.0</ele>
                <time>2008-06-25T15:42:02.000Z</time>
                <name>Position 1897</name>
            </trkpt>
            <trkpt lon="-105.05998492" lat="38.90463495">
                <ele>2947.0</ele>
                <time>2008-06-25T15:42:03.000Z</time>
                <name>Position 1898</name>
            </trkpt>
            <trkpt lon="-105.06011331" lat="38.90463662">
                <ele>2947.0</ele>
                <time>2008-06-25T15:42:04.000Z</time>
                <name>Position 1899</name>
            </trkpt>
            <trkpt lon="-105.06023991" lat="38.90463495">
                <ele>2947.0</ele>
                <time>2008-06-25T15:42:05.000Z</time>
                <name>Position 1900</name>
            </trkpt>
            <trkpt lon="-105.06036997" lat="38.90462494">
                <ele>2947.0</ele>
                <time>2008-06-25T15:42:06.000Z</time>
                <name>Position 1901</name>
            </trkpt>
            <trkpt lon="-105.06049824" lat="38.90460992">
                <ele>2948.0</ele>
                <time>2008-06-25T15:42:07.000Z</time>
                <name>Position 1902</name>
            </trkpt>
            <trkpt lon="-105.06062329" lat="38.90458822">
                <ele>2948.0</ele>
                <time>2008-06-25T15:42:08.000Z</time>
                <name>Position 1903</name>
            </trkpt>
            <trkpt lon="-105.06074822" lat="38.90456164">
                <ele>2971.0</ele>
                <time>2008-06-25T15:42:09.000Z</time>
                <name>Position 1904</name>
            </trkpt>
            <trkpt lon="-105.06087327" lat="38.90453327">
                <ele>2971.0</ele>
                <time>2008-06-25T15:42:10.000Z</time>
                <name>Position 1905</name>
            </trkpt>
            <trkpt lon="-105.06099665" lat="38.90450323">
                <ele>2971.0</ele>
                <time>2008-06-25T15:42:11.000Z</time>
                <name>Position 1906</name>
            </trkpt>
            <trkpt lon="-105.06111825" lat="38.90446997">
                <ele>2971.0</ele>
                <time>2008-06-25T15:42:12.000Z</time>
                <name>Position 1907</name>
            </trkpt>
            <trkpt lon="-105.06122994" lat="38.90443325">
                <ele>2971.0</ele>
                <time>2008-06-25T15:42:13.000Z</time>
                <name>Position 1908</name>
            </trkpt>
            <trkpt lon="-105.06132329" lat="38.90438664">
                <ele>2972.0</ele>
                <time>2008-06-25T15:42:14.000Z</time>
                <name>Position 1909</name>
            </trkpt>
            <trkpt lon="-105.06138825" lat="38.9043299">
                <ele>2972.0</ele>
                <time>2008-06-25T15:42:15.000Z</time>
                <name>Position 1910</name>
            </trkpt>
            <trkpt lon="-105.06141829" lat="38.9042666">
                <ele>2972.0</ele>
                <time>2008-06-25T15:42:16.000Z</time>
                <name>Position 1911</name>
            </trkpt>
            <trkpt lon="-105.06141663" lat="38.9042033">
                <ele>2972.0</ele>
                <time>2008-06-25T15:42:17.000Z</time>
                <name>Position 1912</name>
            </trkpt>
            <trkpt lon="-105.06138825" lat="38.90414822">
                <ele>2972.0</ele>
                <time>2008-06-25T15:42:18.000Z</time>
                <name>Position 1913</name>
            </trkpt>
            <trkpt lon="-105.0613333" lat="38.90410662">
                <ele>2972.0</ele>
                <time>2008-06-25T15:42:19.000Z</time>
                <name>Position 1914</name>
            </trkpt>
            <trkpt lon="-105.06125832" lat="38.90407658">
                <ele>2972.0</ele>
                <time>2008-06-25T15:42:20.000Z</time>
                <name>Position 1915</name>
            </trkpt>
            <trkpt lon="-105.06117165" lat="38.90405333">
                <ele>2971.0</ele>
                <time>2008-06-25T15:42:21.000Z</time>
                <name>Position 1916</name>
            </trkpt>
            <trkpt lon="-105.06108332" lat="38.90402997">
                <ele>2971.0</ele>
                <time>2008-06-25T15:42:22.000Z</time>
                <name>Position 1917</name>
            </trkpt>
            <trkpt lon="-105.06099832" lat="38.90399492">
                <ele>2971.0</ele>
                <time>2008-06-25T15:42:23.000Z</time>
                <name>Position 1918</name>
            </trkpt>
            <trkpt lon="-105.06091988" lat="38.90394664">
                <ele>2971.0</ele>
                <time>2008-06-25T15:42:24.000Z</time>
                <name>Position 1919</name>
            </trkpt>
            <trkpt lon="-105.06085491" lat="38.90388823">
                <ele>2971.0</ele>
                <time>2008-06-25T15:42:25.000Z</time>
                <name>Position 1920</name>
            </trkpt>
            <trkpt lon="-105.0608083" lat="38.90381992">
                <ele>2971.0</ele>
                <time>2008-06-25T15:42:26.000Z</time>
                <name>Position 1921</name>
            </trkpt>
            <trkpt lon="-105.06077993" lat="38.90374494">
                <ele>2979.0</ele>
                <time>2008-06-25T15:42:27.000Z</time>
                <name>Position 1922</name>
            </trkpt>
            <trkpt lon="-105.06077492" lat="38.90366328">
                <ele>2979.0</ele>
                <time>2008-06-25T15:42:28.000Z</time>
                <name>Position 1923</name>
            </trkpt>
            <trkpt lon="-105.06079161" lat="38.90358162">
                <ele>2979.0</ele>
                <time>2008-06-25T15:42:29.000Z</time>
                <name>Position 1924</name>
            </trkpt>
            <trkpt lon="-105.06082666" lat="38.90350163">
                <ele>2979.0</ele>
                <time>2008-06-25T15:42:30.000Z</time>
                <name>Position 1925</name>
            </trkpt>
            <trkpt lon="-105.06086993" lat="38.90341997">
                <ele>2979.0</ele>
                <time>2008-06-25T15:42:31.000Z</time>
                <name>Position 1926</name>
            </trkpt>
            <trkpt lon="-105.06091833" lat="38.90333831">
                <ele>2979.0</ele>
                <time>2008-06-25T15:42:32.000Z</time>
                <name>Position 1927</name>
            </trkpt>
            <trkpt lon="-105.06096828" lat="38.90325665">
                <ele>2979.0</ele>
                <time>2008-06-25T15:42:33.000Z</time>
                <name>Position 1928</name>
            </trkpt>
            <trkpt lon="-105.0610199" lat="38.90317333">
                <ele>2979.0</ele>
                <time>2008-06-25T15:42:34.000Z</time>
                <name>Position 1929</name>
            </trkpt>
            <trkpt lon="-105.0610733" lat="38.90308988">
                <ele>2979.0</ele>
                <time>2008-06-25T15:42:35.000Z</time>
                <name>Position 1930</name>
            </trkpt>
            <trkpt lon="-105.06112993" lat="38.90300655">
                <ele>2979.0</ele>
                <time>2008-06-25T15:42:36.000Z</time>
                <name>Position 1931</name>
            </trkpt>
            <trkpt lon="-105.06119823" lat="38.90292656">
                <ele>2979.0</ele>
                <time>2008-06-25T15:42:37.000Z</time>
                <name>Position 1932</name>
            </trkpt>
            <trkpt lon="-105.06127656" lat="38.90285325">
                <ele>2988.0</ele>
                <time>2008-06-25T15:42:38.000Z</time>
                <name>Position 1933</name>
            </trkpt>
            <trkpt lon="-105.06136656" lat="38.90278828">
                <ele>2988.0</ele>
                <time>2008-06-25T15:42:39.000Z</time>
                <name>Position 1934</name>
            </trkpt>
            <trkpt lon="-105.06146824" lat="38.90273333">
                <ele>2988.0</ele>
                <time>2008-06-25T15:42:40.000Z</time>
                <name>Position 1935</name>
            </trkpt>
            <trkpt lon="-105.06157994" lat="38.90268993">
                <ele>2988.0</ele>
                <time>2008-06-25T15:42:41.000Z</time>
                <name>Position 1936</name>
            </trkpt>
            <trkpt lon="-105.06169999" lat="38.90265822">
                <ele>2988.0</ele>
                <time>2008-06-25T15:42:42.000Z</time>
                <name>Position 1937</name>
            </trkpt>
            <trkpt lon="-105.06182325" lat="38.90263498">
                <ele>2988.0</ele>
                <time>2008-06-25T15:42:43.000Z</time>
                <name>Position 1938</name>
            </trkpt>
            <trkpt lon="-105.06195164" lat="38.90261829">
                <ele>2988.0</ele>
                <time>2008-06-25T15:42:44.000Z</time>
                <name>Position 1939</name>
            </trkpt>
            <trkpt lon="-105.06208158" lat="38.90260327">
                <ele>2988.0</ele>
                <time>2008-06-25T15:42:45.000Z</time>
                <name>Position 1940</name>
            </trkpt>
            <trkpt lon="-105.06221163" lat="38.90258825">
                <ele>2999.0</ele>
                <time>2008-06-25T15:42:46.000Z</time>
                <name>Position 1941</name>
            </trkpt>
            <trkpt lon="-105.06234491" lat="38.90257156">
                <ele>2999.0</ele>
                <time>2008-06-25T15:42:47.000Z</time>
                <name>Position 1942</name>
            </trkpt>
            <trkpt lon="-105.06247997" lat="38.90255666">
                <ele>2999.0</ele>
                <time>2008-06-25T15:42:48.000Z</time>
                <name>Position 1943</name>
            </trkpt>
            <trkpt lon="-105.06261659" lat="38.90253997">
                <ele>2999.0</ele>
                <time>2008-06-25T15:42:49.000Z</time>
                <name>Position 1944</name>
            </trkpt>
            <trkpt lon="-105.06275666" lat="38.90252995">
                <ele>2999.0</ele>
                <time>2008-06-25T15:42:50.000Z</time>
                <name>Position 1945</name>
            </trkpt>
            <trkpt lon="-105.06290162" lat="38.90252328">
                <ele>2999.0</ele>
                <time>2008-06-25T15:42:51.000Z</time>
                <name>Position 1946</name>
            </trkpt>
            <trkpt lon="-105.06304824" lat="38.90252161">
                <ele>3004.0</ele>
                <time>2008-06-25T15:42:52.000Z</time>
                <name>Position 1947</name>
            </trkpt>
            <trkpt lon="-105.06319499" lat="38.90252161">
                <ele>3004.0</ele>
                <time>2008-06-25T15:42:53.000Z</time>
                <name>Position 1948</name>
            </trkpt>
            <trkpt lon="-105.06334162" lat="38.9025166">
                <ele>3004.0</ele>
                <time>2008-06-25T15:42:54.000Z</time>
                <name>Position 1949</name>
            </trkpt>
            <trkpt lon="-105.06348825" lat="38.90250325">
                <ele>3004.0</ele>
                <time>2008-06-25T15:42:55.000Z</time>
                <name>Position 1950</name>
            </trkpt>
            <trkpt lon="-105.06363332" lat="38.90247989">
                <ele>3004.0</ele>
                <time>2008-06-25T15:42:56.000Z</time>
                <name>Position 1951</name>
            </trkpt>
            <trkpt lon="-105.06377828" lat="38.90244663">
                <ele>3006.0</ele>
                <time>2008-06-25T15:42:57.000Z</time>
                <name>Position 1952</name>
            </trkpt>
            <trkpt lon="-105.06391656" lat="38.90240157">
                <ele>3006.0</ele>
                <time>2008-06-25T15:42:58.000Z</time>
                <name>Position 1953</name>
            </trkpt>
            <trkpt lon="-105.06404996" lat="38.90234494">
                <ele>3006.0</ele>
                <time>2008-06-25T15:42:59.000Z</time>
                <name>Position 1954</name>
            </trkpt>
            <trkpt lon="-105.06417322" lat="38.9022733">
                <ele>3006.0</ele>
                <time>2008-06-25T15:43:00.000Z</time>
                <name>Position 1955</name>
            </trkpt>
            <trkpt lon="-105.06428492" lat="38.90219164">
                <ele>3006.0</ele>
                <time>2008-06-25T15:43:01.000Z</time>
                <name>Position 1956</name>
            </trkpt>
            <trkpt lon="-105.06438661" lat="38.90209997">
                <ele>3006.0</ele>
                <time>2008-06-25T15:43:02.000Z</time>
                <name>Position 1957</name>
            </trkpt>
            <trkpt lon="-105.06448162" lat="38.90200329">
                <ele>3012.0</ele>
                <time>2008-06-25T15:43:03.000Z</time>
                <name>Position 1958</name>
            </trkpt>
            <trkpt lon="-105.06457329" lat="38.90190494">
                <ele>3012.0</ele>
                <time>2008-06-25T15:43:04.000Z</time>
                <name>Position 1959</name>
            </trkpt>
            <trkpt lon="-105.06466162" lat="38.90180826">
                <ele>3022.0</ele>
                <time>2008-06-25T15:43:05.000Z</time>
                <name>Position 1960</name>
            </trkpt>
            <trkpt lon="-105.06474328" lat="38.90170991">
                <ele>3022.0</ele>
                <time>2008-06-25T15:43:06.000Z</time>
                <name>Position 1961</name>
            </trkpt>
            <trkpt lon="-105.06481993" lat="38.9016099">
                <ele>3022.0</ele>
                <time>2008-06-25T15:43:07.000Z</time>
                <name>Position 1962</name>
            </trkpt>
            <trkpt lon="-105.06488991" lat="38.90150666">
                <ele>3022.0</ele>
                <time>2008-06-25T15:43:08.000Z</time>
                <name>Position 1963</name>
            </trkpt>
            <trkpt lon="-105.06495333" lat="38.90139997">
                <ele>3022.0</ele>
                <time>2008-06-25T15:43:09.000Z</time>
                <name>Position 1964</name>
            </trkpt>
            <trkpt lon="-105.06501162" lat="38.90129328">
                <ele>3022.0</ele>
                <time>2008-06-25T15:43:10.000Z</time>
                <name>Position 1965</name>
            </trkpt>
            <trkpt lon="-105.06506491" lat="38.90118492">
                <ele>3029.0</ele>
                <time>2008-06-25T15:43:11.000Z</time>
                <name>Position 1966</name>
            </trkpt>
            <trkpt lon="-105.06511831" lat="38.90107489">
                <ele>3029.0</ele>
                <time>2008-06-25T15:43:12.000Z</time>
                <name>Position 1967</name>
            </trkpt>
            <trkpt lon="-105.0651716" lat="38.90096498">
                <ele>3029.0</ele>
                <time>2008-06-25T15:43:13.000Z</time>
                <name>Position 1968</name>
            </trkpt>
            <trkpt lon="-105.06522489" lat="38.90085495">
                <ele>3029.0</ele>
                <time>2008-06-25T15:43:14.000Z</time>
                <name>Position 1969</name>
            </trkpt>
            <trkpt lon="-105.06527996" lat="38.90074658">
                <ele>3029.0</ele>
                <time>2008-06-25T15:43:15.000Z</time>
                <name>Position 1970</name>
            </trkpt>
            <trkpt lon="-105.06533492" lat="38.90063655">
                <ele>3029.0</ele>
                <time>2008-06-25T15:43:16.000Z</time>
                <name>Position 1971</name>
            </trkpt>
            <trkpt lon="-105.06538832" lat="38.90052664">
                <ele>3029.0</ele>
                <time>2008-06-25T15:43:17.000Z</time>
                <name>Position 1972</name>
            </trkpt>
            <trkpt lon="-105.06544161" lat="38.90041828">
                <ele>3034.0</ele>
                <time>2008-06-25T15:43:18.000Z</time>
                <name>Position 1973</name>
            </trkpt>
            <trkpt lon="-105.06549489" lat="38.90030825">
                <ele>3040.0</ele>
                <time>2008-06-25T15:43:19.000Z</time>
                <name>Position 1974</name>
            </trkpt>
            <trkpt lon="-105.0655483" lat="38.90019822">
                <ele>3040.0</ele>
                <time>2008-06-25T15:43:20.000Z</time>
                <name>Position 1975</name>
            </trkpt>
            <trkpt lon="-105.06559825" lat="38.90008998">
                <ele>3040.0</ele>
                <time>2008-06-25T15:43:21.000Z</time>
                <name>Position 1976</name>
            </trkpt>
            <trkpt lon="-105.06564999" lat="38.89997995">
                <ele>3040.0</ele>
                <time>2008-06-25T15:43:22.000Z</time>
                <name>Position 1977</name>
            </trkpt>
            <trkpt lon="-105.0657016" lat="38.89987159">
                <ele>3040.0</ele>
                <time>2008-06-25T15:43:23.000Z</time>
                <name>Position 1978</name>
            </trkpt>
            <trkpt lon="-105.06575489" lat="38.89976323">
                <ele>3040.0</ele>
                <time>2008-06-25T15:43:24.000Z</time>
                <name>Position 1979</name>
            </trkpt>
            <trkpt lon="-105.0658083" lat="38.89965332">
                <ele>3040.0</ele>
                <time>2008-06-25T15:43:25.000Z</time>
                <name>Position 1980</name>
            </trkpt>
            <trkpt lon="-105.06586158" lat="38.89954329">
                <ele>3048.0</ele>
                <time>2008-06-25T15:43:26.000Z</time>
                <name>Position 1981</name>
            </trkpt>
            <trkpt lon="-105.06591332" lat="38.89943326">
                <ele>3048.0</ele>
                <time>2008-06-25T15:43:27.000Z</time>
                <name>Position 1982</name>
            </trkpt>
            <trkpt lon="-105.06596828" lat="38.89932323">
                <ele>3048.0</ele>
                <time>2008-06-25T15:43:28.000Z</time>
                <name>Position 1983</name>
            </trkpt>
            <trkpt lon="-105.06601989" lat="38.89921331">
                <ele>3048.0</ele>
                <time>2008-06-25T15:43:29.000Z</time>
                <name>Position 1984</name>
            </trkpt>
            <trkpt lon="-105.06607163" lat="38.89910495">
                <ele>3048.0</ele>
                <time>2008-06-25T15:43:30.000Z</time>
                <name>Position 1985</name>
            </trkpt>
            <trkpt lon="-105.06611323" lat="38.89899826">
                <ele>3048.0</ele>
                <time>2008-06-25T15:43:31.000Z</time>
                <name>Position 1986</name>
            </trkpt>
            <trkpt lon="-105.0661366" lat="38.89889657">
                <ele>3048.0</ele>
                <time>2008-06-25T15:43:32.000Z</time>
                <name>Position 1987</name>
            </trkpt>
            <trkpt lon="-105.06613827" lat="38.89879823">
                <ele>3048.0</ele>
                <time>2008-06-25T15:43:33.000Z</time>
                <name>Position 1988</name>
            </trkpt>
            <trkpt lon="-105.0661149" lat="38.89870489">
                <ele>3059.0</ele>
                <time>2008-06-25T15:43:34.000Z</time>
                <name>Position 1989</name>
            </trkpt>
            <trkpt lon="-105.06606829" lat="38.89861989">
                <ele>3059.0</ele>
                <time>2008-06-25T15:43:35.000Z</time>
                <name>Position 1990</name>
            </trkpt>
            <trkpt lon="-105.06599331" lat="38.89854825">
                <ele>3059.0</ele>
                <time>2008-06-25T15:43:36.000Z</time>
                <name>Position 1991</name>
            </trkpt>
            <trkpt lon="-105.06589663" lat="38.89848995">
                <ele>3059.0</ele>
                <time>2008-06-25T15:43:37.000Z</time>
                <name>Position 1992</name>
            </trkpt>
            <trkpt lon="-105.06578994" lat="38.89844322">
                <ele>3059.0</ele>
                <time>2008-06-25T15:43:38.000Z</time>
                <name>Position 1993</name>
            </trkpt>
            <trkpt lon="-105.06568158" lat="38.89839995">
                <ele>3059.0</ele>
                <time>2008-06-25T15:43:39.000Z</time>
                <name>Position 1994</name>
            </trkpt>
            <trkpt lon="-105.06557167" lat="38.89835489">
                <ele>3059.0</ele>
                <time>2008-06-25T15:43:40.000Z</time>
                <name>Position 1995</name>
            </trkpt>
            <trkpt lon="-105.06546497" lat="38.89830661">
                <ele>3059.0</ele>
                <time>2008-06-25T15:43:41.000Z</time>
                <name>Position 1996</name>
            </trkpt>
            <trkpt lon="-105.06536329" lat="38.89824998">
                <ele>3060.0</ele>
                <time>2008-06-25T15:43:42.000Z</time>
                <name>Position 1997</name>
            </trkpt>
            <trkpt lon="-105.06526661" lat="38.89818823">
                <ele>3060.0</ele>
                <time>2008-06-25T15:43:43.000Z</time>
                <name>Position 1998</name>
            </trkpt>
            <trkpt lon="-105.06517994" lat="38.89811492">
                <ele>3060.0</ele>
                <time>2008-06-25T15:43:44.000Z</time>
                <name>Position 1999</name>
            </trkpt>
            <trkpt lon="-105.06510162" lat="38.89803827">
                <ele>3060.0</ele>
                <time>2008-06-25T15:43:45.000Z</time>
                <name>Position 2000</name>
            </trkpt>
            <trkpt lon="-105.06502998" lat="38.89795661">
                <ele>3060.0</ele>
                <time>2008-06-25T15:43:46.000Z</time>
                <name>Position 2001</name>
            </trkpt>
            <trkpt lon="-105.06496322" lat="38.89786994">
                <ele>3073.0</ele>
                <time>2008-06-25T15:43:47.000Z</time>
                <name>Position 2002</name>
            </trkpt>
            <trkpt lon="-105.0649066" lat="38.89777994">
                <ele>3073.0</ele>
                <time>2008-06-25T15:43:48.000Z</time>
                <name>Position 2003</name>
            </trkpt>
            <trkpt lon="-105.06485164" lat="38.89768827">
                <ele>3073.0</ele>
                <time>2008-06-25T15:43:49.000Z</time>
                <name>Position 2004</name>
            </trkpt>
            <trkpt lon="-105.06480658" lat="38.89759326">
                <ele>3073.0</ele>
                <time>2008-06-25T15:43:50.000Z</time>
                <name>Position 2005</name>
            </trkpt>
            <trkpt lon="-105.06476665" lat="38.89749658">
                <ele>3073.0</ele>
                <time>2008-06-25T15:43:51.000Z</time>
                <name>Position 2006</name>
            </trkpt>
            <trkpt lon="-105.06473327" lat="38.89739656">
                <ele>3073.0</ele>
                <time>2008-06-25T15:43:52.000Z</time>
                <name>Position 2007</name>
            </trkpt>
            <trkpt lon="-105.0647049" lat="38.897295">
                <ele>3073.0</ele>
                <time>2008-06-25T15:43:53.000Z</time>
                <name>Position 2008</name>
            </trkpt>
            <trkpt lon="-105.06468332" lat="38.89719164">
                <ele>3073.0</ele>
                <time>2008-06-25T15:43:54.000Z</time>
                <name>Position 2009</name>
            </trkpt>
            <trkpt lon="-105.06466329" lat="38.89708662">
                <ele>3073.0</ele>
                <time>2008-06-25T15:43:55.000Z</time>
                <name>Position 2010</name>
            </trkpt>
            <trkpt lon="-105.06463993" lat="38.89698493">
                <ele>3079.0</ele>
                <time>2008-06-25T15:43:56.000Z</time>
                <name>Position 2011</name>
            </trkpt>
            <trkpt lon="-105.064605" lat="38.89688659">
                <ele>3079.0</ele>
                <time>2008-06-25T15:43:57.000Z</time>
                <name>Position 2012</name>
            </trkpt>
            <trkpt lon="-105.0645566" lat="38.89679658">
                <ele>3082.0</ele>
                <time>2008-06-25T15:43:58.000Z</time>
                <name>Position 2013</name>
            </trkpt>
            <trkpt lon="-105.06449497" lat="38.89671493">
                <ele>3082.0</ele>
                <time>2008-06-25T15:43:59.000Z</time>
                <name>Position 2014</name>
            </trkpt>
            <trkpt lon="-105.06442165" lat="38.89664161">
                <ele>3082.0</ele>
                <time>2008-06-25T15:44:00.000Z</time>
                <name>Position 2015</name>
            </trkpt>
            <trkpt lon="-105.06433833" lat="38.89657497">
                <ele>3082.0</ele>
                <time>2008-06-25T15:44:01.000Z</time>
                <name>Position 2016</name>
            </trkpt>
            <trkpt lon="-105.06424999" lat="38.89650989">
                <ele>3082.0</ele>
                <time>2008-06-25T15:44:02.000Z</time>
                <name>Position 2017</name>
            </trkpt>
            <trkpt lon="-105.06415665" lat="38.89644659">
                <ele>3082.0</ele>
                <time>2008-06-25T15:44:03.000Z</time>
                <name>Position 2018</name>
            </trkpt>
            <trkpt lon="-105.06406164" lat="38.89638329">
                <ele>3082.0</ele>
                <time>2008-06-25T15:44:04.000Z</time>
                <name>Position 2019</name>
            </trkpt>
            <trkpt lon="-105.06396496" lat="38.89631832">
                <ele>3082.0</ele>
                <time>2008-06-25T15:44:05.000Z</time>
                <name>Position 2020</name>
            </trkpt>
            <trkpt lon="-105.06386995" lat="38.89624989">
                <ele>3101.0</ele>
                <time>2008-06-25T15:44:06.000Z</time>
                <name>Position 2021</name>
            </trkpt>
            <trkpt lon="-105.06377828" lat="38.89618158">
                <ele>3101.0</ele>
                <time>2008-06-25T15:44:07.000Z</time>
                <name>Position 2022</name>
            </trkpt>
            <trkpt lon="-105.06368828" lat="38.8961066">
                <ele>3097.0</ele>
                <time>2008-06-25T15:44:08.000Z</time>
                <name>Position 2023</name>
            </trkpt>
            <trkpt lon="-105.06360161" lat="38.89602828">
                <ele>3097.0</ele>
                <time>2008-06-25T15:44:09.000Z</time>
                <name>Position 2024</name>
            </trkpt>
            <trkpt lon="-105.06352162" lat="38.89594662">
                <ele>3097.0</ele>
                <time>2008-06-25T15:44:10.000Z</time>
                <name>Position 2025</name>
            </trkpt>
            <trkpt lon="-105.0634433" lat="38.89585996">
                <ele>3097.0</ele>
                <time>2008-06-25T15:44:11.000Z</time>
                <name>Position 2026</name>
            </trkpt>
            <trkpt lon="-105.06336665" lat="38.89577496">
                <ele>3097.0</ele>
                <time>2008-06-25T15:44:12.000Z</time>
                <name>Position 2027</name>
            </trkpt>
            <trkpt lon="-105.06329155" lat="38.89568996">
                <ele>3097.0</ele>
                <time>2008-06-25T15:44:13.000Z</time>
                <name>Position 2028</name>
            </trkpt>
            <trkpt lon="-105.06321323" lat="38.89561164">
                <ele>3097.0</ele>
                <time>2008-06-25T15:44:14.000Z</time>
                <name>Position 2029</name>
            </trkpt>
            <trkpt lon="-105.06312823" lat="38.89554">
                <ele>3097.0</ele>
                <time>2008-06-25T15:44:15.000Z</time>
                <name>Position 2030</name>
            </trkpt>
            <trkpt lon="-105.06303322" lat="38.89547157">
                <ele>3097.0</ele>
                <time>2008-06-25T15:44:16.000Z</time>
                <name>Position 2031</name>
            </trkpt>
            <trkpt lon="-105.06293166" lat="38.89541328">
                <ele>3123.0</ele>
                <time>2008-06-25T15:44:17.000Z</time>
                <name>Position 2032</name>
            </trkpt>
            <trkpt lon="-105.06282663" lat="38.89537156">
                <ele>3120.0</ele>
                <time>2008-06-25T15:44:18.000Z</time>
                <name>Position 2033</name>
            </trkpt>
            <trkpt lon="-105.06272328" lat="38.8953383">
                <ele>3120.0</ele>
                <time>2008-06-25T15:44:19.000Z</time>
                <name>Position 2034</name>
            </trkpt>
            <trkpt lon="-105.06261992" lat="38.89531326">
                <ele>3120.0</ele>
                <time>2008-06-25T15:44:20.000Z</time>
                <name>Position 2035</name>
            </trkpt>
            <trkpt lon="-105.0625149" lat="38.89529991">
                <ele>3120.0</ele>
                <time>2008-06-25T15:44:21.000Z</time>
                <name>Position 2036</name>
            </trkpt>
            <trkpt lon="-105.06240666" lat="38.89530659">
                <ele>3120.0</ele>
                <time>2008-06-25T15:44:22.000Z</time>
                <name>Position 2037</name>
            </trkpt>
            <trkpt lon="-105.0622983" lat="38.89532661">
                <ele>3120.0</ele>
                <time>2008-06-25T15:44:23.000Z</time>
                <name>Position 2038</name>
            </trkpt>
            <trkpt lon="-105.06218994" lat="38.89533496">
                <ele>3120.0</ele>
                <time>2008-06-25T15:44:24.000Z</time>
                <name>Position 2039</name>
            </trkpt>
            <trkpt lon="-105.06208992" lat="38.89532995">
                <ele>3120.0</ele>
                <time>2008-06-25T15:44:25.000Z</time>
                <name>Position 2040</name>
            </trkpt>
            <trkpt lon="-105.06200492" lat="38.89531994">
                <ele>3127.0</ele>
                <time>2008-06-25T15:44:26.000Z</time>
                <name>Position 2041</name>
            </trkpt>
            <trkpt lon="-105.06197" lat="38.89529657">
                <ele>3127.0</ele>
                <time>2008-06-25T15:44:27.000Z</time>
                <name>Position 2042</name>
            </trkpt>
            <trkpt lon="-105.06197166" lat="38.89525831">
                <ele>3127.0</ele>
                <time>2008-06-25T15:44:28.000Z</time>
                <name>Position 2043</name>
            </trkpt>
            <trkpt lon="-105.06201327" lat="38.89521825">
                <ele>3127.0</ele>
                <time>2008-06-25T15:44:29.000Z</time>
                <name>Position 2044</name>
            </trkpt>
            <trkpt lon="-105.06208658" lat="38.89518499">
                <ele>3120.0</ele>
                <time>2008-06-25T15:44:30.000Z</time>
                <name>Position 2045</name>
            </trkpt>
            <trkpt lon="-105.06217492" lat="38.89515829">
                <ele>3120.0</ele>
                <time>2008-06-25T15:44:31.000Z</time>
                <name>Position 2046</name>
            </trkpt>
            <trkpt lon="-105.06227493" lat="38.89513826">
                <ele>3120.0</ele>
                <time>2008-06-25T15:44:32.000Z</time>
                <name>Position 2047</name>
            </trkpt>
            <trkpt lon="-105.06237996" lat="38.89511824">
                <ele>3120.0</ele>
                <time>2008-06-25T15:44:33.000Z</time>
                <name>Position 2048</name>
            </trkpt>
            <trkpt lon="-105.06249166" lat="38.89509833">
                <ele>3120.0</ele>
                <time>2008-06-25T15:44:34.000Z</time>
                <name>Position 2049</name>
            </trkpt>
            <trkpt lon="-105.06260824" lat="38.8950783">
                <ele>3120.0</ele>
                <time>2008-06-25T15:44:35.000Z</time>
                <name>Position 2050</name>
            </trkpt>
            <trkpt lon="-105.06272495" lat="38.89506495">
                <ele>3120.0</ele>
                <time>2008-06-25T15:44:36.000Z</time>
                <name>Position 2051</name>
            </trkpt>
            <trkpt lon="-105.0628283" lat="38.8950516">
                <ele>3120.0</ele>
                <time>2008-06-25T15:44:37.000Z</time>
                <name>Position 2052</name>
            </trkpt>
            <trkpt lon="-105.06290662" lat="38.89503992">
                <ele>3120.0</ele>
                <time>2008-06-25T15:44:38.000Z</time>
                <name>Position 2053</name>
            </trkpt>
            <trkpt lon="-105.06295824" lat="38.89503491">
                <ele>3123.0</ele>
                <time>2008-06-25T15:44:39.000Z</time>
                <name>Position 2054</name>
            </trkpt>
            <trkpt lon="-105.06298494" lat="38.89503157">
                <ele>3123.0</ele>
                <time>2008-06-25T15:44:40.000Z</time>
                <name>Position 2055</name>
            </trkpt>
            <trkpt lon="-105.06300163" lat="38.89502656">
                <ele>3123.0</ele>
                <time>2008-06-25T15:44:41.000Z</time>
                <name>Position 2056</name>
            </trkpt>
            <trkpt lon="-105.06301999" lat="38.89501822">
                <ele>3123.0</ele>
                <time>2008-06-25T15:44:42.000Z</time>
                <name>Position 2057</name>
            </trkpt>
            <trkpt lon="-105.06304491" lat="38.89500332">
                <ele>3123.0</ele>
                <time>2008-06-25T15:44:43.000Z</time>
                <name>Position 2058</name>
            </trkpt>
            <trkpt lon="-105.0630666" lat="38.89497828">
                <ele>3123.0</ele>
                <time>2008-06-25T15:44:44.000Z</time>
                <name>Position 2059</name>
            </trkpt>
            <trkpt lon="-105.06307995" lat="38.89495158">
                <ele>3123.0</ele>
                <time>2008-06-25T15:44:45.000Z</time>
                <name>Position 2060</name>
            </trkpt>
            <trkpt lon="-105.06307828" lat="38.89492333">
                <ele>3123.0</ele>
                <time>2008-06-25T15:44:46.000Z</time>
                <name>Position 2061</name>
            </trkpt>
            <trkpt lon="-105.06306159" lat="38.89489663">
                <ele>3123.0</ele>
                <time>2008-06-25T15:44:47.000Z</time>
                <name>Position 2062</name>
            </trkpt>
            <trkpt lon="-105.06303489" lat="38.89487493">
                <ele>3123.0</ele>
                <time>2008-06-25T15:44:48.000Z</time>
                <name>Position 2063</name>
            </trkpt>
            <trkpt lon="-105.06300497" lat="38.89486492">
                <ele>3123.0</ele>
                <time>2008-06-25T15:44:49.000Z</time>
                <name>Position 2064</name>
            </trkpt>
            <trkpt lon="-105.06297827" lat="38.89487326">
                <ele>3123.0</ele>
                <time>2008-06-25T15:44:50.000Z</time>
                <name>Position 2065</name>
            </trkpt>
            <trkpt lon="-105.06296158" lat="38.89489162">
                <ele>3123.0</ele>
                <time>2008-06-25T15:44:51.000Z</time>
                <name>Position 2066</name>
            </trkpt>
            <trkpt lon="-105.06295657" lat="38.89490998">
                <ele>3123.0</ele>
                <time>2008-06-25T15:44:52.000Z</time>
                <name>Position 2067</name>
            </trkpt>
            <trkpt lon="-105.06294656" lat="38.89497828">
                <ele>3123.0</ele>
                <time>2008-06-25T15:47:17.000Z</time>
                <name>Position 2068</name>
            </trkpt>
            <trkpt lon="-105.06295657" lat="38.89499164">
                <ele>3123.0</ele>
                <time>2008-06-25T15:47:18.000Z</time>
                <name>Position 2069</name>
            </trkpt>
            <trkpt lon="-105.06297326" lat="38.89500666">
                <ele>3123.0</ele>
                <time>2008-06-25T15:47:19.000Z</time>
                <name>Position 2070</name>
            </trkpt>
            <trkpt lon="-105.06299663" lat="38.89501655">
                <ele>3123.0</ele>
                <time>2008-06-25T15:47:20.000Z</time>
                <name>Position 2071</name>
            </trkpt>
            <trkpt lon="-105.06302667" lat="38.89502323">
                <ele>3123.0</ele>
                <time>2008-06-25T15:47:21.000Z</time>
                <name>Position 2072</name>
            </trkpt>
            <trkpt lon="-105.06306326" lat="38.8950299">
                <ele>3123.0</ele>
                <time>2008-06-25T15:47:22.000Z</time>
                <name>Position 2073</name>
            </trkpt>
            <trkpt lon="-105.06310332" lat="38.89503491">
                <ele>3123.0</ele>
                <time>2008-06-25T15:47:23.000Z</time>
                <name>Position 2074</name>
            </trkpt>
            <trkpt lon="-105.06314993" lat="38.89504158">
                <ele>3123.0</ele>
                <time>2008-06-25T15:47:24.000Z</time>
                <name>Position 2075</name>
            </trkpt>
            <trkpt lon="-105.0632" lat="38.89504492">
                <ele>3123.0</ele>
                <time>2008-06-25T15:47:25.000Z</time>
                <name>Position 2076</name>
            </trkpt>
            <trkpt lon="-105.06325495" lat="38.89504826">
                <ele>3123.0</ele>
                <time>2008-06-25T15:47:26.000Z</time>
                <name>Position 2077</name>
            </trkpt>
            <trkpt lon="-105.06331158" lat="38.89504993">
                <ele>3123.0</ele>
                <time>2008-06-25T15:47:27.000Z</time>
                <name>Position 2078</name>
            </trkpt>
            <trkpt lon="-105.06337333" lat="38.8950516">
                <ele>3123.0</ele>
                <time>2008-06-25T15:47:28.000Z</time>
                <name>Position 2079</name>
            </trkpt>
            <trkpt lon="-105.06343663" lat="38.89505494">
                <ele>3123.0</ele>
                <time>2008-06-25T15:47:29.000Z</time>
                <name>Position 2080</name>
            </trkpt>
            <trkpt lon="-105.06350327" lat="38.89505494">
                <ele>3123.0</ele>
                <time>2008-06-25T15:47:30.000Z</time>
                <name>Position 2081</name>
            </trkpt>
            <trkpt lon="-105.06357157" lat="38.89505494">
                <ele>3123.0</ele>
                <time>2008-06-25T15:47:31.000Z</time>
                <name>Position 2082</name>
            </trkpt>
            <trkpt lon="-105.06364322" lat="38.8950516">
                <ele>3123.0</ele>
                <time>2008-06-25T15:47:32.000Z</time>
                <name>Position 2083</name>
            </trkpt>
            <trkpt lon="-105.06371665" lat="38.89504325">
                <ele>3123.0</ele>
                <time>2008-06-25T15:47:33.000Z</time>
                <name>Position 2084</name>
            </trkpt>
            <trkpt lon="-105.06379163" lat="38.89502656">
                <ele>3120.0</ele>
                <time>2008-06-25T15:47:34.000Z</time>
                <name>Position 2085</name>
            </trkpt>
            <trkpt lon="-105.06386662" lat="38.89500332">
                <ele>3120.0</ele>
                <time>2008-06-25T15:47:35.000Z</time>
                <name>Position 2086</name>
            </trkpt>
            <trkpt lon="-105.06393993" lat="38.89497662">
                <ele>3120.0</ele>
                <time>2008-06-25T15:47:36.000Z</time>
                <name>Position 2087</name>
            </trkpt>
            <trkpt lon="-105.06401157" lat="38.89494324">
                <ele>3120.0</ele>
                <time>2008-06-25T15:47:37.000Z</time>
                <name>Position 2088</name>
            </trkpt>
            <trkpt lon="-105.06408155" lat="38.89489996">
                <ele>3120.0</ele>
                <time>2008-06-25T15:47:38.000Z</time>
                <name>Position 2089</name>
            </trkpt>
            <trkpt lon="-105.06414664" lat="38.8948499">
                <ele>3120.0</ele>
                <time>2008-06-25T15:47:39.000Z</time>
                <name>Position 2090</name>
            </trkpt>
            <trkpt lon="-105.06420827" lat="38.89479327">
                <ele>3120.0</ele>
                <time>2008-06-25T15:47:40.000Z</time>
                <name>Position 2091</name>
            </trkpt>
            <trkpt lon="-105.06426489" lat="38.89473164">
                <ele>3120.0</ele>
                <time>2008-06-25T15:47:41.000Z</time>
                <name>Position 2092</name>
            </trkpt>
            <trkpt lon="-105.0643183" lat="38.89466321">
                <ele>3120.0</ele>
                <time>2008-06-25T15:47:42.000Z</time>
                <name>Position 2093</name>
            </trkpt>
            <trkpt lon="-105.06436658" lat="38.89459324">
                <ele>3120.0</ele>
                <time>2008-06-25T15:47:43.000Z</time>
                <name>Position 2094</name>
            </trkpt>
            <trkpt lon="-105.06441331" lat="38.89451993">
                <ele>3146.0</ele>
                <time>2008-06-25T15:47:44.000Z</time>
                <name>Position 2095</name>
            </trkpt>
            <trkpt lon="-105.06445491" lat="38.89444494">
                <ele>3146.0</ele>
                <time>2008-06-25T15:47:45.000Z</time>
                <name>Position 2096</name>
            </trkpt>
            <trkpt lon="-105.06449664" lat="38.89437163">
                <ele>3146.0</ele>
                <time>2008-06-25T15:47:46.000Z</time>
                <name>Position 2097</name>
            </trkpt>
            <trkpt lon="-105.06453824" lat="38.89429665">
                <ele>3146.0</ele>
                <time>2008-06-25T15:47:47.000Z</time>
                <name>Position 2098</name>
            </trkpt>
            <trkpt lon="-105.06457996" lat="38.89422166">
                <ele>3146.0</ele>
                <time>2008-06-25T15:47:48.000Z</time>
                <name>Position 2099</name>
            </trkpt>
            <trkpt lon="-105.06462157" lat="38.89414656">
                <ele>3132.0</ele>
                <time>2008-06-25T15:47:49.000Z</time>
                <name>Position 2100</name>
            </trkpt>
            <trkpt lon="-105.06466329" lat="38.89407158">
                <ele>3132.0</ele>
                <time>2008-06-25T15:47:50.000Z</time>
                <name>Position 2101</name>
            </trkpt>
            <trkpt lon="-105.06470823" lat="38.8939966">
                <ele>3132.0</ele>
                <time>2008-06-25T15:47:51.000Z</time>
                <name>Position 2102</name>
            </trkpt>
            <trkpt lon="-105.06475329" lat="38.89391994">
                <ele>3132.0</ele>
                <time>2008-06-25T15:47:52.000Z</time>
                <name>Position 2103</name>
            </trkpt>
            <trkpt lon="-105.06480324" lat="38.89384496">
                <ele>3132.0</ele>
                <time>2008-06-25T15:47:53.000Z</time>
                <name>Position 2104</name>
            </trkpt>
            <trkpt lon="-105.06485832" lat="38.89376998">
                <ele>3132.0</ele>
                <time>2008-06-25T15:47:54.000Z</time>
                <name>Position 2105</name>
            </trkpt>
            <trkpt lon="-105.06491995" lat="38.89369988">
                <ele>3160.0</ele>
                <time>2008-06-25T15:47:55.000Z</time>
                <name>Position 2106</name>
            </trkpt>
            <trkpt lon="-105.06498492" lat="38.89363158">
                <ele>3160.0</ele>
                <time>2008-06-25T15:47:56.000Z</time>
                <name>Position 2107</name>
            </trkpt>
            <trkpt lon="-105.06505823" lat="38.89356494">
                <ele>3160.0</ele>
                <time>2008-06-25T15:47:57.000Z</time>
                <name>Position 2108</name>
            </trkpt>
            <trkpt lon="-105.06513488" lat="38.89350331">
                <ele>3160.0</ele>
                <time>2008-06-25T15:47:58.000Z</time>
                <name>Position 2109</name>
            </trkpt>
            <trkpt lon="-105.06521666" lat="38.89344156">
                <ele>3160.0</ele>
                <time>2008-06-25T15:47:59.000Z</time>
                <name>Position 2110</name>
            </trkpt>
            <trkpt lon="-105.06530166" lat="38.8933816">
                <ele>3160.0</ele>
                <time>2008-06-25T15:48:00.000Z</time>
                <name>Position 2111</name>
            </trkpt>
            <trkpt lon="-105.06538999" lat="38.89332163">
                <ele>3160.0</ele>
                <time>2008-06-25T15:48:01.000Z</time>
                <name>Position 2112</name>
            </trkpt>
            <trkpt lon="-105.06547666" lat="38.89326155">
                <ele>3149.0</ele>
                <time>2008-06-25T15:48:02.000Z</time>
                <name>Position 2113</name>
            </trkpt>
            <trkpt lon="-105.06556499" lat="38.89319992">
                <ele>3149.0</ele>
                <time>2008-06-25T15:48:03.000Z</time>
                <name>Position 2114</name>
            </trkpt>
            <trkpt lon="-105.06565166" lat="38.89313662">
                <ele>3149.0</ele>
                <time>2008-06-25T15:48:04.000Z</time>
                <name>Position 2115</name>
            </trkpt>
            <trkpt lon="-105.06573498" lat="38.89306831">
                <ele>3149.0</ele>
                <time>2008-06-25T15:48:05.000Z</time>
                <name>Position 2116</name>
            </trkpt>
            <trkpt lon="-105.06581831" lat="38.89299989">
                <ele>3149.0</ele>
                <time>2008-06-25T15:48:06.000Z</time>
                <name>Position 2117</name>
            </trkpt>
            <trkpt lon="-105.06590497" lat="38.89293492">
                <ele>3149.0</ele>
                <time>2008-06-25T15:48:07.000Z</time>
                <name>Position 2118</name>
            </trkpt>
            <trkpt lon="-105.06599665" lat="38.89287663">
                <ele>3177.0</ele>
                <time>2008-06-25T15:48:08.000Z</time>
                <name>Position 2119</name>
            </trkpt>
            <trkpt lon="-105.06609499" lat="38.89282656">
                <ele>3177.0</ele>
                <time>2008-06-25T15:48:09.000Z</time>
                <name>Position 2120</name>
            </trkpt>
            <trkpt lon="-105.06620157" lat="38.89278996">
                <ele>3177.0</ele>
                <time>2008-06-25T15:48:10.000Z</time>
                <name>Position 2121</name>
            </trkpt>
            <trkpt lon="-105.0663166" lat="38.89276659">
                <ele>3177.0</ele>
                <time>2008-06-25T15:48:11.000Z</time>
                <name>Position 2122</name>
            </trkpt>
            <trkpt lon="-105.06643498" lat="38.89275825">
                <ele>3177.0</ele>
                <time>2008-06-25T15:48:12.000Z</time>
                <name>Position 2123</name>
            </trkpt>
            <trkpt lon="-105.06654656" lat="38.89277995">
                <ele>3177.0</ele>
                <time>2008-06-25T15:48:13.000Z</time>
                <name>Position 2124</name>
            </trkpt>
            <trkpt lon="-105.06664658" lat="38.89283657">
                <ele>3177.0</ele>
                <time>2008-06-25T15:48:14.000Z</time>
                <name>Position 2125</name>
            </trkpt>
            <trkpt lon="-105.06673324" lat="38.89290822">
                <ele>3177.0</ele>
                <time>2008-06-25T15:48:15.000Z</time>
                <name>Position 2126</name>
            </trkpt>
            <trkpt lon="-105.06681323" lat="38.89298332">
                <ele>3160.0</ele>
                <time>2008-06-25T15:48:16.000Z</time>
                <name>Position 2127</name>
            </trkpt>
            <trkpt lon="-105.06688499" lat="38.89306664">
                <ele>3160.0</ele>
                <time>2008-06-25T15:48:17.000Z</time>
                <name>Position 2128</name>
            </trkpt>
            <trkpt lon="-105.06694996" lat="38.89315164">
                <ele>3160.0</ele>
                <time>2008-06-25T15:48:18.000Z</time>
                <name>Position 2129</name>
            </trkpt>
            <trkpt lon="-105.06701326" lat="38.89323497">
                <ele>3160.0</ele>
                <time>2008-06-25T15:48:19.000Z</time>
                <name>Position 2130</name>
            </trkpt>
            <trkpt lon="-105.06707489" lat="38.89331996">
                <ele>3160.0</ele>
                <time>2008-06-25T15:48:20.000Z</time>
                <name>Position 2131</name>
            </trkpt>
            <trkpt lon="-105.06713665" lat="38.89340496">
                <ele>3177.0</ele>
                <time>2008-06-25T15:48:21.000Z</time>
                <name>Position 2132</name>
            </trkpt>
            <trkpt lon="-105.06719661" lat="38.89348161">
                <ele>3177.0</ele>
                <time>2008-06-25T15:48:22.000Z</time>
                <name>Position 2133</name>
            </trkpt>
            <trkpt lon="-105.06725824" lat="38.89354825">
                <ele>3177.0</ele>
                <time>2008-06-25T15:48:23.000Z</time>
                <name>Position 2134</name>
            </trkpt>
            <trkpt lon="-105.06732333" lat="38.89360166">
                <ele>3177.0</ele>
                <time>2008-06-25T15:48:24.000Z</time>
                <name>Position 2135</name>
            </trkpt>
            <trkpt lon="-105.06739497" lat="38.89364326">
                <ele>3177.0</ele>
                <time>2008-06-25T15:48:25.000Z</time>
                <name>Position 2136</name>
            </trkpt>
            <trkpt lon="-105.06747329" lat="38.89367664">
                <ele>3177.0</ele>
                <time>2008-06-25T15:48:26.000Z</time>
                <name>Position 2137</name>
            </trkpt>
            <trkpt lon="-105.06755996" lat="38.89369822">
                <ele>3177.0</ele>
                <time>2008-06-25T15:48:27.000Z</time>
                <name>Position 2138</name>
            </trkpt>
            <trkpt lon="-105.06765163" lat="38.8937099">
                <ele>3177.0</ele>
                <time>2008-06-25T15:48:28.000Z</time>
                <name>Position 2139</name>
            </trkpt>
            <trkpt lon="-105.06774831" lat="38.89370823">
                <ele>3177.0</ele>
                <time>2008-06-25T15:48:29.000Z</time>
                <name>Position 2140</name>
            </trkpt>
            <trkpt lon="-105.06784832" lat="38.89369822">
                <ele>3177.0</ele>
                <time>2008-06-25T15:48:30.000Z</time>
                <name>Position 2141</name>
            </trkpt>
            <trkpt lon="-105.06794822" lat="38.89367664">
                <ele>3181.0</ele>
                <time>2008-06-25T15:48:31.000Z</time>
                <name>Position 2142</name>
            </trkpt>
            <trkpt lon="-105.06804824" lat="38.8936466">
                <ele>3181.0</ele>
                <time>2008-06-25T15:48:32.000Z</time>
                <name>Position 2143</name>
            </trkpt>
            <trkpt lon="-105.06814492" lat="38.89360666">
                <ele>3181.0</ele>
                <time>2008-06-25T15:48:33.000Z</time>
                <name>Position 2144</name>
            </trkpt>
            <trkpt lon="-105.06823993" lat="38.8935616">
                <ele>3181.0</ele>
                <time>2008-06-25T15:48:34.000Z</time>
                <name>Position 2145</name>
            </trkpt>
            <trkpt lon="-105.0683316" lat="38.89350998">
                <ele>3181.0</ele>
                <time>2008-06-25T15:48:35.000Z</time>
                <name>Position 2146</name>
            </trkpt>
            <trkpt lon="-105.0684216" lat="38.89345324">
                <ele>3181.0</ele>
                <time>2008-06-25T15:48:36.000Z</time>
                <name>Position 2147</name>
            </trkpt>
            <trkpt lon="-105.06850827" lat="38.89339328">
                <ele>3181.0</ele>
                <time>2008-06-25T15:48:37.000Z</time>
                <name>Position 2148</name>
            </trkpt>
            <trkpt lon="-105.06859159" lat="38.89332497">
                <ele>3181.0</ele>
                <time>2008-06-25T15:48:38.000Z</time>
                <name>Position 2149</name>
            </trkpt>
            <trkpt lon="-105.06866324" lat="38.89325333">
                <ele>3181.0</ele>
                <time>2008-06-25T15:48:39.000Z</time>
                <name>Position 2150</name>
            </trkpt>
            <trkpt lon="-105.06871998" lat="38.89317322">
                <ele>3181.0</ele>
                <time>2008-06-25T15:48:40.000Z</time>
                <name>Position 2151</name>
            </trkpt>
            <trkpt lon="-105.06875825" lat="38.89308822">
                <ele>3168.0</ele>
                <time>2008-06-25T15:48:41.000Z</time>
                <name>Position 2152</name>
            </trkpt>
            <trkpt lon="-105.06877828" lat="38.89299989">
                <ele>3168.0</ele>
                <time>2008-06-25T15:48:42.000Z</time>
                <name>Position 2153</name>
            </trkpt>
            <trkpt lon="-105.06878161" lat="38.89290822">
                <ele>3190.0</ele>
                <time>2008-06-25T15:48:43.000Z</time>
                <name>Position 2154</name>
            </trkpt>
            <trkpt lon="-105.06876993" lat="38.89281499">
                <ele>3190.0</ele>
                <time>2008-06-25T15:48:44.000Z</time>
                <name>Position 2155</name>
            </trkpt>
            <trkpt lon="-105.06874156" lat="38.89272332">
                <ele>3197.0</ele>
                <time>2008-06-25T15:48:45.000Z</time>
                <name>Position 2156</name>
            </trkpt>
            <trkpt lon="-105.06869829" lat="38.89263666">
                <ele>3197.0</ele>
                <time>2008-06-25T15:48:46.000Z</time>
                <name>Position 2157</name>
            </trkpt>
            <trkpt lon="-105.06863666" lat="38.89255333">
                <ele>3197.0</ele>
                <time>2008-06-25T15:48:47.000Z</time>
                <name>Position 2158</name>
            </trkpt>
            <trkpt lon="-105.06855989" lat="38.8924799">
                <ele>3197.0</ele>
                <time>2008-06-25T15:48:48.000Z</time>
                <name>Position 2159</name>
            </trkpt>
            <trkpt lon="-105.06847656" lat="38.89241827">
                <ele>3197.0</ele>
                <time>2008-06-25T15:48:49.000Z</time>
                <name>Position 2160</name>
            </trkpt>
            <trkpt lon="-105.06838322" lat="38.89236999">
                <ele>3197.0</ele>
                <time>2008-06-25T15:48:50.000Z</time>
                <name>Position 2161</name>
            </trkpt>
            <trkpt lon="-105.06828666" lat="38.8923316">
                <ele>3197.0</ele>
                <time>2008-06-25T15:48:51.000Z</time>
                <name>Position 2162</name>
            </trkpt>
            <trkpt lon="-105.06818664" lat="38.89229989">
                <ele>3197.0</ele>
                <time>2008-06-25T15:48:52.000Z</time>
                <name>Position 2163</name>
            </trkpt>
            <trkpt lon="-105.06809163" lat="38.89226496">
                <ele>3197.0</ele>
                <time>2008-06-25T15:48:53.000Z</time>
                <name>Position 2164</name>
            </trkpt>
            <trkpt lon="-105.06800163" lat="38.89222324">
                <ele>3197.0</ele>
                <time>2008-06-25T15:48:54.000Z</time>
                <name>Position 2165</name>
            </trkpt>
            <trkpt lon="-105.06792164" lat="38.89217162">
                <ele>3197.0</ele>
                <time>2008-06-25T15:48:55.000Z</time>
                <name>Position 2166</name>
            </trkpt>
            <trkpt lon="-105.06784999" lat="38.89211166">
                <ele>3188.0</ele>
                <time>2008-06-25T15:48:56.000Z</time>
                <name>Position 2167</name>
            </trkpt>
            <trkpt lon="-105.06779325" lat="38.8920449">
                <ele>3208.0</ele>
                <time>2008-06-25T15:48:57.000Z</time>
                <name>Position 2168</name>
            </trkpt>
            <trkpt lon="-105.06775165" lat="38.89196825">
                <ele>3208.0</ele>
                <time>2008-06-25T15:48:58.000Z</time>
                <name>Position 2169</name>
            </trkpt>
            <trkpt lon="-105.06772327" lat="38.89188325">
                <ele>3208.0</ele>
                <time>2008-06-25T15:48:59.000Z</time>
                <name>Position 2170</name>
            </trkpt>
            <trkpt lon="-105.06770492" lat="38.89179325">
                <ele>3208.0</ele>
                <time>2008-06-25T15:49:00.000Z</time>
                <name>Position 2171</name>
            </trkpt>
            <trkpt lon="-105.06768489" lat="38.89170158">
                <ele>3208.0</ele>
                <time>2008-06-25T15:49:01.000Z</time>
                <name>Position 2172</name>
            </trkpt>
            <trkpt lon="-105.06765831" lat="38.89161158">
                <ele>3208.0</ele>
                <time>2008-06-25T15:49:02.000Z</time>
                <name>Position 2173</name>
            </trkpt>
            <trkpt lon="-105.06762326" lat="38.89152658">
                <ele>3208.0</ele>
                <time>2008-06-25T15:49:03.000Z</time>
                <name>Position 2174</name>
            </trkpt>
            <trkpt lon="-105.06756997" lat="38.89144659">
                <ele>3208.0</ele>
                <time>2008-06-25T15:49:04.000Z</time>
                <name>Position 2175</name>
            </trkpt>
            <trkpt lon="-105.06748831" lat="38.89137495">
                <ele>3208.0</ele>
                <time>2008-06-25T15:49:05.000Z</time>
                <name>Position 2176</name>
            </trkpt>
            <trkpt lon="-105.06739831" lat="38.89130831">
                <ele>3208.0</ele>
                <time>2008-06-25T15:49:06.000Z</time>
                <name>Position 2177</name>
            </trkpt>
            <trkpt lon="-105.06729496" lat="38.89125323">
                <ele>3208.0</ele>
                <time>2008-06-25T15:49:07.000Z</time>
                <name>Position 2178</name>
            </trkpt>
            <trkpt lon="-105.0671916" lat="38.89120662">
                <ele>3235.0</ele>
                <time>2008-06-25T15:49:08.000Z</time>
                <name>Position 2179</name>
            </trkpt>
            <trkpt lon="-105.06708324" lat="38.89116323">
                <ele>3227.0</ele>
                <time>2008-06-25T15:49:09.000Z</time>
                <name>Position 2180</name>
            </trkpt>
            <trkpt lon="-105.06698155" lat="38.89111829">
                <ele>3227.0</ele>
                <time>2008-06-25T15:49:10.000Z</time>
                <name>Position 2181</name>
            </trkpt>
            <trkpt lon="-105.06688988" lat="38.89106822">
                <ele>3227.0</ele>
                <time>2008-06-25T15:49:11.000Z</time>
                <name>Position 2182</name>
            </trkpt>
            <trkpt lon="-105.0668149" lat="38.8910116">
                <ele>3227.0</ele>
                <time>2008-06-25T15:49:12.000Z</time>
                <name>Position 2183</name>
            </trkpt>
            <trkpt lon="-105.0667733" lat="38.89094996">
                <ele>3227.0</ele>
                <time>2008-06-25T15:49:13.000Z</time>
                <name>Position 2184</name>
            </trkpt>
            <trkpt lon="-105.06676161" lat="38.89089155">
                <ele>3227.0</ele>
                <time>2008-06-25T15:49:14.000Z</time>
                <name>Position 2185</name>
            </trkpt>
            <trkpt lon="-105.0668" lat="38.8908416">
                <ele>3227.0</ele>
                <time>2008-06-25T15:49:15.000Z</time>
                <name>Position 2186</name>
            </trkpt>
            <trkpt lon="-105.06687164" lat="38.89080656">
                <ele>3227.0</ele>
                <time>2008-06-25T15:49:16.000Z</time>
                <name>Position 2187</name>
            </trkpt>
            <trkpt lon="-105.06696832" lat="38.89079332">
                <ele>3227.0</ele>
                <time>2008-06-25T15:49:17.000Z</time>
                <name>Position 2188</name>
            </trkpt>
            <trkpt lon="-105.06706333" lat="38.89081156">
                <ele>3227.0</ele>
                <time>2008-06-25T15:49:18.000Z</time>
                <name>Position 2189</name>
            </trkpt>
            <trkpt lon="-105.06715488" lat="38.89085829">
                <ele>3235.0</ele>
                <time>2008-06-25T15:49:19.000Z</time>
                <name>Position 2190</name>
            </trkpt>
            <trkpt lon="-105.06725156" lat="38.8909049">
                <ele>3235.0</ele>
                <time>2008-06-25T15:49:20.000Z</time>
                <name>Position 2191</name>
            </trkpt>
            <trkpt lon="-105.06735325" lat="38.8909483">
                <ele>3235.0</ele>
                <time>2008-06-25T15:49:21.000Z</time>
                <name>Position 2192</name>
            </trkpt>
            <trkpt lon="-105.06745994" lat="38.8909899">
                <ele>3235.0</ele>
                <time>2008-06-25T15:49:22.000Z</time>
                <name>Position 2193</name>
            </trkpt>
            <trkpt lon="-105.06756997" lat="38.89102829">
                <ele>3235.0</ele>
                <time>2008-06-25T15:49:23.000Z</time>
                <name>Position 2194</name>
            </trkpt>
            <trkpt lon="-105.06768656" lat="38.89106166">
                <ele>3235.0</ele>
                <time>2008-06-25T15:49:24.000Z</time>
                <name>Position 2195</name>
            </trkpt>
            <trkpt lon="-105.06780493" lat="38.89109325">
                <ele>3235.0</ele>
                <time>2008-06-25T15:49:25.000Z</time>
                <name>Position 2196</name>
            </trkpt>
            <trkpt lon="-105.06792498" lat="38.89112997">
                <ele>3244.0</ele>
                <time>2008-06-25T15:49:26.000Z</time>
                <name>Position 2197</name>
            </trkpt>
            <trkpt lon="-105.06804657" lat="38.89117157">
                <ele>3244.0</ele>
                <time>2008-06-25T15:49:27.000Z</time>
                <name>Position 2198</name>
            </trkpt>
            <trkpt lon="-105.06816828" lat="38.8912133">
                <ele>3244.0</ele>
                <time>2008-06-25T15:49:28.000Z</time>
                <name>Position 2199</name>
            </trkpt>
            <trkpt lon="-105.06829488" lat="38.89124656">
                <ele>3244.0</ele>
                <time>2008-06-25T15:49:29.000Z</time>
                <name>Position 2200</name>
            </trkpt>
            <trkpt lon="-105.06842494" lat="38.89126158">
                <ele>3221.0</ele>
                <time>2008-06-25T15:49:30.000Z</time>
                <name>Position 2201</name>
            </trkpt>
            <trkpt lon="-105.06855667" lat="38.89126492">
                <ele>3221.0</ele>
                <time>2008-06-25T15:49:31.000Z</time>
                <name>Position 2202</name>
            </trkpt>
            <trkpt lon="-105.0686866" lat="38.8912499">
                <ele>3244.0</ele>
                <time>2008-06-25T15:49:32.000Z</time>
                <name>Position 2203</name>
            </trkpt>
            <trkpt lon="-105.06881332" lat="38.89121664">
                <ele>3240.0</ele>
                <time>2008-06-25T15:49:33.000Z</time>
                <name>Position 2204</name>
            </trkpt>
            <trkpt lon="-105.06893158" lat="38.89116991">
                <ele>3240.0</ele>
                <time>2008-06-25T15:49:34.000Z</time>
                <name>Position 2205</name>
            </trkpt>
            <trkpt lon="-105.06903994" lat="38.89110994">
                <ele>3240.0</ele>
                <time>2008-06-25T15:49:35.000Z</time>
                <name>Position 2206</name>
            </trkpt>
            <trkpt lon="-105.06913662" lat="38.89103663">
                <ele>3240.0</ele>
                <time>2008-06-25T15:49:36.000Z</time>
                <name>Position 2207</name>
            </trkpt>
            <trkpt lon="-105.06921828" lat="38.89095163">
                <ele>3240.0</ele>
                <time>2008-06-25T15:49:37.000Z</time>
                <name>Position 2208</name>
            </trkpt>
            <trkpt lon="-105.06928325" lat="38.89085829">
                <ele>3240.0</ele>
                <time>2008-06-25T15:49:38.000Z</time>
                <name>Position 2209</name>
            </trkpt>
            <trkpt lon="-105.06933665" lat="38.89075994">
                <ele>3240.0</ele>
                <time>2008-06-25T15:49:39.000Z</time>
                <name>Position 2210</name>
            </trkpt>
            <trkpt lon="-105.06938326" lat="38.89065826">
                <ele>3240.0</ele>
                <time>2008-06-25T15:49:40.000Z</time>
                <name>Position 2211</name>
            </trkpt>
            <trkpt lon="-105.06943333" lat="38.89055657">
                <ele>3240.0</ele>
                <time>2008-06-25T15:49:41.000Z</time>
                <name>Position 2212</name>
            </trkpt>
            <trkpt lon="-105.06948495" lat="38.89045489">
                <ele>3240.0</ele>
                <time>2008-06-25T15:49:42.000Z</time>
                <name>Position 2213</name>
            </trkpt>
            <trkpt lon="-105.06953156" lat="38.89035332">
                <ele>3259.0</ele>
                <time>2008-06-25T15:49:43.000Z</time>
                <name>Position 2214</name>
            </trkpt>
            <trkpt lon="-105.06957161" lat="38.89025164">
                <ele>3259.0</ele>
                <time>2008-06-25T15:49:44.000Z</time>
                <name>Position 2215</name>
            </trkpt>
            <trkpt lon="-105.06960666" lat="38.89014828">
                <ele>3246.0</ele>
                <time>2008-06-25T15:49:45.000Z</time>
                <name>Position 2216</name>
            </trkpt>
            <trkpt lon="-105.06964159" lat="38.89004493">
                <ele>3246.0</ele>
                <time>2008-06-25T15:49:46.000Z</time>
                <name>Position 2217</name>
            </trkpt>
            <trkpt lon="-105.06968331" lat="38.88994157">
                <ele>3246.0</ele>
                <time>2008-06-25T15:49:47.000Z</time>
                <name>Position 2218</name>
            </trkpt>
            <trkpt lon="-105.0697366" lat="38.88984323">
                <ele>3246.0</ele>
                <time>2008-06-25T15:49:48.000Z</time>
                <name>Position 2219</name>
            </trkpt>
            <trkpt lon="-105.06980157" lat="38.88974822">
                <ele>3246.0</ele>
                <time>2008-06-25T15:49:49.000Z</time>
                <name>Position 2220</name>
            </trkpt>
            <trkpt lon="-105.06988156" lat="38.88965988">
                <ele>3246.0</ele>
                <time>2008-06-25T15:49:50.000Z</time>
                <name>Position 2221</name>
            </trkpt>
            <trkpt lon="-105.06997323" lat="38.88957822">
                <ele>3271.0</ele>
                <time>2008-06-25T15:49:51.000Z</time>
                <name>Position 2222</name>
            </trkpt>
            <trkpt lon="-105.07006991" lat="38.8894999">
                <ele>3271.0</ele>
                <time>2008-06-25T15:49:52.000Z</time>
                <name>Position 2223</name>
            </trkpt>
            <trkpt lon="-105.07016826" lat="38.88942158">
                <ele>3271.0</ele>
                <time>2008-06-25T15:49:53.000Z</time>
                <name>Position 2224</name>
            </trkpt>
            <trkpt lon="-105.0702666" lat="38.88934159">
                <ele>3271.0</ele>
                <time>2008-06-25T15:49:54.000Z</time>
                <name>Position 2225</name>
            </trkpt>
            <trkpt lon="-105.07036829" lat="38.88926327">
                <ele>3271.0</ele>
                <time>2008-06-25T15:49:55.000Z</time>
                <name>Position 2226</name>
            </trkpt>
            <trkpt lon="-105.07046831" lat="38.88918328">
                <ele>3258.0</ele>
                <time>2008-06-25T15:49:56.000Z</time>
                <name>Position 2227</name>
            </trkpt>
            <trkpt lon="-105.07056999" lat="38.88910329">
                <ele>3258.0</ele>
                <time>2008-06-25T15:49:57.000Z</time>
                <name>Position 2228</name>
            </trkpt>
            <trkpt lon="-105.07067156" lat="38.8890233">
                <ele>3258.0</ele>
                <time>2008-06-25T15:49:58.000Z</time>
                <name>Position 2229</name>
            </trkpt>
            <trkpt lon="-105.07077324" lat="38.88894331">
                <ele>3258.0</ele>
                <time>2008-06-25T15:49:59.000Z</time>
                <name>Position 2230</name>
            </trkpt>
            <trkpt lon="-105.0708766" lat="38.88886499">
                <ele>3258.0</ele>
                <time>2008-06-25T15:50:00.000Z</time>
                <name>Position 2231</name>
            </trkpt>
            <trkpt lon="-105.07098162" lat="38.88878489">
                <ele>3258.0</ele>
                <time>2008-06-25T15:50:01.000Z</time>
                <name>Position 2232</name>
            </trkpt>
            <trkpt lon="-105.07108665" lat="38.88870656">
                <ele>3290.0</ele>
                <time>2008-06-25T15:50:02.000Z</time>
                <name>Position 2233</name>
            </trkpt>
            <trkpt lon="-105.07119155" lat="38.88862658">
                <ele>3290.0</ele>
                <time>2008-06-25T15:50:03.000Z</time>
                <name>Position 2234</name>
            </trkpt>
            <trkpt lon="-105.07130158" lat="38.88854825">
                <ele>3281.0</ele>
                <time>2008-06-25T15:50:04.000Z</time>
                <name>Position 2235</name>
            </trkpt>
            <trkpt lon="-105.07141328" lat="38.88847327">
                <ele>3281.0</ele>
                <time>2008-06-25T15:50:05.000Z</time>
                <name>Position 2236</name>
            </trkpt>
            <trkpt lon="-105.07152832" lat="38.88839996">
                <ele>3281.0</ele>
                <time>2008-06-25T15:50:06.000Z</time>
                <name>Position 2237</name>
            </trkpt>
            <trkpt lon="-105.07164323" lat="38.88832831">
                <ele>3281.0</ele>
                <time>2008-06-25T15:50:07.000Z</time>
                <name>Position 2238</name>
            </trkpt>
            <trkpt lon="-105.07176161" lat="38.88825822">
                <ele>3281.0</ele>
                <time>2008-06-25T15:50:08.000Z</time>
                <name>Position 2239</name>
            </trkpt>
            <trkpt lon="-105.07187998" lat="38.88818824">
                <ele>3281.0</ele>
                <time>2008-06-25T15:50:09.000Z</time>
                <name>Position 2240</name>
            </trkpt>
            <trkpt lon="-105.07200158" lat="38.88811994">
                <ele>3281.0</ele>
                <time>2008-06-25T15:50:10.000Z</time>
                <name>Position 2241</name>
            </trkpt>
            <trkpt lon="-105.07212329" lat="38.88805163">
                <ele>3268.0</ele>
                <time>2008-06-25T15:50:11.000Z</time>
                <name>Position 2242</name>
            </trkpt>
            <trkpt lon="-105.07224" lat="38.88797832">
                <ele>3268.0</ele>
                <time>2008-06-25T15:50:12.000Z</time>
                <name>Position 2243</name>
            </trkpt>
            <trkpt lon="-105.07235157" lat="38.88790166">
                <ele>3298.0</ele>
                <time>2008-06-25T15:50:13.000Z</time>
                <name>Position 2244</name>
            </trkpt>
            <trkpt lon="-105.0724566" lat="38.88781822">
                <ele>3298.0</ele>
                <time>2008-06-25T15:50:14.000Z</time>
                <name>Position 2245</name>
            </trkpt>
            <trkpt lon="-105.07255661" lat="38.88773322">
                <ele>3298.0</ele>
                <time>2008-06-25T15:50:15.000Z</time>
                <name>Position 2246</name>
            </trkpt>
            <trkpt lon="-105.07265496" lat="38.88764656">
                <ele>3298.0</ele>
                <time>2008-06-25T15:50:16.000Z</time>
                <name>Position 2247</name>
            </trkpt>
            <trkpt lon="-105.07275331" lat="38.88755989">
                <ele>3298.0</ele>
                <time>2008-06-25T15:50:17.000Z</time>
                <name>Position 2248</name>
            </trkpt>
            <trkpt lon="-105.072855" lat="38.88747656">
                <ele>3298.0</ele>
                <time>2008-06-25T15:50:18.000Z</time>
                <name>Position 2249</name>
            </trkpt>
            <trkpt lon="-105.07295489" lat="38.88739991">
                <ele>3284.0</ele>
                <time>2008-06-25T15:50:19.000Z</time>
                <name>Position 2250</name>
            </trkpt>
            <trkpt lon="-105.0730499" lat="38.8873316">
                <ele>3284.0</ele>
                <time>2008-06-25T15:50:20.000Z</time>
                <name>Position 2251</name>
            </trkpt>
            <trkpt lon="-105.07313824" lat="38.8872683">
                <ele>3284.0</ele>
                <time>2008-06-25T15:50:21.000Z</time>
                <name>Position 2252</name>
            </trkpt>
            <trkpt lon="-105.07320988" lat="38.88720655">
                <ele>3284.0</ele>
                <time>2008-06-25T15:50:22.000Z</time>
                <name>Position 2253</name>
            </trkpt>
            <trkpt lon="-105.07325661" lat="38.88714492">
                <ele>3284.0</ele>
                <time>2008-06-25T15:50:23.000Z</time>
                <name>Position 2254</name>
            </trkpt>
            <trkpt lon="-105.07327163" lat="38.88708162">
                <ele>3313.0</ele>
                <time>2008-06-25T15:50:24.000Z</time>
                <name>Position 2255</name>
            </trkpt>
            <trkpt lon="-105.07325327" lat="38.88702655">
                <ele>3313.0</ele>
                <time>2008-06-25T15:50:25.000Z</time>
                <name>Position 2256</name>
            </trkpt>
            <trkpt lon="-105.07319832" lat="38.88698661">
                <ele>3313.0</ele>
                <time>2008-06-25T15:50:26.000Z</time>
                <name>Position 2257</name>
            </trkpt>
            <trkpt lon="-105.07312322" lat="38.88696659">
                <ele>3313.0</ele>
                <time>2008-06-25T15:50:27.000Z</time>
                <name>Position 2258</name>
            </trkpt>
            <trkpt lon="-105.07303655" lat="38.88697326">
                <ele>3313.0</ele>
                <time>2008-06-25T15:50:28.000Z</time>
                <name>Position 2259</name>
            </trkpt>
            <trkpt lon="-105.07295156" lat="38.88700163">
                <ele>3313.0</ele>
                <time>2008-06-25T15:50:29.000Z</time>
                <name>Position 2260</name>
            </trkpt>
            <trkpt lon="-105.07286322" lat="38.88705659">
                <ele>3322.0</ele>
                <time>2008-06-25T15:50:30.000Z</time>
                <name>Position 2261</name>
            </trkpt>
            <trkpt lon="-105.07276833" lat="38.88712656">
                <ele>3298.0</ele>
                <time>2008-06-25T15:50:31.000Z</time>
                <name>Position 2262</name>
            </trkpt>
            <trkpt lon="-105.07266665" lat="38.88718998">
                <ele>3298.0</ele>
                <time>2008-06-25T15:50:32.000Z</time>
                <name>Position 2263</name>
            </trkpt>
            <trkpt lon="-105.07255495" lat="38.88725829">
                <ele>3298.0</ele>
                <time>2008-06-25T15:50:33.000Z</time>
                <name>Position 2264</name>
            </trkpt>
            <trkpt lon="-105.0724349" lat="38.88730657">
                <ele>3298.0</ele>
                <time>2008-06-25T15:50:34.000Z</time>
                <name>Position 2265</name>
            </trkpt>
            <trkpt lon="-105.07231164" lat="38.88734663">
                <ele>3298.0</ele>
                <time>2008-06-25T15:50:35.000Z</time>
                <name>Position 2266</name>
            </trkpt>
            <trkpt lon="-105.07218325" lat="38.88738155">
                <ele>3298.0</ele>
                <time>2008-06-25T15:50:36.000Z</time>
                <name>Position 2267</name>
            </trkpt>
            <trkpt lon="-105.07205164" lat="38.88740993">
                <ele>3306.0</ele>
                <time>2008-06-25T15:50:37.000Z</time>
                <name>Position 2268</name>
            </trkpt>
            <trkpt lon="-105.07192492" lat="38.88742995">
                <ele>3306.0</ele>
                <time>2008-06-25T15:50:38.000Z</time>
                <name>Position 2269</name>
            </trkpt>
            <trkpt lon="-105.07180333" lat="38.88744164">
                <ele>3306.0</ele>
                <time>2008-06-25T15:50:39.000Z</time>
                <name>Position 2270</name>
            </trkpt>
            <trkpt lon="-105.07169163" lat="38.88743329">
                <ele>3306.0</ele>
                <time>2008-06-25T15:50:40.000Z</time>
                <name>Position 2271</name>
            </trkpt>
            <trkpt lon="-105.0716033" lat="38.88739491">
                <ele>3306.0</ele>
                <time>2008-06-25T15:50:41.000Z</time>
                <name>Position 2272</name>
            </trkpt>
            <trkpt lon="-105.07154" lat="38.88733995">
                <ele>3306.0</ele>
                <time>2008-06-25T15:50:42.000Z</time>
                <name>Position 2273</name>
            </trkpt>
            <trkpt lon="-105.07150996" lat="38.88726997">
                <ele>3306.0</ele>
                <time>2008-06-25T15:50:43.000Z</time>
                <name>Position 2274</name>
            </trkpt>
            <trkpt lon="-105.0715133" lat="38.88719499">
                <ele>3306.0</ele>
                <time>2008-06-25T15:50:44.000Z</time>
                <name>Position 2275</name>
            </trkpt>
            <trkpt lon="-105.07153666" lat="38.88711822">
                <ele>3306.0</ele>
                <time>2008-06-25T15:50:45.000Z</time>
                <name>Position 2276</name>
            </trkpt>
            <trkpt lon="-105.07156825" lat="38.88703823">
                <ele>3319.0</ele>
                <time>2008-06-25T15:50:46.000Z</time>
                <name>Position 2277</name>
            </trkpt>
            <trkpt lon="-105.07159996" lat="38.88695323">
                <ele>3319.0</ele>
                <time>2008-06-25T15:50:47.000Z</time>
                <name>Position 2278</name>
            </trkpt>
            <trkpt lon="-105.07162988" lat="38.8868649">
                <ele>3319.0</ele>
                <time>2008-06-25T15:50:48.000Z</time>
                <name>Position 2279</name>
            </trkpt>
            <trkpt lon="-105.07165825" lat="38.88677323">
                <ele>3319.0</ele>
                <time>2008-06-25T15:50:49.000Z</time>
                <name>Position 2280</name>
            </trkpt>
            <trkpt lon="-105.07168496" lat="38.88667822">
                <ele>3319.0</ele>
                <time>2008-06-25T15:50:50.000Z</time>
                <name>Position 2281</name>
            </trkpt>
            <trkpt lon="-105.07171166" lat="38.88657999">
                <ele>3319.0</ele>
                <time>2008-06-25T15:50:51.000Z</time>
                <name>Position 2282</name>
            </trkpt>
            <trkpt lon="-105.07174158" lat="38.88647997">
                <ele>3319.0</ele>
                <time>2008-06-25T15:50:52.000Z</time>
                <name>Position 2283</name>
            </trkpt>
            <trkpt lon="-105.07177162" lat="38.88637829">
                <ele>3319.0</ele>
                <time>2008-06-25T15:50:53.000Z</time>
                <name>Position 2284</name>
            </trkpt>
            <trkpt lon="-105.07180166" lat="38.88627493">
                <ele>3319.0</ele>
                <time>2008-06-25T15:50:54.000Z</time>
                <name>Position 2285</name>
            </trkpt>
            <trkpt lon="-105.07183325" lat="38.88616824">
                <ele>3332.0</ele>
                <time>2008-06-25T15:50:55.000Z</time>
                <name>Position 2286</name>
            </trkpt>
            <trkpt lon="-105.07186162" lat="38.88606155">
                <ele>3332.0</ele>
                <time>2008-06-25T15:50:56.000Z</time>
                <name>Position 2287</name>
            </trkpt>
            <trkpt lon="-105.07188666" lat="38.88595164">
                <ele>3332.0</ele>
                <time>2008-06-25T15:50:57.000Z</time>
                <name>Position 2288</name>
            </trkpt>
            <trkpt lon="-105.07190323" lat="38.88584161">
                <ele>3332.0</ele>
                <time>2008-06-25T15:50:58.000Z</time>
                <name>Position 2289</name>
            </trkpt>
            <trkpt lon="-105.07191324" lat="38.88572991">
                <ele>3332.0</ele>
                <time>2008-06-25T15:50:59.000Z</time>
                <name>Position 2290</name>
            </trkpt>
            <trkpt lon="-105.07191157" lat="38.88561666">
                <ele>3332.0</ele>
                <time>2008-06-25T15:51:00.000Z</time>
                <name>Position 2291</name>
            </trkpt>
            <trkpt lon="-105.07190323" lat="38.8855083">
                <ele>3332.0</ele>
                <time>2008-06-25T15:51:01.000Z</time>
                <name>Position 2292</name>
            </trkpt>
            <trkpt lon="-105.07188499" lat="38.88540161">
                <ele>3346.0</ele>
                <time>2008-06-25T15:51:02.000Z</time>
                <name>Position 2293</name>
            </trkpt>
            <trkpt lon="-105.07185328" lat="38.88529658">
                <ele>3346.0</ele>
                <time>2008-06-25T15:51:03.000Z</time>
                <name>Position 2294</name>
            </trkpt>
            <trkpt lon="-105.07181656" lat="38.88520157">
                <ele>3346.0</ele>
                <time>2008-06-25T15:51:04.000Z</time>
                <name>Position 2295</name>
            </trkpt>
            <trkpt lon="-105.07177663" lat="38.88510823">
                <ele>3346.0</ele>
                <time>2008-06-25T15:51:05.000Z</time>
                <name>Position 2296</name>
            </trkpt>
            <trkpt lon="-105.07171988" lat="38.88502157">
                <ele>3346.0</ele>
                <time>2008-06-25T15:51:06.000Z</time>
                <name>Position 2297</name>
            </trkpt>
            <trkpt lon="-105.0716399" lat="38.88493991">
                <ele>3346.0</ele>
                <time>2008-06-25T15:51:07.000Z</time>
                <name>Position 2298</name>
            </trkpt>
            <trkpt lon="-105.07154822" lat="38.8848666">
                <ele>3346.0</ele>
                <time>2008-06-25T15:51:08.000Z</time>
                <name>Position 2299</name>
            </trkpt>
            <trkpt lon="-105.07145989" lat="38.88480163">
                <ele>3346.0</ele>
                <time>2008-06-25T15:51:09.000Z</time>
                <name>Position 2300</name>
            </trkpt>
            <trkpt lon="-105.0713799" lat="38.88473833">
                <ele>3346.0</ele>
                <time>2008-06-25T15:51:10.000Z</time>
                <name>Position 2301</name>
            </trkpt>
            <trkpt lon="-105.07131827" lat="38.88467824">
                <ele>3346.0</ele>
                <time>2008-06-25T15:51:11.000Z</time>
                <name>Position 2302</name>
            </trkpt>
            <trkpt lon="-105.07127821" lat="38.88461828">
                <ele>3346.0</ele>
                <time>2008-06-25T15:51:12.000Z</time>
                <name>Position 2303</name>
            </trkpt>
            <trkpt lon="-105.07125998" lat="38.88455832">
                <ele>3356.0</ele>
                <time>2008-06-25T15:51:13.000Z</time>
                <name>Position 2304</name>
            </trkpt>
            <trkpt lon="-105.07125831" lat="38.88449824">
                <ele>3356.0</ele>
                <time>2008-06-25T15:51:14.000Z</time>
                <name>Position 2305</name>
            </trkpt>
            <trkpt lon="-105.071275" lat="38.88443661">
                <ele>3356.0</ele>
                <time>2008-06-25T15:51:15.000Z</time>
                <name>Position 2306</name>
            </trkpt>
            <trkpt lon="-105.07130826" lat="38.88437498">
                <ele>3356.0</ele>
                <time>2008-06-25T15:51:16.000Z</time>
                <name>Position 2307</name>
            </trkpt>
            <trkpt lon="-105.07134664" lat="38.88431156">
                <ele>3356.0</ele>
                <time>2008-06-25T15:51:17.000Z</time>
                <name>Position 2308</name>
            </trkpt>
            <trkpt lon="-105.07138658" lat="38.88424826">
                <ele>3356.0</ele>
                <time>2008-06-25T15:51:18.000Z</time>
                <name>Position 2309</name>
            </trkpt>
            <trkpt lon="-105.07142329" lat="38.88418663">
                <ele>3356.0</ele>
                <time>2008-06-25T15:51:19.000Z</time>
                <name>Position 2310</name>
            </trkpt>
            <trkpt lon="-105.07145989" lat="38.88412333">
                <ele>3356.0</ele>
                <time>2008-06-25T15:51:20.000Z</time>
                <name>Position 2311</name>
            </trkpt>
            <trkpt lon="-105.07149661" lat="38.88405991">
                <ele>3356.0</ele>
                <time>2008-06-25T15:51:21.000Z</time>
                <name>Position 2312</name>
            </trkpt>
            <trkpt lon="-105.07152164" lat="38.88399327">
                <ele>3356.0</ele>
                <time>2008-06-25T15:51:22.000Z</time>
                <name>Position 2313</name>
            </trkpt>
            <trkpt lon="-105.07154155" lat="38.88392663">
                <ele>3356.0</ele>
                <time>2008-06-25T15:51:23.000Z</time>
                <name>Position 2314</name>
            </trkpt>
            <trkpt lon="-105.0715549" lat="38.88386166">
                <ele>3356.0</ele>
                <time>2008-06-25T15:51:24.000Z</time>
                <name>Position 2315</name>
            </trkpt>
            <trkpt lon="-105.07156324" lat="38.8837949">
                <ele>3356.0</ele>
                <time>2008-06-25T15:51:25.000Z</time>
                <name>Position 2316</name>
            </trkpt>
            <trkpt lon="-105.07156658" lat="38.8837266">
                <ele>3367.0</ele>
                <time>2008-06-25T15:51:26.000Z</time>
                <name>Position 2317</name>
            </trkpt>
            <trkpt lon="-105.07156658" lat="38.88365996">
                <ele>3367.0</ele>
                <time>2008-06-25T15:51:27.000Z</time>
                <name>Position 2318</name>
            </trkpt>
            <trkpt lon="-105.07156658" lat="38.88359332">
                <ele>3367.0</ele>
                <time>2008-06-25T15:51:28.000Z</time>
                <name>Position 2319</name>
            </trkpt>
            <trkpt lon="-105.07156491" lat="38.88352323">
                <ele>3367.0</ele>
                <time>2008-06-25T15:51:29.000Z</time>
                <name>Position 2320</name>
            </trkpt>
            <trkpt lon="-105.07156157" lat="38.88345492">
                <ele>3367.0</ele>
                <time>2008-06-25T15:51:30.000Z</time>
                <name>Position 2321</name>
            </trkpt>
            <trkpt lon="-105.07155657" lat="38.88338327">
                <ele>3367.0</ele>
                <time>2008-06-25T15:51:31.000Z</time>
                <name>Position 2322</name>
            </trkpt>
            <trkpt lon="-105.07154989" lat="38.88331163">
                <ele>3367.0</ele>
                <time>2008-06-25T15:51:32.000Z</time>
                <name>Position 2323</name>
            </trkpt>
            <trkpt lon="-105.07154155" lat="38.88323998">
                <ele>3367.0</ele>
                <time>2008-06-25T15:51:33.000Z</time>
                <name>Position 2324</name>
            </trkpt>
            <trkpt lon="-105.07152998" lat="38.88316488">
                <ele>3367.0</ele>
                <time>2008-06-25T15:51:34.000Z</time>
                <name>Position 2325</name>
            </trkpt>
            <trkpt lon="-105.07151496" lat="38.88308823">
                <ele>3367.0</ele>
                <time>2008-06-25T15:51:35.000Z</time>
                <name>Position 2326</name>
            </trkpt>
            <trkpt lon="-105.07149661" lat="38.88301325">
                <ele>3367.0</ele>
                <time>2008-06-25T15:51:36.000Z</time>
                <name>Position 2327</name>
            </trkpt>
            <trkpt lon="-105.07147491" lat="38.88293493">
                <ele>3367.0</ele>
                <time>2008-06-25T15:51:37.000Z</time>
                <name>Position 2328</name>
            </trkpt>
            <trkpt lon="-105.07145333" lat="38.88285995">
                <ele>3377.0</ele>
                <time>2008-06-25T15:51:38.000Z</time>
                <name>Position 2329</name>
            </trkpt>
            <trkpt lon="-105.07143164" lat="38.88278329">
                <ele>3377.0</ele>
                <time>2008-06-25T15:51:39.000Z</time>
                <name>Position 2330</name>
            </trkpt>
            <trkpt lon="-105.07140994" lat="38.88270831">
                <ele>3377.0</ele>
                <time>2008-06-25T15:51:40.000Z</time>
                <name>Position 2331</name>
            </trkpt>
            <trkpt lon="-105.07139158" lat="38.882635">
                <ele>3377.0</ele>
                <time>2008-06-25T15:51:41.000Z</time>
                <name>Position 2332</name>
            </trkpt>
            <trkpt lon="-105.07136822" lat="38.8825599">
                <ele>3377.0</ele>
                <time>2008-06-25T15:51:42.000Z</time>
                <name>Position 2333</name>
            </trkpt>
            <trkpt lon="-105.07134497" lat="38.88248658">
                <ele>3377.0</ele>
                <time>2008-06-25T15:51:43.000Z</time>
                <name>Position 2334</name>
            </trkpt>
            <trkpt lon="-105.07132328" lat="38.8824116">
                <ele>3377.0</ele>
                <time>2008-06-25T15:51:44.000Z</time>
                <name>Position 2335</name>
            </trkpt>
            <trkpt lon="-105.07131326" lat="38.88233829">
                <ele>3377.0</ele>
                <time>2008-06-25T15:51:45.000Z</time>
                <name>Position 2336</name>
            </trkpt>
            <trkpt lon="-105.07130992" lat="38.88226831">
                <ele>3377.0</ele>
                <time>2008-06-25T15:51:46.000Z</time>
                <name>Position 2337</name>
            </trkpt>
            <trkpt lon="-105.07131493" lat="38.88219988">
                <ele>3377.0</ele>
                <time>2008-06-25T15:51:47.000Z</time>
                <name>Position 2338</name>
            </trkpt>
            <trkpt lon="-105.07132995" lat="38.88213491">
                <ele>3377.0</ele>
                <time>2008-06-25T15:51:48.000Z</time>
                <name>Position 2339</name>
            </trkpt>
            <trkpt lon="-105.07134831" lat="38.88207495">
                <ele>3380.0</ele>
                <time>2008-06-25T15:51:49.000Z</time>
                <name>Position 2340</name>
            </trkpt>
            <trkpt lon="-105.07136822" lat="38.88201666">
                <ele>3380.0</ele>
                <time>2008-06-25T15:51:50.000Z</time>
                <name>Position 2341</name>
            </trkpt>
            <trkpt lon="-105.07139826" lat="38.88196158">
                <ele>3380.0</ele>
                <time>2008-06-25T15:51:51.000Z</time>
                <name>Position 2342</name>
            </trkpt>
            <trkpt lon="-105.07143497" lat="38.88190496">
                <ele>3380.0</ele>
                <time>2008-06-25T15:51:52.000Z</time>
                <name>Position 2343</name>
            </trkpt>
            <trkpt lon="-105.07148159" lat="38.88185155">
                <ele>3380.0</ele>
                <time>2008-06-25T15:51:53.000Z</time>
                <name>Position 2344</name>
            </trkpt>
            <trkpt lon="-105.07153499" lat="38.88179994">
                <ele>3380.0</ele>
                <time>2008-06-25T15:51:54.000Z</time>
                <name>Position 2345</name>
            </trkpt>
            <trkpt lon="-105.07159662" lat="38.88175333">
                <ele>3380.0</ele>
                <time>2008-06-25T15:51:55.000Z</time>
                <name>Position 2346</name>
            </trkpt>
            <trkpt lon="-105.0716666" lat="38.8817116">
                <ele>3380.0</ele>
                <time>2008-06-25T15:51:56.000Z</time>
                <name>Position 2347</name>
            </trkpt>
            <trkpt lon="-105.07174325" lat="38.88167655">
                <ele>3380.0</ele>
                <time>2008-06-25T15:51:57.000Z</time>
                <name>Position 2348</name>
            </trkpt>
            <trkpt lon="-105.07182825" lat="38.8816433">
                <ele>3380.0</ele>
                <time>2008-06-25T15:51:58.000Z</time>
                <name>Position 2349</name>
            </trkpt>
            <trkpt lon="-105.07191992" lat="38.88161492">
                <ele>3380.0</ele>
                <time>2008-06-25T15:51:59.000Z</time>
                <name>Position 2350</name>
            </trkpt>
            <trkpt lon="-105.07202327" lat="38.8815999">
                <ele>3380.0</ele>
                <time>2008-06-25T15:52:00.000Z</time>
                <name>Position 2351</name>
            </trkpt>
            <trkpt lon="-105.07213664" lat="38.8815999">
                <ele>3388.0</ele>
                <time>2008-06-25T15:52:01.000Z</time>
                <name>Position 2352</name>
            </trkpt>
            <trkpt lon="-105.07224989" lat="38.88161826">
                <ele>3388.0</ele>
                <time>2008-06-25T15:52:02.000Z</time>
                <name>Position 2353</name>
            </trkpt>
            <trkpt lon="-105.07235658" lat="38.88165498">
                <ele>3388.0</ele>
                <time>2008-06-25T15:52:03.000Z</time>
                <name>Position 2354</name>
            </trkpt>
            <trkpt lon="-105.07243991" lat="38.88171995">
                <ele>3388.0</ele>
                <time>2008-06-25T15:52:04.000Z</time>
                <name>Position 2355</name>
            </trkpt>
            <trkpt lon="-105.07249498" lat="38.88181996">
                <ele>3388.0</ele>
                <time>2008-06-25T15:52:05.000Z</time>
                <name>Position 2356</name>
            </trkpt>
            <trkpt lon="-105.07252157" lat="38.88192999">
                <ele>3388.0</ele>
                <time>2008-06-25T15:52:06.000Z</time>
                <name>Position 2357</name>
            </trkpt>
            <trkpt lon="-105.07253993" lat="38.88203657">
                <ele>3388.0</ele>
                <time>2008-06-25T15:52:07.000Z</time>
                <name>Position 2358</name>
            </trkpt>
            <trkpt lon="-105.07256162" lat="38.88214326">
                <ele>3385.0</ele>
                <time>2008-06-25T15:52:08.000Z</time>
                <name>Position 2359</name>
            </trkpt>
            <trkpt lon="-105.07259488" lat="38.88224995">
                <ele>3385.0</ele>
                <time>2008-06-25T15:52:09.000Z</time>
                <name>Position 2360</name>
            </trkpt>
            <trkpt lon="-105.07264662" lat="38.88235497">
                <ele>3385.0</ele>
                <time>2008-06-25T15:52:10.000Z</time>
                <name>Position 2361</name>
            </trkpt>
            <trkpt lon="-105.07271993" lat="38.88244832">
                <ele>3385.0</ele>
                <time>2008-06-25T15:52:11.000Z</time>
                <name>Position 2362</name>
            </trkpt>
            <trkpt lon="-105.07281494" lat="38.8825233">
                <ele>3385.0</ele>
                <time>2008-06-25T15:52:12.000Z</time>
                <name>Position 2363</name>
            </trkpt>
            <trkpt lon="-105.07293332" lat="38.88257158">
                <ele>3385.0</ele>
                <time>2008-06-25T15:52:13.000Z</time>
                <name>Position 2364</name>
            </trkpt>
            <trkpt lon="-105.07305658" lat="38.88258493">
                <ele>3385.0</ele>
                <time>2008-06-25T15:52:14.000Z</time>
                <name>Position 2365</name>
            </trkpt>
            <trkpt lon="-105.07317829" lat="38.88256824">
                <ele>3385.0</ele>
                <time>2008-06-25T15:52:15.000Z</time>
                <name>Position 2366</name>
            </trkpt>
            <trkpt lon="-105.07328999" lat="38.88250327">
                <ele>3385.0</ele>
                <time>2008-06-25T15:52:16.000Z</time>
                <name>Position 2367</name>
            </trkpt>
            <trkpt lon="-105.07336998" lat="38.88242662">
                <ele>3385.0</ele>
                <time>2008-06-25T15:52:17.000Z</time>
                <name>Position 2368</name>
            </trkpt>
            <trkpt lon="-105.07341993" lat="38.88233328">
                <ele>3385.0</ele>
                <time>2008-06-25T15:52:18.000Z</time>
                <name>Position 2369</name>
            </trkpt>
            <trkpt lon="-105.07343328" lat="38.8822366">
                <ele>3385.0</ele>
                <time>2008-06-25T15:52:19.000Z</time>
                <name>Position 2370</name>
            </trkpt>
            <trkpt lon="-105.07341993" lat="38.88213658">
                <ele>3385.0</ele>
                <time>2008-06-25T15:52:20.000Z</time>
                <name>Position 2371</name>
            </trkpt>
            <trkpt lon="-105.07338333" lat="38.88204157">
                <ele>3402.0</ele>
                <time>2008-06-25T15:52:21.000Z</time>
                <name>Position 2372</name>
            </trkpt>
            <trkpt lon="-105.07331991" lat="38.88195491">
                <ele>3402.0</ele>
                <time>2008-06-25T15:52:22.000Z</time>
                <name>Position 2373</name>
            </trkpt>
            <trkpt lon="-105.07325494" lat="38.88186991">
                <ele>3402.0</ele>
                <time>2008-06-25T15:52:23.000Z</time>
                <name>Position 2374</name>
            </trkpt>
            <trkpt lon="-105.07319832" lat="38.88178492">
                <ele>3402.0</ele>
                <time>2008-06-25T15:52:24.000Z</time>
                <name>Position 2375</name>
            </trkpt>
            <trkpt lon="-105.07315159" lat="38.88169825">
                <ele>3402.0</ele>
                <time>2008-06-25T15:52:25.000Z</time>
                <name>Position 2376</name>
            </trkpt>
            <trkpt lon="-105.07312" lat="38.88160491">
                <ele>3402.0</ele>
                <time>2008-06-25T15:52:26.000Z</time>
                <name>Position 2377</name>
            </trkpt>
            <trkpt lon="-105.07311332" lat="38.88151157">
                <ele>3402.0</ele>
                <time>2008-06-25T15:52:27.000Z</time>
                <name>Position 2378</name>
            </trkpt>
            <trkpt lon="-105.07312655" lat="38.88141823">
                <ele>3402.0</ele>
                <time>2008-06-25T15:52:28.000Z</time>
                <name>Position 2379</name>
            </trkpt>
            <trkpt lon="-105.07314825" lat="38.88132489">
                <ele>3402.0</ele>
                <time>2008-06-25T15:52:29.000Z</time>
                <name>Position 2380</name>
            </trkpt>
            <trkpt lon="-105.07316327" lat="38.88122833">
                <ele>3417.0</ele>
                <time>2008-06-25T15:52:30.000Z</time>
                <name>Position 2381</name>
            </trkpt>
            <trkpt lon="-105.07316661" lat="38.88113165">
                <ele>3417.0</ele>
                <time>2008-06-25T15:52:31.000Z</time>
                <name>Position 2382</name>
            </trkpt>
            <trkpt lon="-105.07314992" lat="38.8810333">
                <ele>3417.0</ele>
                <time>2008-06-25T15:52:32.000Z</time>
                <name>Position 2383</name>
            </trkpt>
            <trkpt lon="-105.07311499" lat="38.88093328">
                <ele>3417.0</ele>
                <time>2008-06-25T15:52:33.000Z</time>
                <name>Position 2384</name>
            </trkpt>
            <trkpt lon="-105.07307661" lat="38.88083827">
                <ele>3417.0</ele>
                <time>2008-06-25T15:52:34.000Z</time>
                <name>Position 2385</name>
            </trkpt>
            <trkpt lon="-105.07303488" lat="38.88074327">
                <ele>3417.0</ele>
                <time>2008-06-25T15:52:35.000Z</time>
                <name>Position 2386</name>
            </trkpt>
            <trkpt lon="-105.07299662" lat="38.88064659">
                <ele>3417.0</ele>
                <time>2008-06-25T15:52:36.000Z</time>
                <name>Position 2387</name>
            </trkpt>
            <trkpt lon="-105.07295489" lat="38.8805449">
                <ele>3417.0</ele>
                <time>2008-06-25T15:52:37.000Z</time>
                <name>Position 2388</name>
            </trkpt>
            <trkpt lon="-105.07291996" lat="38.88044">
                <ele>3417.0</ele>
                <time>2008-06-25T15:52:38.000Z</time>
                <name>Position 2389</name>
            </trkpt>
            <trkpt lon="-105.07289326" lat="38.8803333">
                <ele>3415.0</ele>
                <time>2008-06-25T15:52:39.000Z</time>
                <name>Position 2390</name>
            </trkpt>
            <trkpt lon="-105.0728749" lat="38.88022327">
                <ele>3415.0</ele>
                <time>2008-06-25T15:52:40.000Z</time>
                <name>Position 2391</name>
            </trkpt>
            <trkpt lon="-105.07286656" lat="38.88011324">
                <ele>3415.0</ele>
                <time>2008-06-25T15:52:41.000Z</time>
                <name>Position 2392</name>
            </trkpt>
            <trkpt lon="-105.07286656" lat="38.88000333">
                <ele>3415.0</ele>
                <time>2008-06-25T15:52:42.000Z</time>
                <name>Position 2393</name>
            </trkpt>
            <trkpt lon="-105.07286489" lat="38.87988997">
                <ele>3415.0</ele>
                <time>2008-06-25T15:52:43.000Z</time>
                <name>Position 2394</name>
            </trkpt>
            <trkpt lon="-105.07286489" lat="38.8797766">
                <ele>3415.0</ele>
                <time>2008-06-25T15:52:44.000Z</time>
                <name>Position 2395</name>
            </trkpt>
            <trkpt lon="-105.07286155" lat="38.87966156">
                <ele>3415.0</ele>
                <time>2008-06-25T15:52:45.000Z</time>
                <name>Position 2396</name>
            </trkpt>
            <trkpt lon="-105.07285166" lat="38.87954831">
                <ele>3424.0</ele>
                <time>2008-06-25T15:52:46.000Z</time>
                <name>Position 2397</name>
            </trkpt>
            <trkpt lon="-105.07282495" lat="38.87943494">
                <ele>3424.0</ele>
                <time>2008-06-25T15:52:47.000Z</time>
                <name>Position 2398</name>
            </trkpt>
            <trkpt lon="-105.07279325" lat="38.87932825">
                <ele>3424.0</ele>
                <time>2008-06-25T15:52:48.000Z</time>
                <name>Position 2399</name>
            </trkpt>
            <trkpt lon="-105.07276666" lat="38.87922823">
                <ele>3424.0</ele>
                <time>2008-06-25T15:52:49.000Z</time>
                <name>Position 2400</name>
            </trkpt>
            <trkpt lon="-105.07275164" lat="38.87913156">
                <ele>3424.0</ele>
                <time>2008-06-25T15:52:50.000Z</time>
                <name>Position 2401</name>
            </trkpt>
            <trkpt lon="-105.07277" lat="38.87905324">
                <ele>3424.0</ele>
                <time>2008-06-25T15:52:51.000Z</time>
                <name>Position 2402</name>
            </trkpt>
            <trkpt lon="-105.07281494" lat="38.87900329">
                <ele>3424.0</ele>
                <time>2008-06-25T15:52:52.000Z</time>
                <name>Position 2403</name>
            </trkpt>
            <trkpt lon="-105.07287657" lat="38.87898159">
                <ele>3424.0</ele>
                <time>2008-06-25T15:52:53.000Z</time>
                <name>Position 2404</name>
            </trkpt>
            <trkpt lon="-105.07295489" lat="38.87900162">
                <ele>3442.0</ele>
                <time>2008-06-25T15:52:54.000Z</time>
                <name>Position 2405</name>
            </trkpt>
            <trkpt lon="-105.07302499" lat="38.8790549">
                <ele>3442.0</ele>
                <time>2008-06-25T15:52:55.000Z</time>
                <name>Position 2406</name>
            </trkpt>
            <trkpt lon="-105.07306993" lat="38.87912989">
                <ele>3442.0</ele>
                <time>2008-06-25T15:52:56.000Z</time>
                <name>Position 2407</name>
            </trkpt>
            <trkpt lon="-105.07308996" lat="38.87923491">
                <ele>3442.0</ele>
                <time>2008-06-25T15:52:57.000Z</time>
                <name>Position 2408</name>
            </trkpt>
            <trkpt lon="-105.07311165" lat="38.87933993">
                <ele>3442.0</ele>
                <time>2008-06-25T15:52:58.000Z</time>
                <name>Position 2409</name>
            </trkpt>
            <trkpt lon="-105.07314491" lat="38.87943995">
                <ele>3442.0</ele>
                <time>2008-06-25T15:52:59.000Z</time>
                <name>Position 2410</name>
            </trkpt>
            <trkpt lon="-105.07319164" lat="38.87953997">
                <ele>3442.0</ele>
                <time>2008-06-25T15:53:00.000Z</time>
                <name>Position 2411</name>
            </trkpt>
            <trkpt lon="-105.07324159" lat="38.87964165">
                <ele>3432.0</ele>
                <time>2008-06-25T15:53:01.000Z</time>
                <name>Position 2412</name>
            </trkpt>
            <trkpt lon="-105.07329988" lat="38.87974">
                <ele>3432.0</ele>
                <time>2008-06-25T15:53:02.000Z</time>
                <name>Position 2413</name>
            </trkpt>
            <trkpt lon="-105.07337332" lat="38.87983322">
                <ele>3432.0</ele>
                <time>2008-06-25T15:53:03.000Z</time>
                <name>Position 2414</name>
            </trkpt>
            <trkpt lon="-105.07346165" lat="38.879915">
                <ele>3432.0</ele>
                <time>2008-06-25T15:53:04.000Z</time>
                <name>Position 2415</name>
            </trkpt>
            <trkpt lon="-105.07356822" lat="38.87998164">
                <ele>3432.0</ele>
                <time>2008-06-25T15:53:05.000Z</time>
                <name>Position 2416</name>
            </trkpt>
            <trkpt lon="-105.07368994" lat="38.88003325">
                <ele>3432.0</ele>
                <time>2008-06-25T15:53:06.000Z</time>
                <name>Position 2417</name>
            </trkpt>
            <trkpt lon="-105.07382166" lat="38.88007164">
                <ele>3444.0</ele>
                <time>2008-06-25T15:53:07.000Z</time>
                <name>Position 2418</name>
            </trkpt>
            <trkpt lon="-105.07395995" lat="38.88009655">
                <ele>3444.0</ele>
                <time>2008-06-25T15:53:08.000Z</time>
                <name>Position 2419</name>
            </trkpt>
            <trkpt lon="-105.0740999" lat="38.88009322">
                <ele>3444.0</ele>
                <time>2008-06-25T15:53:09.000Z</time>
                <name>Position 2420</name>
            </trkpt>
            <trkpt lon="-105.07423663" lat="38.88005996">
                <ele>3444.0</ele>
                <time>2008-06-25T15:53:10.000Z</time>
                <name>Position 2421</name>
            </trkpt>
            <trkpt lon="-105.07435822" lat="38.88000822">
                <ele>3444.0</ele>
                <time>2008-06-25T15:53:11.000Z</time>
                <name>Position 2422</name>
            </trkpt>
            <trkpt lon="-105.07445323" lat="38.87993991">
                <ele>3444.0</ele>
                <time>2008-06-25T15:53:12.000Z</time>
                <name>Position 2423</name>
            </trkpt>
            <trkpt lon="-105.07451499" lat="38.87985492">
                <ele>3444.0</ele>
                <time>2008-06-25T15:53:13.000Z</time>
                <name>Position 2424</name>
            </trkpt>
            <trkpt lon="-105.07453656" lat="38.87976325">
                <ele>3444.0</ele>
                <time>2008-06-25T15:53:14.000Z</time>
                <name>Position 2425</name>
            </trkpt>
            <trkpt lon="-105.07452655" lat="38.87967324">
                <ele>3444.0</ele>
                <time>2008-06-25T15:53:15.000Z</time>
                <name>Position 2426</name>
            </trkpt>
            <trkpt lon="-105.07448494" lat="38.87958658">
                <ele>3444.0</ele>
                <time>2008-06-25T15:53:16.000Z</time>
                <name>Position 2427</name>
            </trkpt>
            <trkpt lon="-105.07442331" lat="38.87950492">
                <ele>3460.0</ele>
                <time>2008-06-25T15:53:17.000Z</time>
                <name>Position 2428</name>
            </trkpt>
            <trkpt lon="-105.07435656" lat="38.87942159">
                <ele>3460.0</ele>
                <time>2008-06-25T15:53:18.000Z</time>
                <name>Position 2429</name>
            </trkpt>
            <trkpt lon="-105.07429326" lat="38.87933493">
                <ele>3460.0</ele>
                <time>2008-06-25T15:53:19.000Z</time>
                <name>Position 2430</name>
            </trkpt>
            <trkpt lon="-105.07423496" lat="38.87924159">
                <ele>3460.0</ele>
                <time>2008-06-25T15:53:20.000Z</time>
                <name>Position 2431</name>
            </trkpt>
            <trkpt lon="-105.07418323" lat="38.87914491">
                <ele>3460.0</ele>
                <time>2008-06-25T15:53:21.000Z</time>
                <name>Position 2432</name>
            </trkpt>
            <trkpt lon="-105.07413328" lat="38.87904656">
                <ele>3460.0</ele>
                <time>2008-06-25T15:53:22.000Z</time>
                <name>Position 2433</name>
            </trkpt>
            <trkpt lon="-105.07407665" lat="38.87894833">
                <ele>3460.0</ele>
                <time>2008-06-25T15:53:23.000Z</time>
                <name>Position 2434</name>
            </trkpt>
            <trkpt lon="-105.07400656" lat="38.87885165">
                <ele>3460.0</ele>
                <time>2008-06-25T15:53:24.000Z</time>
                <name>Position 2435</name>
            </trkpt>
            <trkpt lon="-105.07392824" lat="38.87875998">
                <ele>3460.0</ele>
                <time>2008-06-25T15:53:25.000Z</time>
                <name>Position 2436</name>
            </trkpt>
            <trkpt lon="-105.07384491" lat="38.87866664">
                <ele>3478.0</ele>
                <time>2008-06-25T15:53:26.000Z</time>
                <name>Position 2437</name>
            </trkpt>
            <trkpt lon="-105.07376993" lat="38.87857163">
                <ele>3478.0</ele>
                <time>2008-06-25T15:53:27.000Z</time>
                <name>Position 2438</name>
            </trkpt>
            <trkpt lon="-105.07371831" lat="38.87846994">
                <ele>3458.0</ele>
                <time>2008-06-25T15:53:28.000Z</time>
                <name>Position 2439</name>
            </trkpt>
            <trkpt lon="-105.07369161" lat="38.87836492">
                <ele>3458.0</ele>
                <time>2008-06-25T15:53:29.000Z</time>
                <name>Position 2440</name>
            </trkpt>
            <trkpt lon="-105.07368994" lat="38.87825489">
                <ele>3458.0</ele>
                <time>2008-06-25T15:53:30.000Z</time>
                <name>Position 2441</name>
            </trkpt>
            <trkpt lon="-105.07369828" lat="38.87814665">
                <ele>3458.0</ele>
                <time>2008-06-25T15:53:31.000Z</time>
                <name>Position 2442</name>
            </trkpt>
            <trkpt lon="-105.0737083" lat="38.87803662">
                <ele>3458.0</ele>
                <time>2008-06-25T15:53:32.000Z</time>
                <name>Position 2443</name>
            </trkpt>
            <trkpt lon="-105.07371831" lat="38.87792826">
                <ele>3458.0</ele>
                <time>2008-06-25T15:53:33.000Z</time>
                <name>Position 2444</name>
            </trkpt>
            <trkpt lon="-105.07372165" lat="38.87782657">
                <ele>3474.0</ele>
                <time>2008-06-25T15:53:34.000Z</time>
                <name>Position 2445</name>
            </trkpt>
            <trkpt lon="-105.07371831" lat="38.87772989">
                <ele>3474.0</ele>
                <time>2008-06-25T15:53:35.000Z</time>
                <name>Position 2446</name>
            </trkpt>
            <trkpt lon="-105.07370329" lat="38.87763989">
                <ele>3474.0</ele>
                <time>2008-06-25T15:53:36.000Z</time>
                <name>Position 2447</name>
            </trkpt>
            <trkpt lon="-105.07367826" lat="38.87755322">
                <ele>3474.0</ele>
                <time>2008-06-25T15:53:37.000Z</time>
                <name>Position 2448</name>
            </trkpt>
            <trkpt lon="-105.073645" lat="38.8774699">
                <ele>3474.0</ele>
                <time>2008-06-25T15:53:38.000Z</time>
                <name>Position 2449</name>
            </trkpt>
            <trkpt lon="-105.07360327" lat="38.87738991">
                <ele>3474.0</ele>
                <time>2008-06-25T15:53:39.000Z</time>
                <name>Position 2450</name>
            </trkpt>
            <trkpt lon="-105.07355499" lat="38.87731326">
                <ele>3474.0</ele>
                <time>2008-06-25T15:53:40.000Z</time>
                <name>Position 2451</name>
            </trkpt>
            <trkpt lon="-105.07349992" lat="38.87723827">
                <ele>3474.0</ele>
                <time>2008-06-25T15:53:41.000Z</time>
                <name>Position 2452</name>
            </trkpt>
            <trkpt lon="-105.07344329" lat="38.87716329">
                <ele>3474.0</ele>
                <time>2008-06-25T15:53:42.000Z</time>
                <name>Position 2453</name>
            </trkpt>
            <trkpt lon="-105.07339489" lat="38.87707996">
                <ele>3492.0</ele>
                <time>2008-06-25T15:53:43.000Z</time>
                <name>Position 2454</name>
            </trkpt>
            <trkpt lon="-105.07335496" lat="38.87698829">
                <ele>3492.0</ele>
                <time>2008-06-25T15:53:44.000Z</time>
                <name>Position 2455</name>
            </trkpt>
            <trkpt lon="-105.07332993" lat="38.87689161">
                <ele>3492.0</ele>
                <time>2008-06-25T15:53:45.000Z</time>
                <name>Position 2456</name>
            </trkpt>
            <trkpt lon="-105.07331657" lat="38.8767916">
                <ele>3492.0</ele>
                <time>2008-06-25T15:53:46.000Z</time>
                <name>Position 2457</name>
            </trkpt>
            <trkpt lon="-105.07330823" lat="38.87668991">
                <ele>3492.0</ele>
                <time>2008-06-25T15:53:47.000Z</time>
                <name>Position 2458</name>
            </trkpt>
            <trkpt lon="-105.07330322" lat="38.87658489">
                <ele>3492.0</ele>
                <time>2008-06-25T15:53:48.000Z</time>
                <name>Position 2459</name>
            </trkpt>
            <trkpt lon="-105.07329988" lat="38.87648332">
                <ele>3492.0</ele>
                <time>2008-06-25T15:53:49.000Z</time>
                <name>Position 2460</name>
            </trkpt>
            <trkpt lon="-105.07329667" lat="38.87638831">
                <ele>3492.0</ele>
                <time>2008-06-25T15:53:50.000Z</time>
                <name>Position 2461</name>
            </trkpt>
            <trkpt lon="-105.07329333" lat="38.87629664">
                <ele>3492.0</ele>
                <time>2008-06-25T15:53:51.000Z</time>
                <name>Position 2462</name>
            </trkpt>
            <trkpt lon="-105.07329166" lat="38.87621164">
                <ele>3494.0</ele>
                <time>2008-06-25T15:53:52.000Z</time>
                <name>Position 2463</name>
            </trkpt>
            <trkpt lon="-105.07328999" lat="38.87613165">
                <ele>3494.0</ele>
                <time>2008-06-25T15:53:53.000Z</time>
                <name>Position 2464</name>
            </trkpt>
            <trkpt lon="-105.07328999" lat="38.87605333">
                <ele>3494.0</ele>
                <time>2008-06-25T15:53:54.000Z</time>
                <name>Position 2465</name>
            </trkpt>
            <trkpt lon="-105.07328498" lat="38.8759799">
                <ele>3494.0</ele>
                <time>2008-06-25T15:53:55.000Z</time>
                <name>Position 2466</name>
            </trkpt>
            <trkpt lon="-105.07328331" lat="38.87591159">
                <ele>3494.0</ele>
                <time>2008-06-25T15:53:56.000Z</time>
                <name>Position 2467</name>
            </trkpt>
            <trkpt lon="-105.07327831" lat="38.87585163">
                <ele>3494.0</ele>
                <time>2008-06-25T15:53:57.000Z</time>
                <name>Position 2468</name>
            </trkpt>
            <trkpt lon="-105.07326496" lat="38.87580323">
                <ele>3494.0</ele>
                <time>2008-06-25T15:53:58.000Z</time>
                <name>Position 2469</name>
            </trkpt>
            <trkpt lon="-105.07323658" lat="38.87577164">
                <ele>3494.0</ele>
                <time>2008-06-25T15:53:59.000Z</time>
                <name>Position 2470</name>
            </trkpt>
            <trkpt lon="-105.07319999" lat="38.87575495">
                <ele>3494.0</ele>
                <time>2008-06-25T15:54:00.000Z</time>
                <name>Position 2471</name>
            </trkpt>
            <trkpt lon="-105.07315826" lat="38.87575662">
                <ele>3494.0</ele>
                <time>2008-06-25T15:54:01.000Z</time>
                <name>Position 2472</name>
            </trkpt>
            <trkpt lon="-105.07313156" lat="38.87575495">
                <ele>3494.0</ele>
                <time>2008-06-25T15:54:02.000Z</time>
                <name>Position 2473</name>
            </trkpt>
            <trkpt lon="-105.07311165" lat="38.87580156">
                <ele>3494.0</ele>
                <time>2008-06-25T16:14:47.000Z</time>
                <name>Position 2474</name>
            </trkpt>
            <trkpt lon="-105.07312655" lat="38.87580156">
                <ele>3494.0</ele>
                <time>2008-06-25T16:14:48.000Z</time>
                <name>Position 2475</name>
            </trkpt>
            <trkpt lon="-105.07314324" lat="38.87580156">
                <ele>3494.0</ele>
                <time>2008-06-25T16:14:49.000Z</time>
                <name>Position 2476</name>
            </trkpt>
            <trkpt lon="-105.0731616" lat="38.87580323">
                <ele>3494.0</ele>
                <time>2008-06-25T16:14:50.000Z</time>
                <name>Position 2477</name>
            </trkpt>
            <trkpt lon="-105.07317829" lat="38.87580824">
                <ele>3494.0</ele>
                <time>2008-06-25T16:14:51.000Z</time>
                <name>Position 2478</name>
            </trkpt>
            <trkpt lon="-105.07319331" lat="38.87581658">
                <ele>3494.0</ele>
                <time>2008-06-25T16:14:52.000Z</time>
                <name>Position 2479</name>
            </trkpt>
            <trkpt lon="-105.07320499" lat="38.87582827">
                <ele>3494.0</ele>
                <time>2008-06-25T16:14:53.000Z</time>
                <name>Position 2480</name>
            </trkpt>
            <trkpt lon="-105.07321155" lat="38.87583828">
                <ele>3494.0</ele>
                <time>2008-06-25T16:14:54.000Z</time>
                <name>Position 2481</name>
            </trkpt>
            <trkpt lon="-105.07323492" lat="38.87582159">
                <ele>3494.0</ele>
                <time>2008-06-25T16:14:58.000Z</time>
                <name>Position 2482</name>
            </trkpt>
            <trkpt lon="-105.07324827" lat="38.87580156">
                <ele>3494.0</ele>
                <time>2008-06-25T16:14:59.000Z</time>
                <name>Position 2483</name>
            </trkpt>
            <trkpt lon="-105.07326663" lat="38.87577498">
                <ele>3494.0</ele>
                <time>2008-06-25T16:15:00.000Z</time>
                <name>Position 2484</name>
            </trkpt>
            <trkpt lon="-105.07328832" lat="38.87574327">
                <ele>3494.0</ele>
                <time>2008-06-25T16:15:01.000Z</time>
                <name>Position 2485</name>
            </trkpt>
            <trkpt lon="-105.0733099" lat="38.87570655">
                <ele>3494.0</ele>
                <time>2008-06-25T16:15:02.000Z</time>
                <name>Position 2486</name>
            </trkpt>
            <trkpt lon="-105.07332492" lat="38.87566662">
                <ele>3494.0</ele>
                <time>2008-06-25T16:15:03.000Z</time>
                <name>Position 2487</name>
            </trkpt>
            <trkpt lon="-105.07333994" lat="38.87561989">
                <ele>3494.0</ele>
                <time>2008-06-25T16:15:04.000Z</time>
                <name>Position 2488</name>
            </trkpt>
            <trkpt lon="-105.07335162" lat="38.87557161">
                <ele>3494.0</ele>
                <time>2008-06-25T16:15:05.000Z</time>
                <name>Position 2489</name>
            </trkpt>
            <trkpt lon="-105.07335997" lat="38.87551999">
                <ele>3494.0</ele>
                <time>2008-06-25T16:15:06.000Z</time>
                <name>Position 2490</name>
            </trkpt>
            <trkpt lon="-105.07336497" lat="38.87546492">
                <ele>3494.0</ele>
                <time>2008-06-25T16:15:07.000Z</time>
                <name>Position 2491</name>
            </trkpt>
            <trkpt lon="-105.07336998" lat="38.87540662">
                <ele>3501.0</ele>
                <time>2008-06-25T16:15:08.000Z</time>
                <name>Position 2492</name>
            </trkpt>
            <trkpt lon="-105.07337165" lat="38.87534499">
                <ele>3501.0</ele>
                <time>2008-06-25T16:15:09.000Z</time>
                <name>Position 2493</name>
            </trkpt>
            <trkpt lon="-105.07336831" lat="38.8752799">
                <ele>3501.0</ele>
                <time>2008-06-25T16:15:10.000Z</time>
                <name>Position 2494</name>
            </trkpt>
            <trkpt lon="-105.0733633" lat="38.8752116">
                <ele>3501.0</ele>
                <time>2008-06-25T16:15:11.000Z</time>
                <name>Position 2495</name>
            </trkpt>
            <trkpt lon="-105.0733583" lat="38.87513995">
                <ele>3501.0</ele>
                <time>2008-06-25T16:15:12.000Z</time>
                <name>Position 2496</name>
            </trkpt>
            <trkpt lon="-105.07335329" lat="38.8750633">
                <ele>3501.0</ele>
                <time>2008-06-25T16:15:13.000Z</time>
                <name>Position 2497</name>
            </trkpt>
            <trkpt lon="-105.07334828" lat="38.87498665">
                <ele>3501.0</ele>
                <time>2008-06-25T16:15:14.000Z</time>
                <name>Position 2498</name>
            </trkpt>
            <trkpt lon="-105.07334328" lat="38.87491167">
                <ele>3501.0</ele>
                <time>2008-06-25T16:15:15.000Z</time>
                <name>Position 2499</name>
            </trkpt>
            <trkpt lon="-105.07334161" lat="38.87483823">
                <ele>3501.0</ele>
                <time>2008-06-25T16:15:16.000Z</time>
                <name>Position 2500</name>
            </trkpt>
            <trkpt lon="-105.07334161" lat="38.87476659">
                <ele>3501.0</ele>
                <time>2008-06-25T16:15:17.000Z</time>
                <name>Position 2501</name>
            </trkpt>
            <trkpt lon="-105.07334328" lat="38.87469494">
                <ele>3501.0</ele>
                <time>2008-06-25T16:15:18.000Z</time>
                <name>Position 2502</name>
            </trkpt>
            <trkpt lon="-105.07334495" lat="38.8746233">
                <ele>3501.0</ele>
                <time>2008-06-25T16:15:19.000Z</time>
                <name>Position 2503</name>
            </trkpt>
            <trkpt lon="-105.07334828" lat="38.87455165">
                <ele>3518.0</ele>
                <time>2008-06-25T16:15:20.000Z</time>
                <name>Position 2504</name>
            </trkpt>
            <trkpt lon="-105.07335329" lat="38.87447989">
                <ele>3518.0</ele>
                <time>2008-06-25T16:15:21.000Z</time>
                <name>Position 2505</name>
            </trkpt>
            <trkpt lon="-105.07336831" lat="38.87440991">
                <ele>3518.0</ele>
                <time>2008-06-25T16:15:22.000Z</time>
                <name>Position 2506</name>
            </trkpt>
            <trkpt lon="-105.07339489" lat="38.87434161">
                <ele>3518.0</ele>
                <time>2008-06-25T16:15:23.000Z</time>
                <name>Position 2507</name>
            </trkpt>
            <trkpt lon="-105.07343495" lat="38.87427831">
                <ele>3518.0</ele>
                <time>2008-06-25T16:15:24.000Z</time>
                <name>Position 2508</name>
            </trkpt>
            <trkpt lon="-105.07349157" lat="38.87422156">
                <ele>3518.0</ele>
                <time>2008-06-25T16:15:25.000Z</time>
                <name>Position 2509</name>
            </trkpt>
            <trkpt lon="-105.07356" lat="38.87417662">
                <ele>3518.0</ele>
                <time>2008-06-25T16:15:26.000Z</time>
                <name>Position 2510</name>
            </trkpt>
            <trkpt lon="-105.07363665" lat="38.87413657">
                <ele>3518.0</ele>
                <time>2008-06-25T16:15:27.000Z</time>
                <name>Position 2511</name>
            </trkpt>
            <trkpt lon="-105.07371831" lat="38.8740983">
                <ele>3518.0</ele>
                <time>2008-06-25T16:15:28.000Z</time>
                <name>Position 2512</name>
            </trkpt>
            <trkpt lon="-105.07380164" lat="38.87406158">
                <ele>3508.0</ele>
                <time>2008-06-25T16:15:29.000Z</time>
                <name>Position 2513</name>
            </trkpt>
            <trkpt lon="-105.07388663" lat="38.87402499">
                <ele>3508.0</ele>
                <time>2008-06-25T16:15:30.000Z</time>
                <name>Position 2514</name>
            </trkpt>
            <trkpt lon="-105.0739733" lat="38.8739866">
                <ele>3508.0</ele>
                <time>2008-06-25T16:15:31.000Z</time>
                <name>Position 2515</name>
            </trkpt>
            <trkpt lon="-105.07406163" lat="38.87394655">
                <ele>3508.0</ele>
                <time>2008-06-25T16:15:32.000Z</time>
                <name>Position 2516</name>
            </trkpt>
            <trkpt lon="-105.0741483" lat="38.87390327">
                <ele>3508.0</ele>
                <time>2008-06-25T16:15:33.000Z</time>
                <name>Position 2517</name>
            </trkpt>
            <trkpt lon="-105.07423496" lat="38.87385499">
                <ele>3508.0</ele>
                <time>2008-06-25T16:15:34.000Z</time>
                <name>Position 2518</name>
            </trkpt>
            <trkpt lon="-105.07432163" lat="38.87380493">
                <ele>3508.0</ele>
                <time>2008-06-25T16:15:35.000Z</time>
                <name>Position 2519</name>
            </trkpt>
            <trkpt lon="-105.07440996" lat="38.87375164">
                <ele>3508.0</ele>
                <time>2008-06-25T16:15:36.000Z</time>
                <name>Position 2520</name>
            </trkpt>
            <trkpt lon="-105.0744983" lat="38.87369657">
                <ele>3540.0</ele>
                <time>2008-06-25T16:15:37.000Z</time>
                <name>Position 2521</name>
            </trkpt>
            <trkpt lon="-105.07458997" lat="38.87364161">
                <ele>3525.0</ele>
                <time>2008-06-25T16:15:38.000Z</time>
                <name>Position 2522</name>
            </trkpt>
            <trkpt lon="-105.07468331" lat="38.87358999">
                <ele>3525.0</ele>
                <time>2008-06-25T16:15:39.000Z</time>
                <name>Position 2523</name>
            </trkpt>
            <trkpt lon="-105.07477832" lat="38.87353992">
                <ele>3525.0</ele>
                <time>2008-06-25T16:15:40.000Z</time>
                <name>Position 2524</name>
            </trkpt>
            <trkpt lon="-105.07487667" lat="38.87348831">
                <ele>3525.0</ele>
                <time>2008-06-25T16:15:41.000Z</time>
                <name>Position 2525</name>
            </trkpt>
            <trkpt lon="-105.07497323" lat="38.87343824">
                <ele>3525.0</ele>
                <time>2008-06-25T16:15:42.000Z</time>
                <name>Position 2526</name>
            </trkpt>
            <trkpt lon="-105.0750699" lat="38.87338662">
                <ele>3525.0</ele>
                <time>2008-06-25T16:15:43.000Z</time>
                <name>Position 2527</name>
            </trkpt>
            <trkpt lon="-105.07516992" lat="38.87333655">
                <ele>3525.0</ele>
                <time>2008-06-25T16:15:44.000Z</time>
                <name>Position 2528</name>
            </trkpt>
            <trkpt lon="-105.07527328" lat="38.87329161">
                <ele>3525.0</ele>
                <time>2008-06-25T16:15:45.000Z</time>
                <name>Position 2529</name>
            </trkpt>
            <trkpt lon="-105.07537663" lat="38.87325323">
                <ele>3525.0</ele>
                <time>2008-06-25T16:15:46.000Z</time>
                <name>Position 2530</name>
            </trkpt>
            <trkpt lon="-105.07547998" lat="38.8732233">
                <ele>3528.0</ele>
                <time>2008-06-25T16:15:47.000Z</time>
                <name>Position 2531</name>
            </trkpt>
            <trkpt lon="-105.07557499" lat="38.87319493">
                <ele>3528.0</ele>
                <time>2008-06-25T16:15:48.000Z</time>
                <name>Position 2532</name>
            </trkpt>
            <trkpt lon="-105.075665" lat="38.87315989">
                <ele>3528.0</ele>
                <time>2008-06-25T16:15:49.000Z</time>
                <name>Position 2533</name>
            </trkpt>
            <trkpt lon="-105.0757333" lat="38.87311161">
                <ele>3528.0</ele>
                <time>2008-06-25T16:15:50.000Z</time>
                <name>Position 2534</name>
            </trkpt>
            <trkpt lon="-105.07577825" lat="38.87305164">
                <ele>3528.0</ele>
                <time>2008-06-25T16:15:51.000Z</time>
                <name>Position 2535</name>
            </trkpt>
            <trkpt lon="-105.07578993" lat="38.87298656">
                <ele>3528.0</ele>
                <time>2008-06-25T16:15:52.000Z</time>
                <name>Position 2536</name>
            </trkpt>
            <trkpt lon="-105.07576489" lat="38.87292826">
                <ele>3528.0</ele>
                <time>2008-06-25T16:15:53.000Z</time>
                <name>Position 2537</name>
            </trkpt>
            <trkpt lon="-105.07569826" lat="38.87288666">
                <ele>3551.0</ele>
                <time>2008-06-25T16:15:54.000Z</time>
                <name>Position 2538</name>
            </trkpt>
            <trkpt lon="-105.07560658" lat="38.87286997">
                <ele>3551.0</ele>
                <time>2008-06-25T16:15:55.000Z</time>
                <name>Position 2539</name>
            </trkpt>
            <trkpt lon="-105.07551324" lat="38.87288332">
                <ele>3551.0</ele>
                <time>2008-06-25T16:15:56.000Z</time>
                <name>Position 2540</name>
            </trkpt>
            <trkpt lon="-105.07542825" lat="38.87291992">
                <ele>3528.0</ele>
                <time>2008-06-25T16:15:57.000Z</time>
                <name>Position 2541</name>
            </trkpt>
            <trkpt lon="-105.07534826" lat="38.87296999">
                <ele>3525.0</ele>
                <time>2008-06-25T16:15:58.000Z</time>
                <name>Position 2542</name>
            </trkpt>
            <trkpt lon="-105.07526493" lat="38.87302494">
                <ele>3525.0</ele>
                <time>2008-06-25T16:15:59.000Z</time>
                <name>Position 2543</name>
            </trkpt>
            <trkpt lon="-105.07517159" lat="38.87308156">
                <ele>3525.0</ele>
                <time>2008-06-25T16:16:00.000Z</time>
                <name>Position 2544</name>
            </trkpt>
            <trkpt lon="-105.07506657" lat="38.87313497">
                <ele>3525.0</ele>
                <time>2008-06-25T16:16:01.000Z</time>
                <name>Position 2545</name>
            </trkpt>
            <trkpt lon="-105.07494998" lat="38.87318325">
                <ele>3525.0</ele>
                <time>2008-06-25T16:16:02.000Z</time>
                <name>Position 2546</name>
            </trkpt>
            <trkpt lon="-105.07482493" lat="38.87322831">
                <ele>3525.0</ele>
                <time>2008-06-25T16:16:03.000Z</time>
                <name>Position 2547</name>
            </trkpt>
            <trkpt lon="-105.07468998" lat="38.87326491">
                <ele>3525.0</ele>
                <time>2008-06-25T16:16:04.000Z</time>
                <name>Position 2548</name>
            </trkpt>
            <trkpt lon="-105.07454991" lat="38.87329662">
                <ele>3540.0</ele>
                <time>2008-06-25T16:16:05.000Z</time>
                <name>Position 2549</name>
            </trkpt>
            <trkpt lon="-105.07440329" lat="38.87331831">
                <ele>3540.0</ele>
                <time>2008-06-25T16:16:06.000Z</time>
                <name>Position 2550</name>
            </trkpt>
            <trkpt lon="-105.07425499" lat="38.87333167">
                <ele>3540.0</ele>
                <time>2008-06-25T16:16:07.000Z</time>
                <name>Position 2551</name>
            </trkpt>
            <trkpt lon="-105.07410657" lat="38.87333822">
                <ele>3540.0</ele>
                <time>2008-06-25T16:16:08.000Z</time>
                <name>Position 2552</name>
            </trkpt>
            <trkpt lon="-105.07395995" lat="38.87333822">
                <ele>3540.0</ele>
                <time>2008-06-25T16:16:09.000Z</time>
                <name>Position 2553</name>
            </trkpt>
            <trkpt lon="-105.07381666" lat="38.87333167">
                <ele>3540.0</ele>
                <time>2008-06-25T16:16:10.000Z</time>
                <name>Position 2554</name>
            </trkpt>
            <trkpt lon="-105.07367492" lat="38.87331665">
                <ele>3545.0</ele>
                <time>2008-06-25T16:16:11.000Z</time>
                <name>Position 2555</name>
            </trkpt>
            <trkpt lon="-105.07353497" lat="38.87329662">
                <ele>3545.0</ele>
                <time>2008-06-25T16:16:12.000Z</time>
                <name>Position 2556</name>
            </trkpt>
            <trkpt lon="-105.07339489" lat="38.87327325">
                <ele>3545.0</ele>
                <time>2008-06-25T16:16:13.000Z</time>
                <name>Position 2557</name>
            </trkpt>
            <trkpt lon="-105.07325828" lat="38.87324989">
                <ele>3545.0</ele>
                <time>2008-06-25T16:16:14.000Z</time>
                <name>Position 2558</name>
            </trkpt>
            <trkpt lon="-105.07312155" lat="38.87322664">
                <ele>3545.0</ele>
                <time>2008-06-25T16:16:15.000Z</time>
                <name>Position 2559</name>
            </trkpt>
            <trkpt lon="-105.07297993" lat="38.87320495">
                <ele>3545.0</ele>
                <time>2008-06-25T16:16:16.000Z</time>
                <name>Position 2560</name>
            </trkpt>
            <trkpt lon="-105.07283998" lat="38.87318325">
                <ele>3547.0</ele>
                <time>2008-06-25T16:16:17.000Z</time>
                <name>Position 2561</name>
            </trkpt>
            <trkpt lon="-105.07269824" lat="38.87316155">
                <ele>3547.0</ele>
                <time>2008-06-25T16:16:18.000Z</time>
                <name>Position 2562</name>
            </trkpt>
            <trkpt lon="-105.07255828" lat="38.87313831">
                <ele>3547.0</ele>
                <time>2008-06-25T16:16:19.000Z</time>
                <name>Position 2563</name>
            </trkpt>
            <trkpt lon="-105.07242489" lat="38.87311161">
                <ele>3547.0</ele>
                <time>2008-06-25T16:16:20.000Z</time>
                <name>Position 2564</name>
            </trkpt>
            <trkpt lon="-105.07229328" lat="38.87307322">
                <ele>3547.0</ele>
                <time>2008-06-25T16:16:21.000Z</time>
                <name>Position 2565</name>
            </trkpt>
            <trkpt lon="-105.07216656" lat="38.87302327">
                <ele>3547.0</ele>
                <time>2008-06-25T16:16:22.000Z</time>
                <name>Position 2566</name>
            </trkpt>
            <trkpt lon="-105.07204998" lat="38.87296331">
                <ele>3553.0</ele>
                <time>2008-06-25T16:16:23.000Z</time>
                <name>Position 2567</name>
            </trkpt>
            <trkpt lon="-105.07194662" lat="38.87289321">
                <ele>3561.0</ele>
                <time>2008-06-25T16:16:24.000Z</time>
                <name>Position 2568</name>
            </trkpt>
            <trkpt lon="-105.07184827" lat="38.87281823">
                <ele>3561.0</ele>
                <time>2008-06-25T16:16:25.000Z</time>
                <name>Position 2569</name>
            </trkpt>
            <trkpt lon="-105.07175493" lat="38.87273991">
                <ele>3561.0</ele>
                <time>2008-06-25T16:16:26.000Z</time>
                <name>Position 2570</name>
            </trkpt>
            <trkpt lon="-105.07166159" lat="38.87266159">
                <ele>3561.0</ele>
                <time>2008-06-25T16:16:27.000Z</time>
                <name>Position 2571</name>
            </trkpt>
            <trkpt lon="-105.07156491" lat="38.87258661">
                <ele>3561.0</ele>
                <time>2008-06-25T16:16:28.000Z</time>
                <name>Position 2572</name>
            </trkpt>
            <trkpt lon="-105.07146156" lat="38.87251663">
                <ele>3561.0</ele>
                <time>2008-06-25T16:16:29.000Z</time>
                <name>Position 2573</name>
            </trkpt>
            <trkpt lon="-105.07135332" lat="38.87245655">
                <ele>3561.0</ele>
                <time>2008-06-25T16:16:30.000Z</time>
                <name>Position 2574</name>
            </trkpt>
            <trkpt lon="-105.07123995" lat="38.87240493">
                <ele>3570.0</ele>
                <time>2008-06-25T16:16:31.000Z</time>
                <name>Position 2575</name>
            </trkpt>
            <trkpt lon="-105.07112825" lat="38.87236333">
                <ele>3570.0</ele>
                <time>2008-06-25T16:16:32.000Z</time>
                <name>Position 2576</name>
            </trkpt>
            <trkpt lon="-105.07101333" lat="38.87232995">
                <ele>3570.0</ele>
                <time>2008-06-25T16:16:33.000Z</time>
                <name>Position 2577</name>
            </trkpt>
            <trkpt lon="-105.07089663" lat="38.87231493">
                <ele>3570.0</ele>
                <time>2008-06-25T16:16:34.000Z</time>
                <name>Position 2578</name>
            </trkpt>
            <trkpt lon="-105.07078326" lat="38.87232161">
                <ele>3570.0</ele>
                <time>2008-06-25T16:16:35.000Z</time>
                <name>Position 2579</name>
            </trkpt>
            <trkpt lon="-105.0706749" lat="38.87235165">
                <ele>3570.0</ele>
                <time>2008-06-25T16:16:36.000Z</time>
                <name>Position 2580</name>
            </trkpt>
            <trkpt lon="-105.07057822" lat="38.87239993">
                <ele>3570.0</ele>
                <time>2008-06-25T16:16:37.000Z</time>
                <name>Position 2581</name>
            </trkpt>
            <trkpt lon="-105.07049489" lat="38.87246656">
                <ele>3570.0</ele>
                <time>2008-06-25T16:16:38.000Z</time>
                <name>Position 2582</name>
            </trkpt>
            <trkpt lon="-105.07042491" lat="38.87254989">
                <ele>3570.0</ele>
                <time>2008-06-25T16:16:39.000Z</time>
                <name>Position 2583</name>
            </trkpt>
            <trkpt lon="-105.07036662" lat="38.87263989">
                <ele>3589.0</ele>
                <time>2008-06-25T16:16:40.000Z</time>
                <name>Position 2584</name>
            </trkpt>
            <trkpt lon="-105.07031322" lat="38.87273657">
                <ele>3589.0</ele>
                <time>2008-06-25T16:16:41.000Z</time>
                <name>Position 2585</name>
            </trkpt>
            <trkpt lon="-105.07026994" lat="38.87283492">
                <ele>3589.0</ele>
                <time>2008-06-25T16:16:42.000Z</time>
                <name>Position 2586</name>
            </trkpt>
            <trkpt lon="-105.07023323" lat="38.87293828">
                <ele>3588.0</ele>
                <time>2008-06-25T16:16:43.000Z</time>
                <name>Position 2587</name>
            </trkpt>
            <trkpt lon="-105.07020497" lat="38.8730433">
                <ele>3588.0</ele>
                <time>2008-06-25T16:16:44.000Z</time>
                <name>Position 2588</name>
            </trkpt>
            <trkpt lon="-105.07018161" lat="38.87314832">
                <ele>3588.0</ele>
                <time>2008-06-25T16:16:45.000Z</time>
                <name>Position 2589</name>
            </trkpt>
            <trkpt lon="-105.07015991" lat="38.8732549">
                <ele>3588.0</ele>
                <time>2008-06-25T16:16:46.000Z</time>
                <name>Position 2590</name>
            </trkpt>
            <trkpt lon="-105.07014155" lat="38.87336326">
                <ele>3588.0</ele>
                <time>2008-06-25T16:16:47.000Z</time>
                <name>Position 2591</name>
            </trkpt>
            <trkpt lon="-105.07012832" lat="38.87347162">
                <ele>3588.0</ele>
                <time>2008-06-25T16:16:48.000Z</time>
                <name>Position 2592</name>
            </trkpt>
            <trkpt lon="-105.07012165" lat="38.87358165">
                <ele>3588.0</ele>
                <time>2008-06-25T16:16:49.000Z</time>
                <name>Position 2593</name>
            </trkpt>
            <trkpt lon="-105.07011831" lat="38.87369156">
                <ele>3588.0</ele>
                <time>2008-06-25T16:16:50.000Z</time>
                <name>Position 2594</name>
            </trkpt>
            <trkpt lon="-105.07011664" lat="38.87380326">
                <ele>3590.0</ele>
                <time>2008-06-25T16:16:51.000Z</time>
                <name>Position 2595</name>
            </trkpt>
            <trkpt lon="-105.07010996" lat="38.87391496">
                <ele>3590.0</ele>
                <time>2008-06-25T16:16:52.000Z</time>
                <name>Position 2596</name>
            </trkpt>
            <trkpt lon="-105.07009494" lat="38.87402666">
                <ele>3590.0</ele>
                <time>2008-06-25T16:16:53.000Z</time>
                <name>Position 2597</name>
            </trkpt>
            <trkpt lon="-105.07006657" lat="38.87413824">
                <ele>3590.0</ele>
                <time>2008-06-25T16:16:54.000Z</time>
                <name>Position 2598</name>
            </trkpt>
            <trkpt lon="-105.0700233" lat="38.8742466">
                <ele>3590.0</ele>
                <time>2008-06-25T16:16:55.000Z</time>
                <name>Position 2599</name>
            </trkpt>
            <trkpt lon="-105.06996655" lat="38.87435162">
                <ele>3590.0</ele>
                <time>2008-06-25T16:16:56.000Z</time>
                <name>Position 2600</name>
            </trkpt>
            <trkpt lon="-105.06989658" lat="38.87445164">
                <ele>3590.0</ele>
                <time>2008-06-25T16:16:57.000Z</time>
                <name>Position 2601</name>
            </trkpt>
            <trkpt lon="-105.06981492" lat="38.87454665">
                <ele>3590.0</ele>
                <time>2008-06-25T16:16:58.000Z</time>
                <name>Position 2602</name>
            </trkpt>
            <trkpt lon="-105.06972992" lat="38.87463665">
                <ele>3585.0</ele>
                <time>2008-06-25T16:16:59.000Z</time>
                <name>Position 2603</name>
            </trkpt>
            <trkpt lon="-105.06963658" lat="38.87472332">
                <ele>3585.0</ele>
                <time>2008-06-25T16:17:00.000Z</time>
                <name>Position 2604</name>
            </trkpt>
            <trkpt lon="-105.06953657" lat="38.87480497">
                <ele>3601.0</ele>
                <time>2008-06-25T16:17:01.000Z</time>
                <name>Position 2605</name>
            </trkpt>
            <trkpt lon="-105.06943488" lat="38.87488329">
                <ele>3601.0</ele>
                <time>2008-06-25T16:17:02.000Z</time>
                <name>Position 2606</name>
            </trkpt>
            <trkpt lon="-105.06933165" lat="38.87495828">
                <ele>3601.0</ele>
                <time>2008-06-25T16:17:03.000Z</time>
                <name>Position 2607</name>
            </trkpt>
            <trkpt lon="-105.06922662" lat="38.87503159">
                <ele>3601.0</ele>
                <time>2008-06-25T16:17:04.000Z</time>
                <name>Position 2608</name>
            </trkpt>
            <trkpt lon="-105.06912327" lat="38.87510324">
                <ele>3601.0</ele>
                <time>2008-06-25T16:17:05.000Z</time>
                <name>Position 2609</name>
            </trkpt>
            <trkpt lon="-105.06901824" lat="38.875175">
                <ele>3601.0</ele>
                <time>2008-06-25T16:17:06.000Z</time>
                <name>Position 2610</name>
            </trkpt>
            <trkpt lon="-105.06891155" lat="38.87524498">
                <ele>3601.0</ele>
                <time>2008-06-25T16:17:07.000Z</time>
                <name>Position 2611</name>
            </trkpt>
            <trkpt lon="-105.06880331" lat="38.87531328">
                <ele>3601.0</ele>
                <time>2008-06-25T16:17:08.000Z</time>
                <name>Position 2612</name>
            </trkpt>
            <trkpt lon="-105.06868827" lat="38.87537491">
                <ele>3630.0</ele>
                <time>2008-06-25T16:17:09.000Z</time>
                <name>Position 2613</name>
            </trkpt>
            <trkpt lon="-105.06856823" lat="38.87543166">
                <ele>3598.0</ele>
                <time>2008-06-25T16:17:10.000Z</time>
                <name>Position 2614</name>
            </trkpt>
            <trkpt lon="-105.06844831" lat="38.87548161">
                <ele>3598.0</ele>
                <time>2008-06-25T16:17:11.000Z</time>
                <name>Position 2615</name>
            </trkpt>
            <trkpt lon="-105.06832492" lat="38.87552667">
                <ele>3598.0</ele>
                <time>2008-06-25T16:17:12.000Z</time>
                <name>Position 2616</name>
            </trkpt>
            <trkpt lon="-105.06819999" lat="38.8755666">
                <ele>3598.0</ele>
                <time>2008-06-25T16:17:13.000Z</time>
                <name>Position 2617</name>
            </trkpt>
            <trkpt lon="-105.0680716" lat="38.87560165">
                <ele>3598.0</ele>
                <time>2008-06-25T16:17:14.000Z</time>
                <name>Position 2618</name>
            </trkpt>
            <trkpt lon="-105.06794322" lat="38.8756299">
                <ele>3598.0</ele>
                <time>2008-06-25T16:17:15.000Z</time>
                <name>Position 2619</name>
            </trkpt>
            <trkpt lon="-105.06781161" lat="38.8756516">
                <ele>3610.0</ele>
                <time>2008-06-25T16:17:16.000Z</time>
                <name>Position 2620</name>
            </trkpt>
            <trkpt lon="-105.06767988" lat="38.87566662">
                <ele>3610.0</ele>
                <time>2008-06-25T16:17:17.000Z</time>
                <name>Position 2621</name>
            </trkpt>
            <trkpt lon="-105.06754494" lat="38.8756783">
                <ele>3610.0</ele>
                <time>2008-06-25T16:17:18.000Z</time>
                <name>Position 2622</name>
            </trkpt>
            <trkpt lon="-105.06740832" lat="38.87568498">
                <ele>3610.0</ele>
                <time>2008-06-25T16:17:19.000Z</time>
                <name>Position 2623</name>
            </trkpt>
            <trkpt lon="-105.06727159" lat="38.87568998">
                <ele>3610.0</ele>
                <time>2008-06-25T16:17:20.000Z</time>
                <name>Position 2624</name>
            </trkpt>
            <trkpt lon="-105.06713331" lat="38.87569165">
                <ele>3610.0</ele>
                <time>2008-06-25T16:17:21.000Z</time>
                <name>Position 2625</name>
            </trkpt>
            <trkpt lon="-105.06699491" lat="38.87569165">
                <ele>3618.0</ele>
                <time>2008-06-25T16:17:22.000Z</time>
                <name>Position 2626</name>
            </trkpt>
            <trkpt lon="-105.06685662" lat="38.87568665">
                <ele>3618.0</ele>
                <time>2008-06-25T16:17:23.000Z</time>
                <name>Position 2627</name>
            </trkpt>
            <trkpt lon="-105.06671822" lat="38.8756783">
                <ele>3618.0</ele>
                <time>2008-06-25T16:17:24.000Z</time>
                <name>Position 2628</name>
            </trkpt>
            <trkpt lon="-105.06657827" lat="38.87566328">
                <ele>3618.0</ele>
                <time>2008-06-25T16:17:25.000Z</time>
                <name>Position 2629</name>
            </trkpt>
            <trkpt lon="-105.06644499" lat="38.87564325">
                <ele>3618.0</ele>
                <time>2008-06-25T16:17:26.000Z</time>
                <name>Position 2630</name>
            </trkpt>
            <trkpt lon="-105.06631827" lat="38.87561989">
                <ele>3618.0</ele>
                <time>2008-06-25T16:17:27.000Z</time>
                <name>Position 2631</name>
            </trkpt>
            <trkpt lon="-105.06620324" lat="38.87559497">
                <ele>3617.0</ele>
                <time>2008-06-25T16:17:28.000Z</time>
                <name>Position 2632</name>
            </trkpt>
            <trkpt lon="-105.06609833" lat="38.8755666">
                <ele>3617.0</ele>
                <time>2008-06-25T16:17:29.000Z</time>
                <name>Position 2633</name>
            </trkpt>
            <trkpt lon="-105.06599998" lat="38.87553823">
                <ele>3617.0</ele>
                <time>2008-06-25T16:17:30.000Z</time>
                <name>Position 2634</name>
            </trkpt>
            <trkpt lon="-105.06590664" lat="38.87550664">
                <ele>3617.0</ele>
                <time>2008-06-25T16:17:31.000Z</time>
                <name>Position 2635</name>
            </trkpt>
            <trkpt lon="-105.06581664" lat="38.87547326">
                <ele>3617.0</ele>
                <time>2008-06-25T16:17:32.000Z</time>
                <name>Position 2636</name>
            </trkpt>
            <trkpt lon="-105.06573164" lat="38.87543988">
                <ele>3617.0</ele>
                <time>2008-06-25T16:17:33.000Z</time>
                <name>Position 2637</name>
            </trkpt>
            <trkpt lon="-105.06565499" lat="38.87540662">
                <ele>3649.0</ele>
                <time>2008-06-25T16:17:34.000Z</time>
                <name>Position 2638</name>
            </trkpt>
            <trkpt lon="-105.06558824" lat="38.87537324">
                <ele>3649.0</ele>
                <time>2008-06-25T16:17:35.000Z</time>
                <name>Position 2639</name>
            </trkpt>
            <trkpt lon="-105.06553161" lat="38.87533998">
                <ele>3649.0</ele>
                <time>2008-06-25T16:17:36.000Z</time>
                <name>Position 2640</name>
            </trkpt>
            <trkpt lon="-105.06548655" lat="38.87530661">
                <ele>3649.0</ele>
                <time>2008-06-25T16:17:37.000Z</time>
                <name>Position 2641</name>
            </trkpt>
            <trkpt lon="-105.06545329" lat="38.87526989">
                <ele>3649.0</ele>
                <time>2008-06-25T16:17:38.000Z</time>
                <name>Position 2642</name>
            </trkpt>
            <trkpt lon="-105.06543827" lat="38.87522995">
                <ele>3649.0</ele>
                <time>2008-06-25T16:17:39.000Z</time>
                <name>Position 2643</name>
            </trkpt>
            <trkpt lon="-105.06544328" lat="38.87519491">
                <ele>3649.0</ele>
                <time>2008-06-25T16:17:40.000Z</time>
                <name>Position 2644</name>
            </trkpt>
            <trkpt lon="-105.0654633" lat="38.87516832">
                <ele>3649.0</ele>
                <time>2008-06-25T16:17:41.000Z</time>
                <name>Position 2645</name>
            </trkpt>
            <trkpt lon="-105.06549656" lat="38.87514997">
                <ele>3649.0</ele>
                <time>2008-06-25T16:17:42.000Z</time>
                <name>Position 2646</name>
            </trkpt>
            <trkpt lon="-105.06553996" lat="38.87514329">
                <ele>3649.0</ele>
                <time>2008-06-25T16:17:43.000Z</time>
                <name>Position 2647</name>
            </trkpt>
            <trkpt lon="-105.0655899" lat="38.87514663">
                <ele>3649.0</ele>
                <time>2008-06-25T16:17:44.000Z</time>
                <name>Position 2648</name>
            </trkpt>
            <trkpt lon="-105.06564832" lat="38.87516165">
                <ele>3649.0</ele>
                <time>2008-06-25T16:17:45.000Z</time>
                <name>Position 2649</name>
            </trkpt>
            <trkpt lon="-105.06571329" lat="38.87517989">
                <ele>3649.0</ele>
                <time>2008-06-25T16:17:46.000Z</time>
                <name>Position 2650</name>
            </trkpt>
            <trkpt lon="-105.0657866" lat="38.87520158">
                <ele>3649.0</ele>
                <time>2008-06-25T16:17:47.000Z</time>
                <name>Position 2651</name>
            </trkpt>
            <trkpt lon="-105.06586826" lat="38.87522328">
                <ele>3649.0</ele>
                <time>2008-06-25T16:17:48.000Z</time>
                <name>Position 2652</name>
            </trkpt>
            <trkpt lon="-105.06595826" lat="38.87524331">
                <ele>3649.0</ele>
                <time>2008-06-25T16:17:49.000Z</time>
                <name>Position 2653</name>
            </trkpt>
            <trkpt lon="-105.0660516" lat="38.87525499">
                <ele>3649.0</ele>
                <time>2008-06-25T16:17:50.000Z</time>
                <name>Position 2654</name>
            </trkpt>
            <trkpt lon="-105.06614661" lat="38.87526">
                <ele>3649.0</ele>
                <time>2008-06-25T16:17:51.000Z</time>
                <name>Position 2655</name>
            </trkpt>
            <trkpt lon="-105.06624162" lat="38.87525833">
                <ele>3649.0</ele>
                <time>2008-06-25T16:17:52.000Z</time>
                <name>Position 2656</name>
            </trkpt>
            <trkpt lon="-105.06633663" lat="38.87524998">
                <ele>3657.0</ele>
                <time>2008-06-25T16:17:53.000Z</time>
                <name>Position 2657</name>
            </trkpt>
            <trkpt lon="-105.06643331" lat="38.8752383">
                <ele>3657.0</ele>
                <time>2008-06-25T16:17:54.000Z</time>
                <name>Position 2658</name>
            </trkpt>
            <trkpt lon="-105.06653166" lat="38.87522328">
                <ele>3657.0</ele>
                <time>2008-06-25T16:17:55.000Z</time>
                <name>Position 2659</name>
            </trkpt>
            <trkpt lon="-105.06663156" lat="38.87520659">
                <ele>3657.0</ele>
                <time>2008-06-25T16:17:56.000Z</time>
                <name>Position 2660</name>
            </trkpt>
            <trkpt lon="-105.06673491" lat="38.87518823">
                <ele>3657.0</ele>
                <time>2008-06-25T16:17:57.000Z</time>
                <name>Position 2661</name>
            </trkpt>
            <trkpt lon="-105.06683826" lat="38.87516499">
                <ele>3657.0</ele>
                <time>2008-06-25T16:17:58.000Z</time>
                <name>Position 2662</name>
            </trkpt>
            <trkpt lon="-105.06694329" lat="38.87513494">
                <ele>3657.0</ele>
                <time>2008-06-25T16:17:59.000Z</time>
                <name>Position 2663</name>
            </trkpt>
            <trkpt lon="-105.06704664" lat="38.8750999">
                <ele>3657.0</ele>
                <time>2008-06-25T16:18:00.000Z</time>
                <name>Position 2664</name>
            </trkpt>
            <trkpt lon="-105.06714833" lat="38.87505829">
                <ele>3649.0</ele>
                <time>2008-06-25T16:18:01.000Z</time>
                <name>Position 2665</name>
            </trkpt>
            <trkpt lon="-105.06724823" lat="38.87500989">
                <ele>3649.0</ele>
                <time>2008-06-25T16:18:02.000Z</time>
                <name>Position 2666</name>
            </trkpt>
            <trkpt lon="-105.0673449" lat="38.87495327">
                <ele>3649.0</ele>
                <time>2008-06-25T16:18:03.000Z</time>
                <name>Position 2667</name>
            </trkpt>
            <trkpt lon="-105.06743991" lat="38.87489498">
                <ele>3649.0</ele>
                <time>2008-06-25T16:18:04.000Z</time>
                <name>Position 2668</name>
            </trkpt>
            <trkpt lon="-105.06753159" lat="38.87483323">
                <ele>3649.0</ele>
                <time>2008-06-25T16:18:05.000Z</time>
                <name>Position 2669</name>
            </trkpt>
            <trkpt lon="-105.06761992" lat="38.87477326">
                <ele>3649.0</ele>
                <time>2008-06-25T16:18:06.000Z</time>
                <name>Position 2670</name>
            </trkpt>
            <trkpt lon="-105.06770158" lat="38.87471831">
                <ele>3649.0</ele>
                <time>2008-06-25T16:18:07.000Z</time>
                <name>Position 2671</name>
            </trkpt>
            <trkpt lon="-105.06777489" lat="38.87466657">
                <ele>3649.0</ele>
                <time>2008-06-25T16:18:08.000Z</time>
                <name>Position 2672</name>
            </trkpt>
            <trkpt lon="-105.06783998" lat="38.87461996">
                <ele>3649.0</ele>
                <time>2008-06-25T16:18:09.000Z</time>
                <name>Position 2673</name>
            </trkpt>
            <trkpt lon="-105.0678966" lat="38.87457156">
                <ele>3678.0</ele>
                <time>2008-06-25T16:18:10.000Z</time>
                <name>Position 2674</name>
            </trkpt>
            <trkpt lon="-105.06794322" lat="38.87452161">
                <ele>3651.0</ele>
                <time>2008-06-25T16:18:11.000Z</time>
                <name>Position 2675</name>
            </trkpt>
            <trkpt lon="-105.0679816" lat="38.87446833">
                <ele>3651.0</ele>
                <time>2008-06-25T16:18:12.000Z</time>
                <name>Position 2676</name>
            </trkpt>
            <trkpt lon="-105.06800997" lat="38.87441158">
                <ele>3651.0</ele>
                <time>2008-06-25T16:18:13.000Z</time>
                <name>Position 2677</name>
            </trkpt>
            <trkpt lon="-105.06802833" lat="38.87434995">
                <ele>3651.0</ele>
                <time>2008-06-25T16:18:14.000Z</time>
                <name>Position 2678</name>
            </trkpt>
            <trkpt lon="-105.06803489" lat="38.87428498">
                <ele>3651.0</ele>
                <time>2008-06-25T16:18:15.000Z</time>
                <name>Position 2679</name>
            </trkpt>
            <trkpt lon="-105.06803322" lat="38.87421989">
                <ele>3651.0</ele>
                <time>2008-06-25T16:18:16.000Z</time>
                <name>Position 2680</name>
            </trkpt>
            <trkpt lon="-105.06802499" lat="38.87415493">
                <ele>3651.0</ele>
                <time>2008-06-25T16:18:17.000Z</time>
                <name>Position 2681</name>
            </trkpt>
            <trkpt lon="-105.06801498" lat="38.87408662">
                <ele>3651.0</ele>
                <time>2008-06-25T16:18:18.000Z</time>
                <name>Position 2682</name>
            </trkpt>
            <trkpt lon="-105.0680033" lat="38.87401497">
                <ele>3651.0</ele>
                <time>2008-06-25T16:18:19.000Z</time>
                <name>Position 2683</name>
            </trkpt>
            <trkpt lon="-105.06798995" lat="38.87394333">
                <ele>3651.0</ele>
                <time>2008-06-25T16:18:20.000Z</time>
                <name>Position 2684</name>
            </trkpt>
            <trkpt lon="-105.06797826" lat="38.87386823">
                <ele>3651.0</ele>
                <time>2008-06-25T16:18:21.000Z</time>
                <name>Position 2685</name>
            </trkpt>
            <trkpt lon="-105.06796491" lat="38.87379158">
                <ele>3651.0</ele>
                <time>2008-06-25T16:18:22.000Z</time>
                <name>Position 2686</name>
            </trkpt>
            <trkpt lon="-105.06794989" lat="38.87371159">
                <ele>3655.0</ele>
                <time>2008-06-25T16:18:23.000Z</time>
                <name>Position 2687</name>
            </trkpt>
            <trkpt lon="-105.06793666" lat="38.87362993">
                <ele>3655.0</ele>
                <time>2008-06-25T16:18:24.000Z</time>
                <name>Position 2688</name>
            </trkpt>
            <trkpt lon="-105.06792164" lat="38.87354493">
                <ele>3655.0</ele>
                <time>2008-06-25T16:18:25.000Z</time>
                <name>Position 2689</name>
            </trkpt>
            <trkpt lon="-105.06790662" lat="38.87345827">
                <ele>3686.0</ele>
                <time>2008-06-25T16:18:26.000Z</time>
                <name>Position 2690</name>
            </trkpt>
            <trkpt lon="-105.0678916" lat="38.87336993">
                <ele>3686.0</ele>
                <time>2008-06-25T16:18:27.000Z</time>
                <name>Position 2691</name>
            </trkpt>
            <trkpt lon="-105.06787658" lat="38.87327993">
                <ele>3686.0</ele>
                <time>2008-06-25T16:18:28.000Z</time>
                <name>Position 2692</name>
            </trkpt>
            <trkpt lon="-105.06786156" lat="38.87318659">
                <ele>3686.0</ele>
                <time>2008-06-25T16:18:29.000Z</time>
                <name>Position 2693</name>
            </trkpt>
            <trkpt lon="-105.06784666" lat="38.87309325">
                <ele>3686.0</ele>
                <time>2008-06-25T16:18:30.000Z</time>
                <name>Position 2694</name>
            </trkpt>
            <trkpt lon="-105.06782997" lat="38.87299824">
                <ele>3686.0</ele>
                <time>2008-06-25T16:18:31.000Z</time>
                <name>Position 2695</name>
            </trkpt>
            <trkpt lon="-105.06781161" lat="38.87290323">
                <ele>3689.0</ele>
                <time>2008-06-25T16:18:32.000Z</time>
                <name>Position 2696</name>
            </trkpt>
            <trkpt lon="-105.06779325" lat="38.87280822">
                <ele>3689.0</ele>
                <time>2008-06-25T16:18:33.000Z</time>
                <name>Position 2697</name>
            </trkpt>
            <trkpt lon="-105.06777656" lat="38.87271333">
                <ele>3689.0</ele>
                <time>2008-06-25T16:18:34.000Z</time>
                <name>Position 2698</name>
            </trkpt>
            <trkpt lon="-105.06775832" lat="38.87261665">
                <ele>3689.0</ele>
                <time>2008-06-25T16:18:35.000Z</time>
                <name>Position 2699</name>
            </trkpt>
            <trkpt lon="-105.0677433" lat="38.87252164">
                <ele>3689.0</ele>
                <time>2008-06-25T16:18:36.000Z</time>
                <name>Position 2700</name>
            </trkpt>
            <trkpt lon="-105.06772828" lat="38.87242663">
                <ele>3689.0</ele>
                <time>2008-06-25T16:18:37.000Z</time>
                <name>Position 2701</name>
            </trkpt>
            <trkpt lon="-105.06771493" lat="38.87232995">
                <ele>3689.0</ele>
                <time>2008-06-25T16:18:38.000Z</time>
                <name>Position 2702</name>
            </trkpt>
            <trkpt lon="-105.06770158" lat="38.87223494">
                <ele>3689.0</ele>
                <time>2008-06-25T16:18:39.000Z</time>
                <name>Position 2703</name>
            </trkpt>
            <trkpt lon="-105.06768823" lat="38.87213826">
                <ele>3689.0</ele>
                <time>2008-06-25T16:18:40.000Z</time>
                <name>Position 2704</name>
            </trkpt>
            <trkpt lon="-105.06767333" lat="38.87204492">
                <ele>3697.0</ele>
                <time>2008-06-25T16:18:41.000Z</time>
                <name>Position 2705</name>
            </trkpt>
            <trkpt lon="-105.06765664" lat="38.87195325">
                <ele>3697.0</ele>
                <time>2008-06-25T16:18:42.000Z</time>
                <name>Position 2706</name>
            </trkpt>
            <trkpt lon="-105.06763494" lat="38.87186325">
                <ele>3697.0</ele>
                <time>2008-06-25T16:18:43.000Z</time>
                <name>Position 2707</name>
            </trkpt>
            <trkpt lon="-105.06761324" lat="38.87177324">
                <ele>3697.0</ele>
                <time>2008-06-25T16:18:44.000Z</time>
                <name>Position 2708</name>
            </trkpt>
            <trkpt lon="-105.06758833" lat="38.87168324">
                <ele>3697.0</ele>
                <time>2008-06-25T16:18:45.000Z</time>
                <name>Position 2709</name>
            </trkpt>
            <trkpt lon="-105.06756163" lat="38.87159657">
                <ele>3697.0</ele>
                <time>2008-06-25T16:18:46.000Z</time>
                <name>Position 2710</name>
            </trkpt>
            <trkpt lon="-105.06753492" lat="38.87150991">
                <ele>3697.0</ele>
                <time>2008-06-25T16:18:47.000Z</time>
                <name>Position 2711</name>
            </trkpt>
            <trkpt lon="-105.06750989" lat="38.87142324">
                <ele>3697.0</ele>
                <time>2008-06-25T16:18:48.000Z</time>
                <name>Position 2712</name>
            </trkpt>
            <trkpt lon="-105.06748497" lat="38.87133491">
                <ele>3697.0</ele>
                <time>2008-06-25T16:18:49.000Z</time>
                <name>Position 2713</name>
            </trkpt>
            <trkpt lon="-105.06745827" lat="38.87124825">
                <ele>3695.0</ele>
                <time>2008-06-25T16:18:50.000Z</time>
                <name>Position 2714</name>
            </trkpt>
            <trkpt lon="-105.06743324" lat="38.87115991">
                <ele>3695.0</ele>
                <time>2008-06-25T16:18:51.000Z</time>
                <name>Position 2715</name>
            </trkpt>
            <trkpt lon="-105.06740499" lat="38.87106991">
                <ele>3695.0</ele>
                <time>2008-06-25T16:18:52.000Z</time>
                <name>Position 2716</name>
            </trkpt>
            <trkpt lon="-105.06737328" lat="38.87098157">
                <ele>3695.0</ele>
                <time>2008-06-25T16:18:53.000Z</time>
                <name>Position 2717</name>
            </trkpt>
            <trkpt lon="-105.06733489" lat="38.87089324">
                <ele>3695.0</ele>
                <time>2008-06-25T16:18:54.000Z</time>
                <name>Position 2718</name>
            </trkpt>
            <trkpt lon="-105.06728995" lat="38.87080491">
                <ele>3695.0</ele>
                <time>2008-06-25T16:18:55.000Z</time>
                <name>Position 2719</name>
            </trkpt>
            <trkpt lon="-105.06724823" lat="38.87071657">
                <ele>3695.0</ele>
                <time>2008-06-25T16:18:56.000Z</time>
                <name>Position 2720</name>
            </trkpt>
            <trkpt lon="-105.0672183" lat="38.8706249">
                <ele>3695.0</ele>
                <time>2008-06-25T16:18:57.000Z</time>
                <name>Position 2721</name>
            </trkpt>
            <trkpt lon="-105.06720328" lat="38.87053323">
                <ele>3695.0</ele>
                <time>2008-06-25T16:18:58.000Z</time>
                <name>Position 2722</name>
            </trkpt>
            <trkpt lon="-105.06720996" lat="38.87044656">
                <ele>3695.0</ele>
                <time>2008-06-25T16:18:59.000Z</time>
                <name>Position 2723</name>
            </trkpt>
            <trkpt lon="-105.06722832" lat="38.8703649">
                <ele>3714.0</ele>
                <time>2008-06-25T16:19:00.000Z</time>
                <name>Position 2724</name>
            </trkpt>
            <trkpt lon="-105.06725657" lat="38.87028658">
                <ele>3714.0</ele>
                <time>2008-06-25T16:19:01.000Z</time>
                <name>Position 2725</name>
            </trkpt>
            <trkpt lon="-105.06728661" lat="38.87021661">
                <ele>3714.0</ele>
                <time>2008-06-25T16:19:02.000Z</time>
                <name>Position 2726</name>
            </trkpt>
            <trkpt lon="-105.06731999" lat="38.87015665">
                <ele>3714.0</ele>
                <time>2008-06-25T16:19:03.000Z</time>
                <name>Position 2727</name>
            </trkpt>
            <trkpt lon="-105.06735158" lat="38.87010324">
                <ele>3714.0</ele>
                <time>2008-06-25T16:19:04.000Z</time>
                <name>Position 2728</name>
            </trkpt>
            <trkpt lon="-105.06738496" lat="38.87005997">
                <ele>3714.0</ele>
                <time>2008-06-25T16:19:05.000Z</time>
                <name>Position 2729</name>
            </trkpt>
            <trkpt lon="-105.06742156" lat="38.87002158">
                <ele>3714.0</ele>
                <time>2008-06-25T16:19:06.000Z</time>
                <name>Position 2730</name>
            </trkpt>
            <trkpt lon="-105.06746328" lat="38.86998665">
                <ele>3714.0</ele>
                <time>2008-06-25T16:19:07.000Z</time>
                <name>Position 2731</name>
            </trkpt>
            <trkpt lon="-105.06750488" lat="38.86995494">
                <ele>3714.0</ele>
                <time>2008-06-25T16:19:08.000Z</time>
                <name>Position 2732</name>
            </trkpt>
            <trkpt lon="-105.06754994" lat="38.86992323">
                <ele>3714.0</ele>
                <time>2008-06-25T16:19:09.000Z</time>
                <name>Position 2733</name>
            </trkpt>
            <trkpt lon="-105.06759655" lat="38.86988997">
                <ele>3714.0</ele>
                <time>2008-06-25T16:19:10.000Z</time>
                <name>Position 2734</name>
            </trkpt>
            <trkpt lon="-105.06763995" lat="38.86985493">
                <ele>3714.0</ele>
                <time>2008-06-25T16:19:11.000Z</time>
                <name>Position 2735</name>
            </trkpt>
            <trkpt lon="-105.06767333" lat="38.86981332">
                <ele>3714.0</ele>
                <time>2008-06-25T16:19:12.000Z</time>
                <name>Position 2736</name>
            </trkpt>
            <trkpt lon="-105.06768489" lat="38.86976659">
                <ele>3714.0</ele>
                <time>2008-06-25T16:19:13.000Z</time>
                <name>Position 2737</name>
            </trkpt>
            <trkpt lon="-105.06766498" lat="38.86972165">
                <ele>3714.0</ele>
                <time>2008-06-25T16:19:14.000Z</time>
                <name>Position 2738</name>
            </trkpt>
            <trkpt lon="-105.06761825" lat="38.86968827">
                <ele>3714.0</ele>
                <time>2008-06-25T16:19:15.000Z</time>
                <name>Position 2739</name>
            </trkpt>
            <trkpt lon="-105.06755829" lat="38.86967325">
                <ele>3714.0</ele>
                <time>2008-06-25T16:19:16.000Z</time>
                <name>Position 2740</name>
            </trkpt>
            <trkpt lon="-105.06748664" lat="38.86969161">
                <ele>3714.0</ele>
                <time>2008-06-25T16:19:17.000Z</time>
                <name>Position 2741</name>
            </trkpt>
            <trkpt lon="-105.06740665" lat="38.86974156">
                <ele>3714.0</ele>
                <time>2008-06-25T16:19:18.000Z</time>
                <name>Position 2742</name>
            </trkpt>
            <trkpt lon="-105.067325" lat="38.86979997">
                <ele>3714.0</ele>
                <time>2008-06-25T16:19:19.000Z</time>
                <name>Position 2743</name>
            </trkpt>
            <trkpt lon="-105.06724155" lat="38.86986327">
                <ele>3714.0</ele>
                <time>2008-06-25T16:19:20.000Z</time>
                <name>Position 2744</name>
            </trkpt>
            <trkpt lon="-105.06715655" lat="38.86993325">
                <ele>3714.0</ele>
                <time>2008-06-25T16:19:21.000Z</time>
                <name>Position 2745</name>
            </trkpt>
            <trkpt lon="-105.06706822" lat="38.8700099">
                <ele>3735.0</ele>
                <time>2008-06-25T16:19:22.000Z</time>
                <name>Position 2746</name>
            </trkpt>
            <trkpt lon="-105.06697667" lat="38.87008989">
                <ele>3735.0</ele>
                <time>2008-06-25T16:19:23.000Z</time>
                <name>Position 2747</name>
            </trkpt>
            <trkpt lon="-105.06688666" lat="38.87017322">
                <ele>3735.0</ele>
                <time>2008-06-25T16:19:24.000Z</time>
                <name>Position 2748</name>
            </trkpt>
            <trkpt lon="-105.06679499" lat="38.87025833">
                <ele>3735.0</ele>
                <time>2008-06-25T16:19:25.000Z</time>
                <name>Position 2749</name>
            </trkpt>
            <trkpt lon="-105.06670332" lat="38.87034667">
                <ele>3735.0</ele>
                <time>2008-06-25T16:19:26.000Z</time>
                <name>Position 2750</name>
            </trkpt>
            <trkpt lon="-105.06662166" lat="38.87044156">
                <ele>3724.0</ele>
                <time>2008-06-25T16:19:27.000Z</time>
                <name>Position 2751</name>
            </trkpt>
            <trkpt lon="-105.06656158" lat="38.8705399">
                <ele>3724.0</ele>
                <time>2008-06-25T16:19:28.000Z</time>
                <name>Position 2752</name>
            </trkpt>
            <trkpt lon="-105.06652331" lat="38.87063825">
                <ele>3724.0</ele>
                <time>2008-06-25T16:19:29.000Z</time>
                <name>Position 2753</name>
            </trkpt>
            <trkpt lon="-105.06650329" lat="38.87073493">
                <ele>3724.0</ele>
                <time>2008-06-25T16:19:30.000Z</time>
                <name>Position 2754</name>
            </trkpt>
            <trkpt lon="-105.06648326" lat="38.87082827">
                <ele>3724.0</ele>
                <time>2008-06-25T16:19:31.000Z</time>
                <name>Position 2755</name>
            </trkpt>
            <trkpt lon="-105.06644499" lat="38.8709116">
                <ele>3724.0</ele>
                <time>2008-06-25T16:19:32.000Z</time>
                <name>Position 2756</name>
            </trkpt>
            <trkpt lon="-105.06638157" lat="38.87097323">
                <ele>3724.0</ele>
                <time>2008-06-25T16:19:33.000Z</time>
                <name>Position 2757</name>
            </trkpt>
            <trkpt lon="-105.06629658" lat="38.87100327">
                <ele>3724.0</ele>
                <time>2008-06-25T16:19:34.000Z</time>
                <name>Position 2758</name>
            </trkpt>
            <trkpt lon="-105.06621659" lat="38.87099159">
                <ele>3727.0</ele>
                <time>2008-06-25T16:19:35.000Z</time>
                <name>Position 2759</name>
            </trkpt>
            <trkpt lon="-105.06615329" lat="38.87094998">
                <ele>3727.0</ele>
                <time>2008-06-25T16:19:36.000Z</time>
                <name>Position 2760</name>
            </trkpt>
            <trkpt lon="-105.0661149" lat="38.87088823">
                <ele>3727.0</ele>
                <time>2008-06-25T16:19:37.000Z</time>
                <name>Position 2761</name>
            </trkpt>
            <trkpt lon="-105.06610823" lat="38.87080991">
                <ele>3727.0</ele>
                <time>2008-06-25T16:19:38.000Z</time>
                <name>Position 2762</name>
            </trkpt>
            <trkpt lon="-105.06611824" lat="38.87071991">
                <ele>3727.0</ele>
                <time>2008-06-25T16:19:39.000Z</time>
                <name>Position 2763</name>
            </trkpt>
            <trkpt lon="-105.0661366" lat="38.87062824">
                <ele>3727.0</ele>
                <time>2008-06-25T16:19:40.000Z</time>
                <name>Position 2764</name>
            </trkpt>
            <trkpt lon="-105.06615996" lat="38.87053323">
                <ele>3727.0</ele>
                <time>2008-06-25T16:19:41.000Z</time>
                <name>Position 2765</name>
            </trkpt>
            <trkpt lon="-105.06618822" lat="38.870435">
                <ele>3727.0</ele>
                <time>2008-06-25T16:19:42.000Z</time>
                <name>Position 2766</name>
            </trkpt>
            <trkpt lon="-105.06622159" lat="38.87033999">
                <ele>3743.0</ele>
                <time>2008-06-25T16:19:43.000Z</time>
                <name>Position 2767</name>
            </trkpt>
            <trkpt lon="-105.06626165" lat="38.87024832">
                <ele>3735.0</ele>
                <time>2008-06-25T16:19:44.000Z</time>
                <name>Position 2768</name>
            </trkpt>
            <trkpt lon="-105.06630659" lat="38.87016165">
                <ele>3735.0</ele>
                <time>2008-06-25T16:19:45.000Z</time>
                <name>Position 2769</name>
            </trkpt>
            <trkpt lon="-105.06635165" lat="38.87007833">
                <ele>3735.0</ele>
                <time>2008-06-25T16:19:46.000Z</time>
                <name>Position 2770</name>
            </trkpt>
            <trkpt lon="-105.06639493" lat="38.86999822">
                <ele>3735.0</ele>
                <time>2008-06-25T16:19:47.000Z</time>
                <name>Position 2771</name>
            </trkpt>
            <trkpt lon="-105.06643999" lat="38.86992157">
                <ele>3735.0</ele>
                <time>2008-06-25T16:19:48.000Z</time>
                <name>Position 2772</name>
            </trkpt>
            <trkpt lon="-105.06648326" lat="38.86984658">
                <ele>3735.0</ele>
                <time>2008-06-25T16:19:49.000Z</time>
                <name>Position 2773</name>
            </trkpt>
            <trkpt lon="-105.06652999" lat="38.86977327">
                <ele>3735.0</ele>
                <time>2008-06-25T16:19:50.000Z</time>
                <name>Position 2774</name>
            </trkpt>
            <trkpt lon="-105.06657994" lat="38.86969829">
                <ele>3735.0</ele>
                <time>2008-06-25T16:19:51.000Z</time>
                <name>Position 2775</name>
            </trkpt>
            <trkpt lon="-105.06663322" lat="38.86962664">
                <ele>3735.0</ele>
                <time>2008-06-25T16:19:52.000Z</time>
                <name>Position 2776</name>
            </trkpt>
            <trkpt lon="-105.06668997" lat="38.869555">
                <ele>3760.0</ele>
                <time>2008-06-25T16:19:53.000Z</time>
                <name>Position 2777</name>
            </trkpt>
            <trkpt lon="-105.0667516" lat="38.86948824">
                <ele>3760.0</ele>
                <time>2008-06-25T16:19:54.000Z</time>
                <name>Position 2778</name>
            </trkpt>
            <trkpt lon="-105.06681156" lat="38.86942661">
                <ele>3760.0</ele>
                <time>2008-06-25T16:19:55.000Z</time>
                <name>Position 2779</name>
            </trkpt>
            <trkpt lon="-105.06687164" lat="38.86937332">
                <ele>3760.0</ele>
                <time>2008-06-25T16:19:56.000Z</time>
                <name>Position 2780</name>
            </trkpt>
            <trkpt lon="-105.06692827" lat="38.86932492">
                <ele>3760.0</ele>
                <time>2008-06-25T16:19:57.000Z</time>
                <name>Position 2781</name>
            </trkpt>
            <trkpt lon="-105.06698322" lat="38.86928165">
                <ele>3760.0</ele>
                <time>2008-06-25T16:19:58.000Z</time>
                <name>Position 2782</name>
            </trkpt>
            <trkpt lon="-105.0670383" lat="38.86924326">
                <ele>3760.0</ele>
                <time>2008-06-25T16:19:59.000Z</time>
                <name>Position 2783</name>
            </trkpt>
            <trkpt lon="-105.06708992" lat="38.86920655">
                <ele>3737.0</ele>
                <time>2008-06-25T16:20:00.000Z</time>
                <name>Position 2784</name>
            </trkpt>
            <trkpt lon="-105.06714165" lat="38.86917329">
                <ele>3737.0</ele>
                <time>2008-06-25T16:20:01.000Z</time>
                <name>Position 2785</name>
            </trkpt>
            <trkpt lon="-105.0671916" lat="38.86914158">
                <ele>3737.0</ele>
                <time>2008-06-25T16:20:02.000Z</time>
                <name>Position 2786</name>
            </trkpt>
            <trkpt lon="-105.06724" lat="38.86910999">
                <ele>3737.0</ele>
                <time>2008-06-25T16:20:03.000Z</time>
                <name>Position 2787</name>
            </trkpt>
            <trkpt lon="-105.06728828" lat="38.86907661">
                <ele>3737.0</ele>
                <time>2008-06-25T16:20:04.000Z</time>
                <name>Position 2788</name>
            </trkpt>
            <trkpt lon="-105.06732821" lat="38.86903989">
                <ele>3737.0</ele>
                <time>2008-06-25T16:20:05.000Z</time>
                <name>Position 2789</name>
            </trkpt>
            <trkpt lon="-105.06735325" lat="38.86899662">
                <ele>3737.0</ele>
                <time>2008-06-25T16:20:06.000Z</time>
                <name>Position 2790</name>
            </trkpt>
            <trkpt lon="-105.06735659" lat="38.86894989">
                <ele>3737.0</ele>
                <time>2008-06-25T16:20:07.000Z</time>
                <name>Position 2791</name>
            </trkpt>
            <trkpt lon="-105.06733155" lat="38.86890662">
                <ele>3737.0</ele>
                <time>2008-06-25T16:20:08.000Z</time>
                <name>Position 2792</name>
            </trkpt>
            <trkpt lon="-105.0672766" lat="38.86887991">
                <ele>3737.0</ele>
                <time>2008-06-25T16:20:09.000Z</time>
                <name>Position 2793</name>
            </trkpt>
            <trkpt lon="-105.06720495" lat="38.86887658">
                <ele>3737.0</ele>
                <time>2008-06-25T16:20:10.000Z</time>
                <name>Position 2794</name>
            </trkpt>
            <trkpt lon="-105.06712329" lat="38.86889327">
                <ele>3737.0</ele>
                <time>2008-06-25T16:20:11.000Z</time>
                <name>Position 2795</name>
            </trkpt>
            <trkpt lon="-105.0670383" lat="38.86892331">
                <ele>3760.0</ele>
                <time>2008-06-25T16:20:12.000Z</time>
                <name>Position 2796</name>
            </trkpt>
            <trkpt lon="-105.06694996" lat="38.8689599">
                <ele>3760.0</ele>
                <time>2008-06-25T16:20:13.000Z</time>
                <name>Position 2797</name>
            </trkpt>
            <trkpt lon="-105.06685495" lat="38.86899662">
                <ele>3760.0</ele>
                <time>2008-06-25T16:20:14.000Z</time>
                <name>Position 2798</name>
            </trkpt>
            <trkpt lon="-105.06675327" lat="38.86903">
                <ele>3760.0</ele>
                <time>2008-06-25T16:20:15.000Z</time>
                <name>Position 2799</name>
            </trkpt>
            <trkpt lon="-105.06664324" lat="38.86905825">
                <ele>3760.0</ele>
                <time>2008-06-25T16:20:16.000Z</time>
                <name>Position 2800</name>
            </trkpt>
            <trkpt lon="-105.06652832" lat="38.86907661">
                <ele>3760.0</ele>
                <time>2008-06-25T16:20:17.000Z</time>
                <name>Position 2801</name>
            </trkpt>
            <trkpt lon="-105.06640661" lat="38.86908662">
                <ele>3760.0</ele>
                <time>2008-06-25T16:20:18.000Z</time>
                <name>Position 2802</name>
            </trkpt>
            <trkpt lon="-105.06628323" lat="38.86908329">
                <ele>3760.0</ele>
                <time>2008-06-25T16:20:19.000Z</time>
                <name>Position 2803</name>
            </trkpt>
            <trkpt lon="-105.06615996" lat="38.8690666">
                <ele>3766.0</ele>
                <time>2008-06-25T16:20:20.000Z</time>
                <name>Position 2804</name>
            </trkpt>
            <trkpt lon="-105.06603992" lat="38.86903322">
                <ele>3766.0</ele>
                <time>2008-06-25T16:20:21.000Z</time>
                <name>Position 2805</name>
            </trkpt>
            <trkpt lon="-105.06592655" lat="38.86898327">
                <ele>3766.0</ele>
                <time>2008-06-25T16:20:22.000Z</time>
                <name>Position 2806</name>
            </trkpt>
            <trkpt lon="-105.06581664" lat="38.86892331">
                <ele>3766.0</ele>
                <time>2008-06-25T16:20:23.000Z</time>
                <name>Position 2807</name>
            </trkpt>
            <trkpt lon="-105.06570995" lat="38.868855">
                <ele>3766.0</ele>
                <time>2008-06-25T16:20:24.000Z</time>
                <name>Position 2808</name>
            </trkpt>
            <trkpt lon="-105.06560326" lat="38.86878657">
                <ele>3766.0</ele>
                <time>2008-06-25T16:20:25.000Z</time>
                <name>Position 2809</name>
            </trkpt>
            <trkpt lon="-105.06549489" lat="38.8687166">
                <ele>3802.0</ele>
                <time>2008-06-25T16:20:26.000Z</time>
                <name>Position 2810</name>
            </trkpt>
            <trkpt lon="-105.06538498" lat="38.86864662">
                <ele>3782.0</ele>
                <time>2008-06-25T16:20:27.000Z</time>
                <name>Position 2811</name>
            </trkpt>
            <trkpt lon="-105.06526995" lat="38.86857831">
                <ele>3782.0</ele>
                <time>2008-06-25T16:20:28.000Z</time>
                <name>Position 2812</name>
            </trkpt>
            <trkpt lon="-105.06515324" lat="38.86850989">
                <ele>3782.0</ele>
                <time>2008-06-25T16:20:29.000Z</time>
                <name>Position 2813</name>
            </trkpt>
            <trkpt lon="-105.06503499" lat="38.86844158">
                <ele>3782.0</ele>
                <time>2008-06-25T16:20:30.000Z</time>
                <name>Position 2814</name>
            </trkpt>
            <trkpt lon="-105.06491327" lat="38.86837327">
                <ele>3782.0</ele>
                <time>2008-06-25T16:20:31.000Z</time>
                <name>Position 2815</name>
            </trkpt>
            <trkpt lon="-105.06479156" lat="38.86830497">
                <ele>3782.0</ele>
                <time>2008-06-25T16:20:32.000Z</time>
                <name>Position 2816</name>
            </trkpt>
            <trkpt lon="-105.0646683" lat="38.86823332">
                <ele>3782.0</ele>
                <time>2008-06-25T16:20:33.000Z</time>
                <name>Position 2817</name>
            </trkpt>
            <trkpt lon="-105.06454659" lat="38.86816156">
                <ele>3766.0</ele>
                <time>2008-06-25T16:20:34.000Z</time>
                <name>Position 2818</name>
            </trkpt>
            <trkpt lon="-105.06443155" lat="38.86808658">
                <ele>3766.0</ele>
                <time>2008-06-25T16:20:35.000Z</time>
                <name>Position 2819</name>
            </trkpt>
            <trkpt lon="-105.06432498" lat="38.86800826">
                <ele>3766.0</ele>
                <time>2008-06-25T16:20:36.000Z</time>
                <name>Position 2820</name>
            </trkpt>
            <trkpt lon="-105.0642283" lat="38.86792827">
                <ele>3766.0</ele>
                <time>2008-06-25T16:20:37.000Z</time>
                <name>Position 2821</name>
            </trkpt>
            <trkpt lon="-105.06414163" lat="38.86784828">
                <ele>3806.0</ele>
                <time>2008-06-25T16:20:38.000Z</time>
                <name>Position 2822</name>
            </trkpt>
            <trkpt lon="-105.06405997" lat="38.86776829">
                <ele>3806.0</ele>
                <time>2008-06-25T16:20:39.000Z</time>
                <name>Position 2823</name>
            </trkpt>
            <trkpt lon="-105.06398165" lat="38.86768997">
                <ele>3806.0</ele>
                <time>2008-06-25T16:20:40.000Z</time>
                <name>Position 2824</name>
            </trkpt>
            <trkpt lon="-105.06390488" lat="38.86761165">
                <ele>3806.0</ele>
                <time>2008-06-25T16:20:41.000Z</time>
                <name>Position 2825</name>
            </trkpt>
            <trkpt lon="-105.0638299" lat="38.867535">
                <ele>3806.0</ele>
                <time>2008-06-25T16:20:42.000Z</time>
                <name>Position 2826</name>
            </trkpt>
            <trkpt lon="-105.06375158" lat="38.86745656">
                <ele>3806.0</ele>
                <time>2008-06-25T16:20:43.000Z</time>
                <name>Position 2827</name>
            </trkpt>
            <trkpt lon="-105.06367326" lat="38.86737823">
                <ele>3787.0</ele>
                <time>2008-06-25T16:20:44.000Z</time>
                <name>Position 2828</name>
            </trkpt>
            <trkpt lon="-105.06359327" lat="38.86729991">
                <ele>3787.0</ele>
                <time>2008-06-25T16:20:45.000Z</time>
                <name>Position 2829</name>
            </trkpt>
            <trkpt lon="-105.06351662" lat="38.86722493">
                <ele>3787.0</ele>
                <time>2008-06-25T16:20:46.000Z</time>
                <name>Position 2830</name>
            </trkpt>
            <trkpt lon="-105.06344163" lat="38.86715662">
                <ele>3787.0</ele>
                <time>2008-06-25T16:20:47.000Z</time>
                <name>Position 2831</name>
            </trkpt>
            <trkpt lon="-105.06336999" lat="38.86709499">
                <ele>3787.0</ele>
                <time>2008-06-25T16:20:48.000Z</time>
                <name>Position 2832</name>
            </trkpt>
            <trkpt lon="-105.06329989" lat="38.86703992">
                <ele>3815.0</ele>
                <time>2008-06-25T16:20:49.000Z</time>
                <name>Position 2833</name>
            </trkpt>
            <trkpt lon="-105.06323159" lat="38.86698997">
                <ele>3815.0</ele>
                <time>2008-06-25T16:20:50.000Z</time>
                <name>Position 2834</name>
            </trkpt>
            <trkpt lon="-105.06316662" lat="38.86694491">
                <ele>3815.0</ele>
                <time>2008-06-25T16:20:51.000Z</time>
                <name>Position 2835</name>
            </trkpt>
            <trkpt lon="-105.06310833" lat="38.86690497">
                <ele>3815.0</ele>
                <time>2008-06-25T16:20:52.000Z</time>
                <name>Position 2836</name>
            </trkpt>
            <trkpt lon="-105.06305492" lat="38.86686826">
                <ele>3815.0</ele>
                <time>2008-06-25T16:20:53.000Z</time>
                <name>Position 2837</name>
            </trkpt>
            <trkpt lon="-105.06301165" lat="38.866835">
                <ele>3815.0</ele>
                <time>2008-06-25T16:20:54.000Z</time>
                <name>Position 2838</name>
            </trkpt>
            <trkpt lon="-105.06298327" lat="38.86679828">
                <ele>3815.0</ele>
                <time>2008-06-25T16:20:55.000Z</time>
                <name>Position 2839</name>
            </trkpt>
            <trkpt lon="-105.06297159" lat="38.86676157">
                <ele>3815.0</ele>
                <time>2008-06-25T16:20:56.000Z</time>
                <name>Position 2840</name>
            </trkpt>
            <trkpt lon="-105.06298494" lat="38.86672664">
                <ele>3815.0</ele>
                <time>2008-06-25T16:20:57.000Z</time>
                <name>Position 2841</name>
            </trkpt>
            <trkpt lon="-105.06302166" lat="38.86670327">
                <ele>3815.0</ele>
                <time>2008-06-25T16:20:58.000Z</time>
                <name>Position 2842</name>
            </trkpt>
            <trkpt lon="-105.06307328" lat="38.86669827">
                <ele>3815.0</ele>
                <time>2008-06-25T16:20:59.000Z</time>
                <name>Position 2843</name>
            </trkpt>
            <trkpt lon="-105.0631299" lat="38.86671495">
                <ele>3815.0</ele>
                <time>2008-06-25T16:21:00.000Z</time>
                <name>Position 2844</name>
            </trkpt>
            <trkpt lon="-105.06318998" lat="38.86674666">
                <ele>3815.0</ele>
                <time>2008-06-25T16:21:01.000Z</time>
                <name>Position 2845</name>
            </trkpt>
            <trkpt lon="-105.06325495" lat="38.86678493">
                <ele>3815.0</ele>
                <time>2008-06-25T16:21:02.000Z</time>
                <name>Position 2846</name>
            </trkpt>
            <trkpt lon="-105.06332493" lat="38.86682832">
                <ele>3815.0</ele>
                <time>2008-06-25T16:21:03.000Z</time>
                <name>Position 2847</name>
            </trkpt>
            <trkpt lon="-105.06340158" lat="38.86687326">
                <ele>3815.0</ele>
                <time>2008-06-25T16:21:04.000Z</time>
                <name>Position 2848</name>
            </trkpt>
            <trkpt lon="-105.06348157" lat="38.86691999">
                <ele>3815.0</ele>
                <time>2008-06-25T16:21:05.000Z</time>
                <name>Position 2849</name>
            </trkpt>
            <trkpt lon="-105.06356823" lat="38.86696994">
                <ele>3815.0</ele>
                <time>2008-06-25T16:21:06.000Z</time>
                <name>Position 2850</name>
            </trkpt>
            <trkpt lon="-105.06365824" lat="38.86701989">
                <ele>3815.0</ele>
                <time>2008-06-25T16:21:07.000Z</time>
                <name>Position 2851</name>
            </trkpt>
            <trkpt lon="-105.06375325" lat="38.86706996">
                <ele>3838.0</ele>
                <time>2008-06-25T16:21:08.000Z</time>
                <name>Position 2852</name>
            </trkpt>
            <trkpt lon="-105.06385326" lat="38.86712158">
                <ele>3806.0</ele>
                <time>2008-06-25T16:21:09.000Z</time>
                <name>Position 2853</name>
            </trkpt>
            <trkpt lon="-105.06395829" lat="38.86717331">
                <ele>3806.0</ele>
                <time>2008-06-25T16:21:10.000Z</time>
                <name>Position 2854</name>
            </trkpt>
            <trkpt lon="-105.06406665" lat="38.86722493">
                <ele>3806.0</ele>
                <time>2008-06-25T16:21:11.000Z</time>
                <name>Position 2855</name>
            </trkpt>
            <trkpt lon="-105.06417823" lat="38.867275">
                <ele>3806.0</ele>
                <time>2008-06-25T16:21:12.000Z</time>
                <name>Position 2856</name>
            </trkpt>
            <trkpt lon="-105.06428993" lat="38.86732662">
                <ele>3806.0</ele>
                <time>2008-06-25T16:21:13.000Z</time>
                <name>Position 2857</name>
            </trkpt>
            <trkpt lon="-105.06440163" lat="38.86737657">
                <ele>3806.0</ele>
                <time>2008-06-25T16:21:14.000Z</time>
                <name>Position 2858</name>
            </trkpt>
            <trkpt lon="-105.06451166" lat="38.86742663">
                <ele>3806.0</ele>
                <time>2008-06-25T16:21:15.000Z</time>
                <name>Position 2859</name>
            </trkpt>
            <trkpt lon="-105.06462157" lat="38.86747324">
                <ele>3825.0</ele>
                <time>2008-06-25T16:21:16.000Z</time>
                <name>Position 2860</name>
            </trkpt>
            <trkpt lon="-105.06472993" lat="38.86751831">
                <ele>3825.0</ele>
                <time>2008-06-25T16:21:17.000Z</time>
                <name>Position 2861</name>
            </trkpt>
            <trkpt lon="-105.06483829" lat="38.86755657">
                <ele>3825.0</ele>
                <time>2008-06-25T16:21:18.000Z</time>
                <name>Position 2862</name>
            </trkpt>
            <trkpt lon="-105.06494498" lat="38.86758995">
                <ele>3825.0</ele>
                <time>2008-06-25T16:21:19.000Z</time>
                <name>Position 2863</name>
            </trkpt>
            <trkpt lon="-105.06504989" lat="38.86761665">
                <ele>3825.0</ele>
                <time>2008-06-25T16:21:20.000Z</time>
                <name>Position 2864</name>
            </trkpt>
            <trkpt lon="-105.06515658" lat="38.86764157">
                <ele>3825.0</ele>
                <time>2008-06-25T16:21:21.000Z</time>
                <name>Position 2865</name>
            </trkpt>
            <trkpt lon="-105.06526494" lat="38.8676616">
                <ele>3825.0</ele>
                <time>2008-06-25T16:21:22.000Z</time>
                <name>Position 2866</name>
            </trkpt>
            <trkpt lon="-105.0653733" lat="38.86767828">
                <ele>3825.0</ele>
                <time>2008-06-25T16:21:23.000Z</time>
                <name>Position 2867</name>
            </trkpt>
            <trkpt lon="-105.06548333" lat="38.86769331">
                <ele>3836.0</ele>
                <time>2008-06-25T16:21:24.000Z</time>
                <name>Position 2868</name>
            </trkpt>
            <trkpt lon="-105.0655899" lat="38.86770332">
                <ele>3836.0</ele>
                <time>2008-06-25T16:21:25.000Z</time>
                <name>Position 2869</name>
            </trkpt>
            <trkpt lon="-105.06569159" lat="38.86771166">
                <ele>3836.0</ele>
                <time>2008-06-25T16:21:26.000Z</time>
                <name>Position 2870</name>
            </trkpt>
            <trkpt lon="-105.06578994" lat="38.86771989">
                <ele>3836.0</ele>
                <time>2008-06-25T16:21:27.000Z</time>
                <name>Position 2871</name>
            </trkpt>
            <trkpt lon="-105.06587994" lat="38.8677249">
                <ele>3836.0</ele>
                <time>2008-06-25T16:21:28.000Z</time>
                <name>Position 2872</name>
            </trkpt>
            <trkpt lon="-105.06595993" lat="38.8677299">
                <ele>3836.0</ele>
                <time>2008-06-25T16:21:29.000Z</time>
                <name>Position 2873</name>
            </trkpt>
            <trkpt lon="-105.06602991" lat="38.86773324">
                <ele>3836.0</ele>
                <time>2008-06-25T16:21:30.000Z</time>
                <name>Position 2874</name>
            </trkpt>
            <trkpt lon="-105.06609499" lat="38.86773491">
                <ele>3836.0</ele>
                <time>2008-06-25T16:21:31.000Z</time>
                <name>Position 2875</name>
            </trkpt>
            <trkpt lon="-105.06615496" lat="38.86773324">
                <ele>3836.0</ele>
                <time>2008-06-25T16:21:32.000Z</time>
                <name>Position 2876</name>
            </trkpt>
            <trkpt lon="-105.06620824" lat="38.86772823">
                <ele>3836.0</ele>
                <time>2008-06-25T16:21:33.000Z</time>
                <name>Position 2877</name>
            </trkpt>
            <trkpt lon="-105.06625497" lat="38.86771822">
                <ele>3827.0</ele>
                <time>2008-06-25T16:21:34.000Z</time>
                <name>Position 2878</name>
            </trkpt>
            <trkpt lon="-105.06629491" lat="38.86770165">
                <ele>3827.0</ele>
                <time>2008-06-25T16:21:35.000Z</time>
                <name>Position 2879</name>
            </trkpt>
            <trkpt lon="-105.06632495" lat="38.86767495">
                <ele>3827.0</ele>
                <time>2008-06-25T16:21:36.000Z</time>
                <name>Position 2880</name>
            </trkpt>
            <trkpt lon="-105.06634164" lat="38.86763823">
                <ele>3827.0</ele>
                <time>2008-06-25T16:21:37.000Z</time>
                <name>Position 2881</name>
            </trkpt>
            <trkpt lon="-105.06633496" lat="38.86759663">
                <ele>3827.0</ele>
                <time>2008-06-25T16:21:38.000Z</time>
                <name>Position 2882</name>
            </trkpt>
            <trkpt lon="-105.06630158" lat="38.86755991">
                <ele>3827.0</ele>
                <time>2008-06-25T16:21:39.000Z</time>
                <name>Position 2883</name>
            </trkpt>
            <trkpt lon="-105.06623995" lat="38.86753833">
                <ele>3836.0</ele>
                <time>2008-06-25T16:21:40.000Z</time>
                <name>Position 2884</name>
            </trkpt>
            <trkpt lon="-105.06615996" lat="38.86752665">
                <ele>3836.0</ele>
                <time>2008-06-25T16:21:41.000Z</time>
                <name>Position 2885</name>
            </trkpt>
            <trkpt lon="-105.06606662" lat="38.86751664">
                <ele>3836.0</ele>
                <time>2008-06-25T16:21:42.000Z</time>
                <name>Position 2886</name>
            </trkpt>
            <trkpt lon="-105.0659616" lat="38.86750662">
                <ele>3836.0</ele>
                <time>2008-06-25T16:21:43.000Z</time>
                <name>Position 2887</name>
            </trkpt>
            <trkpt lon="-105.06584656" lat="38.86748827">
                <ele>3836.0</ele>
                <time>2008-06-25T16:21:44.000Z</time>
                <name>Position 2888</name>
            </trkpt>
            <trkpt lon="-105.06573164" lat="38.86746156">
                <ele>3836.0</ele>
                <time>2008-06-25T16:21:45.000Z</time>
                <name>Position 2889</name>
            </trkpt>
            <trkpt lon="-105.06561494" lat="38.86742496">
                <ele>3836.0</ele>
                <time>2008-06-25T16:21:46.000Z</time>
                <name>Position 2890</name>
            </trkpt>
            <trkpt lon="-105.06550157" lat="38.8673799">
                <ele>3836.0</ele>
                <time>2008-06-25T16:21:47.000Z</time>
                <name>Position 2891</name>
            </trkpt>
            <trkpt lon="-105.06539333" lat="38.86732996">
                <ele>3825.0</ele>
                <time>2008-06-25T16:21:48.000Z</time>
                <name>Position 2892</name>
            </trkpt>
            <trkpt lon="-105.06528997" lat="38.86727166">
                <ele>3825.0</ele>
                <time>2008-06-25T16:21:49.000Z</time>
                <name>Position 2893</name>
            </trkpt>
            <trkpt lon="-105.06519163" lat="38.86720657">
                <ele>3825.0</ele>
                <time>2008-06-25T16:21:50.000Z</time>
                <name>Position 2894</name>
            </trkpt>
            <trkpt lon="-105.06510162" lat="38.86713493">
                <ele>3825.0</ele>
                <time>2008-06-25T16:21:51.000Z</time>
                <name>Position 2895</name>
            </trkpt>
            <trkpt lon="-105.06501997" lat="38.86706161">
                <ele>3864.0</ele>
                <time>2008-06-25T16:21:52.000Z</time>
                <name>Position 2896</name>
            </trkpt>
            <trkpt lon="-105.06494331" lat="38.86698496">
                <ele>3864.0</ele>
                <time>2008-06-25T16:21:53.000Z</time>
                <name>Position 2897</name>
            </trkpt>
            <trkpt lon="-105.06486833" lat="38.86690831">
                <ele>3864.0</ele>
                <time>2008-06-25T16:21:54.000Z</time>
                <name>Position 2898</name>
            </trkpt>
            <trkpt lon="-105.06479657" lat="38.86683166">
                <ele>3864.0</ele>
                <time>2008-06-25T16:21:55.000Z</time>
                <name>Position 2899</name>
            </trkpt>
            <trkpt lon="-105.06472492" lat="38.86675656">
                <ele>3864.0</ele>
                <time>2008-06-25T16:21:56.000Z</time>
                <name>Position 2900</name>
            </trkpt>
            <trkpt lon="-105.06465662" lat="38.86668324">
                <ele>3864.0</ele>
                <time>2008-06-25T16:21:57.000Z</time>
                <name>Position 2901</name>
            </trkpt>
            <trkpt lon="-105.06458831" lat="38.86661327">
                <ele>3864.0</ele>
                <time>2008-06-25T16:21:58.000Z</time>
                <name>Position 2902</name>
            </trkpt>
            <trkpt lon="-105.06452322" lat="38.8665483">
                <ele>3838.0</ele>
                <time>2008-06-25T16:21:59.000Z</time>
                <name>Position 2903</name>
            </trkpt>
            <trkpt lon="-105.06445992" lat="38.86648655">
                <ele>3838.0</ele>
                <time>2008-06-25T16:22:00.000Z</time>
                <name>Position 2904</name>
            </trkpt>
            <trkpt lon="-105.06440163" lat="38.86643159">
                <ele>3838.0</ele>
                <time>2008-06-25T16:22:01.000Z</time>
                <name>Position 2905</name>
            </trkpt>
            <trkpt lon="-105.06434655" lat="38.86638165">
                <ele>3838.0</ele>
                <time>2008-06-25T16:22:02.000Z</time>
                <name>Position 2906</name>
            </trkpt>
            <trkpt lon="-105.06429994" lat="38.86633658">
                <ele>3838.0</ele>
                <time>2008-06-25T16:22:03.000Z</time>
                <name>Position 2907</name>
            </trkpt>
            <trkpt lon="-105.06426156" lat="38.86629498">
                <ele>3838.0</ele>
                <time>2008-06-25T16:22:04.000Z</time>
                <name>Position 2908</name>
            </trkpt>
            <trkpt lon="-105.06423998" lat="38.86625659">
                <ele>3838.0</ele>
                <time>2008-06-25T16:22:05.000Z</time>
                <name>Position 2909</name>
            </trkpt>
            <trkpt lon="-105.06423664" lat="38.86622167">
                <ele>3867.0</ele>
                <time>2008-06-25T16:22:06.000Z</time>
                <name>Position 2910</name>
            </trkpt>
            <trkpt lon="-105.06425333" lat="38.86619329">
                <ele>3867.0</ele>
                <time>2008-06-25T16:22:07.000Z</time>
                <name>Position 2911</name>
            </trkpt>
            <trkpt lon="-105.06428826" lat="38.86617327">
                <ele>3867.0</ele>
                <time>2008-06-25T16:22:08.000Z</time>
                <name>Position 2912</name>
            </trkpt>
            <trkpt lon="-105.06433499" lat="38.86616659">
                <ele>3867.0</ele>
                <time>2008-06-25T16:22:09.000Z</time>
                <name>Position 2913</name>
            </trkpt>
            <trkpt lon="-105.06438327" lat="38.86618161">
                <ele>3867.0</ele>
                <time>2008-06-25T16:22:10.000Z</time>
                <name>Position 2914</name>
            </trkpt>
            <trkpt lon="-105.06443" lat="38.86621499">
                <ele>3867.0</ele>
                <time>2008-06-25T16:22:11.000Z</time>
                <name>Position 2915</name>
            </trkpt>
            <trkpt lon="-105.06448162" lat="38.86625659">
                <ele>3838.0</ele>
                <time>2008-06-25T16:22:12.000Z</time>
                <name>Position 2916</name>
            </trkpt>
            <trkpt lon="-105.06453824" lat="38.86630499">
                <ele>3838.0</ele>
                <time>2008-06-25T16:22:13.000Z</time>
                <name>Position 2917</name>
            </trkpt>
            <trkpt lon="-105.06460333" lat="38.86635661">
                <ele>3864.0</ele>
                <time>2008-06-25T16:22:14.000Z</time>
                <name>Position 2918</name>
            </trkpt>
            <trkpt lon="-105.0646733" lat="38.8664099">
                <ele>3864.0</ele>
                <time>2008-06-25T16:22:15.000Z</time>
                <name>Position 2919</name>
            </trkpt>
            <trkpt lon="-105.06474495" lat="38.86646163">
                <ele>3864.0</ele>
                <time>2008-06-25T16:22:16.000Z</time>
                <name>Position 2920</name>
            </trkpt>
            <trkpt lon="-105.06481826" lat="38.86650991">
                <ele>3864.0</ele>
                <time>2008-06-25T16:22:17.000Z</time>
                <name>Position 2921</name>
            </trkpt>
            <trkpt lon="-105.06489158" lat="38.86655498">
                <ele>3864.0</ele>
                <time>2008-06-25T16:22:18.000Z</time>
                <name>Position 2922</name>
            </trkpt>
            <trkpt lon="-105.06496656" lat="38.86659658">
                <ele>3864.0</ele>
                <time>2008-06-25T16:22:19.000Z</time>
                <name>Position 2923</name>
            </trkpt>
            <trkpt lon="-105.06504655" lat="38.86663496">
                <ele>3864.0</ele>
                <time>2008-06-25T16:22:20.000Z</time>
                <name>Position 2924</name>
            </trkpt>
            <trkpt lon="-105.06512833" lat="38.86667323">
                <ele>3864.0</ele>
                <time>2008-06-25T16:22:21.000Z</time>
                <name>Position 2925</name>
            </trkpt>
            <trkpt lon="-105.06521499" lat="38.86670661">
                <ele>3864.0</ele>
                <time>2008-06-25T16:22:22.000Z</time>
                <name>Position 2926</name>
            </trkpt>
            <trkpt lon="-105.06530499" lat="38.86673999">
                <ele>3864.0</ele>
                <time>2008-06-25T16:22:23.000Z</time>
                <name>Position 2927</name>
            </trkpt>
            <trkpt lon="-105.06540155" lat="38.86676991">
                <ele>3864.0</ele>
                <time>2008-06-25T16:22:24.000Z</time>
                <name>Position 2928</name>
            </trkpt>
            <trkpt lon="-105.0654999" lat="38.86679661">
                <ele>3879.0</ele>
                <time>2008-06-25T16:22:25.000Z</time>
                <name>Position 2929</name>
            </trkpt>
            <trkpt lon="-105.06560326" lat="38.86681497">
                <ele>3879.0</ele>
                <time>2008-06-25T16:22:26.000Z</time>
                <name>Position 2930</name>
            </trkpt>
            <trkpt lon="-105.06570661" lat="38.86682665">
                <ele>3879.0</ele>
                <time>2008-06-25T16:22:27.000Z</time>
                <name>Position 2931</name>
            </trkpt>
            <trkpt lon="-105.06580997" lat="38.86682665">
                <ele>3879.0</ele>
                <time>2008-06-25T16:22:28.000Z</time>
                <name>Position 2932</name>
            </trkpt>
            <trkpt lon="-105.06590998" lat="38.86681664">
                <ele>3879.0</ele>
                <time>2008-06-25T16:22:29.000Z</time>
                <name>Position 2933</name>
            </trkpt>
            <trkpt lon="-105.06600499" lat="38.86679494">
                <ele>3879.0</ele>
                <time>2008-06-25T16:22:30.000Z</time>
                <name>Position 2934</name>
            </trkpt>
            <trkpt lon="-105.06609333" lat="38.8667599">
                <ele>3879.0</ele>
                <time>2008-06-25T16:22:31.000Z</time>
                <name>Position 2935</name>
            </trkpt>
            <trkpt lon="-105.06617498" lat="38.86671495">
                <ele>3879.0</ele>
                <time>2008-06-25T16:22:32.000Z</time>
                <name>Position 2936</name>
            </trkpt>
            <trkpt lon="-105.06624663" lat="38.86666">
                <ele>3879.0</ele>
                <time>2008-06-25T16:22:33.000Z</time>
                <name>Position 2937</name>
            </trkpt>
            <trkpt lon="-105.06630993" lat="38.86659658">
                <ele>3867.0</ele>
                <time>2008-06-25T16:22:34.000Z</time>
                <name>Position 2938</name>
            </trkpt>
            <trkpt lon="-105.06636822" lat="38.8665266">
                <ele>3867.0</ele>
                <time>2008-06-25T16:22:35.000Z</time>
                <name>Position 2939</name>
            </trkpt>
            <trkpt lon="-105.06642497" lat="38.86645496">
                <ele>3867.0</ele>
                <time>2008-06-25T16:22:36.000Z</time>
                <name>Position 2940</name>
            </trkpt>
            <trkpt lon="-105.06648159" lat="38.86637998">
                <ele>3867.0</ele>
                <time>2008-06-25T16:22:37.000Z</time>
                <name>Position 2941</name>
            </trkpt>
            <trkpt lon="-105.06654322" lat="38.86630499">
                <ele>3867.0</ele>
                <time>2008-06-25T16:22:38.000Z</time>
                <name>Position 2942</name>
            </trkpt>
            <trkpt lon="-105.06660998" lat="38.86623156">
                <ele>3907.0</ele>
                <time>2008-06-25T16:22:39.000Z</time>
                <name>Position 2943</name>
            </trkpt>
            <trkpt lon="-105.06668663" lat="38.86616325">
                <ele>3907.0</ele>
                <time>2008-06-25T16:22:40.000Z</time>
                <name>Position 2944</name>
            </trkpt>
            <trkpt lon="-105.06677496" lat="38.86609828">
                <ele>3907.0</ele>
                <time>2008-06-25T16:22:41.000Z</time>
                <name>Position 2945</name>
            </trkpt>
            <trkpt lon="-105.06687331" lat="38.86604166">
                <ele>3907.0</ele>
                <time>2008-06-25T16:22:42.000Z</time>
                <name>Position 2946</name>
            </trkpt>
            <trkpt lon="-105.06698155" lat="38.86599326">
                <ele>3907.0</ele>
                <time>2008-06-25T16:22:43.000Z</time>
                <name>Position 2947</name>
            </trkpt>
            <trkpt lon="-105.06709659" lat="38.86595166">
                <ele>3897.0</ele>
                <time>2008-06-25T16:22:44.000Z</time>
                <name>Position 2948</name>
            </trkpt>
            <trkpt lon="-105.0672133" lat="38.86591494">
                <ele>3897.0</ele>
                <time>2008-06-25T16:22:45.000Z</time>
                <name>Position 2949</name>
            </trkpt>
            <trkpt lon="-105.06733322" lat="38.86588156">
                <ele>3897.0</ele>
                <time>2008-06-25T16:22:46.000Z</time>
                <name>Position 2950</name>
            </trkpt>
            <trkpt lon="-105.06745327" lat="38.86584663">
                <ele>3897.0</ele>
                <time>2008-06-25T16:22:47.000Z</time>
                <name>Position 2951</name>
            </trkpt>
            <trkpt lon="-105.06756997" lat="38.86581492">
                <ele>3897.0</ele>
                <time>2008-06-25T16:22:48.000Z</time>
                <name>Position 2952</name>
            </trkpt>
            <trkpt lon="-105.06768656" lat="38.86578321">
                <ele>3897.0</ele>
                <time>2008-06-25T16:22:49.000Z</time>
                <name>Position 2953</name>
            </trkpt>
            <trkpt lon="-105.06779826" lat="38.86575162">
                <ele>3897.0</ele>
                <time>2008-06-25T16:22:50.000Z</time>
                <name>Position 2954</name>
            </trkpt>
            <trkpt lon="-105.06791162" lat="38.86572492">
                <ele>3897.0</ele>
                <time>2008-06-25T16:22:51.000Z</time>
                <name>Position 2955</name>
            </trkpt>
            <trkpt lon="-105.06802332" lat="38.86569989">
                <ele>3890.0</ele>
                <time>2008-06-25T16:22:52.000Z</time>
                <name>Position 2956</name>
            </trkpt>
            <trkpt lon="-105.06813323" lat="38.86567831">
                <ele>3890.0</ele>
                <time>2008-06-25T16:22:53.000Z</time>
                <name>Position 2957</name>
            </trkpt>
            <trkpt lon="-105.06824493" lat="38.86565661">
                <ele>3890.0</ele>
                <time>2008-06-25T16:22:54.000Z</time>
                <name>Position 2958</name>
            </trkpt>
            <trkpt lon="-105.0683533" lat="38.86563158">
                <ele>3890.0</ele>
                <time>2008-06-25T16:22:55.000Z</time>
                <name>Position 2959</name>
            </trkpt>
            <trkpt lon="-105.06845832" lat="38.86560333">
                <ele>3890.0</ele>
                <time>2008-06-25T16:22:56.000Z</time>
                <name>Position 2960</name>
            </trkpt>
            <trkpt lon="-105.06855989" lat="38.86556828">
                <ele>3890.0</ele>
                <time>2008-06-25T16:22:57.000Z</time>
                <name>Position 2961</name>
            </trkpt>
            <trkpt lon="-105.06865823" lat="38.86552489">
                <ele>3890.0</ele>
                <time>2008-06-25T16:22:58.000Z</time>
                <name>Position 2962</name>
            </trkpt>
            <trkpt lon="-105.06875157" lat="38.86547828">
                <ele>3881.0</ele>
                <time>2008-06-25T16:22:59.000Z</time>
                <name>Position 2963</name>
            </trkpt>
            <trkpt lon="-105.06884158" lat="38.86543">
                <ele>3881.0</ele>
                <time>2008-06-25T16:23:00.000Z</time>
                <name>Position 2964</name>
            </trkpt>
            <trkpt lon="-105.06892991" lat="38.86538494">
                <ele>3920.0</ele>
                <time>2008-06-25T16:23:01.000Z</time>
                <name>Position 2965</name>
            </trkpt>
            <trkpt lon="-105.06901491" lat="38.86534822">
                <ele>3920.0</ele>
                <time>2008-06-25T16:23:02.000Z</time>
                <name>Position 2966</name>
            </trkpt>
            <trkpt lon="-105.06909657" lat="38.86531663">
                <ele>3920.0</ele>
                <time>2008-06-25T16:23:03.000Z</time>
                <name>Position 2967</name>
            </trkpt>
            <trkpt lon="-105.06917489" lat="38.86528826">
                <ele>3920.0</ele>
                <time>2008-06-25T16:23:04.000Z</time>
                <name>Position 2968</name>
            </trkpt>
            <trkpt lon="-105.06925166" lat="38.86526155">
                <ele>3920.0</ele>
                <time>2008-06-25T16:23:05.000Z</time>
                <name>Position 2969</name>
            </trkpt>
            <trkpt lon="-105.06931996" lat="38.86523163">
                <ele>3920.0</ele>
                <time>2008-06-25T16:23:06.000Z</time>
                <name>Position 2970</name>
            </trkpt>
            <trkpt lon="-105.06937158" lat="38.86519158">
                <ele>3920.0</ele>
                <time>2008-06-25T16:23:07.000Z</time>
                <name>Position 2971</name>
            </trkpt>
            <trkpt lon="-105.06939328" lat="38.8651433">
                <ele>3920.0</ele>
                <time>2008-06-25T16:23:08.000Z</time>
                <name>Position 2972</name>
            </trkpt>
            <trkpt lon="-105.06938326" lat="38.86509156">
                <ele>3920.0</ele>
                <time>2008-06-25T16:23:09.000Z</time>
                <name>Position 2973</name>
            </trkpt>
            <trkpt lon="-105.06933999" lat="38.86505163">
                <ele>3920.0</ele>
                <time>2008-06-25T16:23:10.000Z</time>
                <name>Position 2974</name>
            </trkpt>
            <trkpt lon="-105.06927156" lat="38.86502993">
                <ele>3920.0</ele>
                <time>2008-06-25T16:23:11.000Z</time>
                <name>Position 2975</name>
            </trkpt>
            <trkpt lon="-105.06918824" lat="38.86502659">
                <ele>3920.0</ele>
                <time>2008-06-25T16:23:12.000Z</time>
                <name>Position 2976</name>
            </trkpt>
            <trkpt lon="-105.06909823" lat="38.86503661">
                <ele>3920.0</ele>
                <time>2008-06-25T16:23:13.000Z</time>
                <name>Position 2977</name>
            </trkpt>
            <trkpt lon="-105.06900322" lat="38.86505663">
                <ele>3920.0</ele>
                <time>2008-06-25T16:23:14.000Z</time>
                <name>Position 2978</name>
            </trkpt>
            <trkpt lon="-105.06890166" lat="38.86508322">
                <ele>3920.0</ele>
                <time>2008-06-25T16:23:15.000Z</time>
                <name>Position 2979</name>
            </trkpt>
            <trkpt lon="-105.0687933" lat="38.86510992">
                <ele>3920.0</ele>
                <time>2008-06-25T16:23:16.000Z</time>
                <name>Position 2980</name>
            </trkpt>
            <trkpt lon="-105.0686816" lat="38.86513495">
                <ele>3930.0</ele>
                <time>2008-06-25T16:23:17.000Z</time>
                <name>Position 2981</name>
            </trkpt>
            <trkpt lon="-105.06856489" lat="38.86515832">
                <ele>3930.0</ele>
                <time>2008-06-25T16:23:18.000Z</time>
                <name>Position 2982</name>
            </trkpt>
            <trkpt lon="-105.0684433" lat="38.86517489">
                <ele>3930.0</ele>
                <time>2008-06-25T16:23:19.000Z</time>
                <name>Position 2983</name>
            </trkpt>
            <trkpt lon="-105.06831658" lat="38.86518657">
                <ele>3930.0</ele>
                <time>2008-06-25T16:23:20.000Z</time>
                <name>Position 2984</name>
            </trkpt>
            <trkpt lon="-105.06818831" lat="38.86519325">
                <ele>3930.0</ele>
                <time>2008-06-25T16:23:21.000Z</time>
                <name>Position 2985</name>
            </trkpt>
            <trkpt lon="-105.06805992" lat="38.86519992">
                <ele>3930.0</ele>
                <time>2008-06-25T16:23:22.000Z</time>
                <name>Position 2986</name>
            </trkpt>
            <trkpt lon="-105.06793332" lat="38.86520994">
                <ele>3930.0</ele>
                <time>2008-06-25T16:23:23.000Z</time>
                <name>Position 2987</name>
            </trkpt>
            <trkpt lon="-105.06781828" lat="38.86522496">
                <ele>3938.0</ele>
                <time>2008-06-25T16:23:24.000Z</time>
                <name>Position 2988</name>
            </trkpt>
            <trkpt lon="-105.06771159" lat="38.86524165">
                <ele>3938.0</ele>
                <time>2008-06-25T16:23:25.000Z</time>
                <name>Position 2989</name>
            </trkpt>
            <trkpt lon="-105.06761658" lat="38.865255">
                <ele>3938.0</ele>
                <time>2008-06-25T16:23:26.000Z</time>
                <name>Position 2990</name>
            </trkpt>
            <trkpt lon="-105.06752992" lat="38.865255">
                <ele>3938.0</ele>
                <time>2008-06-25T16:23:27.000Z</time>
                <name>Position 2991</name>
            </trkpt>
            <trkpt lon="-105.06746328" lat="38.86523163">
                <ele>3938.0</ele>
                <time>2008-06-25T16:23:28.000Z</time>
                <name>Position 2992</name>
            </trkpt>
            <trkpt lon="-105.06742489" lat="38.86519325">
                <ele>3938.0</ele>
                <time>2008-06-25T16:23:29.000Z</time>
                <name>Position 2993</name>
            </trkpt>
            <trkpt lon="-105.06741989" lat="38.86514664">
                <ele>3938.0</ele>
                <time>2008-06-25T16:23:30.000Z</time>
                <name>Position 2994</name>
            </trkpt>
            <trkpt lon="-105.06744993" lat="38.86510491">
                <ele>3938.0</ele>
                <time>2008-06-25T16:23:31.000Z</time>
                <name>Position 2995</name>
            </trkpt>
            <trkpt lon="-105.06749833" lat="38.86506832">
                <ele>3938.0</ele>
                <time>2008-06-25T16:23:32.000Z</time>
                <name>Position 2996</name>
            </trkpt>
            <trkpt lon="-105.06755829" lat="38.86503327">
                <ele>3938.0</ele>
                <time>2008-06-25T16:23:33.000Z</time>
                <name>Position 2997</name>
            </trkpt>
            <trkpt lon="-105.06762826" lat="38.86499822">
                <ele>3938.0</ele>
                <time>2008-06-25T16:23:34.000Z</time>
                <name>Position 2998</name>
            </trkpt>
            <trkpt lon="-105.06770325" lat="38.86495996">
                <ele>3938.0</ele>
                <time>2008-06-25T16:23:35.000Z</time>
                <name>Position 2999</name>
            </trkpt>
            <trkpt lon="-105.0677799" lat="38.86491489">
                <ele>3938.0</ele>
                <time>2008-06-25T16:23:36.000Z</time>
                <name>Position 3000</name>
            </trkpt>
            <trkpt lon="-105.06785488" lat="38.86486495">
                <ele>3938.0</ele>
                <time>2008-06-25T16:23:37.000Z</time>
                <name>Position 3001</name>
            </trkpt>
            <trkpt lon="-105.06792498" lat="38.86480665">
                <ele>3930.0</ele>
                <time>2008-06-25T16:23:38.000Z</time>
                <name>Position 3002</name>
            </trkpt>
            <trkpt lon="-105.06798995" lat="38.86474156">
                <ele>3930.0</ele>
                <time>2008-06-25T16:23:39.000Z</time>
                <name>Position 3003</name>
            </trkpt>
            <trkpt lon="-105.06804824" lat="38.86466825">
                <ele>3930.0</ele>
                <time>2008-06-25T16:23:40.000Z</time>
                <name>Position 3004</name>
            </trkpt>
            <trkpt lon="-105.06809664" lat="38.86458826">
                <ele>3930.0</ele>
                <time>2008-06-25T16:23:41.000Z</time>
                <name>Position 3005</name>
            </trkpt>
            <trkpt lon="-105.06813323" lat="38.86450326">
                <ele>3943.0</ele>
                <time>2008-06-25T16:23:42.000Z</time>
                <name>Position 3006</name>
            </trkpt>
            <trkpt lon="-105.06815994" lat="38.86441326">
                <ele>3943.0</ele>
                <time>2008-06-25T16:23:43.000Z</time>
                <name>Position 3007</name>
            </trkpt>
            <trkpt lon="-105.06816828" lat="38.86431658">
                <ele>3943.0</ele>
                <time>2008-06-25T16:23:44.000Z</time>
                <name>Position 3008</name>
            </trkpt>
            <trkpt lon="-105.06816161" lat="38.86421824">
                <ele>3943.0</ele>
                <time>2008-06-25T16:23:45.000Z</time>
                <name>Position 3009</name>
            </trkpt>
            <trkpt lon="-105.06813991" lat="38.86411333">
                <ele>3943.0</ele>
                <time>2008-06-25T16:23:46.000Z</time>
                <name>Position 3010</name>
            </trkpt>
            <trkpt lon="-105.06810999" lat="38.86400497">
                <ele>3943.0</ele>
                <time>2008-06-25T16:23:47.000Z</time>
                <name>Position 3011</name>
            </trkpt>
            <trkpt lon="-105.06807327" lat="38.8638916">
                <ele>3943.0</ele>
                <time>2008-06-25T16:23:48.000Z</time>
                <name>Position 3012</name>
            </trkpt>
            <trkpt lon="-105.06803" lat="38.8637749">
                <ele>3943.0</ele>
                <time>2008-06-25T16:23:49.000Z</time>
                <name>Position 3013</name>
            </trkpt>
            <trkpt lon="-105.06797826" lat="38.86365497">
                <ele>3941.0</ele>
                <time>2008-06-25T16:23:50.000Z</time>
                <name>Position 3014</name>
            </trkpt>
            <trkpt lon="-105.06792665" lat="38.86353493">
                <ele>3941.0</ele>
                <time>2008-06-25T16:23:51.000Z</time>
                <name>Position 3015</name>
            </trkpt>
            <trkpt lon="-105.06787658" lat="38.86341488">
                <ele>3948.0</ele>
                <time>2008-06-25T16:23:52.000Z</time>
                <name>Position 3016</name>
            </trkpt>
            <trkpt lon="-105.0678283" lat="38.86329997">
                <ele>3948.0</ele>
                <time>2008-06-25T16:23:53.000Z</time>
                <name>Position 3017</name>
            </trkpt>
            <trkpt lon="-105.0677799" lat="38.8631866">
                <ele>3948.0</ele>
                <time>2008-06-25T16:23:54.000Z</time>
                <name>Position 3018</name>
            </trkpt>
            <trkpt lon="-105.06773496" lat="38.86307657">
                <ele>3948.0</ele>
                <time>2008-06-25T16:23:55.000Z</time>
                <name>Position 3019</name>
            </trkpt>
            <trkpt lon="-105.0676899" lat="38.86297166">
                <ele>3948.0</ele>
                <time>2008-06-25T16:23:56.000Z</time>
                <name>Position 3020</name>
            </trkpt>
            <trkpt lon="-105.06764662" lat="38.86286998">
                <ele>3949.0</ele>
                <time>2008-06-25T16:23:57.000Z</time>
                <name>Position 3021</name>
            </trkpt>
            <trkpt lon="-105.0676049" lat="38.86277497">
                <ele>3949.0</ele>
                <time>2008-06-25T16:23:58.000Z</time>
                <name>Position 3022</name>
            </trkpt>
            <trkpt lon="-105.0675633" lat="38.8626833">
                <ele>3949.0</ele>
                <time>2008-06-25T16:23:59.000Z</time>
                <name>Position 3023</name>
            </trkpt>
            <trkpt lon="-105.06752491" lat="38.86259663">
                <ele>3949.0</ele>
                <time>2008-06-25T16:24:00.000Z</time>
                <name>Position 3024</name>
            </trkpt>
            <trkpt lon="-105.06748664" lat="38.8625133">
                <ele>3949.0</ele>
                <time>2008-06-25T16:24:01.000Z</time>
                <name>Position 3025</name>
            </trkpt>
            <trkpt lon="-105.0674566" lat="38.86242998">
                <ele>3949.0</ele>
                <time>2008-06-25T16:24:02.000Z</time>
                <name>Position 3026</name>
            </trkpt>
            <trkpt lon="-105.06743157" lat="38.86234665">
                <ele>3949.0</ele>
                <time>2008-06-25T16:24:03.000Z</time>
                <name>Position 3027</name>
            </trkpt>
            <trkpt lon="-105.067415" lat="38.86225832">
                <ele>3949.0</ele>
                <time>2008-06-25T16:24:04.000Z</time>
                <name>Position 3028</name>
            </trkpt>
            <trkpt lon="-105.06740832" lat="38.86216664">
                <ele>3949.0</ele>
                <time>2008-06-25T16:24:05.000Z</time>
                <name>Position 3029</name>
            </trkpt>
            <trkpt lon="-105.06740999" lat="38.86207163">
                <ele>3952.0</ele>
                <time>2008-06-25T16:24:06.000Z</time>
                <name>Position 3030</name>
            </trkpt>
            <trkpt lon="-105.06741989" lat="38.86197495">
                <ele>3952.0</ele>
                <time>2008-06-25T16:24:07.000Z</time>
                <name>Position 3031</name>
            </trkpt>
            <trkpt lon="-105.06743491" lat="38.86187661">
                <ele>3952.0</ele>
                <time>2008-06-25T16:24:08.000Z</time>
                <name>Position 3032</name>
            </trkpt>
            <trkpt lon="-105.06745493" lat="38.86177659">
                <ele>3952.0</ele>
                <time>2008-06-25T16:24:09.000Z</time>
                <name>Position 3033</name>
            </trkpt>
            <trkpt lon="-105.06747496" lat="38.8616749">
                <ele>3952.0</ele>
                <time>2008-06-25T16:24:10.000Z</time>
                <name>Position 3034</name>
            </trkpt>
            <trkpt lon="-105.06749666" lat="38.86157489">
                <ele>3952.0</ele>
                <time>2008-06-25T16:24:11.000Z</time>
                <name>Position 3035</name>
            </trkpt>
            <trkpt lon="-105.06751657" lat="38.86147499">
                <ele>3952.0</ele>
                <time>2008-06-25T16:24:12.000Z</time>
                <name>Position 3036</name>
            </trkpt>
            <trkpt lon="-105.06753826" lat="38.86137831">
                <ele>3952.0</ele>
                <time>2008-06-25T16:24:13.000Z</time>
                <name>Position 3037</name>
            </trkpt>
            <trkpt lon="-105.06755996" lat="38.86128163">
                <ele>3952.0</ele>
                <time>2008-06-25T16:24:14.000Z</time>
                <name>Position 3038</name>
            </trkpt>
            <trkpt lon="-105.06758332" lat="38.86118495">
                <ele>3957.0</ele>
                <time>2008-06-25T16:24:15.000Z</time>
                <name>Position 3039</name>
            </trkpt>
            <trkpt lon="-105.06760824" lat="38.86108994">
                <ele>3957.0</ele>
                <time>2008-06-25T16:24:16.000Z</time>
                <name>Position 3040</name>
            </trkpt>
            <trkpt lon="-105.06763494" lat="38.86099494">
                <ele>3957.0</ele>
                <time>2008-06-25T16:24:17.000Z</time>
                <name>Position 3041</name>
            </trkpt>
            <trkpt lon="-105.06766331" lat="38.86090159">
                <ele>3957.0</ele>
                <time>2008-06-25T16:24:18.000Z</time>
                <name>Position 3042</name>
            </trkpt>
            <trkpt lon="-105.06769156" lat="38.86080658">
                <ele>3957.0</ele>
                <time>2008-06-25T16:24:19.000Z</time>
                <name>Position 3043</name>
            </trkpt>
            <trkpt lon="-105.06772161" lat="38.86070991">
                <ele>3957.0</ele>
                <time>2008-06-25T16:24:20.000Z</time>
                <name>Position 3044</name>
            </trkpt>
            <trkpt lon="-105.06774998" lat="38.8606149">
                <ele>3957.0</ele>
                <time>2008-06-25T16:24:21.000Z</time>
                <name>Position 3045</name>
            </trkpt>
            <trkpt lon="-105.0677799" lat="38.86051822">
                <ele>3957.0</ele>
                <time>2008-06-25T16:24:22.000Z</time>
                <name>Position 3046</name>
            </trkpt>
            <trkpt lon="-105.06780827" lat="38.86042166">
                <ele>3957.0</ele>
                <time>2008-06-25T16:24:23.000Z</time>
                <name>Position 3047</name>
            </trkpt>
            <trkpt lon="-105.06783664" lat="38.86032331">
                <ele>3960.0</ele>
                <time>2008-06-25T16:24:24.000Z</time>
                <name>Position 3048</name>
            </trkpt>
            <trkpt lon="-105.06786489" lat="38.86022496">
                <ele>3960.0</ele>
                <time>2008-06-25T16:24:25.000Z</time>
                <name>Position 3049</name>
            </trkpt>
            <trkpt lon="-105.0678916" lat="38.86012828">
                <ele>3960.0</ele>
                <time>2008-06-25T16:24:26.000Z</time>
                <name>Position 3050</name>
            </trkpt>
            <trkpt lon="-105.06791496" lat="38.86003661">
                <ele>3960.0</ele>
                <time>2008-06-25T16:24:27.000Z</time>
                <name>Position 3051</name>
            </trkpt>
            <trkpt lon="-105.06793666" lat="38.85994995">
                <ele>3942.0</ele>
                <time>2008-06-25T16:24:28.000Z</time>
                <name>Position 3052</name>
            </trkpt>
            <trkpt lon="-105.06795323" lat="38.85986328">
                <ele>3942.0</ele>
                <time>2008-06-25T16:24:29.000Z</time>
                <name>Position 3053</name>
            </trkpt>
            <trkpt lon="-105.06796491" lat="38.85977662">
                <ele>3942.0</ele>
                <time>2008-06-25T16:24:30.000Z</time>
                <name>Position 3054</name>
            </trkpt>
            <trkpt lon="-105.06796825" lat="38.85968828">
                <ele>3942.0</ele>
                <time>2008-06-25T16:24:31.000Z</time>
                <name>Position 3055</name>
            </trkpt>
            <trkpt lon="-105.06796491" lat="38.85959995">
                <ele>3942.0</ele>
                <time>2008-06-25T16:24:32.000Z</time>
                <name>Position 3056</name>
            </trkpt>
            <trkpt lon="-105.06795323" lat="38.85950994">
                <ele>3937.0</ele>
                <time>2008-06-25T16:24:33.000Z</time>
                <name>Position 3057</name>
            </trkpt>
            <trkpt lon="-105.06793499" lat="38.85942161">
                <ele>3937.0</ele>
                <time>2008-06-25T16:24:34.000Z</time>
                <name>Position 3058</name>
            </trkpt>
            <trkpt lon="-105.06790829" lat="38.85933161">
                <ele>3953.0</ele>
                <time>2008-06-25T16:24:35.000Z</time>
                <name>Position 3059</name>
            </trkpt>
            <trkpt lon="-105.06787324" lat="38.85924327">
                <ele>3953.0</ele>
                <time>2008-06-25T16:24:36.000Z</time>
                <name>Position 3060</name>
            </trkpt>
            <trkpt lon="-105.06782997" lat="38.85915661">
                <ele>3953.0</ele>
                <time>2008-06-25T16:24:37.000Z</time>
                <name>Position 3061</name>
            </trkpt>
            <trkpt lon="-105.06777489" lat="38.85907328">
                <ele>3953.0</ele>
                <time>2008-06-25T16:24:38.000Z</time>
                <name>Position 3062</name>
            </trkpt>
            <trkpt lon="-105.06770992" lat="38.85899162">
                <ele>3953.0</ele>
                <time>2008-06-25T16:24:39.000Z</time>
                <name>Position 3063</name>
            </trkpt>
            <trkpt lon="-105.06763995" lat="38.8589133">
                <ele>3953.0</ele>
                <time>2008-06-25T16:24:40.000Z</time>
                <name>Position 3064</name>
            </trkpt>
            <trkpt lon="-105.06756496" lat="38.85883164">
                <ele>3953.0</ele>
                <time>2008-06-25T16:24:41.000Z</time>
                <name>Position 3065</name>
            </trkpt>
            <trkpt lon="-105.06748998" lat="38.85875165">
                <ele>3953.0</ele>
                <time>2008-06-25T16:24:42.000Z</time>
                <name>Position 3066</name>
            </trkpt>
            <trkpt lon="-105.067415" lat="38.85867">
                <ele>3941.0</ele>
                <time>2008-06-25T16:24:43.000Z</time>
                <name>Position 3067</name>
            </trkpt>
            <trkpt lon="-105.0673399" lat="38.85858822">
                <ele>3941.0</ele>
                <time>2008-06-25T16:24:44.000Z</time>
                <name>Position 3068</name>
            </trkpt>
            <trkpt lon="-105.06726658" lat="38.85850823">
                <ele>3941.0</ele>
                <time>2008-06-25T16:24:45.000Z</time>
                <name>Position 3069</name>
            </trkpt>
            <trkpt lon="-105.06719327" lat="38.85842824">
                <ele>3941.0</ele>
                <time>2008-06-25T16:24:46.000Z</time>
                <name>Position 3070</name>
            </trkpt>
            <trkpt lon="-105.06711996" lat="38.85834992">
                <ele>3941.0</ele>
                <time>2008-06-25T16:24:47.000Z</time>
                <name>Position 3071</name>
            </trkpt>
            <trkpt lon="-105.06704497" lat="38.8582716">
                <ele>3953.0</ele>
                <time>2008-06-25T16:24:48.000Z</time>
                <name>Position 3072</name>
            </trkpt>
            <trkpt lon="-105.06696498" lat="38.85819328">
                <ele>3953.0</ele>
                <time>2008-06-25T16:24:49.000Z</time>
                <name>Position 3073</name>
            </trkpt>
            <trkpt lon="-105.06687832" lat="38.8581183">
                <ele>3953.0</ele>
                <time>2008-06-25T16:24:50.000Z</time>
                <name>Position 3074</name>
            </trkpt>
            <trkpt lon="-105.06678498" lat="38.85804832">
                <ele>3953.0</ele>
                <time>2008-06-25T16:24:51.000Z</time>
                <name>Position 3075</name>
            </trkpt>
            <trkpt lon="-105.06668162" lat="38.85798156">
                <ele>3953.0</ele>
                <time>2008-06-25T16:24:52.000Z</time>
                <name>Position 3076</name>
            </trkpt>
            <trkpt lon="-105.06656992" lat="38.85791826">
                <ele>3953.0</ele>
                <time>2008-06-25T16:24:53.000Z</time>
                <name>Position 3077</name>
            </trkpt>
            <trkpt lon="-105.06645489" lat="38.85786164">
                <ele>3935.0</ele>
                <time>2008-06-25T16:24:54.000Z</time>
                <name>Position 3078</name>
            </trkpt>
            <trkpt lon="-105.06633663" lat="38.85781157">
                <ele>3935.0</ele>
                <time>2008-06-25T16:24:55.000Z</time>
                <name>Position 3079</name>
            </trkpt>
            <trkpt lon="-105.06621492" lat="38.8577683">
                <ele>3939.0</ele>
                <time>2008-06-25T16:24:56.000Z</time>
                <name>Position 3080</name>
            </trkpt>
            <trkpt lon="-105.06608999" lat="38.85772657">
                <ele>3939.0</ele>
                <time>2008-06-25T16:24:57.000Z</time>
                <name>Position 3081</name>
            </trkpt>
            <trkpt lon="-105.06596327" lat="38.85768831">
                <ele>3939.0</ele>
                <time>2008-06-25T16:24:58.000Z</time>
                <name>Position 3082</name>
            </trkpt>
            <trkpt lon="-105.06583333" lat="38.85764992">
                <ele>3939.0</ele>
                <time>2008-06-25T16:24:59.000Z</time>
                <name>Position 3083</name>
            </trkpt>
            <trkpt lon="-105.06569827" lat="38.85761333">
                <ele>3939.0</ele>
                <time>2008-06-25T16:25:00.000Z</time>
                <name>Position 3084</name>
            </trkpt>
            <trkpt lon="-105.06556165" lat="38.85757494">
                <ele>3939.0</ele>
                <time>2008-06-25T16:25:01.000Z</time>
                <name>Position 3085</name>
            </trkpt>
            <trkpt lon="-105.06541991" lat="38.85753489">
                <ele>3939.0</ele>
                <time>2008-06-25T16:25:02.000Z</time>
                <name>Position 3086</name>
            </trkpt>
            <trkpt lon="-105.06527662" lat="38.85749495">
                <ele>3943.0</ele>
                <time>2008-06-25T16:25:03.000Z</time>
                <name>Position 3087</name>
            </trkpt>
            <trkpt lon="-105.06513" lat="38.85745656">
                <ele>3943.0</ele>
                <time>2008-06-25T16:25:04.000Z</time>
                <name>Position 3088</name>
            </trkpt>
            <trkpt lon="-105.06498492" lat="38.85741496">
                <ele>3943.0</ele>
                <time>2008-06-25T16:25:05.000Z</time>
                <name>Position 3089</name>
            </trkpt>
            <trkpt lon="-105.06484163" lat="38.85737658">
                <ele>3943.0</ele>
                <time>2008-06-25T16:25:06.000Z</time>
                <name>Position 3090</name>
            </trkpt>
            <trkpt lon="-105.06469822" lat="38.85734165">
                <ele>3943.0</ele>
                <time>2008-06-25T16:25:07.000Z</time>
                <name>Position 3091</name>
            </trkpt>
            <trkpt lon="-105.06455827" lat="38.8573066">
                <ele>3941.0</ele>
                <time>2008-06-25T16:25:08.000Z</time>
                <name>Position 3092</name>
            </trkpt>
            <trkpt lon="-105.06441665" lat="38.85727656">
                <ele>3941.0</ele>
                <time>2008-06-25T16:25:09.000Z</time>
                <name>Position 3093</name>
            </trkpt>
            <trkpt lon="-105.06427324" lat="38.85724831">
                <ele>3941.0</ele>
                <time>2008-06-25T16:25:10.000Z</time>
                <name>Position 3094</name>
            </trkpt>
            <trkpt lon="-105.06412995" lat="38.8572216">
                <ele>3941.0</ele>
                <time>2008-06-25T16:25:11.000Z</time>
                <name>Position 3095</name>
            </trkpt>
            <trkpt lon="-105.06399" lat="38.85719824">
                <ele>3941.0</ele>
                <time>2008-06-25T16:25:12.000Z</time>
                <name>Position 3096</name>
            </trkpt>
            <trkpt lon="-105.06385493" lat="38.85717332">
                <ele>3941.0</ele>
                <time>2008-06-25T16:25:13.000Z</time>
                <name>Position 3097</name>
            </trkpt>
            <trkpt lon="-105.06372666" lat="38.85714495">
                <ele>3917.0</ele>
                <time>2008-06-25T16:25:14.000Z</time>
                <name>Position 3098</name>
            </trkpt>
            <trkpt lon="-105.06360662" lat="38.8571099">
                <ele>3917.0</ele>
                <time>2008-06-25T16:25:15.000Z</time>
                <name>Position 3099</name>
            </trkpt>
            <trkpt lon="-105.06349492" lat="38.85706496">
                <ele>3938.0</ele>
                <time>2008-06-25T16:25:16.000Z</time>
                <name>Position 3100</name>
            </trkpt>
            <trkpt lon="-105.06339657" lat="38.85700822">
                <ele>3938.0</ele>
                <time>2008-06-25T16:25:17.000Z</time>
                <name>Position 3101</name>
            </trkpt>
            <trkpt lon="-105.06331158" lat="38.85694325">
                <ele>3938.0</ele>
                <time>2008-06-25T16:25:18.000Z</time>
                <name>Position 3102</name>
            </trkpt>
            <trkpt lon="-105.06323993" lat="38.85686827">
                <ele>3938.0</ele>
                <time>2008-06-25T16:25:19.000Z</time>
                <name>Position 3103</name>
            </trkpt>
            <trkpt lon="-105.06318331" lat="38.85678828">
                <ele>3938.0</ele>
                <time>2008-06-25T16:25:20.000Z</time>
                <name>Position 3104</name>
            </trkpt>
            <trkpt lon="-105.06314158" lat="38.85670328">
                <ele>3938.0</ele>
                <time>2008-06-25T16:25:21.000Z</time>
                <name>Position 3105</name>
            </trkpt>
            <trkpt lon="-105.06311333" lat="38.85661995">
                <ele>3938.0</ele>
                <time>2008-06-25T16:25:22.000Z</time>
                <name>Position 3106</name>
            </trkpt>
            <trkpt lon="-105.06309664" lat="38.85653663">
                <ele>3938.0</ele>
                <time>2008-06-25T16:25:23.000Z</time>
                <name>Position 3107</name>
            </trkpt>
            <trkpt lon="-105.06308496" lat="38.85645664">
                <ele>3938.0</ele>
                <time>2008-06-25T16:25:24.000Z</time>
                <name>Position 3108</name>
            </trkpt>
            <trkpt lon="-105.06307662" lat="38.85637832">
                <ele>3938.0</ele>
                <time>2008-06-25T16:25:25.000Z</time>
                <name>Position 3109</name>
            </trkpt>
            <trkpt lon="-105.06307161" lat="38.85629833">
                <ele>3938.0</ele>
                <time>2008-06-25T16:25:26.000Z</time>
                <name>Position 3110</name>
            </trkpt>
            <trkpt lon="-105.0630666" lat="38.85621822">
                <ele>3945.0</ele>
                <time>2008-06-25T16:25:27.000Z</time>
                <name>Position 3111</name>
            </trkpt>
            <trkpt lon="-105.06306159" lat="38.8561399">
                <ele>3945.0</ele>
                <time>2008-06-25T16:25:28.000Z</time>
                <name>Position 3112</name>
            </trkpt>
            <trkpt lon="-105.06305659" lat="38.85606158">
                <ele>3945.0</ele>
                <time>2008-06-25T16:25:29.000Z</time>
                <name>Position 3113</name>
            </trkpt>
            <trkpt lon="-105.06305158" lat="38.85597992">
                <ele>3945.0</ele>
                <time>2008-06-25T16:25:30.000Z</time>
                <name>Position 3114</name>
            </trkpt>
            <trkpt lon="-105.06304657" lat="38.85589826">
                <ele>3945.0</ele>
                <time>2008-06-25T16:25:31.000Z</time>
                <name>Position 3115</name>
            </trkpt>
            <trkpt lon="-105.06304324" lat="38.85581493">
                <ele>3945.0</ele>
                <time>2008-06-25T16:25:32.000Z</time>
                <name>Position 3116</name>
            </trkpt>
            <trkpt lon="-105.0630399" lat="38.85572994">
                <ele>3945.0</ele>
                <time>2008-06-25T16:25:33.000Z</time>
                <name>Position 3117</name>
            </trkpt>
            <trkpt lon="-105.06303656" lat="38.85564327">
                <ele>3945.0</ele>
                <time>2008-06-25T16:25:34.000Z</time>
                <name>Position 3118</name>
            </trkpt>
            <trkpt lon="-105.06303489" lat="38.85555494">
                <ele>3945.0</ele>
                <time>2008-06-25T16:25:35.000Z</time>
                <name>Position 3119</name>
            </trkpt>
            <trkpt lon="-105.06303155" lat="38.85546827">
                <ele>3945.0</ele>
                <time>2008-06-25T16:25:36.000Z</time>
                <name>Position 3120</name>
            </trkpt>
            <trkpt lon="-105.06303155" lat="38.85538161">
                <ele>3956.0</ele>
                <time>2008-06-25T16:25:37.000Z</time>
                <name>Position 3121</name>
            </trkpt>
            <trkpt lon="-105.06303489" lat="38.85529661">
                <ele>3956.0</ele>
                <time>2008-06-25T16:25:38.000Z</time>
                <name>Position 3122</name>
            </trkpt>
            <trkpt lon="-105.0630399" lat="38.85521162">
                <ele>3956.0</ele>
                <time>2008-06-25T16:25:39.000Z</time>
                <name>Position 3123</name>
            </trkpt>
            <trkpt lon="-105.06304824" lat="38.85512996">
                <ele>3956.0</ele>
                <time>2008-06-25T16:25:40.000Z</time>
                <name>Position 3124</name>
            </trkpt>
            <trkpt lon="-105.06305826" lat="38.85504997">
                <ele>3956.0</ele>
                <time>2008-06-25T16:25:41.000Z</time>
                <name>Position 3125</name>
            </trkpt>
            <trkpt lon="-105.06306994" lat="38.85497165">
                <ele>3956.0</ele>
                <time>2008-06-25T16:25:42.000Z</time>
                <name>Position 3126</name>
            </trkpt>
            <trkpt lon="-105.06308329" lat="38.85489333">
                <ele>3956.0</ele>
                <time>2008-06-25T16:25:43.000Z</time>
                <name>Position 3127</name>
            </trkpt>
            <trkpt lon="-105.06309831" lat="38.85481656">
                <ele>3956.0</ele>
                <time>2008-06-25T16:25:44.000Z</time>
                <name>Position 3128</name>
            </trkpt>
            <trkpt lon="-105.06311333" lat="38.85473824">
                <ele>3956.0</ele>
                <time>2008-06-25T16:25:45.000Z</time>
                <name>Position 3129</name>
            </trkpt>
            <trkpt lon="-105.0631299" lat="38.85465825">
                <ele>3956.0</ele>
                <time>2008-06-25T16:25:46.000Z</time>
                <name>Position 3130</name>
            </trkpt>
            <trkpt lon="-105.06314826" lat="38.85457826">
                <ele>3971.0</ele>
                <time>2008-06-25T16:25:47.000Z</time>
                <name>Position 3131</name>
            </trkpt>
            <trkpt lon="-105.06316829" lat="38.85449827">
                <ele>3971.0</ele>
                <time>2008-06-25T16:25:48.000Z</time>
                <name>Position 3132</name>
            </trkpt>
            <trkpt lon="-105.06318831" lat="38.85441661">
                <ele>3971.0</ele>
                <time>2008-06-25T16:25:49.000Z</time>
                <name>Position 3133</name>
            </trkpt>
            <trkpt lon="-105.06320989" lat="38.85433495">
                <ele>3971.0</ele>
                <time>2008-06-25T16:25:50.000Z</time>
                <name>Position 3134</name>
            </trkpt>
            <trkpt lon="-105.06323159" lat="38.85425162">
                <ele>3971.0</ele>
                <time>2008-06-25T16:25:51.000Z</time>
                <name>Position 3135</name>
            </trkpt>
            <trkpt lon="-105.06325495" lat="38.8541683">
                <ele>3971.0</ele>
                <time>2008-06-25T16:25:52.000Z</time>
                <name>Position 3136</name>
            </trkpt>
            <trkpt lon="-105.06327832" lat="38.85408497">
                <ele>3971.0</ele>
                <time>2008-06-25T16:25:53.000Z</time>
                <name>Position 3137</name>
            </trkpt>
            <trkpt lon="-105.06329989" lat="38.85399997">
                <ele>3971.0</ele>
                <time>2008-06-25T16:25:54.000Z</time>
                <name>Position 3138</name>
            </trkpt>
            <trkpt lon="-105.06331992" lat="38.85391498">
                <ele>3971.0</ele>
                <time>2008-06-25T16:25:55.000Z</time>
                <name>Position 3139</name>
            </trkpt>
            <trkpt lon="-105.06333828" lat="38.85382831">
                <ele>3971.0</ele>
                <time>2008-06-25T16:25:56.000Z</time>
                <name>Position 3140</name>
            </trkpt>
            <trkpt lon="-105.06335497" lat="38.85374331">
                <ele>3976.0</ele>
                <time>2008-06-25T16:25:57.000Z</time>
                <name>Position 3141</name>
            </trkpt>
            <trkpt lon="-105.06336999" lat="38.85365665">
                <ele>3976.0</ele>
                <time>2008-06-25T16:25:58.000Z</time>
                <name>Position 3142</name>
            </trkpt>
            <trkpt lon="-105.06338322" lat="38.85357165">
                <ele>3976.0</ele>
                <time>2008-06-25T16:25:59.000Z</time>
                <name>Position 3143</name>
            </trkpt>
            <trkpt lon="-105.0633949" lat="38.85348833">
                <ele>3976.0</ele>
                <time>2008-06-25T16:26:00.000Z</time>
                <name>Position 3144</name>
            </trkpt>
            <trkpt lon="-105.06340158" lat="38.85340822">
                <ele>3976.0</ele>
                <time>2008-06-25T16:26:01.000Z</time>
                <name>Position 3145</name>
            </trkpt>
            <trkpt lon="-105.06340325" lat="38.8533299">
                <ele>3976.0</ele>
                <time>2008-06-25T16:26:02.000Z</time>
                <name>Position 3146</name>
            </trkpt>
            <trkpt lon="-105.06339824" lat="38.85325158">
                <ele>3976.0</ele>
                <time>2008-06-25T16:26:03.000Z</time>
                <name>Position 3147</name>
            </trkpt>
            <trkpt lon="-105.06338489" lat="38.85317326">
                <ele>3976.0</ele>
                <time>2008-06-25T16:26:04.000Z</time>
                <name>Position 3148</name>
            </trkpt>
            <trkpt lon="-105.06336331" lat="38.8530966">
                <ele>3976.0</ele>
                <time>2008-06-25T16:26:05.000Z</time>
                <name>Position 3149</name>
            </trkpt>
            <trkpt lon="-105.06333494" lat="38.85301661">
                <ele>3976.0</ele>
                <time>2008-06-25T16:26:06.000Z</time>
                <name>Position 3150</name>
            </trkpt>
            <trkpt lon="-105.06329823" lat="38.85293663">
                <ele>3976.0</ele>
                <time>2008-06-25T16:26:07.000Z</time>
                <name>Position 3151</name>
            </trkpt>
            <trkpt lon="-105.06325829" lat="38.85285664">
                <ele>3975.0</ele>
                <time>2008-06-25T16:26:08.000Z</time>
                <name>Position 3152</name>
            </trkpt>
            <trkpt lon="-105.06321156" lat="38.85277498">
                <ele>3975.0</ele>
                <time>2008-06-25T16:26:09.000Z</time>
                <name>Position 3153</name>
            </trkpt>
            <trkpt lon="-105.06315827" lat="38.85269499">
                <ele>3975.0</ele>
                <time>2008-06-25T16:26:10.000Z</time>
                <name>Position 3154</name>
            </trkpt>
            <trkpt lon="-105.06309497" lat="38.85261655">
                <ele>3975.0</ele>
                <time>2008-06-25T16:26:11.000Z</time>
                <name>Position 3155</name>
            </trkpt>
            <trkpt lon="-105.06301999" lat="38.85254157">
                <ele>3975.0</ele>
                <time>2008-06-25T16:26:12.000Z</time>
                <name>Position 3156</name>
            </trkpt>
            <trkpt lon="-105.06293499" lat="38.85246992">
                <ele>3975.0</ele>
                <time>2008-06-25T16:26:13.000Z</time>
                <name>Position 3157</name>
            </trkpt>
            <trkpt lon="-105.06284332" lat="38.85239995">
                <ele>3986.0</ele>
                <time>2008-06-25T16:26:14.000Z</time>
                <name>Position 3158</name>
            </trkpt>
            <trkpt lon="-105.06274498" lat="38.85232997">
                <ele>3986.0</ele>
                <time>2008-06-25T16:26:15.000Z</time>
                <name>Position 3159</name>
            </trkpt>
            <trkpt lon="-105.06264329" lat="38.85225999">
                <ele>3986.0</ele>
                <time>2008-06-25T16:26:16.000Z</time>
                <name>Position 3160</name>
            </trkpt>
            <trkpt lon="-105.06253994" lat="38.8521899">
                <ele>3986.0</ele>
                <time>2008-06-25T16:26:17.000Z</time>
                <name>Position 3161</name>
            </trkpt>
            <trkpt lon="-105.06243324" lat="38.85211992">
                <ele>3986.0</ele>
                <time>2008-06-25T16:26:18.000Z</time>
                <name>Position 3162</name>
            </trkpt>
            <trkpt lon="-105.06232655" lat="38.85204995">
                <ele>3975.0</ele>
                <time>2008-06-25T16:26:19.000Z</time>
                <name>Position 3163</name>
            </trkpt>
            <trkpt lon="-105.06221998" lat="38.85197663">
                <ele>3975.0</ele>
                <time>2008-06-25T16:26:20.000Z</time>
                <name>Position 3164</name>
            </trkpt>
            <trkpt lon="-105.06211329" lat="38.85190165">
                <ele>3975.0</ele>
                <time>2008-06-25T16:26:21.000Z</time>
                <name>Position 3165</name>
            </trkpt>
            <trkpt lon="-105.06200659" lat="38.85182333">
                <ele>3987.0</ele>
                <time>2008-06-25T16:26:22.000Z</time>
                <name>Position 3166</name>
            </trkpt>
            <trkpt lon="-105.06190491" lat="38.85173988">
                <ele>3987.0</ele>
                <time>2008-06-25T16:26:23.000Z</time>
                <name>Position 3167</name>
            </trkpt>
            <trkpt lon="-105.06180656" lat="38.85165155">
                <ele>3987.0</ele>
                <time>2008-06-25T16:26:24.000Z</time>
                <name>Position 3168</name>
            </trkpt>
            <trkpt lon="-105.06171489" lat="38.85155833">
                <ele>3987.0</ele>
                <time>2008-06-25T16:26:25.000Z</time>
                <name>Position 3169</name>
            </trkpt>
            <trkpt lon="-105.06163156" lat="38.85146332">
                <ele>3987.0</ele>
                <time>2008-06-25T16:26:26.000Z</time>
                <name>Position 3170</name>
            </trkpt>
            <trkpt lon="-105.06156325" lat="38.85136831">
                <ele>3987.0</ele>
                <time>2008-06-25T16:26:27.000Z</time>
                <name>Position 3171</name>
            </trkpt>
            <trkpt lon="-105.0615083" lat="38.85127163">
                <ele>3987.0</ele>
                <time>2008-06-25T16:26:28.000Z</time>
                <name>Position 3172</name>
            </trkpt>
            <trkpt lon="-105.06147158" lat="38.85117495">
                <ele>3986.0</ele>
                <time>2008-06-25T16:26:29.000Z</time>
                <name>Position 3173</name>
            </trkpt>
            <trkpt lon="-105.06144989" lat="38.85107827">
                <ele>3986.0</ele>
                <time>2008-06-25T16:26:30.000Z</time>
                <name>Position 3174</name>
            </trkpt>
            <trkpt lon="-105.06144333" lat="38.85097992">
                <ele>3986.0</ele>
                <time>2008-06-25T16:26:31.000Z</time>
                <name>Position 3175</name>
            </trkpt>
            <trkpt lon="-105.06145155" lat="38.85088325">
                <ele>3986.0</ele>
                <time>2008-06-25T16:26:32.000Z</time>
                <name>Position 3176</name>
            </trkpt>
            <trkpt lon="-105.06146991" lat="38.8507849">
                <ele>3986.0</ele>
                <time>2008-06-25T16:26:33.000Z</time>
                <name>Position 3177</name>
            </trkpt>
            <trkpt lon="-105.06150162" lat="38.85068822">
                <ele>3986.0</ele>
                <time>2008-06-25T16:26:34.000Z</time>
                <name>Position 3178</name>
            </trkpt>
            <trkpt lon="-105.06154156" lat="38.85059166">
                <ele>3986.0</ele>
                <time>2008-06-25T16:26:35.000Z</time>
                <name>Position 3179</name>
            </trkpt>
            <trkpt lon="-105.06159163" lat="38.85049665">
                <ele>3986.0</ele>
                <time>2008-06-25T16:26:36.000Z</time>
                <name>Position 3180</name>
            </trkpt>
            <trkpt lon="-105.06164825" lat="38.85040164">
                <ele>4001.0</ele>
                <time>2008-06-25T16:26:37.000Z</time>
                <name>Position 3181</name>
            </trkpt>
            <trkpt lon="-105.06170833" lat="38.85030663">
                <ele>4001.0</ele>
                <time>2008-06-25T16:26:38.000Z</time>
                <name>Position 3182</name>
            </trkpt>
            <trkpt lon="-105.06176996" lat="38.85021329">
                <ele>4001.0</ele>
                <time>2008-06-25T16:26:39.000Z</time>
                <name>Position 3183</name>
            </trkpt>
            <trkpt lon="-105.06183159" lat="38.85011828">
                <ele>4001.0</ele>
                <time>2008-06-25T16:26:40.000Z</time>
                <name>Position 3184</name>
            </trkpt>
            <trkpt lon="-105.06189156" lat="38.85002327">
                <ele>4001.0</ele>
                <time>2008-06-25T16:26:41.000Z</time>
                <name>Position 3185</name>
            </trkpt>
            <trkpt lon="-105.0619483" lat="38.84992659">
                <ele>4001.0</ele>
                <time>2008-06-25T16:26:42.000Z</time>
                <name>Position 3186</name>
            </trkpt>
            <trkpt lon="-105.06200325" lat="38.84982824">
                <ele>4001.0</ele>
                <time>2008-06-25T16:26:43.000Z</time>
                <name>Position 3187</name>
            </trkpt>
            <trkpt lon="-105.06205332" lat="38.8497299">
                <ele>4001.0</ele>
                <time>2008-06-25T16:26:44.000Z</time>
                <name>Position 3188</name>
            </trkpt>
            <trkpt lon="-105.06209993" lat="38.84963155">
                <ele>3984.0</ele>
                <time>2008-06-25T16:26:45.000Z</time>
                <name>Position 3189</name>
            </trkpt>
            <trkpt lon="-105.06214166" lat="38.84953332">
                <ele>3990.0</ele>
                <time>2008-06-25T16:26:46.000Z</time>
                <name>Position 3190</name>
            </trkpt>
            <trkpt lon="-105.06217659" lat="38.84943664">
                <ele>3990.0</ele>
                <time>2008-06-25T16:26:47.000Z</time>
                <name>Position 3191</name>
            </trkpt>
            <trkpt lon="-105.06220329" lat="38.84933996">
                <ele>3990.0</ele>
                <time>2008-06-25T16:26:48.000Z</time>
                <name>Position 3192</name>
            </trkpt>
            <trkpt lon="-105.06221497" lat="38.84924161">
                <ele>3990.0</ele>
                <time>2008-06-25T16:26:49.000Z</time>
                <name>Position 3193</name>
            </trkpt>
            <trkpt lon="-105.06220829" lat="38.8491466">
                <ele>3990.0</ele>
                <time>2008-06-25T16:26:50.000Z</time>
                <name>Position 3194</name>
            </trkpt>
            <trkpt lon="-105.0621866" lat="38.84905159">
                <ele>3990.0</ele>
                <time>2008-06-25T16:26:51.000Z</time>
                <name>Position 3195</name>
            </trkpt>
            <trkpt lon="-105.06214833" lat="38.84896159">
                <ele>3990.0</ele>
                <time>2008-06-25T16:26:52.000Z</time>
                <name>Position 3196</name>
            </trkpt>
            <trkpt lon="-105.0620966" lat="38.84887493">
                <ele>3990.0</ele>
                <time>2008-06-25T16:26:53.000Z</time>
                <name>Position 3197</name>
            </trkpt>
            <trkpt lon="-105.06203163" lat="38.84879494">
                <ele>4003.0</ele>
                <time>2008-06-25T16:26:54.000Z</time>
                <name>Position 3198</name>
            </trkpt>
            <trkpt lon="-105.06195331" lat="38.84872162">
                <ele>3987.0</ele>
                <time>2008-06-25T16:26:55.000Z</time>
                <name>Position 3199</name>
            </trkpt>
            <trkpt lon="-105.06186497" lat="38.84865499">
                <ele>3987.0</ele>
                <time>2008-06-25T16:26:56.000Z</time>
                <name>Position 3200</name>
            </trkpt>
            <trkpt lon="-105.06176996" lat="38.84859657">
                <ele>3987.0</ele>
                <time>2008-06-25T16:26:57.000Z</time>
                <name>Position 3201</name>
            </trkpt>
            <trkpt lon="-105.06166995" lat="38.84854496">
                <ele>3987.0</ele>
                <time>2008-06-25T16:26:58.000Z</time>
                <name>Position 3202</name>
            </trkpt>
            <trkpt lon="-105.06156659" lat="38.84849656">
                <ele>3987.0</ele>
                <time>2008-06-25T16:26:59.000Z</time>
                <name>Position 3203</name>
            </trkpt>
            <trkpt lon="-105.06146157" lat="38.84844995">
                <ele>3987.0</ele>
                <time>2008-06-25T16:27:00.000Z</time>
                <name>Position 3204</name>
            </trkpt>
            <trkpt lon="-105.06135666" lat="38.84840322">
                <ele>3987.0</ele>
                <time>2008-06-25T16:27:01.000Z</time>
                <name>Position 3205</name>
            </trkpt>
            <trkpt lon="-105.06124997" lat="38.84835494">
                <ele>4003.0</ele>
                <time>2008-06-25T16:27:02.000Z</time>
                <name>Position 3206</name>
            </trkpt>
            <trkpt lon="-105.06113994" lat="38.84830666">
                <ele>4003.0</ele>
                <time>2008-06-25T16:27:03.000Z</time>
                <name>Position 3207</name>
            </trkpt>
            <trkpt lon="-105.06102657" lat="38.84825492">
                <ele>4003.0</ele>
                <time>2008-06-25T16:27:04.000Z</time>
                <name>Position 3208</name>
            </trkpt>
            <trkpt lon="-105.06091166" lat="38.84820163">
                <ele>4003.0</ele>
                <time>2008-06-25T16:27:05.000Z</time>
                <name>Position 3209</name>
            </trkpt>
            <trkpt lon="-105.06079829" lat="38.84814823">
                <ele>4003.0</ele>
                <time>2008-06-25T16:27:06.000Z</time>
                <name>Position 3210</name>
            </trkpt>
            <trkpt lon="-105.06068659" lat="38.84809327">
                <ele>4003.0</ele>
                <time>2008-06-25T16:27:07.000Z</time>
                <name>Position 3211</name>
            </trkpt>
            <trkpt lon="-105.06057656" lat="38.84804165">
                <ele>4003.0</ele>
                <time>2008-06-25T16:27:08.000Z</time>
                <name>Position 3212</name>
            </trkpt>
            <trkpt lon="-105.06046832" lat="38.84799159">
                <ele>4003.0</ele>
                <time>2008-06-25T16:27:09.000Z</time>
                <name>Position 3213</name>
            </trkpt>
            <trkpt lon="-105.06035829" lat="38.84794497">
                <ele>4016.0</ele>
                <time>2008-06-25T16:27:10.000Z</time>
                <name>Position 3214</name>
            </trkpt>
            <trkpt lon="-105.06024992" lat="38.84790492">
                <ele>3990.0</ele>
                <time>2008-06-25T16:27:11.000Z</time>
                <name>Position 3215</name>
            </trkpt>
            <trkpt lon="-105.06014323" lat="38.84787333">
                <ele>3990.0</ele>
                <time>2008-06-25T16:27:12.000Z</time>
                <name>Position 3216</name>
            </trkpt>
            <trkpt lon="-105.06003499" lat="38.8478483">
                <ele>3990.0</ele>
                <time>2008-06-25T16:27:13.000Z</time>
                <name>Position 3217</name>
            </trkpt>
            <trkpt lon="-105.05992663" lat="38.84783161">
                <ele>3990.0</ele>
                <time>2008-06-25T16:27:14.000Z</time>
                <name>Position 3218</name>
            </trkpt>
            <trkpt lon="-105.05981493" lat="38.84781826">
                <ele>3990.0</ele>
                <time>2008-06-25T16:27:15.000Z</time>
                <name>Position 3219</name>
            </trkpt>
            <trkpt lon="-105.05970156" lat="38.84781325">
                <ele>3990.0</ele>
                <time>2008-06-25T16:27:16.000Z</time>
                <name>Position 3220</name>
            </trkpt>
            <trkpt lon="-105.05958498" lat="38.84781325">
                <ele>3990.0</ele>
                <time>2008-06-25T16:27:17.000Z</time>
                <name>Position 3221</name>
            </trkpt>
            <trkpt lon="-105.05946493" lat="38.84781826">
                <ele>3994.0</ele>
                <time>2008-06-25T16:27:18.000Z</time>
                <name>Position 3222</name>
            </trkpt>
            <trkpt lon="-105.05934322" lat="38.84782827">
                <ele>3994.0</ele>
                <time>2008-06-25T16:27:19.000Z</time>
                <name>Position 3223</name>
            </trkpt>
            <trkpt lon="-105.05921996" lat="38.84784162">
                <ele>3994.0</ele>
                <time>2008-06-25T16:27:20.000Z</time>
                <name>Position 3224</name>
            </trkpt>
            <trkpt lon="-105.05909491" lat="38.84786332">
                <ele>3994.0</ele>
                <time>2008-06-25T16:27:21.000Z</time>
                <name>Position 3225</name>
            </trkpt>
            <trkpt lon="-105.05896997" lat="38.84789324">
                <ele>3994.0</ele>
                <time>2008-06-25T16:27:22.000Z</time>
                <name>Position 3226</name>
            </trkpt>
            <trkpt lon="-105.05884659" lat="38.84793162">
                <ele>4015.0</ele>
                <time>2008-06-25T16:27:23.000Z</time>
                <name>Position 3227</name>
            </trkpt>
            <trkpt lon="-105.058725" lat="38.84797823">
                <ele>4004.0</ele>
                <time>2008-06-25T16:27:24.000Z</time>
                <name>Position 3228</name>
            </trkpt>
            <trkpt lon="-105.05860329" lat="38.84803164">
                <ele>4004.0</ele>
                <time>2008-06-25T16:27:25.000Z</time>
                <name>Position 3229</name>
            </trkpt>
            <trkpt lon="-105.05848157" lat="38.8480916">
                <ele>4004.0</ele>
                <time>2008-06-25T16:27:26.000Z</time>
                <name>Position 3230</name>
            </trkpt>
            <trkpt lon="-105.05835831" lat="38.84815323">
                <ele>4004.0</ele>
                <time>2008-06-25T16:27:27.000Z</time>
                <name>Position 3231</name>
            </trkpt>
            <trkpt lon="-105.05823326" lat="38.84821999">
                <ele>4004.0</ele>
                <time>2008-06-25T16:27:28.000Z</time>
                <name>Position 3232</name>
            </trkpt>
            <trkpt lon="-105.05810332" lat="38.84828663">
                <ele>4004.0</ele>
                <time>2008-06-25T16:27:29.000Z</time>
                <name>Position 3233</name>
            </trkpt>
            <trkpt lon="-105.05796993" lat="38.84835494">
                <ele>4004.0</ele>
                <time>2008-06-25T16:27:30.000Z</time>
                <name>Position 3234</name>
            </trkpt>
            <trkpt lon="-105.05783498" lat="38.84842491">
                <ele>3995.0</ele>
                <time>2008-06-25T16:27:31.000Z</time>
                <name>Position 3235</name>
            </trkpt>
            <trkpt lon="-105.05769992" lat="38.84849823">
                <ele>3995.0</ele>
                <time>2008-06-25T16:27:32.000Z</time>
                <name>Position 3236</name>
            </trkpt>
            <trkpt lon="-105.0575633" lat="38.84857166">
                <ele>3995.0</ele>
                <time>2008-06-25T16:27:33.000Z</time>
                <name>Position 3237</name>
            </trkpt>
            <trkpt lon="-105.05742824" lat="38.84864998">
                <ele>3995.0</ele>
                <time>2008-06-25T16:27:34.000Z</time>
                <name>Position 3238</name>
            </trkpt>
            <trkpt lon="-105.0572933" lat="38.84872997">
                <ele>3995.0</ele>
                <time>2008-06-25T16:27:35.000Z</time>
                <name>Position 3239</name>
            </trkpt>
            <trkpt lon="-105.05715823" lat="38.84881163">
                <ele>4005.0</ele>
                <time>2008-06-25T16:27:36.000Z</time>
                <name>Position 3240</name>
            </trkpt>
            <trkpt lon="-105.05702162" lat="38.84889162">
                <ele>3998.0</ele>
                <time>2008-06-25T16:27:37.000Z</time>
                <name>Position 3241</name>
            </trkpt>
            <trkpt lon="-105.05688" lat="38.84896493">
                <ele>3998.0</ele>
                <time>2008-06-25T16:27:38.000Z</time>
                <name>Position 3242</name>
            </trkpt>
            <trkpt lon="-105.05673158" lat="38.84902823">
                <ele>3998.0</ele>
                <time>2008-06-25T16:27:39.000Z</time>
                <name>Position 3243</name>
            </trkpt>
            <trkpt lon="-105.05657828" lat="38.8490783">
                <ele>3998.0</ele>
                <time>2008-06-25T16:27:40.000Z</time>
                <name>Position 3244</name>
            </trkpt>
            <trkpt lon="-105.05642164" lat="38.84911656">
                <ele>3998.0</ele>
                <time>2008-06-25T16:27:41.000Z</time>
                <name>Position 3245</name>
            </trkpt>
            <trkpt lon="-105.05626822" lat="38.84913993">
                <ele>3998.0</ele>
                <time>2008-06-25T16:27:42.000Z</time>
                <name>Position 3246</name>
            </trkpt>
            <trkpt lon="-105.05611992" lat="38.84914994">
                <ele>4000.0</ele>
                <time>2008-06-25T16:27:43.000Z</time>
                <name>Position 3247</name>
            </trkpt>
            <trkpt lon="-105.0559783" lat="38.8491466">
                <ele>4000.0</ele>
                <time>2008-06-25T16:27:44.000Z</time>
                <name>Position 3248</name>
            </trkpt>
            <trkpt lon="-105.05584824" lat="38.84913325">
                <ele>4000.0</ele>
                <time>2008-06-25T16:27:45.000Z</time>
                <name>Position 3249</name>
            </trkpt>
            <trkpt lon="-105.05572498" lat="38.84911156">
                <ele>4000.0</ele>
                <time>2008-06-25T16:27:46.000Z</time>
                <name>Position 3250</name>
            </trkpt>
            <trkpt lon="-105.0556066" lat="38.84908664">
                <ele>4000.0</ele>
                <time>2008-06-25T16:27:47.000Z</time>
                <name>Position 3251</name>
            </trkpt>
            <trkpt lon="-105.0554899" lat="38.84905994">
                <ele>4000.0</ele>
                <time>2008-06-25T16:27:48.000Z</time>
                <name>Position 3252</name>
            </trkpt>
            <trkpt lon="-105.05537498" lat="38.84903157">
                <ele>4005.0</ele>
                <time>2008-06-25T16:27:49.000Z</time>
                <name>Position 3253</name>
            </trkpt>
            <trkpt lon="-105.05526161" lat="38.84900331">
                <ele>4005.0</ele>
                <time>2008-06-25T16:27:50.000Z</time>
                <name>Position 3254</name>
            </trkpt>
            <trkpt lon="-105.05514657" lat="38.84897494">
                <ele>4005.0</ele>
                <time>2008-06-25T16:27:51.000Z</time>
                <name>Position 3255</name>
            </trkpt>
            <trkpt lon="-105.05502999" lat="38.84894657">
                <ele>4005.0</ele>
                <time>2008-06-25T16:27:52.000Z</time>
                <name>Position 3256</name>
            </trkpt>
            <trkpt lon="-105.05490994" lat="38.84891665">
                <ele>4005.0</ele>
                <time>2008-06-25T16:27:53.000Z</time>
                <name>Position 3257</name>
            </trkpt>
            <trkpt lon="-105.0547899" lat="38.84888661">
                <ele>4005.0</ele>
                <time>2008-06-25T16:27:54.000Z</time>
                <name>Position 3258</name>
            </trkpt>
            <trkpt lon="-105.05466998" lat="38.8488549">
                <ele>4005.0</ele>
                <time>2008-06-25T16:27:55.000Z</time>
                <name>Position 3259</name>
            </trkpt>
            <trkpt lon="-105.05454826" lat="38.84882498">
                <ele>4005.0</ele>
                <time>2008-06-25T16:27:56.000Z</time>
                <name>Position 3260</name>
            </trkpt>
            <trkpt lon="-105.05442989" lat="38.84879327">
                <ele>4005.0</ele>
                <time>2008-06-25T16:27:57.000Z</time>
                <name>Position 3261</name>
            </trkpt>
            <trkpt lon="-105.05430996" lat="38.84876323">
                <ele>4005.0</ele>
                <time>2008-06-25T16:27:58.000Z</time>
                <name>Position 3262</name>
            </trkpt>
            <trkpt lon="-105.05419159" lat="38.84873164">
                <ele>4022.0</ele>
                <time>2008-06-25T16:27:59.000Z</time>
                <name>Position 3263</name>
            </trkpt>
            <trkpt lon="-105.05407321" lat="38.8487016">
                <ele>4022.0</ele>
                <time>2008-06-25T16:28:00.000Z</time>
                <name>Position 3264</name>
            </trkpt>
            <trkpt lon="-105.05395496" lat="38.84867156">
                <ele>4022.0</ele>
                <time>2008-06-25T16:28:01.000Z</time>
                <name>Position 3265</name>
            </trkpt>
            <trkpt lon="-105.05383992" lat="38.84863997">
                <ele>4022.0</ele>
                <time>2008-06-25T16:28:02.000Z</time>
                <name>Position 3266</name>
            </trkpt>
            <trkpt lon="-105.05372322" lat="38.84860992">
                <ele>4022.0</ele>
                <time>2008-06-25T16:28:03.000Z</time>
                <name>Position 3267</name>
            </trkpt>
            <trkpt lon="-105.05360997" lat="38.84858155">
                <ele>4022.0</ele>
                <time>2008-06-25T16:28:04.000Z</time>
                <name>Position 3268</name>
            </trkpt>
            <trkpt lon="-105.05349994" lat="38.8485533">
                <ele>4022.0</ele>
                <time>2008-06-25T16:28:05.000Z</time>
                <name>Position 3269</name>
            </trkpt>
            <trkpt lon="-105.05340159" lat="38.84852493">
                <ele>4022.0</ele>
                <time>2008-06-25T16:28:06.000Z</time>
                <name>Position 3270</name>
            </trkpt>
            <trkpt lon="-105.05331326" lat="38.84849823">
                <ele>4022.0</ele>
                <time>2008-06-25T16:28:07.000Z</time>
                <name>Position 3271</name>
            </trkpt>
            <trkpt lon="-105.05323327" lat="38.84846997">
                <ele>4022.0</ele>
                <time>2008-06-25T16:28:08.000Z</time>
                <name>Position 3272</name>
            </trkpt>
            <trkpt lon="-105.05316496" lat="38.84843826">
                <ele>4022.0</ele>
                <time>2008-06-25T16:28:09.000Z</time>
                <name>Position 3273</name>
            </trkpt>
            <trkpt lon="-105.05311155" lat="38.84839833">
                <ele>4022.0</ele>
                <time>2008-06-25T16:28:10.000Z</time>
                <name>Position 3274</name>
            </trkpt>
            <trkpt lon="-105.05307829" lat="38.84835327">
                <ele>4022.0</ele>
                <time>2008-06-25T16:28:11.000Z</time>
                <name>Position 3275</name>
            </trkpt>
            <trkpt lon="-105.05306995" lat="38.84830666">
                <ele>4022.0</ele>
                <time>2008-06-25T16:28:12.000Z</time>
                <name>Position 3276</name>
            </trkpt>
            <trkpt lon="-105.05308497" lat="38.84826159">
                <ele>4022.0</ele>
                <time>2008-06-25T16:28:13.000Z</time>
                <name>Position 3277</name>
            </trkpt>
            <trkpt lon="-105.05312324" lat="38.84822333">
                <ele>4022.0</ele>
                <time>2008-06-25T16:28:14.000Z</time>
                <name>Position 3278</name>
            </trkpt>
            <trkpt lon="-105.05317831" lat="38.84819663">
                <ele>4022.0</ele>
                <time>2008-06-25T16:28:15.000Z</time>
                <name>Position 3279</name>
            </trkpt>
            <trkpt lon="-105.05324662" lat="38.84817827">
                <ele>4022.0</ele>
                <time>2008-06-25T16:28:16.000Z</time>
                <name>Position 3280</name>
            </trkpt>
            <trkpt lon="-105.05332494" lat="38.84816158">
                <ele>4022.0</ele>
                <time>2008-06-25T16:28:17.000Z</time>
                <name>Position 3281</name>
            </trkpt>
            <trkpt lon="-105.05340827" lat="38.84814489">
                <ele>4022.0</ele>
                <time>2008-06-25T16:28:18.000Z</time>
                <name>Position 3282</name>
            </trkpt>
            <trkpt lon="-105.0534966" lat="38.84812832">
                <ele>4022.0</ele>
                <time>2008-06-25T16:28:19.000Z</time>
                <name>Position 3283</name>
            </trkpt>
            <trkpt lon="-105.05358994" lat="38.84810495">
                <ele>4022.0</ele>
                <time>2008-06-25T16:28:20.000Z</time>
                <name>Position 3284</name>
            </trkpt>
            <trkpt lon="-105.05368495" lat="38.84807491">
                <ele>4022.0</ele>
                <time>2008-06-25T16:28:21.000Z</time>
                <name>Position 3285</name>
            </trkpt>
            <trkpt lon="-105.05377829" lat="38.84803498">
                <ele>4022.0</ele>
                <time>2008-06-25T16:28:22.000Z</time>
                <name>Position 3286</name>
            </trkpt>
            <trkpt lon="-105.05386829" lat="38.84798324">
                <ele>4022.0</ele>
                <time>2008-06-25T16:28:23.000Z</time>
                <name>Position 3287</name>
            </trkpt>
            <trkpt lon="-105.05395162" lat="38.84792328">
                <ele>4022.0</ele>
                <time>2008-06-25T16:28:24.000Z</time>
                <name>Position 3288</name>
            </trkpt>
            <trkpt lon="-105.05402827" lat="38.84785998">
                <ele>4039.0</ele>
                <time>2008-06-25T16:28:25.000Z</time>
                <name>Position 3289</name>
            </trkpt>
            <trkpt lon="-105.05409324" lat="38.84779489">
                <ele>4039.0</ele>
                <time>2008-06-25T16:28:26.000Z</time>
                <name>Position 3290</name>
            </trkpt>
            <trkpt lon="-105.05415165" lat="38.84773159">
                <ele>4039.0</ele>
                <time>2008-06-25T16:28:27.000Z</time>
                <name>Position 3291</name>
            </trkpt>
            <trkpt lon="-105.05420327" lat="38.84767497">
                <ele>4039.0</ele>
                <time>2008-06-25T16:28:28.000Z</time>
                <name>Position 3292</name>
            </trkpt>
            <trkpt lon="-105.05424988" lat="38.84762323">
                <ele>4039.0</ele>
                <time>2008-06-25T16:28:29.000Z</time>
                <name>Position 3293</name>
            </trkpt>
            <trkpt lon="-105.05429327" lat="38.84757495">
                <ele>4039.0</ele>
                <time>2008-06-25T16:28:30.000Z</time>
                <name>Position 3294</name>
            </trkpt>
            <trkpt lon="-105.054335" lat="38.84752822">
                <ele>4039.0</ele>
                <time>2008-06-25T16:28:31.000Z</time>
                <name>Position 3295</name>
            </trkpt>
            <trkpt lon="-105.0543766" lat="38.84747994">
                <ele>4039.0</ele>
                <time>2008-06-25T16:28:32.000Z</time>
                <name>Position 3296</name>
            </trkpt>
            <trkpt lon="-105.05441833" lat="38.84742999">
                <ele>4039.0</ele>
                <time>2008-06-25T16:28:33.000Z</time>
                <name>Position 3297</name>
            </trkpt>
            <trkpt lon="-105.05446327" lat="38.84737992">
                <ele>4039.0</ele>
                <time>2008-06-25T16:28:34.000Z</time>
                <name>Position 3298</name>
            </trkpt>
            <trkpt lon="-105.05450833" lat="38.84732831">
                <ele>4039.0</ele>
                <time>2008-06-25T16:28:35.000Z</time>
                <name>Position 3299</name>
            </trkpt>
            <trkpt lon="-105.05455327" lat="38.84727156">
                <ele>4039.0</ele>
                <time>2008-06-25T16:28:36.000Z</time>
                <name>Position 3300</name>
            </trkpt>
            <trkpt lon="-105.05459988" lat="38.84721327">
                <ele>4026.0</ele>
                <time>2008-06-25T16:28:37.000Z</time>
                <name>Position 3301</name>
            </trkpt>
            <trkpt lon="-105.05464327" lat="38.84715331">
                <ele>4026.0</ele>
                <time>2008-06-25T16:28:38.000Z</time>
                <name>Position 3302</name>
            </trkpt>
            <trkpt lon="-105.05467832" lat="38.84708822">
                <ele>4026.0</ele>
                <time>2008-06-25T16:28:39.000Z</time>
                <name>Position 3303</name>
            </trkpt>
            <trkpt lon="-105.0547049" lat="38.84702158">
                <ele>4042.0</ele>
                <time>2008-06-25T16:28:40.000Z</time>
                <name>Position 3304</name>
            </trkpt>
            <trkpt lon="-105.05472159" lat="38.84695327">
                <ele>4042.0</ele>
                <time>2008-06-25T16:28:41.000Z</time>
                <name>Position 3305</name>
            </trkpt>
            <trkpt lon="-105.05472326" lat="38.84688663">
                <ele>4042.0</ele>
                <time>2008-06-25T16:28:42.000Z</time>
                <name>Position 3306</name>
            </trkpt>
            <trkpt lon="-105.05470991" lat="38.84681833">
                <ele>4042.0</ele>
                <time>2008-06-25T16:28:43.000Z</time>
                <name>Position 3307</name>
            </trkpt>
            <trkpt lon="-105.05467999" lat="38.84675658">
                <ele>4042.0</ele>
                <time>2008-06-25T16:28:44.000Z</time>
                <name>Position 3308</name>
            </trkpt>
            <trkpt lon="-105.05463827" lat="38.84669995">
                <ele>4042.0</ele>
                <time>2008-06-25T16:28:45.000Z</time>
                <name>Position 3309</name>
            </trkpt>
            <trkpt lon="-105.05458331" lat="38.84664989">
                <ele>4049.0</ele>
                <time>2008-06-25T16:28:46.000Z</time>
                <name>Position 3310</name>
            </trkpt>
            <trkpt lon="-105.05451655" lat="38.84660661">
                <ele>4049.0</ele>
                <time>2008-06-25T16:28:47.000Z</time>
                <name>Position 3311</name>
            </trkpt>
            <trkpt lon="-105.0544399" lat="38.84657323">
                <ele>4049.0</ele>
                <time>2008-06-25T16:28:48.000Z</time>
                <name>Position 3312</name>
            </trkpt>
            <trkpt lon="-105.05435491" lat="38.84654498">
                <ele>4049.0</ele>
                <time>2008-06-25T16:28:49.000Z</time>
                <name>Position 3313</name>
            </trkpt>
            <trkpt lon="-105.05426323" lat="38.84652328">
                <ele>4049.0</ele>
                <time>2008-06-25T16:28:50.000Z</time>
                <name>Position 3314</name>
            </trkpt>
            <trkpt lon="-105.05416656" lat="38.84650326">
                <ele>4049.0</ele>
                <time>2008-06-25T16:28:51.000Z</time>
                <name>Position 3315</name>
            </trkpt>
            <trkpt lon="-105.05407" lat="38.84648156">
                <ele>4049.0</ele>
                <time>2008-06-25T16:28:52.000Z</time>
                <name>Position 3316</name>
            </trkpt>
            <trkpt lon="-105.05397499" lat="38.84645665">
                <ele>4049.0</ele>
                <time>2008-06-25T16:28:53.000Z</time>
                <name>Position 3317</name>
            </trkpt>
            <trkpt lon="-105.05388832" lat="38.84642828">
                <ele>4049.0</ele>
                <time>2008-06-25T16:28:54.000Z</time>
                <name>Position 3318</name>
            </trkpt>
            <trkpt lon="-105.05381155" lat="38.84639657">
                <ele>4049.0</ele>
                <time>2008-06-25T16:28:55.000Z</time>
                <name>Position 3319</name>
            </trkpt>
            <trkpt lon="-105.05374658" lat="38.84636497">
                <ele>4060.0</ele>
                <time>2008-06-25T16:28:56.000Z</time>
                <name>Position 3320</name>
            </trkpt>
            <trkpt lon="-105.05368662" lat="38.84632826">
                <ele>4060.0</ele>
                <time>2008-06-25T16:28:57.000Z</time>
                <name>Position 3321</name>
            </trkpt>
            <trkpt lon="-105.05363166" lat="38.84628832">
                <ele>4060.0</ele>
                <time>2008-06-25T16:28:58.000Z</time>
                <name>Position 3322</name>
            </trkpt>
            <trkpt lon="-105.05357993" lat="38.84624159">
                <ele>4061.0</ele>
                <time>2008-06-25T16:28:59.000Z</time>
                <name>Position 3323</name>
            </trkpt>
            <trkpt lon="-105.05353332" lat="38.84619331">
                <ele>4061.0</ele>
                <time>2008-06-25T16:29:00.000Z</time>
                <name>Position 3324</name>
            </trkpt>
            <trkpt lon="-105.05348825" lat="38.84613991">
                <ele>4061.0</ele>
                <time>2008-06-25T16:29:01.000Z</time>
                <name>Position 3325</name>
            </trkpt>
            <trkpt lon="-105.05344498" lat="38.84608328">
                <ele>4061.0</ele>
                <time>2008-06-25T16:29:02.000Z</time>
                <name>Position 3326</name>
            </trkpt>
            <trkpt lon="-105.05340493" lat="38.84602332">
                <ele>4061.0</ele>
                <time>2008-06-25T16:29:03.000Z</time>
                <name>Position 3327</name>
            </trkpt>
            <trkpt lon="-105.05336499" lat="38.84596157">
                <ele>4061.0</ele>
                <time>2008-06-25T16:29:04.000Z</time>
                <name>Position 3328</name>
            </trkpt>
            <trkpt lon="-105.05332494" lat="38.8458966">
                <ele>4061.0</ele>
                <time>2008-06-25T16:29:05.000Z</time>
                <name>Position 3329</name>
            </trkpt>
            <trkpt lon="-105.05328655" lat="38.84582996">
                <ele>4061.0</ele>
                <time>2008-06-25T16:29:06.000Z</time>
                <name>Position 3330</name>
            </trkpt>
            <trkpt lon="-105.05324662" lat="38.84576166">
                <ele>4061.0</ele>
                <time>2008-06-25T16:29:07.000Z</time>
                <name>Position 3331</name>
            </trkpt>
            <trkpt lon="-105.05320323" lat="38.84569657">
                <ele>4061.0</ele>
                <time>2008-06-25T16:29:08.000Z</time>
                <name>Position 3332</name>
            </trkpt>
            <trkpt lon="-105.05314827" lat="38.84563828">
                <ele>4061.0</ele>
                <time>2008-06-25T16:29:09.000Z</time>
                <name>Position 3333</name>
            </trkpt>
            <trkpt lon="-105.0530833" lat="38.84559333">
                <ele>4061.0</ele>
                <time>2008-06-25T16:29:10.000Z</time>
                <name>Position 3334</name>
            </trkpt>
            <trkpt lon="-105.05300999" lat="38.84556329">
                <ele>4061.0</ele>
                <time>2008-06-25T16:29:11.000Z</time>
                <name>Position 3335</name>
            </trkpt>
            <trkpt lon="-105.05293167" lat="38.84554994">
                <ele>4061.0</ele>
                <time>2008-06-25T16:29:12.000Z</time>
                <name>Position 3336</name>
            </trkpt>
            <trkpt lon="-105.0528549" lat="38.84555829">
                <ele>4070.0</ele>
                <time>2008-06-25T16:29:13.000Z</time>
                <name>Position 3337</name>
            </trkpt>
            <trkpt lon="-105.05277991" lat="38.84557998">
                <ele>4070.0</ele>
                <time>2008-06-25T16:29:14.000Z</time>
                <name>Position 3338</name>
            </trkpt>
            <trkpt lon="-105.05270827" lat="38.84561157">
                <ele>4070.0</ele>
                <time>2008-06-25T16:29:15.000Z</time>
                <name>Position 3339</name>
            </trkpt>
            <trkpt lon="-105.05263495" lat="38.84564829">
                <ele>4070.0</ele>
                <time>2008-06-25T16:29:16.000Z</time>
                <name>Position 3340</name>
            </trkpt>
            <trkpt lon="-105.05256164" lat="38.84568989">
                <ele>4070.0</ele>
                <time>2008-06-25T16:29:17.000Z</time>
                <name>Position 3341</name>
            </trkpt>
            <trkpt lon="-105.05248666" lat="38.84573162">
                <ele>4070.0</ele>
                <time>2008-06-25T16:29:18.000Z</time>
                <name>Position 3342</name>
            </trkpt>
            <trkpt lon="-105.05240989" lat="38.84577656">
                <ele>4070.0</ele>
                <time>2008-06-25T16:29:19.000Z</time>
                <name>Position 3343</name>
            </trkpt>
            <trkpt lon="-105.05233157" lat="38.84582162">
                <ele>4070.0</ele>
                <time>2008-06-25T16:29:20.000Z</time>
                <name>Position 3344</name>
            </trkpt>
            <trkpt lon="-105.05225325" lat="38.84586656">
                <ele>4070.0</ele>
                <time>2008-06-25T16:29:21.000Z</time>
                <name>Position 3345</name>
            </trkpt>
            <trkpt lon="-105.05217326" lat="38.84591162">
                <ele>4070.0</ele>
                <time>2008-06-25T16:29:22.000Z</time>
                <name>Position 3346</name>
            </trkpt>
            <trkpt lon="-105.05209494" lat="38.84595656">
                <ele>4070.0</ele>
                <time>2008-06-25T16:29:23.000Z</time>
                <name>Position 3347</name>
            </trkpt>
            <trkpt lon="-105.05201328" lat="38.84599662">
                <ele>4081.0</ele>
                <time>2008-06-25T16:29:24.000Z</time>
                <name>Position 3348</name>
            </trkpt>
            <trkpt lon="-105.05192828" lat="38.84603167">
                <ele>4081.0</ele>
                <time>2008-06-25T16:29:25.000Z</time>
                <name>Position 3349</name>
            </trkpt>
            <trkpt lon="-105.05183995" lat="38.84605491">
                <ele>4081.0</ele>
                <time>2008-06-25T16:29:26.000Z</time>
                <name>Position 3350</name>
            </trkpt>
            <trkpt lon="-105.05175161" lat="38.84606826">
                <ele>4081.0</ele>
                <time>2008-06-25T16:29:27.000Z</time>
                <name>Position 3351</name>
            </trkpt>
            <trkpt lon="-105.05166161" lat="38.84606659">
                <ele>4081.0</ele>
                <time>2008-06-25T16:29:28.000Z</time>
                <name>Position 3352</name>
            </trkpt>
            <trkpt lon="-105.05157328" lat="38.84605157">
                <ele>4081.0</ele>
                <time>2008-06-25T16:29:29.000Z</time>
                <name>Position 3353</name>
            </trkpt>
            <trkpt lon="-105.05148661" lat="38.84602332">
                <ele>4081.0</ele>
                <time>2008-06-25T16:29:30.000Z</time>
                <name>Position 3354</name>
            </trkpt>
            <trkpt lon="-105.05140662" lat="38.84598327">
                <ele>4081.0</ele>
                <time>2008-06-25T16:29:31.000Z</time>
                <name>Position 3355</name>
            </trkpt>
            <trkpt lon="-105.05133331" lat="38.84592998">
                <ele>4081.0</ele>
                <time>2008-06-25T16:29:32.000Z</time>
                <name>Position 3356</name>
            </trkpt>
            <trkpt lon="-105.05126488" lat="38.84586656">
                <ele>4081.0</ele>
                <time>2008-06-25T16:29:33.000Z</time>
                <name>Position 3357</name>
            </trkpt>
            <trkpt lon="-105.05119991" lat="38.84579825">
                <ele>4091.0</ele>
                <time>2008-06-25T16:29:34.000Z</time>
                <name>Position 3358</name>
            </trkpt>
            <trkpt lon="-105.05113328" lat="38.84572661">
                <ele>4091.0</ele>
                <time>2008-06-25T16:29:35.000Z</time>
                <name>Position 3359</name>
            </trkpt>
            <trkpt lon="-105.05106831" lat="38.8456533">
                <ele>4091.0</ele>
                <time>2008-06-25T16:29:36.000Z</time>
                <name>Position 3360</name>
            </trkpt>
            <trkpt lon="-105.05100489" lat="38.84557498">
                <ele>4091.0</ele>
                <time>2008-06-25T16:29:37.000Z</time>
                <name>Position 3361</name>
            </trkpt>
            <trkpt lon="-105.05094326" lat="38.84549332">
                <ele>4091.0</ele>
                <time>2008-06-25T16:29:38.000Z</time>
                <name>Position 3362</name>
            </trkpt>
            <trkpt lon="-105.05088663" lat="38.84540832">
                <ele>4091.0</ele>
                <time>2008-06-25T16:29:39.000Z</time>
                <name>Position 3363</name>
            </trkpt>
            <trkpt lon="-105.05083656" lat="38.84531999">
                <ele>4091.0</ele>
                <time>2008-06-25T16:29:40.000Z</time>
                <name>Position 3364</name>
            </trkpt>
            <trkpt lon="-105.05079496" lat="38.84522831">
                <ele>4091.0</ele>
                <time>2008-06-25T16:29:41.000Z</time>
                <name>Position 3365</name>
            </trkpt>
            <trkpt lon="-105.05075991" lat="38.84513497">
                <ele>4091.0</ele>
                <time>2008-06-25T16:29:42.000Z</time>
                <name>Position 3366</name>
            </trkpt>
            <trkpt lon="-105.05073166" lat="38.84503829">
                <ele>4091.0</ele>
                <time>2008-06-25T16:29:43.000Z</time>
                <name>Position 3367</name>
            </trkpt>
            <trkpt lon="-105.05070829" lat="38.84494162">
                <ele>4091.0</ele>
                <time>2008-06-25T16:29:44.000Z</time>
                <name>Position 3368</name>
            </trkpt>
            <trkpt lon="-105.0506866" lat="38.84484494">
                <ele>4091.0</ele>
                <time>2008-06-25T16:29:45.000Z</time>
                <name>Position 3369</name>
            </trkpt>
            <trkpt lon="-105.05066991" lat="38.84474826">
                <ele>4091.0</ele>
                <time>2008-06-25T16:29:46.000Z</time>
                <name>Position 3370</name>
            </trkpt>
            <trkpt lon="-105.05065656" lat="38.84465158">
                <ele>4091.0</ele>
                <time>2008-06-25T16:29:47.000Z</time>
                <name>Position 3371</name>
            </trkpt>
            <trkpt lon="-105.05064332" lat="38.84455657">
                <ele>4098.0</ele>
                <time>2008-06-25T16:29:48.000Z</time>
                <name>Position 3372</name>
            </trkpt>
            <trkpt lon="-105.05062997" lat="38.84446156">
                <ele>4098.0</ele>
                <time>2008-06-25T16:29:49.000Z</time>
                <name>Position 3373</name>
            </trkpt>
            <trkpt lon="-105.05061162" lat="38.84436822">
                <ele>4098.0</ele>
                <time>2008-06-25T16:29:50.000Z</time>
                <name>Position 3374</name>
            </trkpt>
            <trkpt lon="-105.05058992" lat="38.844275">
                <ele>4098.0</ele>
                <time>2008-06-25T16:29:51.000Z</time>
                <name>Position 3375</name>
            </trkpt>
            <trkpt lon="-105.05056322" lat="38.84418499">
                <ele>4098.0</ele>
                <time>2008-06-25T16:29:52.000Z</time>
                <name>Position 3376</name>
            </trkpt>
            <trkpt lon="-105.05053329" lat="38.84409499">
                <ele>4098.0</ele>
                <time>2008-06-25T16:29:53.000Z</time>
                <name>Position 3377</name>
            </trkpt>
            <trkpt lon="-105.05049825" lat="38.84400499">
                <ele>4098.0</ele>
                <time>2008-06-25T16:29:54.000Z</time>
                <name>Position 3378</name>
            </trkpt>
            <trkpt lon="-105.05045831" lat="38.84391832">
                <ele>4098.0</ele>
                <time>2008-06-25T16:29:55.000Z</time>
                <name>Position 3379</name>
            </trkpt>
            <trkpt lon="-105.05041158" lat="38.84383166">
                <ele>4113.0</ele>
                <time>2008-06-25T16:29:56.000Z</time>
                <name>Position 3380</name>
            </trkpt>
            <trkpt lon="-105.05035996" lat="38.84374833">
                <ele>4115.0</ele>
                <time>2008-06-25T16:29:57.000Z</time>
                <name>Position 3381</name>
            </trkpt>
            <trkpt lon="-105.05030489" lat="38.84366655">
                <ele>4115.0</ele>
                <time>2008-06-25T16:29:58.000Z</time>
                <name>Position 3382</name>
            </trkpt>
            <trkpt lon="-105.05024827" lat="38.84358656">
                <ele>4115.0</ele>
                <time>2008-06-25T16:29:59.000Z</time>
                <name>Position 3383</name>
            </trkpt>
            <trkpt lon="-105.05019164" lat="38.84350657">
                <ele>4115.0</ele>
                <time>2008-06-25T16:30:00.000Z</time>
                <name>Position 3384</name>
            </trkpt>
            <trkpt lon="-105.0501349" lat="38.84342825">
                <ele>4115.0</ele>
                <time>2008-06-25T16:30:01.000Z</time>
                <name>Position 3385</name>
            </trkpt>
            <trkpt lon="-105.05007994" lat="38.84334993">
                <ele>4115.0</ele>
                <time>2008-06-25T16:30:02.000Z</time>
                <name>Position 3386</name>
            </trkpt>
            <trkpt lon="-105.05002332" lat="38.84327161">
                <ele>4115.0</ele>
                <time>2008-06-25T16:30:03.000Z</time>
                <name>Position 3387</name>
            </trkpt>
            <trkpt lon="-105.04996824" lat="38.84319329">
                <ele>4115.0</ele>
                <time>2008-06-25T16:30:04.000Z</time>
                <name>Position 3388</name>
            </trkpt>
            <trkpt lon="-105.04991496" lat="38.84311163">
                <ele>4115.0</ele>
                <time>2008-06-25T16:30:05.000Z</time>
                <name>Position 3389</name>
            </trkpt>
            <trkpt lon="-105.04986489" lat="38.84302831">
                <ele>4115.0</ele>
                <time>2008-06-25T16:30:06.000Z</time>
                <name>Position 3390</name>
            </trkpt>
            <trkpt lon="-105.04981995" lat="38.84294331">
                <ele>4115.0</ele>
                <time>2008-06-25T16:30:07.000Z</time>
                <name>Position 3391</name>
            </trkpt>
            <trkpt lon="-105.04977989" lat="38.84285665">
                <ele>4121.0</ele>
                <time>2008-06-25T16:30:08.000Z</time>
                <name>Position 3392</name>
            </trkpt>
            <trkpt lon="-105.04974663" lat="38.84276998">
                <ele>4121.0</ele>
                <time>2008-06-25T16:30:09.000Z</time>
                <name>Position 3393</name>
            </trkpt>
            <trkpt lon="-105.04972494" lat="38.84268165">
                <ele>4121.0</ele>
                <time>2008-06-25T16:30:10.000Z</time>
                <name>Position 3394</name>
            </trkpt>
            <trkpt lon="-105.04971492" lat="38.84259331">
                <ele>4121.0</ele>
                <time>2008-06-25T16:30:11.000Z</time>
                <name>Position 3395</name>
            </trkpt>
            <trkpt lon="-105.04971492" lat="38.84250498">
                <ele>4121.0</ele>
                <time>2008-06-25T16:30:12.000Z</time>
                <name>Position 3396</name>
            </trkpt>
            <trkpt lon="-105.04972327" lat="38.84241831">
                <ele>4121.0</ele>
                <time>2008-06-25T16:30:13.000Z</time>
                <name>Position 3397</name>
            </trkpt>
            <trkpt lon="-105.04973495" lat="38.84232998">
                <ele>4121.0</ele>
                <time>2008-06-25T16:30:14.000Z</time>
                <name>Position 3398</name>
            </trkpt>
            <trkpt lon="-105.0497483" lat="38.84224164">
                <ele>4121.0</ele>
                <time>2008-06-25T16:30:15.000Z</time>
                <name>Position 3399</name>
            </trkpt>
            <trkpt lon="-105.04975832" lat="38.84215331">
                <ele>4121.0</ele>
                <time>2008-06-25T16:30:16.000Z</time>
                <name>Position 3400</name>
            </trkpt>
            <trkpt lon="-105.04976666" lat="38.84206498">
                <ele>4124.0</ele>
                <time>2008-06-25T16:30:17.000Z</time>
                <name>Position 3401</name>
            </trkpt>
            <trkpt lon="-105.04976833" lat="38.84197497">
                <ele>4124.0</ele>
                <time>2008-06-25T16:30:18.000Z</time>
                <name>Position 3402</name>
            </trkpt>
            <trkpt lon="-105.04976332" lat="38.84188664">
                <ele>4124.0</ele>
                <time>2008-06-25T16:30:19.000Z</time>
                <name>Position 3403</name>
            </trkpt>
            <trkpt lon="-105.04975665" lat="38.84179664">
                <ele>4124.0</ele>
                <time>2008-06-25T16:30:20.000Z</time>
                <name>Position 3404</name>
            </trkpt>
            <trkpt lon="-105.04974663" lat="38.84170663">
                <ele>4124.0</ele>
                <time>2008-06-25T16:30:21.000Z</time>
                <name>Position 3405</name>
            </trkpt>
            <trkpt lon="-105.04973495" lat="38.84161663">
                <ele>4124.0</ele>
                <time>2008-06-25T16:30:22.000Z</time>
                <name>Position 3406</name>
            </trkpt>
            <trkpt lon="-105.04972327" lat="38.84152663">
                <ele>4124.0</ele>
                <time>2008-06-25T16:30:23.000Z</time>
                <name>Position 3407</name>
            </trkpt>
            <trkpt lon="-105.04970992" lat="38.84143662">
                <ele>4124.0</ele>
                <time>2008-06-25T16:30:24.000Z</time>
                <name>Position 3408</name>
            </trkpt>
            <trkpt lon="-105.0496949" lat="38.84134662">
                <ele>4124.0</ele>
                <time>2008-06-25T16:30:25.000Z</time>
                <name>Position 3409</name>
            </trkpt>
            <trkpt lon="-105.04968166" lat="38.84125662">
                <ele>4124.0</ele>
                <time>2008-06-25T16:30:26.000Z</time>
                <name>Position 3410</name>
            </trkpt>
            <trkpt lon="-105.04966998" lat="38.84116995">
                <ele>4130.0</ele>
                <time>2008-06-25T16:30:27.000Z</time>
                <name>Position 3411</name>
            </trkpt>
            <trkpt lon="-105.04965663" lat="38.84108496">
                <ele>4130.0</ele>
                <time>2008-06-25T16:30:28.000Z</time>
                <name>Position 3412</name>
            </trkpt>
            <trkpt lon="-105.04964662" lat="38.84100831">
                <ele>4130.0</ele>
                <time>2008-06-25T16:30:29.000Z</time>
                <name>Position 3413</name>
            </trkpt>
            <trkpt lon="-105.0496366" lat="38.84093666">
                <ele>4130.0</ele>
                <time>2008-06-25T16:30:30.000Z</time>
                <name>Position 3414</name>
            </trkpt>
            <trkpt lon="-105.04962659" lat="38.84086823">
                <ele>4130.0</ele>
                <time>2008-06-25T16:30:31.000Z</time>
                <name>Position 3415</name>
            </trkpt>
            <trkpt lon="-105.04961824" lat="38.84079993">
                <ele>4130.0</ele>
                <time>2008-06-25T16:30:32.000Z</time>
                <name>Position 3416</name>
            </trkpt>
            <trkpt lon="-105.04961157" lat="38.84073162">
                <ele>4130.0</ele>
                <time>2008-06-25T16:30:33.000Z</time>
                <name>Position 3417</name>
            </trkpt>
            <trkpt lon="-105.04960322" lat="38.84066164">
                <ele>4130.0</ele>
                <time>2008-06-25T16:30:34.000Z</time>
                <name>Position 3418</name>
            </trkpt>
            <trkpt lon="-105.04959655" lat="38.84058988">
                <ele>4130.0</ele>
                <time>2008-06-25T16:30:35.000Z</time>
                <name>Position 3419</name>
            </trkpt>
            <trkpt lon="-105.04958999" lat="38.84051824">
                <ele>4130.0</ele>
                <time>2008-06-25T16:30:36.000Z</time>
                <name>Position 3420</name>
            </trkpt>
            <trkpt lon="-105.04958332" lat="38.84044492">
                <ele>4164.0</ele>
                <time>2008-06-25T16:30:37.000Z</time>
                <name>Position 3421</name>
            </trkpt>
            <trkpt lon="-105.04957664" lat="38.84037161">
                <ele>4170.0</ele>
                <time>2008-06-25T16:30:38.000Z</time>
                <name>Position 3422</name>
            </trkpt>
            <trkpt lon="-105.04956996" lat="38.8402983">
                <ele>4170.0</ele>
                <time>2008-06-25T16:30:39.000Z</time>
                <name>Position 3423</name>
            </trkpt>
            <trkpt lon="-105.04956496" lat="38.84022331">
                <ele>4170.0</ele>
                <time>2008-06-25T16:30:40.000Z</time>
                <name>Position 3424</name>
            </trkpt>
            <trkpt lon="-105.04955661" lat="38.84014666">
                <ele>4170.0</ele>
                <time>2008-06-25T16:30:41.000Z</time>
                <name>Position 3425</name>
            </trkpt>
            <trkpt lon="-105.04954994" lat="38.84006822">
                <ele>4170.0</ele>
                <time>2008-06-25T16:30:42.000Z</time>
                <name>Position 3426</name>
            </trkpt>
            <trkpt lon="-105.04954159" lat="38.83998823">
                <ele>4170.0</ele>
                <time>2008-06-25T16:30:43.000Z</time>
                <name>Position 3427</name>
            </trkpt>
            <trkpt lon="-105.04953158" lat="38.83990824">
                <ele>4170.0</ele>
                <time>2008-06-25T16:30:44.000Z</time>
                <name>Position 3428</name>
            </trkpt>
            <trkpt lon="-105.04952323" lat="38.83982658">
                <ele>4170.0</ele>
                <time>2008-06-25T16:30:45.000Z</time>
                <name>Position 3429</name>
            </trkpt>
            <trkpt lon="-105.04951322" lat="38.83974326">
                <ele>4170.0</ele>
                <time>2008-06-25T16:30:46.000Z</time>
                <name>Position 3430</name>
            </trkpt>
            <trkpt lon="-105.04950666" lat="38.8396616">
                <ele>4170.0</ele>
                <time>2008-06-25T16:30:47.000Z</time>
                <name>Position 3431</name>
            </trkpt>
            <trkpt lon="-105.04949999" lat="38.83957827">
                <ele>4174.0</ele>
                <time>2008-06-25T16:30:48.000Z</time>
                <name>Position 3432</name>
            </trkpt>
            <trkpt lon="-105.04949331" lat="38.83949494">
                <ele>4174.0</ele>
                <time>2008-06-25T16:30:49.000Z</time>
                <name>Position 3433</name>
            </trkpt>
            <trkpt lon="-105.04948831" lat="38.83941162">
                <ele>4174.0</ele>
                <time>2008-06-25T16:30:50.000Z</time>
                <name>Position 3434</name>
            </trkpt>
            <trkpt lon="-105.04948163" lat="38.83932996">
                <ele>4174.0</ele>
                <time>2008-06-25T16:30:51.000Z</time>
                <name>Position 3435</name>
            </trkpt>
            <trkpt lon="-105.04947495" lat="38.83925331">
                <ele>4174.0</ele>
                <time>2008-06-25T16:30:52.000Z</time>
                <name>Position 3436</name>
            </trkpt>
            <trkpt lon="-105.04946828" lat="38.83917832">
                <ele>4174.0</ele>
                <time>2008-06-25T16:30:53.000Z</time>
                <name>Position 3437</name>
            </trkpt>
            <trkpt lon="-105.04945993" lat="38.83910656">
                <ele>4174.0</ele>
                <time>2008-06-25T16:30:54.000Z</time>
                <name>Position 3438</name>
            </trkpt>
            <trkpt lon="-105.04944992" lat="38.83903825">
                <ele>4174.0</ele>
                <time>2008-06-25T16:30:55.000Z</time>
                <name>Position 3439</name>
            </trkpt>
            <trkpt lon="-105.04943991" lat="38.83896995">
                <ele>4174.0</ele>
                <time>2008-06-25T16:30:56.000Z</time>
                <name>Position 3440</name>
            </trkpt>
            <trkpt lon="-105.04942155" lat="38.83890164">
                <ele>4174.0</ele>
                <time>2008-06-25T16:30:57.000Z</time>
                <name>Position 3441</name>
            </trkpt>
            <trkpt lon="-105.0493983" lat="38.83883333">
                <ele>4174.0</ele>
                <time>2008-06-25T16:30:58.000Z</time>
                <name>Position 3442</name>
            </trkpt>
            <trkpt lon="-105.04936326" lat="38.83876324">
                <ele>4174.0</ele>
                <time>2008-06-25T16:30:59.000Z</time>
                <name>Position 3443</name>
            </trkpt>
            <trkpt lon="-105.04931831" lat="38.83869493">
                <ele>4161.0</ele>
                <time>2008-06-25T16:31:00.000Z</time>
                <name>Position 3444</name>
            </trkpt>
            <trkpt lon="-105.04926491" lat="38.83862996">
                <ele>4161.0</ele>
                <time>2008-06-25T16:31:01.000Z</time>
                <name>Position 3445</name>
            </trkpt>
            <trkpt lon="-105.04920161" lat="38.83856833">
                <ele>4161.0</ele>
                <time>2008-06-25T16:31:02.000Z</time>
                <name>Position 3446</name>
            </trkpt>
            <trkpt lon="-105.04913831" lat="38.83850825">
                <ele>4161.0</ele>
                <time>2008-06-25T16:31:03.000Z</time>
                <name>Position 3447</name>
            </trkpt>
            <trkpt lon="-105.04906833" lat="38.83845329">
                <ele>4161.0</ele>
                <time>2008-06-25T16:31:04.000Z</time>
                <name>Position 3448</name>
            </trkpt>
            <trkpt lon="-105.04899323" lat="38.83840322">
                <ele>4161.0</ele>
                <time>2008-06-25T16:31:05.000Z</time>
                <name>Position 3449</name>
            </trkpt>
            <trkpt lon="-105.04891658" lat="38.83835495">
                <ele>4161.0</ele>
                <time>2008-06-25T16:31:06.000Z</time>
                <name>Position 3450</name>
            </trkpt>
            <trkpt lon="-105.04883659" lat="38.83830822">
                <ele>4161.0</ele>
                <time>2008-06-25T16:31:07.000Z</time>
                <name>Position 3451</name>
            </trkpt>
            <trkpt lon="-105.04875159" lat="38.83826494">
                <ele>4161.0</ele>
                <time>2008-06-25T16:31:08.000Z</time>
                <name>Position 3452</name>
            </trkpt>
            <trkpt lon="-105.0486666" lat="38.83822656">
                <ele>4180.0</ele>
                <time>2008-06-25T16:31:09.000Z</time>
                <name>Position 3453</name>
            </trkpt>
            <trkpt lon="-105.04857659" lat="38.83819497">
                <ele>4180.0</ele>
                <time>2008-06-25T16:31:10.000Z</time>
                <name>Position 3454</name>
            </trkpt>
            <trkpt lon="-105.04848659" lat="38.83816993">
                <ele>4180.0</ele>
                <time>2008-06-25T16:31:11.000Z</time>
                <name>Position 3455</name>
            </trkpt>
            <trkpt lon="-105.04839659" lat="38.83815324">
                <ele>4180.0</ele>
                <time>2008-06-25T16:31:12.000Z</time>
                <name>Position 3456</name>
            </trkpt>
            <trkpt lon="-105.04830825" lat="38.83813989">
                <ele>4180.0</ele>
                <time>2008-06-25T16:31:13.000Z</time>
                <name>Position 3457</name>
            </trkpt>
            <trkpt lon="-105.04822326" lat="38.83812833">
                <ele>4180.0</ele>
                <time>2008-06-25T16:31:14.000Z</time>
                <name>Position 3458</name>
            </trkpt>
            <trkpt lon="-105.0481416" lat="38.83811998">
                <ele>4180.0</ele>
                <time>2008-06-25T16:31:15.000Z</time>
                <name>Position 3459</name>
            </trkpt>
            <trkpt lon="-105.04805994" lat="38.83811164">
                <ele>4180.0</ele>
                <time>2008-06-25T16:31:16.000Z</time>
                <name>Position 3460</name>
            </trkpt>
            <trkpt lon="-105.04798162" lat="38.83810163">
                <ele>4180.0</ele>
                <time>2008-06-25T16:31:17.000Z</time>
                <name>Position 3461</name>
            </trkpt>
            <trkpt lon="-105.04790497" lat="38.83808994">
                <ele>4197.0</ele>
                <time>2008-06-25T16:31:18.000Z</time>
                <name>Position 3462</name>
            </trkpt>
            <trkpt lon="-105.04782999" lat="38.83807492">
                <ele>4197.0</ele>
                <time>2008-06-25T16:31:19.000Z</time>
                <name>Position 3463</name>
            </trkpt>
            <trkpt lon="-105.04775167" lat="38.83805823">
                <ele>4197.0</ele>
                <time>2008-06-25T16:31:20.000Z</time>
                <name>Position 3464</name>
            </trkpt>
            <trkpt lon="-105.0476799" lat="38.83803999">
                <ele>4197.0</ele>
                <time>2008-06-25T16:31:21.000Z</time>
                <name>Position 3465</name>
            </trkpt>
            <trkpt lon="-105.04761493" lat="38.83802164">
                <ele>4197.0</ele>
                <time>2008-06-25T16:31:22.000Z</time>
                <name>Position 3466</name>
            </trkpt>
            <trkpt lon="-105.04755998" lat="38.83800495">
                <ele>4197.0</ele>
                <time>2008-06-25T16:31:23.000Z</time>
                <name>Position 3467</name>
            </trkpt>
            <trkpt lon="-105.04751325" lat="38.8379916">
                <ele>4197.0</ele>
                <time>2008-06-25T16:31:24.000Z</time>
                <name>Position 3468</name>
            </trkpt>
            <trkpt lon="-105.04747832" lat="38.83797991">
                <ele>4197.0</ele>
                <time>2008-06-25T16:31:25.000Z</time>
                <name>Position 3469</name>
            </trkpt>
            <trkpt lon="-105.04745495" lat="38.83797324">
                <ele>4197.0</ele>
                <time>2008-06-25T16:31:26.000Z</time>
                <name>Position 3470</name>
            </trkpt>
            <trkpt lon="-105.0474416" lat="38.8379699">
                <ele>4197.0</ele>
                <time>2008-06-25T16:31:27.000Z</time>
                <name>Position 3471</name>
            </trkpt>
            <trkpt lon="-105.04742157" lat="38.83796656">
                <ele>4197.0</ele>
                <time>2008-06-25T16:31:33.000Z</time>
                <name>Position 3472</name>
            </trkpt>
            <trkpt lon="-105.04739666" lat="38.83795822">
                <ele>4197.0</ele>
                <time>2008-06-25T16:31:34.000Z</time>
                <name>Position 3473</name>
            </trkpt>
            <trkpt lon="-105.04735994" lat="38.83794832">
                <ele>4197.0</ele>
                <time>2008-06-25T16:31:35.000Z</time>
                <name>Position 3474</name>
            </trkpt>
            <trkpt lon="-105.04731166" lat="38.83793497">
                <ele>4197.0</ele>
                <time>2008-06-25T16:31:36.000Z</time>
                <name>Position 3475</name>
            </trkpt>
            <trkpt lon="-105.04725659" lat="38.83792329">
                <ele>4197.0</ele>
                <time>2008-06-25T16:31:37.000Z</time>
                <name>Position 3476</name>
            </trkpt>
            <trkpt lon="-105.04719162" lat="38.83791161">
                <ele>4165.0</ele>
                <time>2008-06-25T16:31:38.000Z</time>
                <name>Position 3477</name>
            </trkpt>
            <trkpt lon="-105.04712164" lat="38.83789992">
                <ele>4165.0</ele>
                <time>2008-06-25T16:31:39.000Z</time>
                <name>Position 3478</name>
            </trkpt>
            <trkpt lon="-105.04704666" lat="38.83788824">
                <ele>4181.0</ele>
                <time>2008-06-25T16:31:40.000Z</time>
                <name>Position 3479</name>
            </trkpt>
            <trkpt lon="-105.0469749" lat="38.83787489">
                <ele>4181.0</ele>
                <time>2008-06-25T16:31:41.000Z</time>
                <name>Position 3480</name>
            </trkpt>
            <trkpt lon="-105.04690158" lat="38.83786166">
                <ele>4181.0</ele>
                <time>2008-06-25T16:31:42.000Z</time>
                <name>Position 3481</name>
            </trkpt>
            <trkpt lon="-105.04682827" lat="38.83784831">
                <ele>4181.0</ele>
                <time>2008-06-25T16:31:43.000Z</time>
                <name>Position 3482</name>
            </trkpt>
            <trkpt lon="-105.04675496" lat="38.83783495">
                <ele>4181.0</ele>
                <time>2008-06-25T16:31:44.000Z</time>
                <name>Position 3483</name>
            </trkpt>
            <trkpt lon="-105.04667664" lat="38.8378216">
                <ele>4181.0</ele>
                <time>2008-06-25T16:31:45.000Z</time>
                <name>Position 3484</name>
            </trkpt>
            <trkpt lon="-105.04659665" lat="38.83780825">
                <ele>4181.0</ele>
                <time>2008-06-25T16:31:46.000Z</time>
                <name>Position 3485</name>
            </trkpt>
            <trkpt lon="-105.04651332" lat="38.8377949">
                <ele>4181.0</ele>
                <time>2008-06-25T16:31:47.000Z</time>
                <name>Position 3486</name>
            </trkpt>
            <trkpt lon="-105.04642665" lat="38.83778155">
                <ele>4181.0</ele>
                <time>2008-06-25T16:31:48.000Z</time>
                <name>Position 3487</name>
            </trkpt>
            <trkpt lon="-105.04633832" lat="38.83776832">
                <ele>4181.0</ele>
                <time>2008-06-25T16:31:49.000Z</time>
                <name>Position 3488</name>
            </trkpt>
            <trkpt lon="-105.04624832" lat="38.83775496">
                <ele>4195.0</ele>
                <time>2008-06-25T16:31:50.000Z</time>
                <name>Position 3489</name>
            </trkpt>
            <trkpt lon="-105.04615998" lat="38.83774161">
                <ele>4195.0</ele>
                <time>2008-06-25T16:31:51.000Z</time>
                <name>Position 3490</name>
            </trkpt>
            <trkpt lon="-105.04606831" lat="38.83772826">
                <ele>4195.0</ele>
                <time>2008-06-25T16:31:52.000Z</time>
                <name>Position 3491</name>
            </trkpt>
            <trkpt lon="-105.04597664" lat="38.83771324">
                <ele>4195.0</ele>
                <time>2008-06-25T16:31:53.000Z</time>
                <name>Position 3492</name>
            </trkpt>
            <trkpt lon="-105.04588163" lat="38.83769488">
                <ele>4195.0</ele>
                <time>2008-06-25T16:31:54.000Z</time>
                <name>Position 3493</name>
            </trkpt>
            <trkpt lon="-105.04578495" lat="38.83767498">
                <ele>4195.0</ele>
                <time>2008-06-25T16:31:55.000Z</time>
                <name>Position 3494</name>
            </trkpt>
            <trkpt lon="-105.0456866" lat="38.83765328">
                <ele>4195.0</ele>
                <time>2008-06-25T16:31:56.000Z</time>
                <name>Position 3495</name>
            </trkpt>
            <trkpt lon="-105.04558659" lat="38.83762658">
                <ele>4195.0</ele>
                <time>2008-06-25T16:31:57.000Z</time>
                <name>Position 3496</name>
            </trkpt>
            <trkpt lon="-105.04548657" lat="38.83759832">
                <ele>4195.0</ele>
                <time>2008-06-25T16:31:58.000Z</time>
                <name>Position 3497</name>
            </trkpt>
            <trkpt lon="-105.04538321" lat="38.83756661">
                <ele>4209.0</ele>
                <time>2008-06-25T16:31:59.000Z</time>
                <name>Position 3498</name>
            </trkpt>
            <trkpt lon="-105.04527998" lat="38.8375349">
                <ele>4209.0</ele>
                <time>2008-06-25T16:32:00.000Z</time>
                <name>Position 3499</name>
            </trkpt>
            <trkpt lon="-105.04517496" lat="38.83750165">
                <ele>4209.0</ele>
                <time>2008-06-25T16:32:01.000Z</time>
                <name>Position 3500</name>
            </trkpt>
            <trkpt lon="-105.04506993" lat="38.8374666">
                <ele>4209.0</ele>
                <time>2008-06-25T16:32:02.000Z</time>
                <name>Position 3501</name>
            </trkpt>
            <trkpt lon="-105.04496491" lat="38.83743322">
                <ele>4209.0</ele>
                <time>2008-06-25T16:32:03.000Z</time>
                <name>Position 3502</name>
            </trkpt>
            <trkpt lon="-105.04485989" lat="38.83739829">
                <ele>4209.0</ele>
                <time>2008-06-25T16:32:04.000Z</time>
                <name>Position 3503</name>
            </trkpt>
            <trkpt lon="-105.04475665" lat="38.83736658">
                <ele>4209.0</ele>
                <time>2008-06-25T16:32:05.000Z</time>
                <name>Position 3504</name>
            </trkpt>
            <trkpt lon="-105.0446533" lat="38.83733499">
                <ele>4209.0</ele>
                <time>2008-06-25T16:32:06.000Z</time>
                <name>Position 3505</name>
            </trkpt>
            <trkpt lon="-105.04454827" lat="38.83730495">
                <ele>4222.0</ele>
                <time>2008-06-25T16:32:07.000Z</time>
                <name>Position 3506</name>
            </trkpt>
            <trkpt lon="-105.04444325" lat="38.83727992">
                <ele>4222.0</ele>
                <time>2008-06-25T16:32:08.000Z</time>
                <name>Position 3507</name>
            </trkpt>
            <trkpt lon="-105.04433656" lat="38.83725488">
                <ele>4222.0</ele>
                <time>2008-06-25T16:32:09.000Z</time>
                <name>Position 3508</name>
            </trkpt>
            <trkpt lon="-105.04423499" lat="38.8372333">
                <ele>4222.0</ele>
                <time>2008-06-25T16:32:10.000Z</time>
                <name>Position 3509</name>
            </trkpt>
            <trkpt lon="-105.04413998" lat="38.83720994">
                <ele>4222.0</ele>
                <time>2008-06-25T16:32:11.000Z</time>
                <name>Position 3510</name>
            </trkpt>
            <trkpt lon="-105.04404998" lat="38.83718491">
                <ele>4222.0</ele>
                <time>2008-06-25T16:32:12.000Z</time>
                <name>Position 3511</name>
            </trkpt>
            <trkpt lon="-105.04396498" lat="38.83715999">
                <ele>4222.0</ele>
                <time>2008-06-25T16:32:13.000Z</time>
                <name>Position 3512</name>
            </trkpt>
            <trkpt lon="-105.04388165" lat="38.83713329">
                <ele>4222.0</ele>
                <time>2008-06-25T16:32:14.000Z</time>
                <name>Position 3513</name>
            </trkpt>
            <trkpt lon="-105.04380488" lat="38.83710659">
                <ele>4222.0</ele>
                <time>2008-06-25T16:32:15.000Z</time>
                <name>Position 3514</name>
            </trkpt>
            <trkpt lon="-105.04373491" lat="38.83708155">
                <ele>4211.0</ele>
                <time>2008-06-25T16:32:16.000Z</time>
                <name>Position 3515</name>
            </trkpt>
            <trkpt lon="-105.04366827" lat="38.83705997">
                <ele>4211.0</ele>
                <time>2008-06-25T16:32:17.000Z</time>
                <name>Position 3516</name>
            </trkpt>
            <trkpt lon="-105.0436033" lat="38.83704495">
                <ele>4211.0</ele>
                <time>2008-06-25T16:32:18.000Z</time>
                <name>Position 3517</name>
            </trkpt>
            <trkpt lon="-105.04353666" lat="38.83703828">
                <ele>4211.0</ele>
                <time>2008-06-25T16:32:19.000Z</time>
                <name>Position 3518</name>
            </trkpt>
            <trkpt lon="-105.04347324" lat="38.83704829">
                <ele>4211.0</ele>
                <time>2008-06-25T16:32:20.000Z</time>
                <name>Position 3519</name>
            </trkpt>
            <trkpt lon="-105.04342163" lat="38.83707666">
                <ele>4211.0</ele>
                <time>2008-06-25T16:32:21.000Z</time>
                <name>Position 3520</name>
            </trkpt>
            <trkpt lon="-105.04338992" lat="38.8371166">
                <ele>4232.0</ele>
                <time>2008-06-25T16:32:22.000Z</time>
                <name>Position 3521</name>
            </trkpt>
            <trkpt lon="-105.04338157" lat="38.837165">
                <ele>4232.0</ele>
                <time>2008-06-25T16:32:23.000Z</time>
                <name>Position 3522</name>
            </trkpt>
            <trkpt lon="-105.04339659" lat="38.83721495">
                <ele>4232.0</ele>
                <time>2008-06-25T16:32:24.000Z</time>
                <name>Position 3523</name>
            </trkpt>
            <trkpt lon="-105.04343832" lat="38.83725822">
                <ele>4232.0</ele>
                <time>2008-06-25T16:32:25.000Z</time>
                <name>Position 3524</name>
            </trkpt>
            <trkpt lon="-105.04349828" lat="38.83729661">
                <ele>4232.0</ele>
                <time>2008-06-25T16:32:26.000Z</time>
                <name>Position 3525</name>
            </trkpt>
            <trkpt lon="-105.04356492" lat="38.83733332">
                <ele>4232.0</ele>
                <time>2008-06-25T16:32:27.000Z</time>
                <name>Position 3526</name>
            </trkpt>
            <trkpt lon="-105.04363823" lat="38.83737159">
                <ele>4232.0</ele>
                <time>2008-06-25T16:32:28.000Z</time>
                <name>Position 3527</name>
            </trkpt>
            <trkpt lon="-105.04371655" lat="38.83741164">
                <ele>4232.0</ele>
                <time>2008-06-25T16:32:29.000Z</time>
                <name>Position 3528</name>
            </trkpt>
            <trkpt lon="-105.04379332" lat="38.83745492">
                <ele>4222.0</ele>
                <time>2008-06-25T16:32:30.000Z</time>
                <name>Position 3529</name>
            </trkpt>
            <trkpt lon="-105.0438683" lat="38.83750498">
                <ele>4222.0</ele>
                <time>2008-06-25T16:32:31.000Z</time>
                <name>Position 3530</name>
            </trkpt>
            <trkpt lon="-105.04393828" lat="38.8375566">
                <ele>4222.0</ele>
                <time>2008-06-25T16:32:32.000Z</time>
                <name>Position 3531</name>
            </trkpt>
            <trkpt lon="-105.04400826" lat="38.83761156">
                <ele>4222.0</ele>
                <time>2008-06-25T16:32:33.000Z</time>
                <name>Position 3532</name>
            </trkpt>
            <trkpt lon="-105.04407489" lat="38.8376683">
                <ele>4222.0</ele>
                <time>2008-06-25T16:32:34.000Z</time>
                <name>Position 3533</name>
            </trkpt>
            <trkpt lon="-105.04413998" lat="38.83772492">
                <ele>4222.0</ele>
                <time>2008-06-25T16:32:35.000Z</time>
                <name>Position 3534</name>
            </trkpt>
            <trkpt lon="-105.04420161" lat="38.83778322">
                <ele>4222.0</ele>
                <time>2008-06-25T16:32:36.000Z</time>
                <name>Position 3535</name>
            </trkpt>
            <trkpt lon="-105.04425991" lat="38.83783996">
                <ele>4222.0</ele>
                <time>2008-06-25T16:32:37.000Z</time>
                <name>Position 3536</name>
            </trkpt>
            <trkpt lon="-105.04431498" lat="38.83789659">
                <ele>4222.0</ele>
                <time>2008-06-25T16:32:38.000Z</time>
                <name>Position 3537</name>
            </trkpt>
            <trkpt lon="-105.0443716" lat="38.83795166">
                <ele>4250.0</ele>
                <time>2008-06-25T16:32:39.000Z</time>
                <name>Position 3538</name>
            </trkpt>
            <trkpt lon="-105.0444299" lat="38.83800662">
                <ele>4250.0</ele>
                <time>2008-06-25T16:32:40.000Z</time>
                <name>Position 3539</name>
            </trkpt>
            <trkpt lon="-105.04449332" lat="38.83805656">
                <ele>4250.0</ele>
                <time>2008-06-25T16:32:41.000Z</time>
                <name>Position 3540</name>
            </trkpt>
            <trkpt lon="-105.04455996" lat="38.83810329">
                <ele>4250.0</ele>
                <time>2008-06-25T16:32:42.000Z</time>
                <name>Position 3541</name>
            </trkpt>
            <trkpt lon="-105.0446316" lat="38.83814323">
                <ele>4240.0</ele>
                <time>2008-06-25T16:32:43.000Z</time>
                <name>Position 3542</name>
            </trkpt>
            <trkpt lon="-105.04470158" lat="38.83818328">
                <ele>4240.0</ele>
                <time>2008-06-25T16:32:44.000Z</time>
                <name>Position 3543</name>
            </trkpt>
            <trkpt lon="-105.04477155" lat="38.83822489">
                <ele>4240.0</ele>
                <time>2008-06-25T16:32:45.000Z</time>
                <name>Position 3544</name>
            </trkpt>
            <trkpt lon="-105.04484165" lat="38.83826828">
                <ele>4240.0</ele>
                <time>2008-06-25T16:32:46.000Z</time>
                <name>Position 3545</name>
            </trkpt>
            <trkpt lon="-105.04491496" lat="38.83831155">
                <ele>4240.0</ele>
                <time>2008-06-25T16:32:47.000Z</time>
                <name>Position 3546</name>
            </trkpt>
            <trkpt lon="-105.04498994" lat="38.83835495">
                <ele>4240.0</ele>
                <time>2008-06-25T16:32:48.000Z</time>
                <name>Position 3547</name>
            </trkpt>
            <trkpt lon="-105.04506826" lat="38.83839989">
                <ele>4240.0</ele>
                <time>2008-06-25T16:32:49.000Z</time>
                <name>Position 3548</name>
            </trkpt>
            <trkpt lon="-105.04514825" lat="38.83844495">
                <ele>4240.0</ele>
                <time>2008-06-25T16:32:50.000Z</time>
                <name>Position 3549</name>
            </trkpt>
            <trkpt lon="-105.04522991" lat="38.83849323">
                <ele>4240.0</ele>
                <time>2008-06-25T16:32:51.000Z</time>
                <name>Position 3550</name>
            </trkpt>
            <trkpt lon="-105.04531324" lat="38.83854163">
                <ele>4240.0</ele>
                <time>2008-06-25T16:32:52.000Z</time>
                <name>Position 3551</name>
            </trkpt>
            <trkpt lon="-105.04539657" lat="38.83859158">
                <ele>4240.0</ele>
                <time>2008-06-25T16:32:53.000Z</time>
                <name>Position 3552</name>
            </trkpt>
            <trkpt lon="-105.04548156" lat="38.83864164">
                <ele>4226.0</ele>
                <time>2008-06-25T16:32:54.000Z</time>
                <name>Position 3553</name>
            </trkpt>
            <trkpt lon="-105.04556489" lat="38.83869159">
                <ele>4226.0</ele>
                <time>2008-06-25T16:32:55.000Z</time>
                <name>Position 3554</name>
            </trkpt>
            <trkpt lon="-105.04564989" lat="38.838745">
                <ele>4226.0</ele>
                <time>2008-06-25T16:32:56.000Z</time>
                <name>Position 3555</name>
            </trkpt>
            <trkpt lon="-105.04573488" lat="38.83879828">
                <ele>4262.0</ele>
                <time>2008-06-25T16:32:57.000Z</time>
                <name>Position 3556</name>
            </trkpt>
            <trkpt lon="-105.04582155" lat="38.83885157">
                <ele>4262.0</ele>
                <time>2008-06-25T16:32:58.000Z</time>
                <name>Position 3557</name>
            </trkpt>
            <trkpt lon="-105.04590833" lat="38.83890498">
                <ele>4262.0</ele>
                <time>2008-06-25T16:32:59.000Z</time>
                <name>Position 3558</name>
            </trkpt>
            <trkpt lon="-105.045995" lat="38.83895826">
                <ele>4262.0</ele>
                <time>2008-06-25T16:33:00.000Z</time>
                <name>Position 3559</name>
            </trkpt>
            <trkpt lon="-105.04608333" lat="38.83901155">
                <ele>4262.0</ele>
                <time>2008-06-25T16:33:01.000Z</time>
                <name>Position 3560</name>
            </trkpt>
            <trkpt lon="-105.04617" lat="38.83906662">
                <ele>4262.0</ele>
                <time>2008-06-25T16:33:02.000Z</time>
                <name>Position 3561</name>
            </trkpt>
            <trkpt lon="-105.04625666" lat="38.83912158">
                <ele>4245.0</ele>
                <time>2008-06-25T16:33:03.000Z</time>
                <name>Position 3562</name>
            </trkpt>
            <trkpt lon="-105.04633999" lat="38.83917999">
                <ele>4245.0</ele>
                <time>2008-06-25T16:33:04.000Z</time>
                <name>Position 3563</name>
            </trkpt>
            <trkpt lon="-105.04641831" lat="38.83923995">
                <ele>4245.0</ele>
                <time>2008-06-25T16:33:05.000Z</time>
                <name>Position 3564</name>
            </trkpt>
            <trkpt lon="-105.04649162" lat="38.83930492">
                <ele>4245.0</ele>
                <time>2008-06-25T16:33:06.000Z</time>
                <name>Position 3565</name>
            </trkpt>
            <trkpt lon="-105.04655659" lat="38.8393749">
                <ele>4245.0</ele>
                <time>2008-06-25T16:33:07.000Z</time>
                <name>Position 3566</name>
            </trkpt>
            <trkpt lon="-105.04661489" lat="38.83944833">
                <ele>4245.0</ele>
                <time>2008-06-25T16:33:08.000Z</time>
                <name>Position 3567</name>
            </trkpt>
            <trkpt lon="-105.04666662" lat="38.83952332">
                <ele>4245.0</ele>
                <time>2008-06-25T16:33:09.000Z</time>
                <name>Position 3568</name>
            </trkpt>
            <trkpt lon="-105.0467149" lat="38.8395983">
                <ele>4270.0</ele>
                <time>2008-06-25T16:33:10.000Z</time>
                <name>Position 3569</name>
            </trkpt>
            <trkpt lon="-105.04676163" lat="38.83967662">
                <ele>4270.0</ele>
                <time>2008-06-25T16:33:11.000Z</time>
                <name>Position 3570</name>
            </trkpt>
            <trkpt lon="-105.0468049" lat="38.83975327">
                <ele>4270.0</ele>
                <time>2008-06-25T16:33:12.000Z</time>
                <name>Position 3571</name>
            </trkpt>
            <trkpt lon="-105.04684496" lat="38.83982992">
                <ele>4270.0</ele>
                <time>2008-06-25T16:33:13.000Z</time>
                <name>Position 3572</name>
            </trkpt>
            <trkpt lon="-105.04687822" lat="38.83990824">
                <ele>4270.0</ele>
                <time>2008-06-25T16:33:14.000Z</time>
                <name>Position 3573</name>
            </trkpt>
            <trkpt lon="-105.04690659" lat="38.83998823">
                <ele>4270.0</ele>
                <time>2008-06-25T16:33:15.000Z</time>
                <name>Position 3574</name>
            </trkpt>
            <trkpt lon="-105.04692495" lat="38.84006989">
                <ele>4270.0</ele>
                <time>2008-06-25T16:33:16.000Z</time>
                <name>Position 3575</name>
            </trkpt>
            <trkpt lon="-105.04693329" lat="38.84015322">
                <ele>4270.0</ele>
                <time>2008-06-25T16:33:17.000Z</time>
                <name>Position 3576</name>
            </trkpt>
            <trkpt lon="-105.04693329" lat="38.84023833">
                <ele>4270.0</ele>
                <time>2008-06-25T16:33:18.000Z</time>
                <name>Position 3577</name>
            </trkpt>
            <trkpt lon="-105.04692495" lat="38.84032166">
                <ele>4270.0</ele>
                <time>2008-06-25T16:33:19.000Z</time>
                <name>Position 3578</name>
            </trkpt>
            <trkpt lon="-105.04690993" lat="38.84040499">
                <ele>4270.0</ele>
                <time>2008-06-25T16:33:20.000Z</time>
                <name>Position 3579</name>
            </trkpt>
            <trkpt lon="-105.04688823" lat="38.84048998">
                <ele>4275.0</ele>
                <time>2008-06-25T16:33:21.000Z</time>
                <name>Position 3580</name>
            </trkpt>
            <trkpt lon="-105.04686332" lat="38.84057331">
                <ele>4275.0</ele>
                <time>2008-06-25T16:33:22.000Z</time>
                <name>Position 3581</name>
            </trkpt>
            <trkpt lon="-105.04683495" lat="38.84065831">
                <ele>4275.0</ele>
                <time>2008-06-25T16:33:23.000Z</time>
                <name>Position 3582</name>
            </trkpt>
            <trkpt lon="-105.0468049" lat="38.84074163">
                <ele>4275.0</ele>
                <time>2008-06-25T16:33:24.000Z</time>
                <name>Position 3583</name>
            </trkpt>
            <trkpt lon="-105.04676998" lat="38.84082663">
                <ele>4275.0</ele>
                <time>2008-06-25T16:33:25.000Z</time>
                <name>Position 3584</name>
            </trkpt>
            <trkpt lon="-105.04673326" lat="38.8409133">
                <ele>4275.0</ele>
                <time>2008-06-25T16:33:26.000Z</time>
                <name>Position 3585</name>
            </trkpt>
            <trkpt lon="-105.04669499" lat="38.84099829">
                <ele>4275.0</ele>
                <time>2008-06-25T16:33:27.000Z</time>
                <name>Position 3586</name>
            </trkpt>
            <trkpt lon="-105.04665828" lat="38.84108663">
                <ele>4275.0</ele>
                <time>2008-06-25T16:33:28.000Z</time>
                <name>Position 3587</name>
            </trkpt>
            <trkpt lon="-105.04662323" lat="38.84117329">
                <ele>4275.0</ele>
                <time>2008-06-25T16:33:29.000Z</time>
                <name>Position 3588</name>
            </trkpt>
            <trkpt lon="-105.04659331" lat="38.84125328">
                <ele>4267.0</ele>
                <time>2008-06-25T16:33:30.000Z</time>
                <name>Position 3589</name>
            </trkpt>
            <trkpt lon="-105.04656494" lat="38.84132826">
                <ele>4267.0</ele>
                <time>2008-06-25T16:33:31.000Z</time>
                <name>Position 3590</name>
            </trkpt>
            <trkpt lon="-105.04653656" lat="38.84139657">
                <ele>4267.0</ele>
                <time>2008-06-25T16:33:32.000Z</time>
                <name>Position 3591</name>
            </trkpt>
            <trkpt lon="-105.04650164" lat="38.84145665">
                <ele>4267.0</ele>
                <time>2008-06-25T16:33:33.000Z</time>
                <name>Position 3592</name>
            </trkpt>
            <trkpt lon="-105.0464499" lat="38.84150159">
                <ele>4267.0</ele>
                <time>2008-06-25T16:33:34.000Z</time>
                <name>Position 3593</name>
            </trkpt>
            <trkpt lon="-105.04638326" lat="38.84152329">
                <ele>4267.0</ele>
                <time>2008-06-25T16:33:35.000Z</time>
                <name>Position 3594</name>
            </trkpt>
            <trkpt lon="-105.04631829" lat="38.84151661">
                <ele>4267.0</ele>
                <time>2008-06-25T16:33:36.000Z</time>
                <name>Position 3595</name>
            </trkpt>
            <trkpt lon="-105.04627156" lat="38.84148657">
                <ele>4267.0</ele>
                <time>2008-06-25T16:33:37.000Z</time>
                <name>Position 3596</name>
            </trkpt>
            <trkpt lon="-105.04624665" lat="38.8414433">
                <ele>4268.0</ele>
                <time>2008-06-25T16:33:38.000Z</time>
                <name>Position 3597</name>
            </trkpt>
            <trkpt lon="-105.04624832" lat="38.84139323">
                <ele>4268.0</ele>
                <time>2008-06-25T16:33:39.000Z</time>
                <name>Position 3598</name>
            </trkpt>
            <trkpt lon="-105.04626989" lat="38.84133828">
                <ele>4267.0</ele>
                <time>2008-06-25T16:33:40.000Z</time>
                <name>Position 3599</name>
            </trkpt>
            <trkpt lon="-105.04629827" lat="38.84128499">
                <ele>4267.0</ele>
                <time>2008-06-25T16:33:41.000Z</time>
                <name>Position 3600</name>
            </trkpt>
            <trkpt lon="-105.04633331" lat="38.84122157">
                <ele>4275.0</ele>
                <time>2008-06-25T16:33:42.000Z</time>
                <name>Position 3601</name>
            </trkpt>
            <trkpt lon="-105.0463649" lat="38.8411516">
                <ele>4275.0</ele>
                <time>2008-06-25T16:33:43.000Z</time>
                <name>Position 3602</name>
            </trkpt>
            <trkpt lon="-105.0463866" lat="38.84107494">
                <ele>4275.0</ele>
                <time>2008-06-25T16:33:44.000Z</time>
                <name>Position 3603</name>
            </trkpt>
            <trkpt lon="-105.04639828" lat="38.84099162">
                <ele>4275.0</ele>
                <time>2008-06-25T16:33:45.000Z</time>
                <name>Position 3604</name>
            </trkpt>
            <trkpt lon="-105.04640162" lat="38.84089828">
                <ele>4275.0</ele>
                <time>2008-06-25T16:33:46.000Z</time>
                <name>Position 3605</name>
            </trkpt>
            <trkpt lon="-105.04639828" lat="38.84079826">
                <ele>4275.0</ele>
                <time>2008-06-25T16:33:47.000Z</time>
                <name>Position 3606</name>
            </trkpt>
            <trkpt lon="-105.04638994" lat="38.8406949">
                <ele>4275.0</ele>
                <time>2008-06-25T16:33:48.000Z</time>
                <name>Position 3607</name>
            </trkpt>
            <trkpt lon="-105.04637492" lat="38.84058988">
                <ele>4275.0</ele>
                <time>2008-06-25T16:33:49.000Z</time>
                <name>Position 3608</name>
            </trkpt>
            <trkpt lon="-105.04634988" lat="38.84048331">
                <ele>4275.0</ele>
                <time>2008-06-25T16:33:50.000Z</time>
                <name>Position 3609</name>
            </trkpt>
            <trkpt lon="-105.04631329" lat="38.84037828">
                <ele>4270.0</ele>
                <time>2008-06-25T16:33:51.000Z</time>
                <name>Position 3610</name>
            </trkpt>
            <trkpt lon="-105.04626322" lat="38.84027827">
                <ele>4270.0</ele>
                <time>2008-06-25T16:33:52.000Z</time>
                <name>Position 3611</name>
            </trkpt>
            <trkpt lon="-105.04620659" lat="38.8401866">
                <ele>4287.0</ele>
                <time>2008-06-25T16:33:53.000Z</time>
                <name>Position 3612</name>
            </trkpt>
            <trkpt lon="-105.0461483" lat="38.84010994">
                <ele>4287.0</ele>
                <time>2008-06-25T16:33:54.000Z</time>
                <name>Position 3613</name>
            </trkpt>
            <trkpt lon="-105.04609823" lat="38.84005666">
                <ele>4287.0</ele>
                <time>2008-06-25T16:33:55.000Z</time>
                <name>Position 3614</name>
            </trkpt>
            <trkpt lon="-105.0460583" lat="38.84001994">
                <ele>4287.0</ele>
                <time>2008-06-25T16:33:56.000Z</time>
                <name>Position 3615</name>
            </trkpt>
            <trkpt lon="-105.04602826" lat="38.83999658">
                <ele>4287.0</ele>
                <time>2008-06-25T16:33:57.000Z</time>
                <name>Position 3616</name>
            </trkpt>
            <trkpt lon="-105.04600155" lat="38.83997655">
                <ele>4287.0</ele>
                <time>2008-06-25T16:33:58.000Z</time>
                <name>Position 3617</name>
            </trkpt>
            <trkpt lon="-105.04597163" lat="38.83995664">
                <ele>4287.0</ele>
                <time>2008-06-25T16:33:59.000Z</time>
                <name>Position 3618</name>
            </trkpt>
            <trkpt lon="-105.04593825" lat="38.83993495">
                <ele>4287.0</ele>
                <time>2008-06-25T16:34:00.000Z</time>
                <name>Position 3619</name>
            </trkpt>
            <trkpt lon="-105.04589665" lat="38.83991158">
                <ele>4287.0</ele>
                <time>2008-06-25T16:34:01.000Z</time>
                <name>Position 3620</name>
            </trkpt>
            <trkpt lon="-105.04585159" lat="38.83988822">
                <ele>4287.0</ele>
                <time>2008-06-25T16:34:02.000Z</time>
                <name>Position 3621</name>
            </trkpt>
            <trkpt lon="-105.04580164" lat="38.83986664">
                <ele>4287.0</ele>
                <time>2008-06-25T16:34:03.000Z</time>
                <name>Position 3622</name>
            </trkpt>
            <trkpt lon="-105.0457499" lat="38.83984494">
                <ele>4287.0</ele>
                <time>2008-06-25T16:34:04.000Z</time>
                <name>Position 3623</name>
            </trkpt>
            <trkpt lon="-105.04569328" lat="38.83982825">
                <ele>4287.0</ele>
                <time>2008-06-25T16:34:05.000Z</time>
                <name>Position 3624</name>
            </trkpt>
            <trkpt lon="-105.04563498" lat="38.83981156">
                <ele>4287.0</ele>
                <time>2008-06-25T16:34:06.000Z</time>
                <name>Position 3625</name>
            </trkpt>
            <trkpt lon="-105.04557323" lat="38.83979833">
                <ele>4287.0</ele>
                <time>2008-06-25T16:34:07.000Z</time>
                <name>Position 3626</name>
            </trkpt>
            <trkpt lon="-105.04551327" lat="38.83978999">
                <ele>4287.0</ele>
                <time>2008-06-25T16:34:08.000Z</time>
                <name>Position 3627</name>
            </trkpt>
            <trkpt lon="-105.04545331" lat="38.83978331">
                <ele>4287.0</ele>
                <time>2008-06-25T16:34:09.000Z</time>
                <name>Position 3628</name>
            </trkpt>
            <trkpt lon="-105.04539323" lat="38.8397783">
                <ele>4296.0</ele>
                <time>2008-06-25T16:34:10.000Z</time>
                <name>Position 3629</name>
            </trkpt>
            <trkpt lon="-105.04533327" lat="38.8397733">
                <ele>4296.0</ele>
                <time>2008-06-25T16:34:11.000Z</time>
                <name>Position 3630</name>
            </trkpt>
            <trkpt lon="-105.04526997" lat="38.83977163">
                <ele>4296.0</ele>
                <time>2008-06-25T16:34:12.000Z</time>
                <name>Position 3631</name>
            </trkpt>
            <trkpt lon="-105.045205" lat="38.83976829">
                <ele>4296.0</ele>
                <time>2008-06-25T16:34:13.000Z</time>
                <name>Position 3632</name>
            </trkpt>
            <trkpt lon="-105.04513824" lat="38.83976662">
                <ele>4296.0</ele>
                <time>2008-06-25T16:34:14.000Z</time>
                <name>Position 3633</name>
            </trkpt>
            <trkpt lon="-105.04506826" lat="38.83976495">
                <ele>4296.0</ele>
                <time>2008-06-25T16:34:15.000Z</time>
                <name>Position 3634</name>
            </trkpt>
            <trkpt lon="-105.04499829" lat="38.83976328">
                <ele>4296.0</ele>
                <time>2008-06-25T16:34:16.000Z</time>
                <name>Position 3635</name>
            </trkpt>
            <trkpt lon="-105.04492664" lat="38.83975995">
                <ele>4296.0</ele>
                <time>2008-06-25T16:34:17.000Z</time>
                <name>Position 3636</name>
            </trkpt>
            <trkpt lon="-105.04485655" lat="38.83975828">
                <ele>4296.0</ele>
                <time>2008-06-25T16:34:18.000Z</time>
                <name>Position 3637</name>
            </trkpt>
            <trkpt lon="-105.04478657" lat="38.83975828">
                <ele>4296.0</ele>
                <time>2008-06-25T16:34:19.000Z</time>
                <name>Position 3638</name>
            </trkpt>
            <trkpt lon="-105.04471993" lat="38.83975661">
                <ele>4296.0</ele>
                <time>2008-06-25T16:34:20.000Z</time>
                <name>Position 3639</name>
            </trkpt>
            <trkpt lon="-105.0446533" lat="38.83975661">
                <ele>4296.0</ele>
                <time>2008-06-25T16:34:21.000Z</time>
                <name>Position 3640</name>
            </trkpt>
            <trkpt lon="-105.04458499" lat="38.83975828">
                <ele>4296.0</ele>
                <time>2008-06-25T16:34:22.000Z</time>
                <name>Position 3641</name>
            </trkpt>
            <trkpt lon="-105.04451489" lat="38.83976161">
                <ele>4298.0</ele>
                <time>2008-06-25T16:34:23.000Z</time>
                <name>Position 3642</name>
            </trkpt>
            <trkpt lon="-105.04443991" lat="38.83976996">
                <ele>4298.0</ele>
                <time>2008-06-25T16:34:24.000Z</time>
                <name>Position 3643</name>
            </trkpt>
            <trkpt lon="-105.04435992" lat="38.83978164">
                <ele>4298.0</ele>
                <time>2008-06-25T16:34:25.000Z</time>
                <name>Position 3644</name>
            </trkpt>
            <trkpt lon="-105.04427326" lat="38.83979833">
                <ele>4298.0</ele>
                <time>2008-06-25T16:34:26.000Z</time>
                <name>Position 3645</name>
            </trkpt>
            <trkpt lon="-105.04418159" lat="38.83981991">
                <ele>4298.0</ele>
                <time>2008-06-25T16:34:27.000Z</time>
                <name>Position 3646</name>
            </trkpt>
            <trkpt lon="-105.04408324" lat="38.83984494">
                <ele>4298.0</ele>
                <time>2008-06-25T16:34:28.000Z</time>
                <name>Position 3647</name>
            </trkpt>
            <trkpt lon="-105.04398322" lat="38.83987164">
                <ele>4298.0</ele>
                <time>2008-06-25T16:34:29.000Z</time>
                <name>Position 3648</name>
            </trkpt>
            <trkpt lon="-105.04388332" lat="38.83989823">
                <ele>4298.0</ele>
                <time>2008-06-25T16:34:30.000Z</time>
                <name>Position 3649</name>
            </trkpt>
            <trkpt lon="-105.04378331" lat="38.83992326">
                <ele>4298.0</ele>
                <time>2008-06-25T16:34:31.000Z</time>
                <name>Position 3650</name>
            </trkpt>
            <trkpt lon="-105.04368663" lat="38.83994663">
                <ele>4297.0</ele>
                <time>2008-06-25T16:34:32.000Z</time>
                <name>Position 3651</name>
            </trkpt>
            <trkpt lon="-105.04359829" lat="38.83996665">
                <ele>4297.0</ele>
                <time>2008-06-25T16:34:33.000Z</time>
                <name>Position 3652</name>
            </trkpt>
            <trkpt lon="-105.04352164" lat="38.83998489">
                <ele>4297.0</ele>
                <time>2008-06-25T16:34:34.000Z</time>
                <name>Position 3653</name>
            </trkpt>
            <trkpt lon="-105.04346323" lat="38.83999825">
                <ele>4297.0</ele>
                <time>2008-06-25T16:34:35.000Z</time>
                <name>Position 3654</name>
            </trkpt>
            <trkpt lon="-105.04342663" lat="38.84000659">
                <ele>4297.0</ele>
                <time>2008-06-25T16:34:36.000Z</time>
                <name>Position 3655</name>
            </trkpt>
            <trkpt lon="-105.04340494" lat="38.84001327">
                <ele>4297.0</ele>
                <time>2008-06-25T16:34:37.000Z</time>
                <name>Position 3656</name>
            </trkpt>
            <trkpt lon="-105.04339159" lat="38.8400166">
                <ele>4297.0</ele>
                <time>2008-06-25T16:34:38.000Z</time>
                <name>Position 3657</name>
            </trkpt>
            <trkpt lon="-105.04337156" lat="38.84002161">
                <ele>4297.0</ele>
                <time>2008-06-25T16:34:40.000Z</time>
                <name>Position 3658</name>
            </trkpt>
            <trkpt lon="-105.04335499" lat="38.84002662">
                <ele>4297.0</ele>
                <time>2008-06-25T16:34:41.000Z</time>
                <name>Position 3659</name>
            </trkpt>
            <trkpt lon="-105.0433383" lat="38.84002995">
                <ele>4297.0</ele>
                <time>2008-06-25T16:34:42.000Z</time>
                <name>Position 3660</name>
            </trkpt>
            <trkpt lon="-105.04331326" lat="38.84003997">
                <ele>4297.0</ele>
                <time>2008-06-25T16:34:56.000Z</time>
                <name>Position 3661</name>
            </trkpt>
            <trkpt lon="-105.04327822" lat="38.84004998">
                <ele>4297.0</ele>
                <time>2008-06-25T16:34:57.000Z</time>
                <name>Position 3662</name>
            </trkpt>
            <trkpt lon="-105.04322994" lat="38.84006488">
                <ele>4297.0</ele>
                <time>2008-06-25T16:34:58.000Z</time>
                <name>Position 3663</name>
            </trkpt>
            <trkpt lon="-105.04317665" lat="38.84008324">
                <ele>4297.0</ele>
                <time>2008-06-25T16:34:59.000Z</time>
                <name>Position 3664</name>
            </trkpt>
            <trkpt lon="-105.04312325" lat="38.84010327">
                <ele>4297.0</ele>
                <time>2008-06-25T16:35:00.000Z</time>
                <name>Position 3665</name>
            </trkpt>
            <trkpt lon="-105.0430733" lat="38.84011829">
                <ele>4297.0</ele>
                <time>2008-06-25T16:35:01.000Z</time>
                <name>Position 3666</name>
            </trkpt>
            <trkpt lon="-105.04302824" lat="38.84012997">
                <ele>4297.0</ele>
                <time>2008-06-25T16:35:02.000Z</time>
                <name>Position 3667</name>
            </trkpt>
            <trkpt lon="-105.0429883" lat="38.84014332">
                <ele>4297.0</ele>
                <time>2008-06-25T16:35:03.000Z</time>
                <name>Position 3668</name>
            </trkpt>
            <trkpt lon="-105.04295325" lat="38.84016323">
                <ele>4297.0</ele>
                <time>2008-06-25T16:35:04.000Z</time>
                <name>Position 3669</name>
            </trkpt>
            <trkpt lon="-105.04292655" lat="38.8401916">
                <ele>4297.0</ele>
                <time>2008-06-25T16:35:05.000Z</time>
                <name>Position 3670</name>
            </trkpt>
            <trkpt lon="-105.04290831" lat="38.84022999">
                <ele>4296.0</ele>
                <time>2008-06-25T16:35:06.000Z</time>
                <name>Position 3671</name>
            </trkpt>
            <trkpt lon="-105.0429033" lat="38.84027326">
                <ele>4296.0</ele>
                <time>2008-06-25T16:35:07.000Z</time>
                <name>Position 3672</name>
            </trkpt>
            <trkpt lon="-105.04290998" lat="38.84031832">
                <ele>4296.0</ele>
                <time>2008-06-25T16:35:08.000Z</time>
                <name>Position 3673</name>
            </trkpt>
            <trkpt lon="-105.04292822" lat="38.84036493">
                <ele>4297.0</ele>
                <time>2008-06-25T16:35:09.000Z</time>
                <name>Position 3674</name>
            </trkpt>
            <trkpt lon="-105.04295492" lat="38.84040833">
                <ele>4297.0</ele>
                <time>2008-06-25T16:35:10.000Z</time>
                <name>Position 3675</name>
            </trkpt>
            <trkpt lon="-105.04298496" lat="38.84044993">
                <ele>4292.0</ele>
                <time>2008-06-25T16:35:11.000Z</time>
                <name>Position 3676</name>
            </trkpt>
            <trkpt lon="-105.04301655" lat="38.84048831">
                <ele>4292.0</ele>
                <time>2008-06-25T16:35:12.000Z</time>
                <name>Position 3677</name>
            </trkpt>
            <trkpt lon="-105.04304659" lat="38.84052324">
                <ele>4292.0</ele>
                <time>2008-06-25T16:35:13.000Z</time>
                <name>Position 3678</name>
            </trkpt>
            <trkpt lon="-105.04306996" lat="38.84055328">
                <ele>4292.0</ele>
                <time>2008-06-25T16:35:14.000Z</time>
                <name>Position 3679</name>
            </trkpt>
            <trkpt lon="-105.04308999" lat="38.84058166">
                <ele>4292.0</ele>
                <time>2008-06-25T16:35:15.000Z</time>
                <name>Position 3680</name>
            </trkpt>
            <trkpt lon="-105.04311323" lat="38.84060824">
                <ele>4292.0</ele>
                <time>2008-06-25T16:35:16.000Z</time>
                <name>Position 3681</name>
            </trkpt>
            <trkpt lon="-105.04314327" lat="38.84063661">
                <ele>4292.0</ele>
                <time>2008-06-25T16:35:17.000Z</time>
                <name>Position 3682</name>
            </trkpt>
            <trkpt lon="-105.04317832" lat="38.84066331">
                <ele>4292.0</ele>
                <time>2008-06-25T16:35:18.000Z</time>
                <name>Position 3683</name>
            </trkpt>
            <trkpt lon="-105.04321659" lat="38.84068656">
                <ele>4292.0</ele>
                <time>2008-06-25T16:35:19.000Z</time>
                <name>Position 3684</name>
            </trkpt>
            <trkpt lon="-105.04325664" lat="38.84070492">
                <ele>4292.0</ele>
                <time>2008-06-25T16:35:20.000Z</time>
                <name>Position 3685</name>
            </trkpt>
            <trkpt lon="-105.04329658" lat="38.84071994">
                <ele>4292.0</ele>
                <time>2008-06-25T16:35:21.000Z</time>
                <name>Position 3686</name>
            </trkpt>
            <trkpt lon="-105.04333496" lat="38.84073162">
                <ele>4292.0</ele>
                <time>2008-06-25T16:35:22.000Z</time>
                <name>Position 3687</name>
            </trkpt>
            <trkpt lon="-105.04337323" lat="38.84074163">
                <ele>4292.0</ele>
                <time>2008-06-25T16:35:23.000Z</time>
                <name>Position 3688</name>
            </trkpt>
            <trkpt lon="-105.04341495" lat="38.84075332">
                <ele>4292.0</ele>
                <time>2008-06-25T16:35:24.000Z</time>
                <name>Position 3689</name>
            </trkpt>
            <trkpt lon="-105.04345489" lat="38.840765">
                <ele>4292.0</ele>
                <time>2008-06-25T16:35:25.000Z</time>
                <name>Position 3690</name>
            </trkpt>
            <trkpt lon="-105.0434916" lat="38.8407799">
                <ele>4292.0</ele>
                <time>2008-06-25T16:35:26.000Z</time>
                <name>Position 3691</name>
            </trkpt>
            <trkpt lon="-105.04351997" lat="38.84079826">
                <ele>4292.0</ele>
                <time>2008-06-25T16:35:27.000Z</time>
                <name>Position 3692</name>
            </trkpt>
            <trkpt lon="-105.04353833" lat="38.84081662">
                <ele>4292.0</ele>
                <time>2008-06-25T16:35:28.000Z</time>
                <name>Position 3693</name>
            </trkpt>
            <trkpt lon="-105.0435499" lat="38.84082997">
                <ele>4292.0</ele>
                <time>2008-06-25T16:35:29.000Z</time>
                <name>Position 3694</name>
            </trkpt>
        </trkseg>
    </trk>
</gpx>
